# Wetter Temperatur Luftdruck Luftfeuchtigkeit Sichtweite Windgeschwindigkeit Windrichtung Zeit
1 Clear 4 1028 87 10000 1.03 0 06:52 17.01.2021
2 Clear 5 1029 87 10000 2.57 40 04:28 17.01.2021
3 Clear 7 1027 79 10000 1.34 7 02:42 17.01.2021
4 Clear 8 1028 78 10000 0.89 25 00:47 17.01.2021
5 Clear 7 1029 93 10000 2.09 39 00:18 17.01.2021
6 Clear 8 1029 93 10000 0.51 60 23:48 16.01.2021
7 Clear 8 1029 87 10000 2.1 39 23:19 16.01.2021
8 Clear 8 1029 87 10000 0.51 0 22:36 16.01.2021
9 Clear 9 1028 76 10000 1.03 360 21:58 16.01.2021
10 Clear 10 1028 76 10000 3.09 45 21:25 16.01.2021
11 Clear 10 1028 71 10000 1.54 50 20:59 16.01.2021
12 Clear 9 1028 76 10000 2.57 80 20:41 16.01.2021
13 Clear 10 1028 76 10000 2.57 80 20:19 16.01.2021
14 Clear 11 1027 66 10000 2.06 20 19:42 16.01.2021
15 Clear 12 1027 66 10000 2.06 20 19:24 16.01.2021
16 Clear 13 1027 58 10000 1.54 20 18:42 16.01.2021
17 Clear 15 1027 51 10000 2.06 40 18:24 16.01.2021
18 Clear 16 1027 48 10000 3.09 30 17:46 16.01.2021
19 Clear 16 1026 41 10000 2.57 60 17:28 16.01.2021
20 Clear 16 1027 41 10000 3.6 70 16:45 16.01.2021
21 Clear 16 1027 41 10000 4.12 60 16:26 16.01.2021
22 Clear 16 1027 41 10000 4.12 60 16:26 16.01.2021
23 Clear 16 1027 39 10000 4.63 50 15:48 16.01.2021
24 Clear 15 1027 44 10000 3.6 60 15:20 16.01.2021
25 Clear 14 1028 54 10000 3.6 40 14:21 16.01.2021
26 Clear 13 1028 54 10000 4.12 40 13:48 16.01.2021
27 Clear 12 1029 58 10000 5.14 50 13:21 16.01.2021
28 Clear 10 1030 71 10000 3.09 40 12:39 16.01.2021
29 Clear 10 1030 71 10000 3.09 40 12:20 16.01.2021
30 Clear 9 1030 76 10000 3.09 40 11:48 16.01.2021
31 Clear 7 1029 76 10000 2.57 30 11:25 16.01.2021
32 Clear 6 1029 81 10000 2.57 40 10:46 16.01.2021
33 Clear 4 1029 93 10000 1.03 0 10:22 16.01.2021
34 Clear 4 1028 100 9000 1.03 0 09:36 16.01.2021
35 Clear 3 1028 93 10000 1.03 0 08:47 16.01.2021
36 Clear 3 1027 100 10000 1.54 50 07:48 16.01.2021
37 Clear 4 1027 93 10000 2.26 35 06:43 16.01.2021
38 Clear 5 1027 93 9000 1.96 29 04:39 16.01.2021
39 Clear 6 1027 87 8000 2.06 50 02:56 16.01.2021
40 Clear 6 1026 82 10000 0.89 13 00:51 16.01.2021
41 Clear 6 1026 82 10000 0.89 15 00:29 16.01.2021
42 Clear 6 1027 87 9000 2.28 5 23:58 15.01.2021
43 Clear 7 1027 93 10000 0.51 20 23:22 15.01.2021
44 Clear 8 1026 93 10000 1.54 40 22:25 15.01.2021
45 Clear 8 1026 87 10000 0.51 0 21:46 15.01.2021
46 Clear 8 1027 87 10000 1.03 0 21:22 15.01.2021
47 Clear 9 1027 87 10000 1.03 0 20:42 15.01.2021
48 Clear 9 1027 87 10000 1.03 0 20:42 15.01.2021
49 Clear 9 1027 81 10000 1.03 0 20:22 15.01.2021
50 Clear 10 1026 71 10000 1.03 50 19:42 15.01.2021
51 Clear 11 1026 66 10000 0.51 0 19:24 15.01.2021
52 Clear 12 1026 66 10000 1.03 260 18:45 15.01.2021
53 Clear 13 1026 54 10000 1.03 0 18:20 15.01.2021
54 Clear 14 1026 54 10000 1.03 240 17:53 15.01.2021
55 Clear 15 1026 48 10000 1.17 190 17:27 15.01.2021
56 Clear 15 1026 44 10000 1.17 190 16:59 15.01.2021
57 Clear 15 1026 51 10000 1.03 0 16:40 15.01.2021
58 Clear 15 1026 50 10000 1.03 0 16:20 15.01.2021
59 Clear 14 1026 50 10000 1.03 0 15:37 15.01.2021
60 Clear 14 1026 50 10000 1.03 0 15:18 15.01.2021
61 Clear 13 1027 58 10000 1.03 0 14:38 15.01.2021
62 Clear 13 1027 58 10000 1.03 0 14:18 15.01.2021
63 Clear 11 1028 66 10000 1.03 0 13:40 15.01.2021
64 Clear 11 1028 66 10000 1.03 0 13:19 15.01.2021
65 Clear 9 1029 66 10000 1.54 30 12:45 15.01.2021
66 Clear 8 1029 71 10000 2.06 40 12:22 15.01.2021
67 Clear 6 1029 81 10000 1.54 60 11:42 15.01.2021
68 Clear 5 1029 87 10000 2.06 30 11:18 15.01.2021
69 Clear 4 1029 87 10000 2.06 30 10:48 15.01.2021
70 Clear 4 1029 93 10000 1.54 50 10:21 15.01.2021
71 Clear 3 1028 93 8000 1.54 50 09:48 15.01.2021
72 Clear 2 1028 93 10000 1.54 20 09:29 15.01.2021
73 Clear 3 1028 93 10000 2.57 360 08:28 15.01.2021
74 Clear 2 1028 93 10000 2.57 360 07:45 15.01.2021
75 Clear 2 1027 93 9000 1.54 10 07:23 15.01.2021
76 Clear 2 1027 100 6000 2.18 18 06:37 15.01.2021
77 Mist 4 1027 100 3400 0.51 30 02:45 15.01.2021
78 Fog 4 1028 93 4000 1.03 0 00:52 15.01.2021
79 Mist 5 1028 93 3000 1.54 130 23:42 14.01.2021
80 Clouds 6 1027 100 6000 1.73 1 22:58 14.01.2021
81 Clouds 6 1027 93 7000 0.51 0 22:40 14.01.2021
82 Clouds 6 1027 93 7000 0.51 0 22:21 14.01.2021
83 Clouds 7 1027 87 6000 1.03 140 21:42 14.01.2021
84 Clouds 7 1027 87 8000 1.03 0 21:21 14.01.2021
85 Clouds 7 1027 87 8000 1.03 0 20:48 14.01.2021
86 Clear 8 1027 81 10000 1.54 210 20:22 14.01.2021
87 Clear 9 1027 76 10000 2.57 230 19:43 14.01.2021
88 Clear 9 1027 66 10000 2.06 230 19:25 14.01.2021
89 Clear 10 1027 58 10000 1.54 230 18:51 14.01.2021
90 Clear 12 1027 62 10000 1.54 230 18:27 14.01.2021
91 Clear 12 1026 58 10000 1.54 230 17:46 14.01.2021
92 Clear 13 1026 54 10000 1.54 0 17:26 14.01.2021
93 Clear 13 1026 58 10000 1.54 230 16:43 14.01.2021
94 Clear 13 1027 58 10000 1.03 0 16:18 14.01.2021
95 Clear 12 1027 58 10000 1.03 0 15:45 14.01.2021
96 Clear 12 1027 66 10000 1.54 140 14:59 14.01.2021
97 Clear 11 1028 66 10000 1.03 0 14:38 14.01.2021
98 Clear 10 1028 66 10000 1.03 0 14:19 14.01.2021
99 Clear 10 1028 66 10000 0.01 18 13:53 14.01.2021
100 Clear 9 1029 71 10000 1.54 50 13:22 14.01.2021
101 Clear 8 1029 71 10000 1.03 0 12:51 14.01.2021
102 Clear 7 1030 76 10000 0.51 0 12:20 14.01.2021
103 Clear 6 1030 81 10000 1.54 40 11:50 14.01.2021
104 Clear 4 1029 87 10000 2.06 60 11:21 14.01.2021
105 Clear 4 1029 87 10000 2.06 50 10:54 14.01.2021
106 Clear 2 1029 93 10000 1.54 50 10:35 14.01.2021
107 Clear 2 1029 93 10000 1.03 0 09:59 14.01.2021
108 Clear 2 1029 93 10000 1.54 20 09:41 14.01.2021
109 Clear 1 1029 93 10000 1.54 20 09:18 14.01.2021
110 Clear 1 1029 93 10000 2.06 10 08:28 14.01.2021
111 Clear 1 1029 93 10000 2.06 360 07:50 14.01.2021
112 Clear 1 1029 100 9000 1.87 36 06:59 14.01.2021
113 Clear 2 1029 100 9000 0.51 0 06:24 14.01.2021
114 Clear 3 1029 93 8000 1.03 130 02:51 14.01.2021
115 Clear 5 1030 87 10000 1.54 110 23:56 13.01.2021
116 Clear 5 1030 93 10000 1.54 130 23:24 13.01.2021
117 Clear 6 1029 81 10000 0.64 334 22:43 13.01.2021
118 Clear 7 1029 76 10000 3.09 190 22:20 13.01.2021
119 Clear 7 1029 76 10000 3.6 220 21:42 13.01.2021
120 Clear 8 1029 66 10000 2.57 200 21:19 13.01.2021
121 Clear 7 1029 81 10000 1.54 190 20:48 13.01.2021
122 Clear 9 1029 57 10000 2.06 210 20:22 13.01.2021
123 Clear 10 1029 50 10000 2.57 210 19:47 13.01.2021
124 Clear 9 1029 61 10000 2.06 210 19:23 13.01.2021
125 Clear 12 1029 40 10000 1.54 200 18:45 13.01.2021
126 Clear 14 1029 35 10000 0.51 230 18:23 13.01.2021
127 Clear 16 1029 31 10000 0.81 208 17:41 13.01.2021
128 Clear 14 1029 33 10000 1.03 250 17:18 13.01.2021
129 Clear 14 1029 38 10000 1.03 0 16:42 13.01.2021
130 Clear 13 1029 44 10000 0.51 0 16:21 13.01.2021
131 Clear 14 1029 44 10000 0.51 0 15:41 13.01.2021
132 Clear 13 1029 44 10000 0.51 0 15:20 13.01.2021
133 Clear 12 1030 46 10000 1.54 60 14:28 13.01.2021
134 Clear 10 1030 53 10000 2.06 30 13:47 13.01.2021
135 Clear 9 1031 53 10000 3.09 60 13:25 13.01.2021
136 Clear 8 1031 57 10000 2.57 50 12:46 13.01.2021
137 Clear 7 1032 57 10000 3.6 40 12:24 13.01.2021
138 Clear 6 1032 65 10000 2.57 40 11:51 13.01.2021
139 Clear 6 1032 70 10000 2.57 50 11:33 13.01.2021
140 Clear 4 1031 75 10000 1.03 0 10:49 13.01.2021
141 Clear 3 1031 81 10000 1.03 0 10:28 13.01.2021
142 Clear 2 1031 80 10000 2.06 360 09:49 13.01.2021
143 Clear 2 1031 80 10000 2.57 30 09:26 13.01.2021
144 Clear 2 1030 86 10000 3.09 40 08:45 13.01.2021
145 Clear 2 1030 93 10000 1.54 30 08:23 13.01.2021
146 Clear 2 1030 80 10000 2.06 360 07:29 13.01.2021
147 Clear 2 1030 93 10000 0.51 0 06:21 13.01.2021
148 Clear 3 1030 93 10000 2.06 30 04:19 13.01.2021
149 Clear 3 1030 87 10000 2.06 30 03:44 13.01.2021
150 Clear 3 1030 93 10000 1.03 20 03:22 13.01.2021
151 Clear 5 1029 80 10000 0.89 351 00:54 13.01.2021
152 Clear 5 1031 81 10000 1.03 40 23:44 12.01.2021
153 Clear 5 1031 87 10000 0.51 0 23:20 12.01.2021
154 Clear 5 1030 87 10000 1.03 60 22:45 12.01.2021
155 Clear 5 1030 87 10000 1.03 60 22:23 12.01.2021
156 Clear 5 1030 87 10000 1.03 0 21:49 12.01.2021
157 Clear 6 1030 75 10000 1.03 40 21:26 12.01.2021
158 Clear 6 1030 87 10000 1.54 30 20:49 12.01.2021
159 Clear 8 1029 76 10000 1.03 20 20:27 12.01.2021
160 Clear 8 1029 70 10000 0.51 0 19:47 12.01.2021
161 Clear 9 1029 76 10000 2.06 30 19:27 12.01.2021
162 Clear 10 1029 62 10000 2.06 40 18:44 12.01.2021
163 Clear 11 1029 58 10000 2.06 30 18:23 12.01.2021
164 Clear 11 1029 54 10000 1.03 0 17:40 12.01.2021
165 Clear 12 1029 54 10000 1.03 0 17:22 12.01.2021
166 Clear 12 1029 54 10000 1.54 80 16:43 12.01.2021
167 Clear 12 1029 58 10000 2.57 30 16:23 12.01.2021
168 Clear 11 1029 58 10000 2.57 30 15:39 12.01.2021
169 Clear 11 1029 58 10000 2.57 30 15:18 12.01.2021
170 Clear 10 1029 58 10000 3.09 30 14:41 12.01.2021
171 Clear 10 1030 57 10000 3.6 50 14:21 12.01.2021
172 Clear 9 1030 61 10000 4.12 60 13:52 12.01.2021
173 Clear 8 1031 61 10000 3.6 40 12:55 12.01.2021
174 Clear 7 1031 61 10000 4.63 40 12:22 12.01.2021
175 Clear 6 1031 65 10000 5.14 50 11:41 12.01.2021
176 Clear 4 1030 70 10000 4.63 40 10:55 12.01.2021
177 Clear 3 1030 70 10000 3.6 30 10:25 12.01.2021
178 Clear 2 1030 70 10000 4.12 30 09:58 12.01.2021
179 Clear 2 1030 75 10000 4.12 30 09:38 12.01.2021
180 Clear 2 1030 75 10000 4.12 30 09:18 12.01.2021
181 Clear 2 1029 80 10000 3.09 30 08:26 12.01.2021
182 Clear 2 1028 75 10000 3.09 20 07:37 12.01.2021
183 Clear 2 1028 93 10000 2.57 30 06:50 12.01.2021
184 Clear 3 1028 87 10000 0.51 0 05:34 12.01.2021
185 Clear 3 1027 87 10000 1.54 50 03:28 12.01.2021
186 Clear 3 1027 87 10000 1.54 50 03:28 12.01.2021
187 Clear 3 1027 93 10000 1.03 100 02:21 12.01.2021
188 Clear 4 1027 93 10000 2.07 24 01:31 12.01.2021
189 Clear 6 1026 81 10000 1.03 0 23:58 11.01.2021
190 Clear 6 1026 81 10000 1.03 350 23:37 11.01.2021
191 Clear 6 1026 81 10000 1.03 350 23:18 11.01.2021
192 Clear 6 1025 75 10000 0.51 0 22:45 11.01.2021
193 Clear 6 1025 81 10000 2.64 14 22:27 11.01.2021
194 Clear 7 1024 75 10000 0.51 0 21:43 11.01.2021
195 Clear 7 1024 75 10000 1.03 30 21:25 11.01.2021
196 Clear 7 1024 70 10000 1.54 40 20:49 11.01.2021
197 Clear 8 1023 71 10000 1.54 40 20:30 11.01.2021
198 Clear 9 1023 61 10000 1.03 0 19:58 11.01.2021
199 Clear 9 1022 76 10000 0.51 30 19:35 11.01.2021
200 Clear 10 1022 62 10000 0.51 110 18:47 11.01.2021
201 Clear 13 1022 50 10000 0.51 190 18:28 11.01.2021
202 Clear 12 1022 54 10000 0.51 0 17:57 11.01.2021
203 Clear 13 1021 50 10000 0.51 300 17:39 11.01.2021
204 Clear 12 1021 50 10000 0.51 300 17:20 11.01.2021
205 Clear 12 1021 50 10000 1.03 0 16:47 11.01.2021
206 Clear 12 1021 54 10000 3.6 50 16:28 11.01.2021
207 Clear 12 1021 54 10000 3.6 50 15:50 11.01.2021
208 Clear 12 1021 54 10000 3.6 50 15:32 11.01.2021
209 Clear 11 1020 58 10000 3.6 60 14:41 11.01.2021
210 Clear 11 1020 58 10000 3.6 60 14:22 11.01.2021
211 Clear 10 1021 62 10000 4.12 40 13:44 11.01.2021
212 Clear 10 1021 62 10000 4.12 40 13:21 11.01.2021
213 Clear 9 1021 61 10000 4.12 50 12:41 11.01.2021
214 Clear 9 1021 71 10000 3.09 70 12:22 11.01.2021
215 Clear 8 1021 71 10000 2.57 80 11:44 11.01.2021
216 Clear 6 1020 75 10000 2.57 60 10:55 11.01.2021
217 Clear 6 1020 81 10000 2.57 40 10:35 11.01.2021
218 Clear 5 1019 87 10000 2.57 30 09:48 11.01.2021
219 Clear 3 1018 87 10000 2.57 30 09:29 11.01.2021
220 Clear 3 1018 87 10000 3.09 30 08:52 11.01.2021
221 Clear 3 1018 87 10000 2.57 20 08:33 11.01.2021
222 Clear 3 1017 81 10000 2.57 10 07:45 11.01.2021
223 Clear 3 1017 87 10000 2.57 40 07:25 11.01.2021
224 Clear 3 1017 87 10000 1.54 100 06:49 11.01.2021
225 Clear 6 1015 93 10000 2.54 8 02:30 11.01.2021
226 Clear 7 1015 87 10000 1.03 0 00:41 11.01.2021
227 Clear 6 1015 93 10000 1.54 90 23:48 10.01.2021
228 Clear 7 1014 81 10000 1.54 80 22:59 10.01.2021
229 Clear 7 1014 87 10000 0.51 0 22:40 10.01.2021
230 Clear 7 1014 87 10000 0.51 0 22:19 10.01.2021
231 Clear 7 1013 87 10000 3.79 14 21:40 10.01.2021
232 Clear 7 1013 87 10000 3.98 6 21:18 10.01.2021
233 Clear 7 1013 81 10000 1.54 360 20:49 10.01.2021
234 Clear 7 1013 81 10000 2.06 350 20:27 10.01.2021
235 Clear 7 1012 76 10000 2.06 330 19:42 10.01.2021
236 Clear 8 1012 81 10000 0.51 0 19:23 10.01.2021
237 Clear 8 1012 71 10000 0.51 0 18:45 10.01.2021
238 Clouds 8 1011 66 10000 1.03 0 18:20 10.01.2021
239 Clouds 9 1011 62 10000 2.06 10 17:26 10.01.2021
240 Clouds 9 1011 66 10000 2.06 100 16:51 10.01.2021
241 Clouds 9 1010 66 10000 1.54 70 16:31 10.01.2021
242 Clouds 8 1010 61 10000 3.6 70 15:43 10.01.2021
243 Clouds 8 1010 61 10000 2.57 90 15:24 10.01.2021
244 Clouds 8 1010 71 10000 3.09 70 14:43 10.01.2021
245 Clouds 7 1010 81 10000 1.54 40 14:24 10.01.2021
246 Clouds 7 1010 81 10000 1.03 0 13:54 10.01.2021
247 Clouds 6 1011 87 10000 1.54 40 13:36 10.01.2021
248 Clouds 6 1011 87 10000 1.54 40 13:18 10.01.2021
249 Clouds 6 1011 81 10000 1.03 0 12:41 10.01.2021
250 Clouds 5 1011 87 10000 0.51 0 11:58 10.01.2021
251 Clouds 5 1011 87 10000 2.06 30 11:22 10.01.2021
252 Clouds 5 1010 93 10000 1.54 30 10:58 10.01.2021
253 Clouds 4 1009 93 10000 0.51 0 10:28 10.01.2021
254 Clouds 3 1009 100 10000 1.03 90 09:57 10.01.2021
255 Clouds 3 1008 100 10000 1.54 110 09:18 10.01.2021
256 Clouds 3 1007 93 10000 1.54 110 08:19 10.01.2021
257 Clouds 3 1007 93 10000 2.57 110 07:28 10.01.2021
258 Clouds 3 1007 93 10000 2.57 120 06:19 10.01.2021
259 Clear 3 1006 87 10000 2.57 220 05:35 10.01.2021
260 Clouds 3 1006 87 10000 3.09 220 02:56 10.01.2021
261 Clear 5 1005 93 10000 2.57 160 00:48 10.01.2021
262 Clouds 5 1005 87 10000 1.54 280 23:47 09.01.2021
263 Clouds 6 1005 93 10000 2.06 100 23:28 09.01.2021
264 Clouds 6 1005 93 10000 0.51 270 22:44 09.01.2021
265 Clouds 6 1005 93 10000 2.06 170 22:18 09.01.2021
266 Clouds 6 1005 87 10000 2.06 160 21:56 09.01.2021
267 Clouds 5 1005 87 10000 2.57 130 21:38 09.01.2021
268 Clouds 5 1005 87 10000 2.57 130 21:18 09.01.2021
269 Clear 5 1004 87 10000 1.54 100 20:39 09.01.2021
270 Clear 7 1004 75 10000 1.03 40 19:45 09.01.2021
271 Clear 6 1004 81 10000 0.14 255 19:22 09.01.2021
272 Clear 8 1004 66 10000 2.06 310 18:52 09.01.2021
273 Clear 9 1004 57 10000 2.57 300 18:33 09.01.2021
274 Clear 10 1004 57 10000 3.6 280 17:48 09.01.2021
275 Clear 10 1004 53 10000 4.12 280 17:30 09.01.2021
276 Clear 10 1004 50 10000 6.17 260 16:36 09.01.2021
277 Clouds 10 1004 57 10000 4.12 220 15:52 09.01.2021
278 Clouds 10 1004 61 10000 5.14 220 15:33 09.01.2021
279 Clouds 9 1004 57 10000 5.14 220 14:41 09.01.2021
280 Clear 9 1004 66 10000 2.57 190 14:20 09.01.2021
281 Clear 9 1005 71 10000 3.09 210 13:49 09.01.2021
282 Clear 8 1005 66 10000 4.12 210 13:31 09.01.2021
283 Clear 8 1006 71 10000 3.6 220 12:55 09.01.2021
284 Clear 7 1006 76 10000 4.63 220 12:26 09.01.2021
285 Clear 7 1006 75 10000 3.6 220 11:56 09.01.2021
286 Clouds 6 1006 75 10000 2.57 220 11:35 09.01.2021
287 Clouds 5 1006 81 10000 3.09 230 10:55 09.01.2021
288 Clouds 5 1005 81 10000 3.09 230 10:37 09.01.2021
289 Clouds 5 1005 81 10000 3.09 230 10:37 09.01.2021
290 Clouds 4 1005 87 10000 4.12 250 09:59 09.01.2021
291 Clouds 4 1005 87 10000 5.14 260 09:40 09.01.2021
292 Clouds 4 1005 87 10000 5.14 260 09:18 09.01.2021
293 Clouds 5 1003 87 10000 3.6 240 07:46 09.01.2021
294 Drizzle 5 1003 100 7000 3.09 250 06:41 09.01.2021
295 Drizzle 5 1003 93 8000 2.57 270 06:22 09.01.2021
296 Mist 6 1002 93 5000 2.57 340 03:49 09.01.2021
297 Mist 6 1002 100 2000 2.06 310 02:40 09.01.2021
298 Mist 6 1002 100 2000 2.06 310 02:22 09.01.2021
299 Clouds 7 1001 93 10000 3.6 270 00:49 09.01.2021
300 Clouds 7 1001 100 10000 3.6 260 00:23 09.01.2021
301 Drizzle 7 1000 100 10000 2.06 300 23:38 08.01.2021
302 Drizzle 7 999 93 9000 3.09 320 22:38 08.01.2021
303 Clouds 7 999 100 10000 4.12 320 21:52 08.01.2021
304 Drizzle 8 998 93 8000 3.09 360 20:59 08.01.2021
305 Clouds 8 998 93 5000 3.6 360 20:33 08.01.2021
306 Mist 8 997 93 5000 4.12 10 19:57 08.01.2021
307 Clouds 7 997 93 7000 6.17 10 19:24 08.01.2021
308 Mist 8 997 93 5000 4.12 290 18:54 08.01.2021
309 Clouds 8 997 93 7000 6.69 20 18:32 08.01.2021
310 Mist 8 997 100 2000 7.2 50 17:53 08.01.2021
311 Mist 8 997 100 5000 6.17 40 17:25 08.01.2021
312 Mist 8 997 100 2000 6.17 40 16:47 08.01.2021
313 Rain 8 998 100 3500 4.63 10 15:49 08.01.2021
314 Rain 8 998 100 3500 4.63 10 15:29 08.01.2021
315 Rain 8 999 93 4000 6.17 30 14:40 08.01.2021
316 Rain 8 999 93 4000 6.17 30 14:40 08.01.2021
317 Rain 7 1000 93 3000 7.2 30 13:50 08.01.2021
318 Rain 8 1001 93 3500 8.23 40 13:22 08.01.2021
319 Rain 7 1002 93 5000 7.2 40 12:52 08.01.2021
320 Rain 7 1002 93 4000 8.23 40 12:22 08.01.2021
321 Rain 7 1003 93 6000 7.72 40 11:50 08.01.2021
322 Rain 7 1003 93 6000 6.69 30 11:30 08.01.2021
323 Rain 7 1003 93 4000 6.17 30 10:56 08.01.2021
324 Rain 7 1003 93 4000 6.69 30 10:38 08.01.2021
325 Clouds 7 1003 100 5000 7.72 40 09:53 08.01.2021
326 Rain 7 1003 100 4000 6.69 40 09:34 08.01.2021
327 Clouds 7 1004 93 5000 7.2 30 08:42 08.01.2021
328 Clouds 7 1003 93 10000 8.23 40 07:29 08.01.2021
329 Rain 7 1004 93 10000 7.72 60 06:46 08.01.2021
330 Rain 7 1007 93 10000 6.17 50 00:44 08.01.2021
331 Rain 7 1008 93 10000 5.14 40 23:43 07.01.2021
332 Rain 7 1008 93 10000 5.14 50 22:55 07.01.2021
333 Rain 7 1008 93 10000 6.17 50 22:36 07.01.2021
334 Rain 7 1008 93 10000 5.66 50 21:50 07.01.2021
335 Rain 7 1008 93 10000 5.14 50 21:30 07.01.2021
336 Rain 7 1008 93 10000 5.14 60 20:52 07.01.2021
337 Rain 7 1008 93 10000 5.14 70 20:34 07.01.2021
338 Rain 8 1008 87 10000 5.66 70 19:49 07.01.2021
339 Rain 7 1008 87 10000 5.14 70 19:26 07.01.2021
340 Rain 8 1008 93 10000 5.14 70 18:47 07.01.2021
341 Rain 8 1008 93 10000 5.14 70 18:20 07.01.2021
342 Rain 8 1008 93 10000 5.14 60 17:36 07.01.2021
343 Clouds 8 1008 93 10000 5.14 60 17:18 07.01.2021
344 Clouds 8 1008 87 10000 4.63 60 16:42 07.01.2021
345 Clouds 8 1008 87 10000 6.69 50 16:18 07.01.2021
346 Clouds 8 1008 87 10000 6.69 50 15:31 07.01.2021
347 Clouds 8 1008 87 10000 6.69 50 15:31 07.01.2021
348 Clouds 8 1008 93 10000 5.66 40 14:39 07.01.2021
349 Clouds 8 1008 93 10000 5.66 40 14:20 07.01.2021
350 Clouds 8 1008 93 10000 5.14 40 13:31 07.01.2021
351 Rain 8 1007 91 10000 3.13 72 12:56 07.01.2021
352 Clouds 8 1009 93 10000 7.2 40 12:29 07.01.2021
353 Rain 8 1009 93 10000 7.2 40 11:48 07.01.2021
354 Rain 8 1009 93 10000 6.2 40 11:29 07.01.2021
355 Clouds 8 1008 87 10000 4.6 40 10:39 07.01.2021
356 Clouds 8 1008 87 10000 4.6 40 10:19 07.01.2021
357 Clouds 8 1007 87 10000 5.7 60 09:42 07.01.2021
358 Clouds 7 1007 93 10000 5.7 50 08:53 07.01.2021
359 Drizzle 7 1007 87 8000 6.7 40 08:24 07.01.2021
360 Clouds 7 1006 87 7000 5.1 50 07:43 07.01.2021
361 Rain 7 1006 93 10000 3.6 40 06:51 07.01.2021
362 Rain 7 1006 93 10000 5.7 60 03:34 07.01.2021
363 Rain 7 1008 93 10000 4.6 70 00:25 07.01.2021
364 Rain 7 1008 93 10000 5.1 60 23:36 06.01.2021
365 Rain 8 1008 93 10000 3.6 70 22:37 06.01.2021
366 Rain 8 1008 87 10000 5.1 80 21:42 06.01.2021
367 Rain 8 1008 87 10000 5.1 80 21:23 06.01.2021
368 Rain 8 1008 87 10000 5.1 80 20:51 06.01.2021
369 Rain 9 1008 81 10000 5.7 60 20:24 06.01.2021
370 Rain 9 1008 81 10000 5.7 60 19:49 06.01.2021
371 Rain 10 1008 66 10000 6.2 70 19:29 06.01.2021
372 Rain 10 1008 66 10000 7.2 70 18:59 06.01.2021
373 Rain 10 1008 57 10000 6.2 50 18:39 06.01.2021
374 Rain 11 1008 62 10000 5.7 60 18:18 06.01.2021
375 Rain 11 1008 57 10000 5.1 50 17:41 06.01.2021
376 Rain 11 1008 57 10000 5.1 50 17:21 06.01.2021
377 Clouds 12 1008 58 10000 5.7 50 16:40 06.01.2021
378 Clouds 12 1008 58 10000 5.7 60 16:19 06.01.2021
379 Clouds 12 1008 58 10000 5.7 60 15:49 06.01.2021
380 Clouds 12 1008 57 10000 6.2 60 15:26 06.01.2021
381 Clouds 11 1009 57 10000 5.1 50 14:42 06.01.2021
382 Clouds 10 1010 61 10000 4.1 50 14:19 06.01.2021
383 Clouds 10 1011 57 10000 4.1 50 13:42 06.01.2021
384 Clouds 9 1011 57 10000 4.1 50 13:20 06.01.2021
385 Clouds 8 1012 65 10000 4.6 60 12:46 06.01.2021
386 Clouds 7 1012 58 10000 5.7 50 11:51 06.01.2021
387 Clouds 5 1012 60 10000 3.1 40 11:24 06.01.2021
388 Clouds 5 1012 75 10000 3.1 50 10:46 06.01.2021
389 Clouds 5 1011 80 10000 2.6 40 09:58 06.01.2021
390 Clouds 4 1011 86 10000 2.6 30 09:40 06.01.2021
391 Clear 4 1011 86 10000 2.1 30 08:56 06.01.2021
392 Clear 4 1011 86 10000 2.1 20 08:21 06.01.2021
393 Clear 4 1011 86 10000 1 30 07:54 06.01.2021
394 Clear 4 1010 86 10000 1.5 20 06:46 06.01.2021
395 Clear 4 1010 77 10000 1.5 360 05:32 06.01.2021
396 Clear 4 1010 76 10000 2.91 28 04:32 06.01.2021
397 Clear 5 1008 73 10000 1.34 23 02:46 06.01.2021
398 Clouds 5 1010 86 10000 1 0 02:23 06.01.2021
399 Clear 5 1010 86 10000 2.6 50 00:31 06.01.2021
400 Clear 6 1010 80 10000 3.1 50 23:28 05.01.2021
401 Clear 6 1010 86 10000 3.1 50 22:41 05.01.2021
402 Clear 6 1010 86 10000 3.1 50 22:20 05.01.2021
403 Clear 6 1010 86 10000 3.1 40 21:55 05.01.2021
404 Clear 8 1010 81 10000 2.6 30 20:49 05.01.2021
405 Clear 8 1009 75 10000 2.6 70 20:25 05.01.2021
406 Clear 9 1009 70 10000 2.6 50 19:44 05.01.2021
407 Clear 9 1009 70 10000 2.6 50 19:21 05.01.2021
408 Clear 10 1009 66 10000 3.1 50 18:44 05.01.2021
409 Clear 10 1009 66 10000 3.1 50 18:25 05.01.2021
410 Clear 11 1009 62 10000 3.6 60 17:50 05.01.2021
411 Clear 11 1009 62 10000 3.6 60 17:29 05.01.2021
412 Clear 11 1009 66 10000 3.1 60 16:53 05.01.2021
413 Clear 11 1009 62 10000 3.6 60 16:22 05.01.2021
414 Clouds 11 1010 62 10000 3.6 40 15:51 05.01.2021
415 Clouds 11 1010 62 10000 3.6 40 15:26 05.01.2021
416 Clouds 11 1010 62 10000 3.6 40 14:46 05.01.2021
417 Clouds 11 1011 71 10000 3.1 50 13:51 05.01.2021
418 Clear 11 1011 66 10000 3.1 30 13:32 05.01.2021
419 Clear 10 1012 71 10000 3.1 40 12:50 05.01.2021
420 Clear 9 1012 76 10000 3.6 30 12:29 05.01.2021
421 Clear 8 1012 75 10000 3.6 30 11:49 05.01.2021
422 Clear 7 1013 87 10000 3.1 30 11:24 05.01.2021
423 Clear 7 1013 87 10000 3.1 30 11:24 05.01.2021
424 Clear 6 1013 87 10000 3.6 40 10:44 05.01.2021
425 Clear 5 1013 93 10000 2.6 30 09:59 05.01.2021
426 Clear 5 1012 93 10000 2.6 50 09:40 05.01.2021
427 Clear 4 1012 93 10000 2.6 40 08:45 05.01.2021
428 Clear 4 1012 93 10000 2.6 40 08:18 05.01.2021
429 Clouds 5 1012 93 9000 2.6 30 05:32 05.01.2021
430 Clouds 7 1012 87 10000 0.5 190 02:58 05.01.2021
431 Clouds 7 1013 93 10000 1.66 172 00:23 05.01.2021
432 Clear 8 1013 81 10000 2.1 200 23:42 04.01.2021
433 Clear 8 1013 81 10000 2.1 200 23:22 04.01.2021
434 Clouds 8 1013 93 10000 1 0 22:46 04.01.2021
435 Clouds 9 1013 87 10000 0.5 0 22:21 04.01.2021
436 Clouds 9 1013 76 10000 1.5 250 21:40 04.01.2021
437 Clouds 9 1013 76 10000 1.5 250 21:20 04.01.2021
438 Clouds 9 1014 71 10000 2.1 230 20:42 04.01.2021
439 Clouds 10 1014 71 10000 2.1 230 20:21 04.01.2021
440 Clouds 11 1013 62 10000 3.1 220 19:43 04.01.2021
441 Clouds 10 1013 62 10000 3.1 220 19:21 04.01.2021
442 Clear 11 1013 62 10000 2.6 210 18:46 04.01.2021
443 Clear 11 1013 62 10000 3.1 220 18:18 04.01.2021
444 Clear 12 1013 58 10000 2.6 210 17:39 04.01.2021
445 Clear 12 1013 58 10000 2.6 210 17:21 04.01.2021
446 Clouds 11 1013 62 10000 2.6 220 16:44 04.01.2021
447 Clouds 11 1014 62 10000 3.1 190 16:26 04.01.2021
448 Clouds 11 1014 62 10000 3.1 190 15:49 04.01.2021
449 Clouds 11 1014 62 10000 3.1 190 15:25 04.01.2021
450 Clear 10 1015 62 10000 1 0 14:21 04.01.2021
451 Clear 10 1016 66 10000 1 0 13:43 04.01.2021
452 Clear 9 1016 65 10000 0.5 0 13:20 04.01.2021
453 Clear 7 1017 75 10000 1 0 12:31 04.01.2021
454 Clear 6 1017 80 10000 1.5 50 11:53 04.01.2021
455 Clear 4 1017 86 10000 1.5 60 11:20 04.01.2021
456 Clear 3 1017 86 10000 1 30 10:47 04.01.2021
457 Clear 3 1017 80 10000 0.59 81 10:24 04.01.2021
458 Clear 2 1017 80 10000 0.59 81 09:49 04.01.2021
459 Clear 2 1017 88 10000 1 0 09:18 04.01.2021
460 Clear 1 1016 88 10000 1.5 20 08:41 04.01.2021
461 Clear 1 1016 100 10000 1 0 07:54 04.01.2021
462 Clouds 0 1016 100 8000 0.5 10 07:18 04.01.2021
463 Clear 2 1017 84 10000 0.68 325 05:21 04.01.2021
464 Clear 3 1017 81 10000 0.13 342 02:34 04.01.2021
465 Clear 4 1018 86 10000 0.5 150 00:29 04.01.2021
466 Clear 4 1018 93 10000 0.5 0 23:47 03.01.2021
467 Clear 5 1018 86 10000 0.5 0 23:19 03.01.2021
468 Clear 5 1018 86 10000 0.5 0 22:49 03.01.2021
469 Clear 6 1018 80 10000 1 0 22:30 03.01.2021
470 Clear 6 1018 80 10000 0.5 230 21:47 03.01.2021
471 Clear 7 1018 65 10000 2.1 210 21:25 03.01.2021
472 Clear 7 1018 61 10000 3.6 210 20:43 03.01.2021
473 Clear 8 1018 61 10000 3.6 210 20:24 03.01.2021
474 Clear 8 1018 66 10000 3.6 210 19:55 03.01.2021
475 Clear 9 1017 61 10000 3.1 200 19:34 03.01.2021
476 Clear 9 1017 57 10000 3.6 210 18:54 03.01.2021
477 Clear 10 1017 53 10000 3.6 210 18:36 03.01.2021
478 Clear 11 1017 50 10000 3.1 210 17:59 03.01.2021
479 Clear 12 1017 46 10000 3.1 210 17:40 03.01.2021
480 Clear 11 1017 46 10000 3.1 210 17:22 03.01.2021
481 Clear 12 1018 50 10000 3.1 220 16:42 03.01.2021
482 Clear 12 1018 50 10000 3.1 220 16:19 03.01.2021
483 Clear 12 1018 44 10000 3.1 230 15:45 03.01.2021
484 Clear 11 1018 45 10000 3.1 230 15:23 03.01.2021
485 Clear 11 1018 50 10000 2.1 230 14:50 03.01.2021
486 Clear 11 1019 53 10000 2.1 220 14:27 03.01.2021
487 Clear 9 1020 61 10000 0.5 260 13:40 03.01.2021
488 Clear 9 1020 65 10000 0.56 200 13:21 03.01.2021
489 Clear 7 1019 65 10000 0.45 92 12:24 03.01.2021
490 Clear 6 1021 57 10000 0.5 0 11:40 03.01.2021
491 Clear 5 1020 80 10000 0.89 315 11:22 03.01.2021
492 Clear 3 1020 64 10000 0.5 0 10:34 03.01.2021
493 Clear 2 1020 73 10000 1.47 40 09:55 03.01.2021
494 Clear 2 1020 92 10000 1 50 09:33 03.01.2021
495 Clear 2 1020 92 10000 1 30 08:57 03.01.2021
496 Clear 1 1019 92 10000 0.5 0 07:26 03.01.2021
497 Clear 2 1019 79 10000 0.5 90 05:42 03.01.2021
498 Clear 3 1019 74 10000 1 10 02:27 03.01.2021
499 Clear 3 1019 74 10000 1 10 02:27 03.01.2021
500 Clear 5 1019 74 10000 1.88 337 00:59 03.01.2021
501 Clear 5 1019 72 10000 1.54 335 23:54 02.01.2021
502 Clear 5 1019 70 10000 1 250 23:26 02.01.2021
503 Clear 6 1018 70 10000 1.68 351 22:50 02.01.2021
504 Clear 6 1018 70 10000 1 0 22:31 02.01.2021
505 Clear 6 1018 68 10000 1.5 310 21:49 02.01.2021
506 Clear 7 1018 68 10000 3.1 10 21:30 02.01.2021
507 Clear 8 1018 65 10000 3.6 20 20:49 02.01.2021
508 Clear 8 1017 62 10000 3.1 30 20:28 02.01.2021
509 Clear 8 1017 56 10000 1 20 19:52 02.01.2021
510 Clear 10 1017 46 10000 2.1 330 19:20 02.01.2021
511 Clear 11 1016 58 10000 2.1 330 18:53 02.01.2021
512 Clear 11 1016 59 10000 2.1 330 18:33 02.01.2021
513 Clouds 12 1016 40 10000 3.6 310 17:57 02.01.2021
514 Clouds 12 1016 46 10000 3.1 260 17:38 02.01.2021
515 Clouds 13 1016 46 10000 3.6 260 16:53 02.01.2021
516 Clear 13 1016 46 10000 3.6 270 16:23 02.01.2021
517 Clear 12 1016 46 10000 3.6 270 15:53 02.01.2021
518 Clear 12 1016 40 10000 3.6 270 15:31 02.01.2021
519 Clear 12 1016 41 10000 3.1 260 14:54 02.01.2021
520 Clear 11 1017 53 10000 3.6 280 14:34 02.01.2021
521 Clear 11 1016 57 10000 1.34 258 13:44 02.01.2021
522 Clear 10 1018 65 10000 1 270 13:18 02.01.2021
523 Clear 9 1018 75 10000 1 0 12:43 02.01.2021
524 Clear 8 1018 75 10000 1 0 12:24 02.01.2021
525 Clear 8 1017 71 10000 0.45 191 11:43 02.01.2021
526 Clear 7 1017 74 10000 1.45 315 11:21 02.01.2021
527 Clear 6 1017 83 10000 0.45 226 10:42 02.01.2021
528 Clear 5 1018 86 10000 0.5 250 10:24 02.01.2021
529 Clear 3 1017 76 10000 1.25 317 09:43 02.01.2021
530 Clear 2 1017 85 10000 1.21 316 09:21 02.01.2021
531 Clear 2 1017 85 10000 1.21 316 08:49 02.01.2021
532 Clear 3 1017 86 10000 1.23 322 08:19 02.01.2021
533 Clear 3 1016 86 10000 0.5 0 07:43 02.01.2021
534 Clear 3 1016 86 10000 0.5 0 07:19 02.01.2021
535 Clear 4 1016 93 10000 2.1 300 06:24 02.01.2021
536 Clear 5 1016 93 10000 2.02 309 04:27 02.01.2021
537 Clear 6 1016 81 10000 1.5 260 00:54 02.01.2021
538 Clear 6 1016 86 10000 0.5 0 00:35 02.01.2021
539 Clear 6 1016 81 10000 2.1 280 23:49 01.01.2021
540 Clear 7 1016 86 10000 1 0 23:20 01.01.2021
541 Clear 7 1016 87 10000 2.6 320 22:47 01.01.2021
542 Clouds 8 1015 75 10000 3.1 290 22:22 01.01.2021
543 Clouds 8 1015 75 10000 2.6 270 21:43 01.01.2021
544 Clouds 8 1015 75 10000 2.6 270 21:22 01.01.2021
545 Clouds 9 1015 70 10000 3.6 290 20:52 01.01.2021
546 Clouds 9 1015 70 10000 3.6 290 20:20 01.01.2021
547 Clouds 10 1014 62 10000 4.6 270 19:43 01.01.2021
548 Clouds 10 1014 62 10000 4.1 270 19:24 01.01.2021
549 Clouds 11 1014 62 10000 4.1 270 18:57 01.01.2021
550 Clouds 11 1014 54 10000 2.6 280 18:39 01.01.2021
551 Clouds 12 1014 54 10000 2.1 330 18:19 01.01.2021
552 Clear 12 1014 47 10000 2.6 270 17:41 01.01.2021
553 Clear 13 1014 54 10000 4.1 220 17:18 01.01.2021
554 Clear 13 1014 43 10000 3.6 260 16:38 01.01.2021
555 Clear 13 1014 43 10000 3.6 260 15:56 01.01.2021
556 Clear 13 1014 50 10000 3.6 250 15:37 01.01.2021
557 Clear 13 1015 50 10000 1.5 280 14:42 01.01.2021
558 Clear 12 1015 50 10000 1.5 280 14:19 01.01.2021
559 Clear 12 1016 57 10000 2.6 270 13:37 01.01.2021
560 Clear 11 1016 61 10000 2.6 280 12:48 01.01.2021
561 Clear 10 1017 66 10000 2.6 270 12:26 01.01.2021
562 Clear 9 1017 66 10000 2.6 250 11:40 01.01.2021
563 Clear 9 1017 66 10000 2.6 250 11:18 01.01.2021
564 Clear 8 1016 75 10000 1.5 240 10:52 01.01.2021
565 Clear 7 1016 87 10000 1.5 260 10:22 01.01.2021
566 Clear 5 1015 93 10000 2.6 270 09:24 01.01.2021
567 Clear 6 1015 87 10000 4.1 260 08:30 01.01.2021
568 Clear 7 1014 87 10000 4.6 270 06:46 01.01.2021
569 Clear 8 1015 93 10000 3.6 270 04:50 01.01.2021
570 Clear 9 1015 87 10000 4.6 250 01:43 01.01.2021
571 Clouds 9 1016 87 10000 3.1 250 00:32 01.01.2021
572 Clear 9 1016 93 10000 2.1 190 23:41 31.12.2020
573 Clear 9 1016 93 10000 2.1 190 23:21 31.12.2020
574 Clouds 8 1017 93 10000 0.5 190 22:42 31.12.2020
575 Clouds 8 1017 93 10000 0.5 190 22:23 31.12.2020
576 Clear 9 1017 93 10000 2.1 240 21:57 31.12.2020
577 Clear 9 1017 87 10000 3.6 230 21:39 31.12.2020
578 Clear 9 1017 87 10000 3.6 230 21:20 31.12.2020
579 Clouds 11 1017 81 10000 4.1 240 20:31 31.12.2020
580 Clouds 11 1017 81 10000 5.1 250 19:51 31.12.2020
581 Clouds 11 1018 71 10000 3.6 230 19:33 31.12.2020
582 Clouds 12 1018 66 10000 3.6 210 18:56 31.12.2020
583 Clouds 11 1018 62 10000 3.1 210 18:26 31.12.2020
584 Clear 11 1018 58 10000 2.6 190 17:59 31.12.2020
585 Clear 12 1018 62 10000 3.1 220 17:40 31.12.2020
586 Clear 12 1018 62 10000 3.6 210 17:21 31.12.2020
587 Clear 13 1018 58 10000 3.1 230 16:39 31.12.2020
588 Clear 12 1018 58 10000 3.1 230 16:20 31.12.2020
589 Clear 13 1019 54 10000 2.1 210 15:43 31.12.2020
590 Clear 13 1019 54 10000 2.1 210 15:20 31.12.2020
591 Clear 12 1020 57 10000 1 250 14:43 31.12.2020
592 Clear 12 1020 57 10000 1 250 14:24 31.12.2020
593 Clear 12 1018 62 10000 0.45 178 13:59 31.12.2020
594 Clear 11 1021 66 10000 1 300 13:38 31.12.2020
595 Clear 10 1021 66 10000 1 300 13:19 31.12.2020
596 Clear 10 1021 70 10000 0.63 227 12:50 31.12.2020
597 Clear 9 1022 75 10000 1 0 12:32 31.12.2020
598 Clear 7 1022 81 10000 1 0 11:48 31.12.2020
599 Clear 6 1022 80 10000 1 0 11:30 31.12.2020
600 Clear 5 1021 86 10000 0.5 0 10:46 31.12.2020
601 Clear 4 1021 93 10000 0.5 0 10:27 31.12.2020
602 Clear 3 1021 74 10000 1.5 320 09:50 31.12.2020
603 Clear 3 1021 100 10000 1 0 09:26 31.12.2020
604 Clear 3 1021 82 10000 2.1 20 08:50 31.12.2020
605 Clear 3 1021 82 10000 2.1 20 08:31 31.12.2020
606 Clear 3 1020 82 10000 1.5 40 07:56 31.12.2020
607 Clear 3 1020 80 10000 1.5 30 07:27 31.12.2020
608 Clear 3 1020 93 10000 1 30 05:30 31.12.2020
609 Clear 4 1021 93 10000 0.5 0 03:38 31.12.2020
610 Clear 5 1021 93 10000 0.5 30 02:45 31.12.2020
611 Clear 5 1019 76 10000 0.89 4 02:25 31.12.2020
612 Clear 5 1021 86 10000 2.19 9 01:43 31.12.2020
613 Clear 5 1021 86 10000 2.24 8 01:22 31.12.2020
614 Clear 6 1021 86 10000 1.94 11 00:44 31.12.2020
615 Clear 6 1021 80 10000 1.5 350 23:48 30.12.2020
616 Clear 6 1021 86 10000 0.5 0 23:19 30.12.2020
617 Clear 6 1021 86 10000 1 80 22:48 30.12.2020
618 Clear 6 1021 86 10000 1 120 22:30 30.12.2020
619 Clear 7 1021 86 10000 0.5 80 21:44 30.12.2020
620 Clear 7 1021 86 10000 0.5 80 21:22 30.12.2020
621 Clear 8 1020 81 10000 1.5 120 20:50 30.12.2020
622 Clear 9 1020 70 10000 1.71 21 20:20 30.12.2020
623 Clear 8 1020 81 10000 1.71 21 19:41 30.12.2020
624 Clear 9 1020 81 10000 1.76 31 19:22 30.12.2020
625 Clear 11 1020 46 10000 1.76 31 18:46 30.12.2020
626 Clear 11 1020 46 10000 1.76 31 18:46 30.12.2020
627 Clear 11 1020 46 10000 2.22 23 18:28 30.12.2020
628 Clear 13 1019 50 10000 2.22 23 17:51 30.12.2020
629 Clear 13 1019 50 10000 2.22 23 17:51 30.12.2020
630 Clear 13 1019 50 10000 1 0 17:32 30.12.2020
631 Clear 13 1020 47 10000 0.5 140 16:58 30.12.2020
632 Clear 13 1020 43 10000 2.08 11 16:33 30.12.2020
633 Clear 12 1020 50 10000 1.5 0 15:48 30.12.2020
634 Clear 12 1020 50 10000 1.5 0 15:25 30.12.2020
635 Clear 12 1021 50 10000 3.1 40 14:44 30.12.2020
636 Clear 11 1021 50 10000 3.1 40 14:24 30.12.2020
637 Clear 10 1021 53 10000 2.1 20 13:42 30.12.2020
638 Clear 9 1022 61 10000 1 0 12:44 30.12.2020
639 Clear 9 1022 70 10000 1 0 12:22 30.12.2020
640 Clear 8 1022 81 10000 0.5 0 11:38 30.12.2020
641 Clear 7 1021 81 10000 1.22 23 11:19 30.12.2020
642 Clear 7 1021 81 10000 1.22 23 10:49 30.12.2020
643 Clear 6 1021 86 10000 0.5 0 10:29 30.12.2020
644 Clear 3 1020 100 10000 0.5 0 09:50 30.12.2020
645 Clear 2 1020 100 10000 0.5 0 09:30 30.12.2020
646 Fog 2 1020 100 300 1 230 08:35 30.12.2020
647 Clear 2 1019 100 10000 1 140 07:31 30.12.2020
648 Clear 3 1018 82 10000 2.6 140 06:53 30.12.2020
649 Clear 3 1018 93 10000 2.1 170 06:32 30.12.2020
650 Clear 4 1018 93 10000 0.5 0 05:44 30.12.2020
651 Clear 4 1018 93 10000 0.5 0 05:25 30.12.2020
652 Clear 5 1017 86 10000 0.5 190 03:28 30.12.2020
653 Clear 6 1016 86 10000 2.41 336 02:43 30.12.2020
654 Clear 6 1016 86 10000 2.81 329 02:25 30.12.2020
655 Clear 7 1016 86 10000 2.6 320 01:34 30.12.2020
656 Clear 7 1016 81 10000 2.6 320 00:51 30.12.2020
657 Clear 7 1016 81 10000 2.1 330 00:32 30.12.2020
658 Clear 8 1016 81 10000 1.5 290 23:58 29.12.2020
659 Clear 8 1016 75 10000 2.1 300 23:40 29.12.2020
660 Clear 8 1016 75 10000 2.1 300 23:21 29.12.2020
661 Clear 8 1015 81 10000 1.5 300 22:44 29.12.2020
662 Clear 9 1015 76 10000 3.6 290 22:23 29.12.2020
663 Clear 9 1015 76 10000 3.6 290 21:50 29.12.2020
664 Clear 9 1014 70 10000 3.1 290 21:32 29.12.2020
665 Clear 10 1014 70 10000 1.5 300 20:55 29.12.2020
666 Clear 10 1014 81 10000 1.5 80 20:36 29.12.2020
667 Clear 10 1013 75 10000 0.5 0 20:18 29.12.2020
668 Clouds 11 1013 66 10000 1.5 330 19:38 29.12.2020
669 Clouds 11 1013 66 10000 1.5 330 19:20 29.12.2020
670 Clouds 12 1012 58 10000 5.1 330 18:46 29.12.2020
671 Clouds 12 1012 58 10000 5.1 330 18:27 29.12.2020
672 Clouds 14 1012 58 10000 5.1 320 17:44 29.12.2020
673 Clouds 14 1012 58 10000 5.1 320 17:20 29.12.2020
674 Clouds 14 1011 51 10000 5.1 310 16:39 29.12.2020
675 Clouds 14 1011 54 10000 5.7 270 16:18 29.12.2020
676 Clouds 14 1011 58 10000 4.6 280 15:37 29.12.2020
677 Clouds 14 1011 58 10000 4.6 280 15:18 29.12.2020
678 Clouds 13 1012 58 10000 5.7 260 14:37 29.12.2020
679 Clouds 13 1012 71 10000 3.6 230 14:19 29.12.2020
680 Clouds 13 1012 76 10000 3.6 220 13:48 29.12.2020
681 Clouds 12 1012 76 10000 3.6 220 13:21 29.12.2020
682 Clear 11 1013 81 10000 2.1 210 12:38 29.12.2020
683 Clear 11 1013 81 10000 2.1 210 12:20 29.12.2020
684 Clear 9 1013 87 10000 2.1 200 11:54 29.12.2020
685 Clear 8 1013 87 10000 2.1 200 11:31 29.12.2020
686 Clear 5 1012 100 10000 1.5 200 10:37 29.12.2020
687 Clouds 4 1012 100 9000 1 0 09:50 29.12.2020
688 Clouds 4 1012 93 9000 1 0 09:28 29.12.2020
689 Clear 4 1012 93 10000 0.5 0 08:55 29.12.2020
690 Clear 4 1012 100 10000 1.5 200 08:36 29.12.2020
691 Clear 5 1011 93 10000 2.1 190 07:30 29.12.2020
692 Clear 5 1011 93 10000 1.5 220 06:48 29.12.2020
693 Clear 5 1011 86 10000 1 0 05:33 29.12.2020
694 Clear 7 1012 87 10000 1 0 01:27 29.12.2020
695 Clear 8 1012 87 10000 0.5 250 00:24 29.12.2020
696 Clear 8 1011 81 10000 2.6 260 23:36 28.12.2020
697 Clear 8 1011 75 10000 3.1 300 22:41 28.12.2020
698 Clear 9 1011 75 10000 2.6 300 21:47 28.12.2020
699 Clear 9 1011 75 10000 3.1 280 21:29 28.12.2020
700 Clear 10 1010 62 10000 4.1 280 20:47 28.12.2020
701 Clear 10 1010 66 10000 3.1 280 20:29 28.12.2020
702 Clear 11 1010 71 10000 2.1 290 19:59 28.12.2020
703 Clear 11 1009 58 10000 3.6 280 19:41 28.12.2020
704 Clear 11 1009 58 10000 3.6 280 19:21 28.12.2020
705 Clear 12 1009 54 10000 4.6 280 18:48 28.12.2020
706 Clear 13 1009 47 10000 4.6 290 18:26 28.12.2020
707 Clouds 14 1009 47 10000 6.2 310 17:41 28.12.2020
708 Clouds 15 1009 47 10000 7.2 330 17:18 28.12.2020
709 Clouds 15 1009 51 10000 4.6 290 16:33 28.12.2020
710 Clouds 15 1009 51 10000 4.6 290 15:59 28.12.2020
711 Clouds 15 1009 51 10000 4.6 290 15:40 28.12.2020
712 Clouds 15 1009 58 10000 3.6 290 14:47 28.12.2020
713 Clouds 15 1010 71 10000 3.6 280 13:51 28.12.2020
714 Clouds 14 1010 71 10000 5.1 290 13:24 28.12.2020
715 Clouds 14 1011 71 10000 5.7 290 12:40 28.12.2020
716 Clouds 14 1011 71 10000 5.7 290 12:20 28.12.2020
717 Clouds 14 1011 76 10000 4.1 270 11:45 28.12.2020
718 Clouds 14 1010 76 10000 6.7 270 11:22 28.12.2020
719 Clouds 13 1010 76 10000 3.1 230 10:44 28.12.2020
720 Clouds 13 1010 76 10000 3.1 230 10:26 28.12.2020
721 Clouds 13 1010 76 10000 5.7 230 09:46 28.12.2020
722 Clouds 13 1010 81 10000 3.6 220 09:19 28.12.2020
723 Drizzle 12 1010 76 8000 4.6 250 07:30 28.12.2020
724 Clouds 12 1009 71 10000 5.7 230 06:48 28.12.2020
725 Clouds 8 1012 76 10000 6.7 230 04:26 28.12.2020
726 Clear 7 1014 87 10000 2.6 220 01:57 28.12.2020
727 Clouds 7 1014 81 10000 3.1 220 00:30 28.12.2020
728 Clear 7 1014 81 10000 3.1 220 23:46 27.12.2020
729 Clear 7 1014 75 10000 3.1 220 23:19 27.12.2020
730 Clear 7 1015 75 10000 3.1 220 21:57 27.12.2020
731 Clear 7 1015 75 10000 3.1 220 21:57 27.12.2020
732 Clear 8 1015 70 10000 4.1 220 21:26 27.12.2020
733 Clear 8 1015 76 10000 4.1 220 20:47 27.12.2020
734 Clear 9 1015 66 10000 2.6 200 19:46 27.12.2020
735 Clear 10 1015 66 10000 2.1 200 19:21 27.12.2020
736 Clear 11 1015 57 10000 3.1 220 18:41 27.12.2020
737 Clear 11 1015 57 10000 3.1 220 18:19 27.12.2020
738 Clear 12 1016 50 10000 3.1 220 17:43 27.12.2020
739 Clear 13 1016 50 10000 3.1 220 17:24 27.12.2020
740 Clear 13 1016 47 10000 1.5 180 16:35 27.12.2020
741 Clear 13 1017 50 10000 1.5 230 15:56 27.12.2020
742 Clear 12 1018 53 10000 1 340 14:59 27.12.2020
743 Clear 12 1018 53 10000 1 0 14:41 27.12.2020
744 Clear 11 1019 61 10000 1.5 20 14:19 27.12.2020
745 Clear 10 1020 57 10000 1.5 10 13:22 27.12.2020
746 Clear 9 1021 57 10000 2.1 20 12:47 27.12.2020
747 Clear 8 1021 61 10000 2.6 30 12:18 27.12.2020
748 Clear 7 1022 51 10000 3.6 60 11:39 27.12.2020
749 Clear 6 1022 57 10000 2.1 40 10:52 27.12.2020
750 Clear 5 1021 65 10000 1.5 30 10:25 27.12.2020
751 Clear 4 1021 65 10000 2.6 50 09:53 27.12.2020
752 Clear 3 1021 74 10000 2.6 30 08:50 27.12.2020
753 Clear 3 1021 74 10000 2.6 20 08:26 27.12.2020
754 Clear 3 1021 73 10000 2.6 350 07:27 27.12.2020
755 Clear 4 1021 73 10000 0.5 270 05:46 27.12.2020
756 Clear 4 1022 71 10000 1 0 04:58 27.12.2020
757 Clear 4 1022 67 10000 3.6 60 03:22 27.12.2020
758 Clear 5 1023 80 10000 2.1 70 01:35 27.12.2020
759 Clear 6 1024 63 10000 3.1 50 00:25 27.12.2020
760 Clear 6 1024 80 10000 2.1 20 23:41 26.12.2020
761 Clear 6 1024 80 10000 2.1 20 23:21 26.12.2020
762 Clear 7 1024 75 10000 1.5 50 22:38 26.12.2020
763 Clear 7 1023 64 10000 1.79 1 22:18 26.12.2020
764 Clear 7 1023 64 10000 1.79 1 22:18 26.12.2020
765 Clear 7 1023 63 10000 0.89 327 21:52 26.12.2020
766 Clear 8 1024 70 10000 2.6 50 21:24 26.12.2020
767 Clear 8 1024 58 10000 2.1 50 20:43 26.12.2020
768 Clear 8 1024 56 10000 2.1 50 20:19 26.12.2020
769 Clear 10 1024 49 10000 1.5 60 19:29 26.12.2020
770 Clear 10 1024 46 10000 3.6 60 18:54 26.12.2020
771 Clear 11 1024 49 10000 2.6 70 18:32 26.12.2020
772 Clear 12 1024 37 10000 5.7 80 17:46 26.12.2020
773 Clear 12 1024 37 10000 5.7 80 17:27 26.12.2020
774 Clear 13 1024 34 10000 7.2 80 16:38 26.12.2020
775 Clear 12 1025 37 10000 7.2 80 15:58 26.12.2020
776 Clear 12 1025 34 10000 8.7 60 15:20 26.12.2020
777 Clear 12 1026 43 10000 9.8 70 14:30 26.12.2020
778 Clear 11 1026 43 10000 9.8 70 13:57 26.12.2020
779 Clear 11 1027 43 10000 10.3 70 13:37 26.12.2020
780 Clear 10 1027 46 10000 8.7 70 12:57 26.12.2020
781 Clear 10 1028 45 10000 10.3 60 12:39 26.12.2020
782 Clear 9 1028 45 10000 10.3 60 12:18 26.12.2020
783 Clear 8 1028 52 10000 8.7 60 11:42 26.12.2020
784 Clear 8 1028 52 10000 8.7 60 11:20 26.12.2020
785 Clear 7 1028 52 10000 7.2 60 10:46 26.12.2020
786 Clear 7 1027 52 10000 8.7 60 10:25 26.12.2020
787 Clear 6 1027 52 10000 8.7 60 09:47 26.12.2020
788 Clear 5 1026 52 10000 7.7 60 08:55 26.12.2020
789 Clear 5 1026 52 10000 7.2 60 08:19 26.12.2020
790 Clear 6 1026 48 10000 7.2 60 07:21 26.12.2020
791 Clear 6 1025 48 10000 5.1 60 05:38 26.12.2020
792 Clear 8 1026 52 10000 5.7 60 02:47 26.12.2020
793 Clear 8 1026 52 10000 5.1 50 00:39 26.12.2020
794 Clear 9 1026 48 10000 5.7 50 23:56 25.12.2020
795 Clear 9 1026 48 10000 4.1 50 23:37 25.12.2020
796 Clear 9 1026 47 10000 4.1 50 23:19 25.12.2020
797 Clear 10 1026 61 10000 4.1 50 22:26 25.12.2020
798 Clear 10 1025 61 10000 4.1 60 21:46 25.12.2020
799 Clear 11 1025 61 10000 4.6 60 21:28 25.12.2020
800 Clear 12 1025 57 10000 4.1 60 20:47 25.12.2020
801 Clear 12 1024 50 10000 5.7 60 20:27 25.12.2020
802 Clear 13 1023 50 10000 5.1 60 19:43 25.12.2020
803 Clear 13 1023 50 10000 5.1 60 19:43 25.12.2020
804 Clear 14 1023 54 10000 4.6 70 18:56 25.12.2020
805 Clear 14 1022 54 10000 6.2 70 18:37 25.12.2020
806 Clear 16 1022 51 10000 5.1 80 17:35 25.12.2020
807 Clear 16 1022 48 10000 6.2 70 16:56 25.12.2020
808 Clear 16 1021 51 10000 6.7 70 16:26 25.12.2020
809 Clear 16 1021 51 10000 7.2 60 15:57 25.12.2020
810 Clear 16 1021 48 10000 7.7 70 15:35 25.12.2020
811 Clear 16 1022 44 10000 8.7 70 14:46 25.12.2020
812 Clear 16 1022 51 10000 9.3 70 14:25 25.12.2020
813 Clear 15 1022 62 10000 8.7 70 13:44 25.12.2020
814 Clear 15 1022 62 10000 8.7 70 13:25 25.12.2020
815 Clear 14 1023 67 10000 7.2 60 12:35 25.12.2020
816 Clear 13 1023 76 10000 6.2 60 11:54 25.12.2020
817 Clear 12 1022 81 10000 5.1 60 11:31 25.12.2020
818 Clear 11 1022 93 10000 3.1 40 10:53 25.12.2020
819 Clear 10 1022 93 10000 3.6 50 10:24 25.12.2020
820 Clear 9 1021 100 10000 3.1 30 09:34 25.12.2020
821 Clouds 9 1021 100 9000 2.1 10 08:48 25.12.2020
822 Clouds 9 1021 100 9000 1.5 30 07:59 25.12.2020
823 Clouds 10 1021 93 7000 1.5 30 06:47 25.12.2020
824 Fog 10 1021 100 7000 1 0 03:49 25.12.2020
825 Mist 11 1021 93 4000 2.01 16 01:42 25.12.2020
826 Clouds 12 1021 93 6000 1 30 00:18 25.12.2020
827 Clouds 12 1021 100 7000 1.5 150 23:23 24.12.2020
828 Clouds 12 1021 100 7000 2.1 110 22:51 24.12.2020
829 Clouds 13 1021 93 9000 1 160 22:22 24.12.2020
830 Clear 14 1021 93 10000 1.5 100 21:36 24.12.2020
831 Clear 14 1021 93 10000 1.5 110 20:42 24.12.2020
832 Clear 15 1021 82 10000 0.5 70 19:19 24.12.2020
833 Clear 16 1021 77 10000 1 90 18:20 24.12.2020
834 Clear 17 1021 67 10000 0.2 302 17:37 24.12.2020
835 Clouds 18 1021 67 10000 0.5 0 16:59 24.12.2020
836 Clouds 18 1021 67 10000 1 0 16:24 24.12.2020
837 Clouds 17 1022 72 10000 0.5 0 15:43 24.12.2020
838 Clouds 17 1022 72 10000 0.5 0 15:21 24.12.2020
839 Clear 17 1022 72 10000 0.5 0 14:55 24.12.2020
840 Clear 17 1022 77 10000 1 0 14:24 24.12.2020
841 Clear 16 1023 77 10000 0.5 260 13:49 24.12.2020
842 Clear 16 1024 77 10000 1 0 13:30 24.12.2020
843 Clear 15 1024 82 10000 1 0 12:56 24.12.2020
844 Clear 16 1024 77 10000 1.37 318 12:37 24.12.2020
845 Clear 16 1024 77 10000 1.57 347 12:18 24.12.2020
846 Clouds 15 1024 93 7000 1.57 347 11:38 24.12.2020
847 Clouds 14 1024 93 7000 1.75 346 11:18 24.12.2020
848 Clouds 13 1023 88 10000 1.75 346 10:43 24.12.2020
849 Clouds 11 1024 93 7000 1.69 349 09:54 24.12.2020
850 Clouds 11 1024 100 8000 1.69 349 09:35 24.12.2020
851 Mist 10 1024 100 2500 1 110 08:48 24.12.2020
852 Fog 10 1023 100 4500 1 110 07:51 24.12.2020
853 Fog 10 1023 100 4500 1 110 07:51 24.12.2020
854 Mist 9 1023 100 4200 0.5 90 07:30 24.12.2020
855 Mist 9 1023 100 2500 0.5 300 06:23 24.12.2020
856 Mist 9 1024 100 2400 0.71 345 03:23 24.12.2020
857 Mist 9 1025 100 5000 1 110 01:48 24.12.2020
858 Clear 11 1025 93 10000 0.5 360 01:18 24.12.2020
859 Clear 11 1025 93 10000 0.5 360 01:18 24.12.2020
860 Clear 12 1025 93 10000 0.78 274 00:23 24.12.2020
861 Clear 13 1025 93 10000 1 0 23:57 23.12.2020
862 Clear 13 1025 93 10000 1 170 23:38 23.12.2020
863 Clear 13 1025 93 10000 1 170 23:19 23.12.2020
864 Clouds 13 1025 87 10000 0.5 0 22:42 23.12.2020
865 Clouds 14 1025 87 10000 0.5 0 22:21 23.12.2020
866 Clear 14 1025 93 10000 0.5 0 21:42 23.12.2020
867 Clear 14 1025 93 10000 0.5 0 21:21 23.12.2020
868 Clear 14 1025 87 10000 0.5 0 20:38 23.12.2020
869 Clear 14 1025 82 10000 0.5 0 20:19 23.12.2020
870 Clear 14 1025 82 10000 1.5 60 19:44 23.12.2020
871 Clear 14 1025 82 10000 1.5 60 19:23 23.12.2020
872 Clouds 14 1025 82 10000 2.1 10 18:56 23.12.2020
873 Clouds 15 1025 82 10000 1.5 20 18:35 23.12.2020
874 Clear 15 1025 82 10000 1.5 30 17:57 23.12.2020
875 Clear 15 1025 77 10000 1.5 20 17:36 23.12.2020
876 Clouds 15 1025 77 10000 1.5 30 17:18 23.12.2020
877 Clouds 15 1025 77 10000 2.1 10 16:39 23.12.2020
878 Clouds 15 1025 77 10000 2.1 10 16:21 23.12.2020
879 Clouds 15 1025 77 10000 2.1 10 15:40 23.12.2020
880 Clouds 15 1025 77 10000 2.1 10 15:22 23.12.2020
881 Clouds 15 1025 77 10000 1.5 10 14:58 23.12.2020
882 Clouds 14 1026 76 10000 2.1 20 14:37 23.12.2020
883 Clouds 14 1026 76 10000 2.1 20 14:18 23.12.2020
884 Clouds 13 1026 82 10000 2.1 20 13:42 23.12.2020
885 Clouds 13 1026 82 10000 2.1 20 13:19 23.12.2020
886 Clouds 12 1027 87 10000 2.1 20 12:46 23.12.2020
887 Clouds 12 1027 87 10000 1 0 12:21 23.12.2020
888 Clouds 11 1027 87 10000 3.1 40 11:46 23.12.2020
889 Clouds 10 1027 93 10000 2.1 10 11:19 23.12.2020
890 Clouds 10 1026 93 10000 2.1 10 10:42 23.12.2020
891 Clouds 10 1026 93 10000 2.1 10 10:23 23.12.2020
892 Clouds 9 1026 93 8000 1.5 30 09:33 23.12.2020
893 Clouds 10 1026 93 9000 1 40 08:45 23.12.2020
894 Clouds 10 1026 93 10000 1.5 10 08:20 23.12.2020
895 Clouds 10 1025 100 10000 1.5 360 07:27 23.12.2020
896 Clouds 10 1023 89 10000 0.89 50 06:39 23.12.2020
897 Clouds 10 1024 92 10000 0.45 331 05:28 23.12.2020
898 Clouds 10 1025 93 6000 0.5 50 04:56 23.12.2020
899 Clear 11 1025 93 10000 0.7 354 00:34 23.12.2020
900 Clear 11 1025 93 10000 0.5 0 23:58 22.12.2020
901 Clear 12 1025 93 10000 0.5 0 23:33 22.12.2020
902 Clouds 13 1024 83 10000 0.89 19 22:44 22.12.2020
903 Clear 12 1025 93 10000 1.5 120 22:25 22.12.2020
904 Clear 13 1025 93 10000 2.1 110 21:59 22.12.2020
905 Clear 13 1025 93 10000 2.1 110 21:41 22.12.2020
906 Clear 14 1025 93 10000 2.1 110 21:19 22.12.2020
907 Clear 14 1025 87 10000 1 0 20:48 22.12.2020
908 Clear 14 1025 87 10000 1 0 20:22 22.12.2020
909 Clear 15 1024 82 10000 0.5 250 19:46 22.12.2020
910 Clear 15 1024 82 10000 0.5 250 19:25 22.12.2020
911 Clear 16 1024 67 10000 2.1 270 18:55 22.12.2020
912 Clear 17 1024 77 10000 2.6 270 18:36 22.12.2020
913 Clear 18 1024 68 10000 1.5 270 18:18 22.12.2020
914 Clear 18 1024 68 10000 1.5 270 18:18 22.12.2020
915 Clear 19 1024 52 10000 2.6 280 17:36 22.12.2020
916 Clear 19 1024 48 10000 2.1 330 17:18 22.12.2020
917 Clear 20 1024 55 10000 1 360 16:44 22.12.2020
918 Clear 19 1024 55 10000 1.5 60 16:19 22.12.2020
919 Clear 19 1024 55 10000 1.5 60 15:45 22.12.2020
920 Clear 18 1024 55 10000 1.5 60 15:26 22.12.2020
921 Clear 18 1025 67 10000 2.6 20 14:46 22.12.2020
922 Clear 18 1025 67 10000 2.6 20 14:46 22.12.2020
923 Clear 17 1025 67 10000 2.6 20 14:28 22.12.2020
924 Clear 17 1025 67 10000 2.6 20 13:55 22.12.2020
925 Clear 16 1026 67 10000 2.1 70 13:36 22.12.2020
926 Clear 16 1026 72 10000 2.6 50 13:18 22.12.2020
927 Clear 15 1026 76 10000 2.6 50 12:42 22.12.2020
928 Clear 14 1026 76 10000 2.6 50 12:22 22.12.2020
929 Clear 14 1027 76 10000 3.1 30 11:56 22.12.2020
930 Clear 13 1027 76 10000 3.1 30 11:38 22.12.2020
931 Clear 13 1027 76 10000 3.1 30 11:19 22.12.2020
932 Clear 11 1026 81 10000 4.1 40 10:46 22.12.2020
933 Clear 11 1026 81 10000 4.1 40 10:23 22.12.2020
934 Clear 11 1026 81 10000 4.1 20 09:55 22.12.2020
935 Clear 10 1026 81 10000 2.6 40 09:21 22.12.2020
936 Clear 10 1026 81 10000 2.6 30 08:48 22.12.2020
937 Clear 10 1026 87 10000 2.6 30 08:27 22.12.2020
938 Clear 10 1026 87 10000 2.1 30 07:47 22.12.2020
939 Clear 10 1026 93 10000 1 60 06:38 22.12.2020
940 Clear 10 1026 93 10000 3.1 40 05:41 22.12.2020
941 Clear 11 1027 93 10000 2.8 36 02:51 22.12.2020
942 Clear 12 1028 93 10000 3.1 30 00:46 22.12.2020
943 Clear 12 1027 87 10000 0.89 352 23:52 21.12.2020
944 Clear 12 1028 87 10000 3.1 30 23:31 21.12.2020
945 Clear 13 1028 87 10000 3.1 50 22:38 21.12.2020
946 Clear 13 1027 83 10000 1.34 9 22:19 21.12.2020
947 Clear 13 1027 84 10000 0.45 340 21:59 21.12.2020
948 Clear 13 1028 87 10000 2.1 30 21:39 21.12.2020
949 Clear 14 1027 80 10000 0.45 11 21:19 21.12.2020
950 Clear 15 1027 78 10000 2.34 38 20:29 21.12.2020
951 Clear 14 1028 82 10000 1.5 20 19:59 21.12.2020
952 Clear 15 1028 87 10000 1 40 19:41 21.12.2020
953 Clear 15 1028 87 10000 1 40 19:19 21.12.2020
954 Clear 15 1028 72 10000 1 50 18:52 21.12.2020
955 Clear 16 1028 67 10000 2.1 60 18:34 21.12.2020
956 Clear 17 1028 63 10000 3.1 60 17:43 21.12.2020
957 Clear 18 1028 63 10000 3.1 60 17:24 21.12.2020
958 Clear 18 1028 63 10000 4.1 50 16:48 21.12.2020
959 Clear 18 1028 67 10000 4.1 50 16:27 21.12.2020
960 Clear 17 1028 67 10000 4.1 50 15:57 21.12.2020
961 Clear 17 1028 67 10000 4.1 50 15:37 21.12.2020
962 Clear 17 1028 72 10000 3.1 40 14:57 21.12.2020
963 Clear 16 1029 72 10000 3.1 40 14:22 21.12.2020
964 Clear 15 1029 72 10000 3.1 20 13:45 21.12.2020
965 Clear 15 1030 71 10000 4.6 30 13:27 21.12.2020
966 Clear 14 1030 71 10000 4.6 30 12:47 21.12.2020
967 Clear 13 1030 76 10000 5.1 40 12:25 21.12.2020
968 Clear 13 1030 81 10000 4.1 30 11:59 21.12.2020
969 Clear 12 1030 76 10000 3.1 20 11:40 21.12.2020
970 Clear 12 1030 76 10000 3.1 20 11:22 21.12.2020
971 Clear 11 1030 81 10000 4.6 30 10:55 21.12.2020
972 Clear 10 1030 87 10000 3.1 20 10:36 21.12.2020
973 Clear 9 1030 87 10000 3.1 10 09:51 21.12.2020
974 Clear 9 1029 93 10000 2.1 350 09:27 21.12.2020
975 Clear 8 1029 93 10000 2.1 360 08:58 21.12.2020
976 Clear 8 1029 93 10000 1 0 08:18 21.12.2020
977 Clear 9 1028 93 10000 2.1 40 06:48 21.12.2020
978 Clear 9 1029 93 8000 1 0 04:59 21.12.2020
979 Clear 10 1029 87 10000 1 20 03:46 21.12.2020
980 Clear 11 1029 93 10000 2.1 100 00:35 21.12.2020
981 Clear 11 1028 87 10000 1 0 23:39 20.12.2020
982 Clear 11 1028 87 10000 1 0 23:20 20.12.2020
983 Clear 12 1028 93 10000 2.13 30 22:43 20.12.2020
984 Clear 12 1028 93 10000 0.5 0 22:22 20.12.2020
985 Clear 12 1027 86 10000 0.45 2 21:41 20.12.2020
986 Clear 12 1027 93 10000 1.5 110 21:22 20.12.2020
987 Clear 12 1027 93 10000 1.5 110 20:57 20.12.2020
988 Clear 13 1027 87 10000 1.92 338 20:37 20.12.2020
989 Clear 13 1027 87 10000 1.31 319 20:18 20.12.2020
990 Clear 14 1027 82 10000 1.31 319 19:41 20.12.2020
991 Clear 14 1027 82 10000 1.4 289 19:20 20.12.2020
992 Clear 15 1026 67 10000 1 0 18:45 20.12.2020
993 Clear 16 1026 67 10000 1 0 18:27 20.12.2020
994 Clear 17 1026 63 10000 0.5 0 17:47 20.12.2020
995 Clear 17 1026 63 10000 1 0 17:28 20.12.2020
996 Clear 17 1026 67 10000 1 0 16:47 20.12.2020
997 Clear 17 1025 59 10000 0.5 0 16:28 20.12.2020
998 Clear 17 1025 59 10000 1.75 306 15:51 20.12.2020
999 Clear 17 1025 63 10000 0.5 0 15:27 20.12.2020
1000 Clouds 17 1025 72 10000 1 0 14:56 20.12.2020
1001 Clouds 16 1025 72 10000 1 0 14:35 20.12.2020
1002 Clear 16 1026 72 10000 0.5 340 13:56 20.12.2020
1003 Clear 15 1026 72 10000 0.5 0 13:36 20.12.2020
1004 Clear 15 1026 72 10000 0.5 0 13:18 20.12.2020
1005 Clear 14 1026 82 10000 2.6 30 12:44 20.12.2020
1006 Clear 13 1026 82 10000 2.6 30 12:21 20.12.2020
1007 Clear 13 1026 82 10000 2.6 20 11:45 20.12.2020
1008 Clear 13 1025 82 10000 1.5 20 11:26 20.12.2020
1009 Clear 13 1025 82 10000 1.5 20 10:49 20.12.2020
1010 Clear 12 1025 87 10000 0.5 0 10:21 20.12.2020
1011 Clouds 11 1024 93 10000 1 10 09:46 20.12.2020
1012 Clouds 11 1024 93 10000 1 10 09:46 20.12.2020
1013 Clouds 11 1024 93 10000 1.5 330 09:28 20.12.2020
1014 Clouds 11 1024 100 10000 2.1 320 08:59 20.12.2020
1015 Clouds 11 1024 93 10000 2.1 330 08:40 20.12.2020
1016 Clouds 11 1023 93 10000 1.5 350 07:59 20.12.2020
1017 Clouds 12 1023 93 10000 2.1 350 07:19 20.12.2020
1018 Mist 13 1021 100 3700 4.1 30 02:41 20.12.2020
1019 Drizzle 13 1021 93 10000 1.5 0 00:53 20.12.2020
1020 Clouds 14 1021 93 4000 4.6 180 23:36 19.12.2020
1021 Clouds 14 1021 93 4000 2.6 170 23:18 19.12.2020
1022 Drizzle 14 1021 93 8000 2.1 160 22:42 19.12.2020
1023 Drizzle 14 1021 93 8000 2.1 160 22:24 19.12.2020
1024 Drizzle 13 1021 93 8000 2.6 130 21:45 19.12.2020
1025 Clouds 13 1021 100 9000 1 0 21:26 19.12.2020
1026 Clouds 13 1021 93 7000 1.5 170 20:59 19.12.2020
1027 Mist 13 1021 93 4000 1 250 20:36 19.12.2020
1028 Mist 13 1021 93 4000 1 250 20:18 19.12.2020
1029 Mist 13 1021 93 3000 2.1 110 19:41 19.12.2020
1030 Mist 13 1021 93 3000 2.1 110 19:23 19.12.2020
1031 Mist 13 1021 93 4000 1.5 20 18:34 19.12.2020
1032 Clouds 13 1020 93 9000 1.5 20 17:57 19.12.2020
1033 Rain 13 1020 93 10000 2.72 170 17:37 19.12.2020
1034 Clouds 13 1020 93 10000 0.5 0 17:19 19.12.2020
1035 Clouds 13 1020 93 10000 1 0 16:40 19.12.2020
1036 Clouds 13 1020 93 10000 1 0 16:22 19.12.2020
1037 Clouds 13 1020 93 7000 1 0 15:54 19.12.2020
1038 Clouds 13 1020 93 7000 1 0 15:26 19.12.2020
1039 Clouds 12 1021 93 7000 1.5 160 14:40 19.12.2020
1040 Clouds 12 1021 93 7000 1.5 160 14:39 19.12.2020
1041 Rain 12 1022 93 7000 1 0 13:59 19.12.2020
1042 Rain 12 1022 93 7000 1 0 13:41 19.12.2020
1043 Rain 12 1022 93 7000 1 0 13:19 19.12.2020
1044 Rain 11 1023 93 4000 0.5 0 12:43 19.12.2020
1045 Mist 11 1023 93 4000 0.5 0 12:25 19.12.2020
1046 Mist 11 1023 100 5000 1.5 110 11:56 19.12.2020
1047 Rain 11 1023 100 5000 0.5 0 11:35 19.12.2020
1048 Rain 11 1023 93 5000 1 0 10:43 19.12.2020
1049 Mist 10 1022 100 4000 1 0 10:23 19.12.2020
1050 Mist 10 1022 100 4000 1 0 09:47 19.12.2020
1051 Clouds 10 1022 93 3000 0.5 0 09:29 19.12.2020
1052 Mist 10 1022 100 4000 0.5 0 08:36 19.12.2020
1053 Mist 9 1021 100 4000 1 40 07:25 19.12.2020
1054 Mist 9 1021 100 4000 1 70 06:53 19.12.2020
1055 Mist 9 1021 93 4000 1.5 100 06:20 19.12.2020
1056 Mist 9 1021 100 2300 0.31 68 05:18 19.12.2020
1057 Fog 9 1021 100 1400 0.5 0 03:20 19.12.2020
1058 Mist 10 1023 93 4000 0.5 20 00:40 19.12.2020
1059 Mist 10 1023 93 4000 0.5 20 00:18 19.12.2020
1060 Clear 10 1021 96 10000 0.89 7 23:48 18.12.2020
1061 Fog 10 1023 100 3000 0.5 0 23:23 18.12.2020
1062 Fog 11 1022 93 2000 0.5 0 22:46 18.12.2020
1063 Clear 11 1022 100 6000 1.53 270 22:24 18.12.2020
1064 Clear 11 1022 100 6000 1.53 270 21:50 18.12.2020
1065 Clear 11 1022 100 9000 1.53 270 21:31 18.12.2020
1066 Clear 12 1022 100 9000 2.1 120 20:42 18.12.2020
1067 Clear 12 1022 100 9000 2.1 120 20:21 18.12.2020
1068 Clear 12 1022 100 10000 2.1 90 19:45 18.12.2020
1069 Clear 12 1022 100 10000 2.1 90 19:21 18.12.2020
1070 Clear 13 1022 82 10000 1 20 18:43 18.12.2020
1071 Clear 13 1022 82 10000 1 20 18:24 18.12.2020
1072 Clouds 14 1022 82 10000 1 0 17:28 18.12.2020
1073 Clouds 14 1022 82 10000 1 0 16:57 18.12.2020
1074 Clouds 14 1022 87 10000 2.1 40 16:38 18.12.2020
1075 Clouds 14 1022 87 10000 2.1 40 16:20 18.12.2020
1076 Clouds 14 1022 87 10000 2.1 40 15:43 18.12.2020
1077 Clouds 14 1022 87 10000 2.1 40 15:24 18.12.2020
1078 Clouds 13 1023 87 9000 3.1 40 14:55 18.12.2020
1079 Clouds 12 1023 93 8000 3.1 40 14:23 18.12.2020
1080 Clouds 11 1023 100 6000 3.1 70 13:51 18.12.2020
1081 Clouds 11 1024 93 6000 2.1 60 13:31 18.12.2020
1082 Clouds 11 1024 93 6000 3.6 60 12:56 18.12.2020
1083 Mist 10 1025 93 5000 3.1 30 12:30 18.12.2020
1084 Clouds 9 1025 100 7000 3.1 30 11:27 18.12.2020
1085 Clear 9 1024 93 10000 1.5 360 10:40 18.12.2020
1086 Clear 9 1024 93 10000 1.5 360 10:21 18.12.2020
1087 Clouds 9 1024 93 10000 2.1 360 09:57 18.12.2020
1088 Clouds 8 1023 100 10000 2.1 10 09:36 18.12.2020
1089 Clouds 8 1023 100 10000 2.1 10 09:18 18.12.2020
1090 Clouds 8 1023 100 10000 1.5 350 08:43 18.12.2020
1091 Clouds 9 1023 100 10000 1.5 10 07:56 18.12.2020
1092 Clouds 9 1023 93 10000 2.6 40 07:19 18.12.2020
1093 Clouds 9 1023 100 10000 0.5 0 06:59 18.12.2020
1094 Mist 9 1024 93 4400 1.6 33 05:44 18.12.2020
1095 Clear 9 1024 100 7000 1 320 04:52 18.12.2020
1096 Clear 10 1024 93 10000 0.5 0 03:35 18.12.2020
1097 Clear 11 1024 100 10000 0.5 100 01:45 18.12.2020
1098 Clear 11 1024 100 10000 0.5 0 00:29 18.12.2020
1099 Clear 12 1024 100 10000 1 0 23:52 17.12.2020
1100 Clear 12 1024 93 10000 0.5 0 23:23 17.12.2020
1101 Clouds 12 1024 93 10000 1.95 356 22:48 17.12.2020
1102 Clouds 12 1024 93 10000 1.9 354 22:28 17.12.2020
1103 Clouds 12 1024 93 10000 1.9 354 21:46 17.12.2020
1104 Clouds 13 1024 93 10000 1.77 347 21:22 17.12.2020
1105 Clear 13 1023 85 10000 0.45 352 20:55 17.12.2020
1106 Clear 13 1023 93 10000 1.5 140 20:36 17.12.2020
1107 Clear 13 1023 93 10000 1.39 355 20:18 17.12.2020
1108 Clear 14 1023 87 10000 0.5 80 19:41 17.12.2020
1109 Clear 14 1023 87 10000 0.5 80 19:22 17.12.2020
1110 Clouds 15 1023 87 10000 1 80 18:41 17.12.2020
1111 Clouds 15 1023 87 10000 1 80 18:21 17.12.2020
1112 Clouds 16 1022 82 10000 1.5 70 17:49 17.12.2020
1113 Clouds 16 1022 77 10000 2.1 50 17:31 17.12.2020
1114 Clouds 16 1022 77 10000 2.1 60 16:42 17.12.2020
1115 Clouds 16 1022 72 10000 2.1 30 16:23 17.12.2020
1116 Clouds 16 1022 72 10000 2.1 30 15:51 17.12.2020
1117 Clouds 16 1022 72 10000 2.1 30 15:30 17.12.2020
1118 Clouds 15 1022 72 10000 2.1 40 14:54 17.12.2020
1119 Clouds 15 1022 77 10000 2.1 50 14:29 17.12.2020
1120 Clouds 15 1022 77 10000 2.6 50 13:51 17.12.2020
1121 Clouds 15 1023 87 10000 2.1 60 13:28 17.12.2020
1122 Clouds 14 1023 82 10000 2.6 30 12:44 17.12.2020
1123 Clouds 14 1023 87 10000 1.5 350 12:25 17.12.2020
1124 Clouds 13 1023 87 10000 1.5 350 11:45 17.12.2020
1125 Clear 13 1023 93 10000 1.5 10 11:24 17.12.2020
1126 Clouds 12 1022 100 9000 1 0 10:55 17.12.2020
1127 Mist 11 1021 100 5000 1.5 300 10:18 17.12.2020
1128 Mist 11 1021 100 3500 1.91 358 09:26 17.12.2020
1129 Fog 10 1020 100 1500 0.5 150 07:54 17.12.2020
1130 Fog 10 1020 100 1500 0.5 150 07:54 17.12.2020
1131 Fog 10 1020 100 700 1 280 07:34 17.12.2020
1132 Fog 11 1020 93 800 1.5 320 06:54 17.12.2020
1133 Mist 11 1019 100 4000 0.5 180 06:32 17.12.2020
1134 Mist 11 1019 100 1900 1.5 120 05:33 17.12.2020
1135 Clouds 12 1018 100 10000 2.1 30 00:38 17.12.2020
1136 Clouds 12 1017 100 10000 1.5 340 23:52 16.12.2020
1137 Clouds 12 1018 100 10000 1 10 23:20 16.12.2020
1138 Clouds 12 1017 93 10000 1 360 22:55 16.12.2020
1139 Clouds 12 1017 93 10000 1.5 250 22:34 16.12.2020
1140 Clear 12 1017 93 10000 2.1 230 21:52 16.12.2020
1141 Clouds 12 1016 100 10000 1 0 21:34 16.12.2020
1142 Clouds 12 1016 93 10000 1 0 20:55 16.12.2020
1143 Clouds 13 1016 93 10000 1.5 170 20:37 16.12.2020
1144 Clouds 13 1016 93 10000 1.5 170 20:18 16.12.2020
1145 Rain 13 1015 93 10000 2.6 160 19:20 16.12.2020
1146 Rain 13 1014 93 10000 3.1 140 18:54 16.12.2020
1147 Clouds 13 1014 93 10000 2.1 190 18:29 16.12.2020
1148 Rain 13 1014 93 4000 1.5 0 17:47 16.12.2020
1149 Rain 13 1014 87 10000 2.6 210 17:28 16.12.2020
1150 Clouds 14 1013 87 10000 2.6 240 16:40 16.12.2020
1151 Clouds 14 1013 93 10000 2.1 150 16:21 16.12.2020
1152 Clouds 14 1013 93 10000 2.1 150 15:51 16.12.2020
1153 Rain 14 1013 93 10000 2.1 150 15:28 16.12.2020
1154 Clouds 13 1013 93 4000 2.1 150 14:47 16.12.2020
1155 Clouds 13 1013 93 4000 2.1 150 14:28 16.12.2020
1156 Rain 13 1014 93 4000 2.6 160 13:49 16.12.2020
1157 Rain 12 1014 93 4900 1 0 13:30 16.12.2020
1158 Rain 14 1015 82 9000 0.5 0 12:56 16.12.2020
1159 Rain 13 1016 87 10000 1 0 12:36 16.12.2020
1160 Clouds 11 1015 87 10000 2.6 10 11:41 16.12.2020
1161 Clouds 12 1015 87 10000 2.6 10 11:22 16.12.2020
1162 Clouds 11 1015 87 10000 2.1 340 10:49 16.12.2020
1163 Clouds 10 1015 76 10000 1.5 20 10:26 16.12.2020
1164 Clouds 10 1015 87 10000 2.1 10 09:48 16.12.2020
1165 Clear 9 1015 87 10000 1 0 08:45 16.12.2020
1166 Clear 9 1015 93 10000 1 0 07:59 16.12.2020
1167 Clear 9 1015 87 10000 2.1 30 07:39 16.12.2020
1168 Clear 9 1015 93 10000 1 0 06:57 16.12.2020
1169 Clear 11 1016 93 10000 1.5 60 03:28 16.12.2020
1170 Clear 12 1017 87 10000 1.5 150 01:27 16.12.2020
1171 Clear 12 1018 87 10000 1.5 170 23:46 15.12.2020
1172 Clear 13 1018 87 10000 0.71 192 22:56 15.12.2020
1173 Clear 12 1018 81 10000 2.1 150 22:38 15.12.2020
1174 Clear 12 1018 87 10000 1.5 140 22:18 15.12.2020
1175 Clear 12 1018 87 10000 2.1 140 21:40 15.12.2020
1176 Clear 13 1018 87 10000 2.1 140 21:21 15.12.2020
1177 Clear 13 1018 81 10000 2.1 170 20:44 15.12.2020
1178 Clear 13 1018 81 10000 2.1 170 20:26 15.12.2020
1179 Clear 13 1018 81 10000 2.1 150 19:52 15.12.2020
1180 Clear 14 1018 76 10000 2.1 170 19:26 15.12.2020
1181 Clear 15 1018 63 10000 1.5 210 18:39 15.12.2020
1182 Clear 16 1018 63 10000 1.5 210 18:21 15.12.2020
1183 Clouds 16 1018 67 10000 1.5 230 17:46 15.12.2020
1184 Clouds 16 1018 67 10000 1.5 230 17:28 15.12.2020
1185 Clouds 16 1018 63 10000 0.5 0 16:58 15.12.2020
1186 Clouds 17 1018 63 10000 1.5 220 16:31 15.12.2020
1187 Clouds 17 1018 63 10000 1.5 220 15:50 15.12.2020
1188 Clouds 17 1018 63 10000 1.5 220 15:28 15.12.2020
1189 Clouds 16 1019 77 10000 2.1 190 14:43 15.12.2020
1190 Clouds 16 1019 77 10000 2.1 190 14:21 15.12.2020
1191 Clouds 16 1020 93 10000 0.5 0 13:51 15.12.2020
1192 Clouds 15 1020 93 10000 0.5 0 13:32 15.12.2020
1193 Clouds 14 1020 93 10000 1 0 12:47 15.12.2020
1194 Clouds 14 1020 93 10000 1 0 12:47 15.12.2020
1195 Clouds 13 1020 100 10000 1.5 100 12:20 15.12.2020
1196 Fog 12 1021 93 350 1.5 80 11:55 15.12.2020
1197 Fog 11 1020 100 200 1.5 40 11:26 15.12.2020
1198 Fog 11 1020 93 250 2.1 50 10:53 15.12.2020
1199 Fog 10 1020 100 500 1 80 10:24 15.12.2020
1200 Fog 10 1019 100 250 0.5 0 09:50 15.12.2020
1201 Fog 9 1019 100 100 0.71 316 09:32 15.12.2020
1202 Fog 10 1019 100 100 1.08 284 08:53 15.12.2020
1203 Fog 9 1018 100 400 0.5 40 08:26 15.12.2020
1204 Fog 9 1018 100 250 0.5 0 07:49 15.12.2020
1205 Fog 9 1018 100 250 0.5 0 07:49 15.12.2020
1206 Fog 10 1018 100 100 1 160 07:25 15.12.2020
1207 Fog 11 1017 100 150 0.5 0 06:33 15.12.2020
1208 Fog 12 1016 93 6000 2.1 220 03:29 15.12.2020
1209 Clouds 14 1015 93 10000 3.1 230 00:35 15.12.2020
1210 Clouds 14 1015 93 10000 2.1 230 23:26 14.12.2020
1211 Clouds 14 1014 93 8000 4.1 270 22:56 14.12.2020
1212 Clouds 14 1014 93 10000 4.1 270 22:34 14.12.2020
1213 Clouds 15 1014 100 10000 2.6 220 21:53 14.12.2020
1214 Rain 15 1014 93 10000 3.1 230 21:35 14.12.2020
1215 Clouds 15 1014 100 10000 2.6 220 20:52 14.12.2020
1216 Clouds 15 1013 93 10000 3.1 230 20:30 14.12.2020
1217 Clouds 16 1013 87 10000 2.6 220 19:55 14.12.2020
1218 Clouds 16 1013 87 10000 2.6 220 19:29 14.12.2020
1219 Clouds 16 1013 93 10000 2.6 190 18:53 14.12.2020
1220 Clouds 16 1013 93 10000 2.6 200 18:32 14.12.2020
1221 Clouds 16 1013 88 10000 3.6 220 17:52 14.12.2020
1222 Clouds 17 1013 88 10000 4.1 220 17:31 14.12.2020
1223 Clouds 17 1013 88 10000 2.6 220 16:52 14.12.2020
1224 Clouds 17 1013 88 10000 2.1 200 16:29 14.12.2020
1225 Clouds 17 1013 88 10000 2.1 200 16:29 14.12.2020
1226 Clouds 17 1013 88 10000 2.1 200 15:50 14.12.2020
1227 Clouds 17 1013 88 10000 2.1 200 15:25 14.12.2020
1228 Clouds 17 1013 82 10000 0.5 190 14:45 14.12.2020
1229 Clouds 16 1013 82 10000 0.5 190 14:26 14.12.2020
1230 Clouds 16 1014 93 10000 1.5 310 13:47 14.12.2020
1231 Mist 15 1014 100 4000 2.1 290 13:24 14.12.2020
1232 Clouds 16 1014 100 3500 1 0 12:53 14.12.2020
1233 Drizzle 15 1015 93 3000 1 0 12:30 14.12.2020
1234 Clouds 15 1015 93 9000 1.5 190 11:36 14.12.2020
1235 Clouds 13 1014 100 7000 0.5 0 10:48 14.12.2020
1236 Clouds 13 1014 100 7000 0.5 0 10:27 14.12.2020
1237 Clouds 13 1014 100 8000 0.5 130 09:45 14.12.2020
1238 Clouds 13 1014 100 7000 1 190 08:50 14.12.2020
1239 Clouds 13 1014 100 6000 1 190 08:30 14.12.2020
1240 Clouds 13 1013 93 8000 0.5 170 07:52 14.12.2020
1241 Clouds 13 1013 93 10000 0.5 0 06:59 14.12.2020
1242 Clear 13 1013 100 10000 1 0 05:55 14.12.2020
1243 Clear 13 1013 100 10000 1 90 03:55 14.12.2020
1244 Clear 14 1014 93 10000 2.1 240 00:57 14.12.2020
1245 Clear 14 1014 93 10000 1.5 100 00:37 14.12.2020
1246 Clear 14 1014 93 10000 1.5 100 00:18 14.12.2020
1247 Clear 14 1014 93 10000 1 0 23:42 13.12.2020
1248 Clear 15 1014 93 10000 1 0 22:57 13.12.2020
1249 Clear 15 1015 93 10000 0.5 0 22:39 13.12.2020
1250 Clear 15 1015 93 10000 0.5 0 22:18 13.12.2020
1251 Clear 15 1014 87 10000 1.35 13 21:41 13.12.2020
1252 Clear 15 1014 93 10000 1.26 11 20:55 13.12.2020
1253 Clear 15 1014 87 10000 1.26 15 20:28 13.12.2020
1254 Clear 16 1014 82 10000 1.5 310 19:48 13.12.2020
1255 Clear 16 1014 82 10000 1.5 310 19:24 13.12.2020
1256 Clear 16 1014 77 10000 1 360 18:56 13.12.2020
1257 Clear 16 1014 77 10000 1.5 350 18:36 13.12.2020
1258 Clear 17 1014 72 10000 2.1 30 18:18 13.12.2020
1259 Clear 17 1014 72 10000 2.1 30 17:45 13.12.2020
1260 Clear 17 1014 72 10000 2.1 60 17:18 13.12.2020
1261 Clear 17 1014 67 10000 2.6 60 16:50 13.12.2020
1262 Clear 17 1014 67 10000 2.6 60 16:31 13.12.2020
1263 Clear 17 1014 67 10000 3.1 50 15:48 13.12.2020
1264 Clouds 17 1015 67 10000 3.6 40 15:27 13.12.2020
1265 Clouds 18 1015 67 10000 3.6 40 14:48 13.12.2020
1266 Clouds 18 1016 67 10000 3.6 30 14:29 13.12.2020
1267 Clouds 18 1016 67 10000 3.1 50 13:56 13.12.2020
1268 Clouds 17 1016 72 10000 3.6 70 13:36 13.12.2020
1269 Clouds 17 1017 72 10000 3.6 50 12:59 13.12.2020
1270 Clouds 17 1017 77 10000 3.6 30 12:36 13.12.2020
1271 Clouds 17 1017 77 10000 3.6 30 12:18 13.12.2020
1272 Clouds 15 1018 87 10000 2.6 60 11:34 13.12.2020
1273 Clouds 14 1018 87 10000 3.6 70 10:46 13.12.2020
1274 Clouds 14 1017 87 10000 3.6 70 10:24 13.12.2020
1275 Clouds 14 1017 87 10000 2.6 60 09:51 13.12.2020
1276 Clouds 13 1017 100 10000 1 20 08:53 13.12.2020
1277 Clouds 13 1017 100 10000 1 0 08:31 13.12.2020
1278 Clouds 14 1017 93 10000 2.1 20 07:26 13.12.2020
1279 Clouds 15 1018 100 10000 1.5 120 03:26 13.12.2020
1280 Clouds 15 1019 93 10000 0.5 90 02:32 13.12.2020
1281 Clouds 15 1019 93 10000 2.1 110 01:37 13.12.2020
1282 Clouds 15 1019 93 10000 2.1 250 00:46 13.12.2020
1283 Clear 15 1019 87 10000 1 0 23:45 12.12.2020
1284 Clouds 15 1019 87 10000 2.1 160 23:27 12.12.2020
1285 Clouds 16 1019 87 10000 1.5 160 22:39 12.12.2020
1286 Clear 17 1019 82 10000 2.1 280 21:49 12.12.2020
1287 Clear 17 1019 82 10000 1.5 240 21:31 12.12.2020
1288 Clear 17 1019 82 10000 2.6 270 20:48 12.12.2020
1289 Clouds 18 1019 72 10000 3.6 330 20:24 12.12.2020
1290 Clouds 18 1018 77 10000 2.1 320 19:55 12.12.2020
1291 Clouds 19 1018 72 10000 1.5 320 19:35 12.12.2020
1292 Clouds 19 1018 71 10000 1.79 322 18:59 12.12.2020
1293 Clouds 19 1018 72 10000 1.5 320 18:41 12.12.2020
1294 Clouds 19 1018 72 10000 1.5 320 18:22 12.12.2020
1295 Clouds 20 1018 72 10000 4.1 270 17:42 12.12.2020
1296 Clouds 21 1018 68 10000 4.6 280 16:54 12.12.2020
1297 Clouds 21 1018 68 10000 5.7 280 15:59 12.12.2020
1298 Clouds 21 1018 68 10000 6.2 280 15:41 12.12.2020
1299 Clouds 21 1018 64 10000 7.2 270 14:55 12.12.2020
1300 Clouds 20 1019 72 10000 6.7 270 14:35 12.12.2020
1301 Clouds 20 1019 72 10000 7.2 270 13:47 12.12.2020
1302 Clouds 20 1019 72 10000 7.2 270 13:27 12.12.2020
1303 Clouds 19 1018 79 10000 2.68 281 12:43 12.12.2020
1304 Clouds 18 1020 82 10000 4.1 250 11:43 12.12.2020
1305 Clear 18 1019 88 10000 3.6 240 10:53 12.12.2020
1306 Clear 16 1019 93 10000 3.1 210 09:32 12.12.2020
1307 Clear 15 1018 93 10000 2.6 220 08:52 12.12.2020
1308 Clouds 16 1017 87 10000 4.6 250 02:53 12.12.2020
1309 Clouds 17 1018 82 10000 5.7 250 23:54 11.12.2020
1310 Clouds 17 1018 82 10000 6.7 240 22:24 11.12.2020
1311 Clouds 17 1018 77 10000 6.7 250 20:40 11.12.2020
1312 Clouds 19 1017 72 10000 7.2 260 17:58 11.12.2020
1313 Clouds 19 1017 72 10000 6.2 280 14:53 11.12.2020
1314 Clouds 19 1018 77 10000 4.6 260 13:59 11.12.2020
1315 Clouds 18 1018 82 10000 5.1 260 13:23 11.12.2020
1316 Clouds 18 1019 82 10000 5.1 260 12:18 11.12.2020
1317 Clouds 18 1019 82 10000 5.1 260 12:18 11.12.2020
1318 Clouds 18 1019 82 10000 5.7 270 11:50 11.12.2020
1319 Clouds 17 1018 88 10000 3.1 240 10:45 11.12.2020
1320 Clouds 17 1017 88 10000 2.6 230 08:48 11.12.2020
1321 Clear 16 1017 93 10000 3.6 230 05:42 11.12.2020
1322 Clear 16 1017 93 10000 4.6 220 04:52 11.12.2020
1323 Clouds 17 1018 88 10000 3.6 230 01:38 11.12.2020
1324 Clouds 16 1018 88 10000 4.1 230 00:23 11.12.2020
1325 Clouds 16 1017 93 10000 5.1 220 22:52 10.12.2020
1326 Clouds 16 1017 100 10000 5.1 220 21:36 10.12.2020
1327 Clouds 16 1017 100 10000 3.1 220 20:42 10.12.2020
1328 Clouds 16 1018 100 10000 2.6 230 19:43 10.12.2020
1329 Clouds 17 1018 93 10000 2.1 250 18:56 10.12.2020
1330 Clouds 17 1018 93 10000 2.1 220 18:21 10.12.2020
1331 Clouds 18 1017 82 10000 5.1 250 16:32 10.12.2020
1332 Clouds 18 1018 82 10000 5.1 250 15:27 10.12.2020
1333 Clouds 18 1018 82 10000 5.1 250 14:51 10.12.2020
1334 Clouds 17 1018 82 10000 4.6 250 14:28 10.12.2020
1335 Clouds 17 1019 82 10000 4.1 260 12:54 10.12.2020
1336 Clouds 15 1020 93 10000 4.1 230 11:41 10.12.2020
1337 Clouds 12 1020 93 9000 2.1 200 08:57 10.12.2020
1338 Clouds 11 1020 100 7000 2.1 200 07:51 10.12.2020
1339 Clouds 11 1020 100 10000 3.6 210 06:46 10.12.2020
1340 Mist 11 1022 93 1300 1.5 170 03:40 10.12.2020
1341 Mist 11 1022 93 1100 1.17 296 02:24 10.12.2020
1342 Clouds 11 1023 93 7000 1.5 40 00:28 10.12.2020
1343 Drizzle 11 1023 93 9000 1.5 20 22:58 09.12.2020
1344 Clouds 11 1023 93 10000 1 0 20:37 09.12.2020
1345 Clouds 11 1023 93 10000 1 0 19:37 09.12.2020
1346 Clouds 11 1022 93 10000 1 0 17:53 09.12.2020
1347 Clouds 12 1022 71 10000 4.6 220 16:54 09.12.2020
1348 Clouds 12 1022 71 10000 2.6 210 16:24 09.12.2020
1349 Clouds 13 1022 71 10000 2.6 210 15:37 09.12.2020
1350 Clouds 12 1023 76 10000 2.1 200 14:49 09.12.2020
1351 Clouds 12 1023 76 10000 1.5 220 14:24 09.12.2020
1352 Clear 11 1024 76 10000 1.5 200 13:19 09.12.2020
1353 Clear 11 1024 76 10000 2.6 200 12:47 09.12.2020
1354 Clear 10 1024 76 10000 1.5 140 11:55 09.12.2020
1355 Clear 10 1024 71 10000 1.5 130 11:32 09.12.2020
1356 Clear 8 1023 87 10000 1.5 130 09:50 09.12.2020
1357 Clear 7 1022 93 10000 1 110 08:27 09.12.2020
1358 Clear 8 1021 93 10000 2.6 290 06:18 09.12.2020
1359 Clear 8 1021 87 10000 2.1 330 04:49 09.12.2020
1360 Clear 9 1021 81 10000 2.1 300 02:30 09.12.2020
1361 Clear 10 1020 81 10000 2.1 310 23:49 08.12.2020
1362 Clear 10 1020 76 10000 2.1 340 23:23 08.12.2020
1363 Clear 12 1020 71 10000 3.6 300 21:36 08.12.2020
1364 Clear 12 1019 81 10000 2.6 290 20:23 08.12.2020
1365 Clouds 13 1019 66 10000 3.1 310 19:25 08.12.2020
1366 Clouds 14 1018 62 10000 3.6 330 18:34 08.12.2020
1367 Clear 16 1017 55 10000 7.2 300 16:28 08.12.2020
1368 Clouds 15 1018 77 10000 4.6 330 14:46 08.12.2020
1369 Clouds 16 1018 82 10000 3.1 280 13:49 08.12.2020
1370 Clouds 15 1019 87 6000 7.7 310 12:37 08.12.2020
1371 Clouds 15 1018 77 10000 5.1 260 11:52 08.12.2020
1372 Clouds 14 1018 76 10000 4.6 250 10:54 08.12.2020
1373 Clouds 14 1018 76 10000 4.1 240 10:34 08.12.2020
1374 Clouds 13 1017 82 10000 4.6 250 09:38 08.12.2020
1375 Clouds 13 1017 82 10000 5.7 250 07:35 08.12.2020
1376 Clouds 13 1017 76 10000 5.1 240 04:42 08.12.2020
1377 Clear 12 1018 82 10000 3.6 260 02:24 08.12.2020
1378 Clear 13 1018 76 10000 4.1 240 00:44 08.12.2020
1379 Clear 13 1018 76 10000 5.7 240 23:18 07.12.2020
1380 Clear 13 1017 71 10000 5.7 250 22:20 07.12.2020
1381 Clear 13 1017 71 10000 5.7 250 21:26 07.12.2020
1382 Clear 14 1016 62 10000 6.2 260 19:23 07.12.2020
1383 Clouds 15 1016 59 10000 6.7 280 17:55 07.12.2020
1384 Clouds 17 1015 51 10000 8.2 280 17:19 07.12.2020
1385 Clouds 17 1015 55 10000 7.7 280 16:37 07.12.2020
1386 Clouds 16 1015 63 10000 7.7 280 15:24 07.12.2020
1387 Clouds 16 1016 77 10000 6.2 260 14:31 07.12.2020
1388 Clouds 16 1016 72 10000 7.2 260 13:36 07.12.2020
1389 Clouds 16 1017 82 10000 5.1 260 12:30 07.12.2020
1390 Clouds 14 1017 93 10000 3.1 240 11:42 07.12.2020
1391 Clouds 12 1016 100 10000 6.2 230 10:36 07.12.2020
1392 Mist 10 1016 93 3000 3.1 220 09:24 07.12.2020
1393 Clouds 9 1016 93 10000 1.5 180 07:40 07.12.2020
1394 Clouds 10 1017 87 10000 3.1 180 05:27 07.12.2020
1395 Clouds 9 1017 76 10000 2.6 200 04:35 07.12.2020
1396 Clouds 10 1018 81 10000 1.5 180 00:52 07.12.2020
1397 Clear 10 1018 81 10000 2.1 240 22:53 06.12.2020
1398 Clear 10 1018 76 10000 1.5 230 21:45 06.12.2020
1399 Clear 10 1017 71 10000 2.6 250 20:46 06.12.2020
1400 Clouds 11 1017 71 10000 3.1 240 20:26 06.12.2020
1401 Clouds 11 1017 71 10000 3.1 240 20:26 06.12.2020
1402 Clouds 11 1017 66 10000 2.6 250 19:39 06.12.2020
1403 Clouds 13 1016 62 10000 4.1 260 17:45 06.12.2020
1404 Clear 13 1016 62 10000 4.6 270 16:34 06.12.2020
1405 Clouds 13 1015 65 10000 3.13 288 14:49 06.12.2020
1406 Clear 12 1017 71 10000 2.6 210 13:30 06.12.2020
1407 Clear 11 1018 71 10000 3.1 290 12:35 06.12.2020
1408 Clear 11 1017 71 10000 2.6 280 11:54 06.12.2020
1409 Clear 10 1017 70 10000 3.1 270 11:28 06.12.2020
1410 Clear 9 1017 81 10000 2.6 270 10:39 06.12.2020
1411 Clear 7 1016 86 10000 3.6 270 09:38 06.12.2020
1412 Clear 6 1015 86 10000 2.6 280 07:52 06.12.2020
1413 Clear 6 1015 86 10000 1 0 05:22 06.12.2020
1414 Clear 7 1014 81 10000 3.6 210 00:48 06.12.2020
1415 Clear 7 1015 81 10000 3.1 220 00:27 06.12.2020
1416 Clear 7 1014 81 10000 3.1 210 23:58 05.12.2020
1417 Clear 8 1014 75 10000 2.6 260 22:26 05.12.2020
1418 Clear 8 1014 81 10000 1.5 280 21:57 05.12.2020
1419 Clear 8 1013 75 10000 2.1 300 21:37 05.12.2020
1420 Clear 8 1013 75 10000 2.1 300 21:19 05.12.2020
1421 Clear 10 1012 66 10000 3.1 210 18:50 05.12.2020
1422 Clear 11 1011 66 10000 4.1 210 17:57 05.12.2020
1423 Clear 12 1011 62 10000 3.6 210 16:49 05.12.2020
1424 Clear 12 1011 54 10000 3.1 190 16:29 05.12.2020
1425 Clear 12 1011 57 10000 2.6 230 15:24 05.12.2020
1426 Clouds 11 1011 61 10000 0.5 350 13:53 05.12.2020
1427 Clear 9 1011 66 10000 3.6 280 11:50 05.12.2020
1428 Clear 8 1009 75 10000 2.6 280 10:41 05.12.2020
1429 Clear 7 1009 75 10000 2.6 280 10:22 05.12.2020
1430 Clouds 6 1007 93 10000 0.5 220 07:48 05.12.2020
1431 Clouds 5 1006 93 10000 0.5 0 06:20 05.12.2020
1432 Clear 6 1004 87 10000 3.1 220 02:45 05.12.2020
1433 Clear 7 1004 81 10000 4.6 260 23:47 04.12.2020
1434 Clear 8 1003 75 10000 4.1 250 21:59 04.12.2020
1435 Clouds 9 1002 76 10000 5.1 280 19:57 04.12.2020
1436 Clouds 10 1002 71 10000 6.7 300 18:47 04.12.2020
1437 Clouds 10 1002 76 10000 5.7 310 18:18 04.12.2020
1438 Clouds 11 1002 76 10000 5.1 280 17:24 04.12.2020
1439 Rain 13 1002 71 10000 3.6 260 15:35 04.12.2020
1440 Clouds 13 1004 76 10000 4.6 270 13:40 04.12.2020
1441 Rain 14 1004 76 10000 4.6 270 13:21 04.12.2020
1442 Clouds 13 1004 82 10000 4.1 270 12:49 04.12.2020
1443 Clouds 13 1005 76 10000 5.1 270 10:39 04.12.2020
1444 Clouds 13 1005 82 10000 3.6 240 09:46 04.12.2020
1445 Clear 11 1007 87 10000 3.1 230 06:42 04.12.2020
1446 Clouds 11 1008 87 10000 3.6 230 05:44 04.12.2020
1447 Clear 9 1010 81 10000 3.1 240 01:55 04.12.2020
1448 Clear 11 1011 76 10000 3.1 250 22:52 03.12.2020
1449 Clear 11 1011 76 10000 3.1 250 22:52 03.12.2020
1450 Clear 11 1012 81 10000 3.1 270 22:22 03.12.2020
1451 Clear 12 1011 93 10000 2.1 260 20:49 03.12.2020
1452 Clear 13 1011 87 10000 2.1 230 19:29 03.12.2020
1453 Clear 14 1011 87 10000 1.5 220 18:51 03.12.2020
1454 Clear 16 1012 55 10000 1 0 17:41 03.12.2020
1455 Clear 17 1012 55 10000 1 0 17:18 03.12.2020
1456 Clouds 17 1013 51 10000 1.5 300 15:52 03.12.2020
1457 Clouds 16 1013 51 10000 1.5 300 15:30 03.12.2020
1458 Clouds 15 1014 51 10000 2.1 10 14:48 03.12.2020
1459 Clouds 14 1015 44 10000 3.6 70 13:36 03.12.2020
1460 Clouds 12 1016 57 10000 4.1 40 12:28 03.12.2020
1461 Clouds 11 1016 57 10000 4.1 40 11:31 03.12.2020
1462 Clear 10 1016 53 10000 4.6 30 10:18 03.12.2020
1463 Clear 9 1015 61 10000 3.6 30 07:47 03.12.2020
1464 Clear 11 1015 62 10000 3.6 60 03:22 03.12.2020
1465 Clear 12 1016 58 10000 4.1 60 01:19 03.12.2020
1466 Clear 13 1015 87 10000 1 0 22:48 02.12.2020
1467 Clear 13 1015 87 10000 1 0 22:26 02.12.2020
1468 Clear 13 1015 93 10000 0.5 0 21:28 02.12.2020
1469 Clear 13 1015 93 10000 0.5 0 20:47 02.12.2020
1470 Clear 14 1014 93 10000 0.5 260 20:29 02.12.2020
1471 Clear 14 1014 87 10000 1.5 160 19:22 02.12.2020
1472 Clear 18 1014 63 10000 2.1 210 17:48 02.12.2020
1473 Clear 18 1014 63 10000 2.1 210 17:29 02.12.2020
1474 Clear 18 1014 59 10000 1.5 60 15:37 02.12.2020
1475 Clear 16 1015 72 10000 1.5 30 13:19 02.12.2020
1476 Clear 12 1017 87 10000 2.6 50 11:20 02.12.2020
1477 Clear 10 1017 93 10000 4.1 40 10:24 02.12.2020
1478 Clear 9 1016 100 6000 1 20 07:42 02.12.2020
1479 Clear 13 1019 100 10000 1.5 80 23:22 01.12.2020
1480 Clear 13 1019 93 10000 1.43 335 22:20 01.12.2020
1481 Clear 16 1018 72 10000 1.11 1 19:36 01.12.2020
1482 Clear 17 1018 72 10000 0.7 28 18:55 01.12.2020
1483 Clear 20 1019 63 10000 1.5 20 16:47 01.12.2020
1484 Clear 19 1020 63 10000 2.6 20 14:53 01.12.2020
1485 Clear 17 1022 77 10000 2.6 40 12:45 01.12.2020
1486 Clear 14 1022 82 10000 3.6 50 11:29 01.12.2020
1487 Clear 13 1022 87 10000 3.1 40 10:52 01.12.2020
1488 Clear 12 1022 87 10000 3.1 30 10:26 01.12.2020
1489 Clear 11 1022 87 10000 3.6 30 07:40 01.12.2020
1490 Clear 11 1022 100 10000 1 340 05:58 01.12.2020
1491 Clear 13 1021 93 10000 2.1 20 00:57 01.12.2020
1492 Clear 13 1021 93 10000 1 30 00:29 01.12.2020
1493 Clear 13 1021 87 10000 1 0 23:20 30.11.2020
1494 Clear 13 1021 93 10000 1.5 10 22:40 30.11.2020
1495 Clear 14 1021 93 10000 1.5 10 22:22 30.11.2020
1496 Clear 16 1019 72 10000 2.1 350 19:50 30.11.2020
1497 Clear 16 1019 72 10000 1.5 340 19:31 30.11.2020
1498 Clear 17 1018 72 10000 2.1 340 18:21 30.11.2020
1499 Clear 18 1018 63 10000 2.1 10 17:46 30.11.2020
1500 Clear 19 1018 68 10000 4.6 70 16:53 30.11.2020
1501 Clear 18 1018 68 10000 2.6 20 14:53 30.11.2020
1502 Clear 17 1018 68 10000 3.1 10 13:55 30.11.2020
1503 Clear 16 1018 72 10000 2.6 30 13:22 30.11.2020
1504 Clear 16 1019 72 10000 3.6 30 12:25 30.11.2020
1505 Clear 15 1019 82 10000 4.1 40 11:46 30.11.2020
1506 Clear 13 1018 76 10000 3.1 20 10:25 30.11.2020
1507 Clear 13 1018 76 10000 2.6 360 09:33 30.11.2020
1508 Clear 13 1017 93 10000 1 50 01:29 30.11.2020
1509 Clouds 14 1016 93 10000 1.5 20 23:28 29.11.2020
1510 Clouds 14 1016 93 10000 2.6 40 21:45 29.11.2020
1511 Clouds 14 1015 100 10000 2.1 40 21:26 29.11.2020
1512 Clouds 15 1015 93 10000 3.1 60 19:20 29.11.2020
1513 Rain 15 1014 93 10000 3.1 90 17:43 29.11.2020
1514 Clouds 15 1014 93 10000 1.5 70 14:49 29.11.2020
1515 Clouds 15 1014 87 10000 2.6 50 12:46 29.11.2020
1516 Rain 14 1014 93 10000 2.6 30 11:37 29.11.2020
1517 Clouds 13 1013 100 10000 1.5 80 08:54 29.11.2020
1518 Clouds 13 1012 100 10000 2.1 140 08:35 29.11.2020
1519 Clouds 14 1011 100 10000 2.6 170 03:30 29.11.2020
1520 Clouds 14 1010 87 10000 2.6 140 23:18 28.11.2020
1521 Clouds 14 1010 87 10000 2.6 140 22:50 28.11.2020
1522 Clouds 14 1010 87 10000 1.5 130 20:27 28.11.2020
1523 Clouds 14 1009 87 10000 2.1 170 19:29 28.11.2020
1524 Clouds 15 1009 87 10000 2.1 160 18:59 28.11.2020
1525 Clouds 15 1009 72 10000 1.5 160 18:23 28.11.2020
1526 Clouds 16 1009 77 10000 0.5 0 17:40 28.11.2020
1527 Clouds 16 1008 72 10000 0.5 160 16:39 28.11.2020
1528 Clouds 14 1009 82 10000 1.5 310 14:25 28.11.2020
1529 Fog 10 1009 93 500 0.5 40 11:29 28.11.2020
1530 Fog 10 1008 93 250 2.1 70 09:38 28.11.2020
1531 Clouds 9 1007 100 9000 2.1 230 06:26 28.11.2020
1532 Clear 11 1006 93 10000 1 0 03:26 28.11.2020
1533 Clouds 11 1007 93 10000 1.5 220 00:49 28.11.2020
1534 Clouds 12 1007 93 10000 1.5 190 22:55 27.11.2020
1535 Clouds 12 1006 93 10000 1.03 260 21:33 27.11.2020
1536 Clouds 13 1006 93 10000 1.5 170 20:30 27.11.2020
1537 Clouds 13 1006 93 10000 2.6 40 19:25 27.11.2020
1538 Clouds 13 1006 82 10000 1.5 350 18:28 27.11.2020
1539 Clouds 14 1006 62 10000 1.5 160 14:46 27.11.2020
1540 Clouds 14 1006 67 10000 0.5 0 13:25 27.11.2020
1541 Clouds 14 1007 71 10000 2.14 294 12:47 27.11.2020
1542 Clouds 12 1007 76 10000 1 0 11:47 27.11.2020
1543 Clouds 12 1007 81 10000 1.5 70 10:50 27.11.2020
1544 Clouds 11 1007 93 10000 0.42 247 09:57 27.11.2020
1545 Clouds 10 1006 92 10000 1.34 332 07:26 27.11.2020
1546 Clouds 10 1008 83 10000 0.89 151 22:28 26.11.2020
1547 Clouds 11 1008 87 10000 1.5 90 21:56 26.11.2020
1548 Clouds 11 1008 87 10000 1.5 90 20:59 26.11.2020
1549 Clouds 11 1007 87 10000 1.5 220 18:59 26.11.2020
1550 Clouds 13 1007 82 10000 2.6 230 17:52 26.11.2020
1551 Clouds 14 1007 76 10000 4.1 160 14:57 26.11.2020
1552 Clouds 12 1007 87 10000 5.1 140 13:42 26.11.2020
1553 Clouds 12 1008 93 10000 2.1 160 12:44 26.11.2020
1554 Rain 12 1008 87 8000 4.6 150 11:47 26.11.2020
1555 Rain 11 1008 93 8000 2.1 220 10:37 26.11.2020
1556 Rain 12 1007 87 8000 2.1 110 09:48 26.11.2020
1557 Rain 12 1007 87 10000 3.1 130 09:29 26.11.2020
1558 Rain 12 1007 87 10000 3.1 130 08:39 26.11.2020
1559 Rain 12 1007 87 8000 2.6 130 06:50 26.11.2020
1560 Clouds 12 1010 93 9000 3.1 160 23:54 25.11.2020
1561 Rain 13 1010 93 10000 3.1 150 21:26 25.11.2020
1562 Rain 13 1010 93 10000 2.6 160 19:56 25.11.2020
1563 Clouds 13 1010 87 10000 3.1 150 18:28 25.11.2020
1564 Clouds 13 1011 93 10000 5.1 140 17:23 25.11.2020
1565 Rain 13 1012 93 10000 3.6 160 15:41 25.11.2020
1566 Clouds 12 1013 93 10000 2.6 170 14:19 25.11.2020
1567 Rain 19 1012 60 7961 8.82 196 13:43 25.11.2020
1568 Rain 18 1015 82 10000 4.6 170 12:30 25.11.2020
1569 Clouds 16 1015 87 10000 1 0 11:20 25.11.2020
1570 Clouds 10 1015 93 10000 2.1 20 09:20 25.11.2020
1571 Clouds 10 1016 93 10000 1 0 08:49 25.11.2020
1572 Clouds 11 1017 93 7000 0.5 90 05:20 25.11.2020
1573 Clear 11 1018 87 10000 2.6 210 03:31 25.11.2020
1574 Clouds 13 1019 81 10000 1.5 260 00:48 25.11.2020
1575 Clouds 14 1019 87 10000 0.5 30 23:57 24.11.2020
1576 Clouds 14 1020 82 10000 0.5 0 23:34 24.11.2020
1577 Clouds 15 1020 82 10000 0.5 70 22:18 24.11.2020
1578 Clouds 15 1020 77 10000 1.5 20 21:31 24.11.2020
1579 Clouds 16 1020 59 10000 2.1 40 20:51 24.11.2020
1580 Clouds 16 1020 63 10000 2.6 50 19:47 24.11.2020
1581 Clouds 17 1020 55 10000 3.1 40 17:31 24.11.2020
1582 Clouds 17 1020 55 10000 3.1 40 16:57 24.11.2020
1583 Clouds 17 1021 55 10000 3.6 30 16:37 24.11.2020
1584 Clouds 17 1022 55 10000 3.6 30 15:55 24.11.2020
1585 Clouds 17 1022 55 10000 3.6 30 15:19 24.11.2020
1586 Clouds 16 1022 59 10000 3.1 30 14:44 24.11.2020
1587 Clouds 15 1023 62 10000 3.1 20 13:20 24.11.2020
1588 Clear 14 1024 67 10000 4.1 50 12:38 24.11.2020
1589 Clear 14 1025 66 10000 4.1 20 11:59 24.11.2020
1590 Clear 12 1025 66 10000 3.6 30 11:23 24.11.2020
1591 Clear 10 1025 71 10000 5.1 30 10:25 24.11.2020
1592 Clear 9 1024 81 10000 3.6 30 09:38 24.11.2020
1593 Clear 8 1024 87 10000 3.6 40 08:58 24.11.2020
1594 Clear 9 1023 87 10000 1.5 20 05:53 24.11.2020
1595 Clouds 11 1024 74 10000 0.89 359 00:41 24.11.2020
1596 Clear 13 1025 76 10000 1 0 22:24 23.11.2020
1597 Clear 14 1025 62 10000 1 0 21:32 23.11.2020
1598 Clear 15 1025 67 10000 1 0 20:31 23.11.2020
1599 Clear 15 1025 62 10000 1 0 19:59 23.11.2020
1600 Clear 18 1024 48 10000 2.1 10 17:57 23.11.2020
1601 Clear 19 1024 45 10000 3.1 20 16:56 23.11.2020
1602 Clear 19 1025 42 10000 1 0 15:33 23.11.2020
1603 Clear 19 1025 48 10000 2.1 20 14:37 23.11.2020
1604 Clear 15 1027 62 10000 3.1 30 12:41 23.11.2020
1605 Clear 15 1027 62 10000 3.1 30 12:20 23.11.2020
1606 Clear 13 1027 71 10000 3.6 40 11:42 23.11.2020
1607 Clear 11 1027 76 10000 3.6 30 10:22 23.11.2020
1608 Clear 9 1026 87 10000 3.1 30 09:31 23.11.2020
1609 Clear 9 1026 87 10000 3.6 40 08:37 23.11.2020
1610 Clear 9 1026 81 10000 5.1 60 06:57 23.11.2020
1611 Clear 12 1026 81 10000 3.1 30 00:23 23.11.2020
1612 Clear 13 1026 66 10000 1.5 30 22:46 22.11.2020
1613 Clear 14 1025 58 10000 3.1 70 21:37 22.11.2020
1614 Clear 15 1025 54 10000 3.1 70 20:43 22.11.2020
1615 Clear 16 1025 51 10000 4.1 60 19:52 22.11.2020
1616 Clear 19 1025 45 10000 4.6 50 18:40 22.11.2020
1617 Clear 19 1025 45 10000 4.6 50 18:40 22.11.2020
1618 Clear 20 1024 40 10000 5.1 80 16:50 22.11.2020
1619 Clear 21 1025 37 10000 5.7 80 15:33 22.11.2020
1620 Clear 20 1025 45 10000 4.6 70 14:28 22.11.2020
1621 Clear 18 1027 55 10000 5.7 80 12:49 22.11.2020
1622 Clear 17 1027 59 10000 5.1 80 11:56 22.11.2020
1623 Clear 15 1027 63 10000 5.7 80 11:20 22.11.2020
1624 Clear 14 1027 76 10000 4.6 60 10:39 22.11.2020
1625 Clear 11 1026 81 10000 2.6 70 08:51 22.11.2020
1626 Clear 13 1025 82 10000 3.1 60 01:48 22.11.2020
1627 Clear 15 1025 72 10000 3.1 90 23:35 21.11.2020
1628 Clear 16 1025 63 10000 4.1 100 21:57 21.11.2020
1629 Clear 16 1025 63 10000 4.6 110 21:19 21.11.2020
1630 Clear 17 1024 59 10000 4.1 100 20:34 21.11.2020
1631 Clear 18 1024 55 10000 3.6 110 19:54 21.11.2020
1632 Clear 18 1024 55 10000 3.6 110 19:27 21.11.2020
1633 Clear 22 1023 46 10000 3.1 280 17:57 21.11.2020
1634 Clear 23 1023 46 10000 1.5 240 16:49 21.11.2020
1635 Clear 22 1023 43 10000 1.5 0 15:52 21.11.2020
1636 Clear 22 1023 43 10000 3.1 220 15:22 21.11.2020
1637 Clear 21 1024 52 10000 2.6 190 14:43 21.11.2020
1638 Clear 21 1024 52 10000 2.6 190 14:20 21.11.2020
1639 Clear 21 1024 52 10000 2.6 190 14:20 21.11.2020
1640 Clear 18 1025 55 10000 2.1 40 12:28 21.11.2020
1641 Clear 17 1025 55 10000 3.1 40 11:58 21.11.2020
1642 Clear 14 1025 58 10000 4.6 60 10:40 21.11.2020
1643 Clear 13 1025 62 10000 3.1 50 09:59 21.11.2020
1644 Clear 12 1024 71 10000 3.1 60 08:51 21.11.2020
1645 Clear 12 1023 81 10000 2.6 50 06:34 21.11.2020
1646 Clear 12 1023 71 10000 2.6 40 04:33 21.11.2020
1647 Clear 15 1024 66 10000 2.1 20 00:45 21.11.2020
1648 Clear 15 1024 71 10000 3.1 50 23:55 20.11.2020
1649 Clear 16 1023 76 10000 1.5 70 22:25 20.11.2020
1650 Clear 17 1023 76 10000 2.1 90 21:41 20.11.2020
1651 Clear 17 1023 76 10000 2.1 90 21:41 20.11.2020
1652 Clear 18 1022 65 10000 1.34 13 21:20 20.11.2020
1653 Clear 20 1023 48 10000 2.6 50 19:44 20.11.2020
1654 Clear 22 1023 33 10000 3.6 70 18:38 20.11.2020
1655 Clear 23 1023 28 10000 3.6 90 17:52 20.11.2020
1656 Clear 24 1023 29 10000 4.1 70 17:24 20.11.2020
1657 Clear 24 1024 46 10000 4.6 40 16:38 20.11.2020
1658 Clear 24 1024 46 10000 4.6 40 15:57 20.11.2020
1659 Clear 23 1024 46 10000 4.6 40 15:25 20.11.2020
1660 Clear 22 1025 49 10000 6.7 50 13:46 20.11.2020
1661 Clear 21 1025 56 10000 6.7 40 13:18 20.11.2020
1662 Clear 20 1026 68 10000 5.1 50 12:36 20.11.2020
1663 Clear 19 1026 68 10000 4.1 30 11:45 20.11.2020
1664 Clear 16 1027 82 10000 3.6 40 10:59 20.11.2020
1665 Clear 13 1026 87 10000 2.6 360 09:30 20.11.2020
1666 Clear 12 1026 93 10000 1 20 08:26 20.11.2020
1667 Clear 13 1026 87 10000 2.6 60 07:33 20.11.2020
1668 Clear 14 1027 87 10000 1.5 60 03:44 20.11.2020
1669 Clear 17 1028 82 10000 2.88 50 22:47 19.11.2020
1670 Clear 18 1028 82 10000 1.5 150 22:26 19.11.2020
1671 Clear 19 1027 64 10000 2.1 360 21:46 19.11.2020
1672 Clear 20 1027 60 10000 2.1 350 20:33 19.11.2020
1673 Clear 20 1027 68 10000 1.5 360 19:54 19.11.2020
1674 Clear 20 1026 67 10000 0.5 70 19:25 19.11.2020
1675 Clear 25 1026 36 10000 4.1 70 17:46 19.11.2020
1676 Clear 25 1026 38 10000 4.1 70 16:58 19.11.2020
1677 Clear 25 1026 44 10000 4.6 70 15:59 19.11.2020
1678 Clear 25 1026 44 10000 4.6 70 15:28 19.11.2020
1679 Clear 23 1027 60 10000 4.1 40 13:46 19.11.2020
1680 Clear 22 1027 60 10000 4.1 40 13:24 19.11.2020
1681 Clear 21 1028 60 10000 4.1 20 12:44 19.11.2020
1682 Clear 20 1028 60 10000 4.1 20 12:24 19.11.2020
1683 Clear 18 1028 72 10000 3.6 20 11:39 19.11.2020
1684 Clear 17 1028 77 10000 3.1 30 10:54 19.11.2020
1685 Clear 16 1027 77 10000 2.1 10 10:28 19.11.2020
1686 Clear 15 1027 82 10000 3.6 50 09:44 19.11.2020
1687 Clear 14 1026 87 10000 1.5 40 09:25 19.11.2020
1688 Clear 13 1025 93 10000 2.6 50 08:20 19.11.2020
1689 Clear 13 1025 93 10000 2.1 50 06:49 19.11.2020
1690 Clear 15 1025 87 10000 1.5 50 01:46 19.11.2020
1691 Clear 16 1025 87 10000 2.6 30 00:29 19.11.2020
1692 Clear 17 1025 82 10000 3.6 80 23:30 18.11.2020
1693 Clear 18 1025 82 10000 1.5 360 22:40 18.11.2020
1694 Clear 18 1025 82 10000 1.5 360 22:21 18.11.2020
1695 Clear 18 1024 87 10000 1 0 21:40 18.11.2020
1696 Clear 18 1024 87 10000 1 0 21:20 18.11.2020
1697 Clear 20 1024 68 10000 1 330 19:50 18.11.2020
1698 Clear 21 1024 64 10000 1.5 330 19:28 18.11.2020
1699 Clear 21 1024 60 10000 2.1 350 18:57 18.11.2020
1700 Clear 21 1024 60 10000 2.1 350 18:57 18.11.2020
1701 Clear 22 1024 56 10000 1.5 340 18:38 18.11.2020
1702 Clear 23 1024 50 10000 2.6 20 17:38 18.11.2020
1703 Clear 24 1024 56 10000 2.6 40 16:25 18.11.2020
1704 Clear 24 1024 56 10000 2.6 40 15:57 18.11.2020
1705 Clear 23 1025 64 10000 1.5 60 14:41 18.11.2020
1706 Clear 22 1025 68 10000 2.1 50 13:46 18.11.2020
1707 Clear 21 1026 64 10000 2.6 50 13:20 18.11.2020
1708 Clear 20 1026 72 10000 3.1 40 12:42 18.11.2020
1709 Clear 18 1027 77 10000 4.1 40 11:41 18.11.2020
1710 Clear 16 1026 82 10000 3.6 30 10:36 18.11.2020
1711 Clear 16 1026 82 10000 3.6 30 10:18 18.11.2020
1712 Clear 14 1025 93 10000 2.1 20 08:23 18.11.2020
1713 Clear 14 1025 93 10000 3.6 50 06:36 18.11.2020
1714 Clear 16 1025 90 10000 0.89 7 00:58 18.11.2020
1715 Clear 17 1025 88 10000 0.89 1 23:53 17.11.2020
1716 Clear 18 1026 82 10000 0.5 0 22:53 17.11.2020
1717 Clear 18 1026 82 10000 0.5 0 22:29 17.11.2020
1718 Clear 18 1026 88 10000 0.5 0 21:52 17.11.2020
1719 Clear 18 1026 88 10000 0.5 0 21:31 17.11.2020
1720 Clear 19 1026 88 10000 0.5 0 20:50 17.11.2020
1721 Clear 19 1025 88 10000 0.5 0 20:27 17.11.2020
1722 Clear 19 1025 93 10000 1.13 33 19:59 17.11.2020
1723 Clear 22 1025 68 10000 1 240 18:35 17.11.2020
1724 Clear 23 1025 60 10000 1 0 17:44 17.11.2020
1725 Clear 24 1025 53 10000 1 0 16:55 17.11.2020
1726 Clear 24 1025 64 10000 1 0 16:20 17.11.2020
1727 Clear 24 1025 64 10000 1 0 15:42 17.11.2020
1728 Clear 23 1025 64 10000 1 0 15:23 17.11.2020
1729 Clear 23 1025 64 10000 0.5 0 14:56 17.11.2020
1730 Clear 23 1026 68 10000 0.5 0 14:28 17.11.2020
1731 Clear 21 1026 77 10000 1.5 40 13:38 17.11.2020
1732 Clear 20 1026 77 10000 1 0 12:57 17.11.2020
1733 Clear 19 1027 77 10000 2.6 50 12:38 17.11.2020
1734 Mist 17 1027 93 5000 3.1 40 11:43 17.11.2020
1735 Mist 15 1027 100 1500 3.1 50 10:49 17.11.2020
1736 Mist 15 1026 100 1200 4.6 50 10:23 17.11.2020
1737 Mist 15 1026 100 1500 3.6 50 09:50 17.11.2020
1738 Mist 14 1026 100 1200 3.6 40 09:27 17.11.2020
1739 Fog 14 1025 93 300 3.1 40 08:22 17.11.2020
1740 Fog 14 1025 100 350 2.6 50 07:44 17.11.2020
1741 Fog 14 1025 100 200 2.1 50 06:34 17.11.2020
1742 Fog 16 1025 100 50 1.95 32 03:31 17.11.2020
1743 Fog 16 1025 93 50 0.5 200 02:53 17.11.2020
1744 Fog 16 1025 100 2500 1.42 25 01:23 17.11.2020
1745 Mist 16 1025 93 3000 2.1 120 00:53 17.11.2020
1746 Mist 17 1025 93 3000 1.5 130 23:48 16.11.2020
1747 Mist 17 1025 93 3000 1.5 130 23:29 16.11.2020
1748 Mist 18 1025 93 5000 1 0 22:43 16.11.2020
1749 Mist 18 1025 93 5000 1 0 22:20 16.11.2020
1750 Clouds 18 1024 100 8000 1 0 21:45 16.11.2020
1751 Clouds 18 1024 100 8000 1 0 21:24 16.11.2020
1752 Clouds 18 1024 100 7000 1 260 20:38 16.11.2020
1753 Clear 19 1024 82 10000 2.6 230 20:20 16.11.2020
1754 Clear 19 1023 93 10000 1.5 230 19:38 16.11.2020
1755 Clear 19 1023 93 10000 1.5 230 19:19 16.11.2020
1756 Clear 20 1023 88 10000 1 240 18:31 16.11.2020
1757 Clear 22 1023 83 10000 1 200 17:50 16.11.2020
1758 Clear 22 1023 68 10000 0.5 0 17:21 16.11.2020
1759 Clear 22 1023 68 10000 0.5 230 16:53 16.11.2020
1760 Clouds 23 1023 73 10000 1 0 16:28 16.11.2020
1761 Clouds 22 1023 73 10000 1 0 15:52 16.11.2020
1762 Clouds 22 1023 73 10000 1 0 15:29 16.11.2020
1763 Clouds 22 1023 73 10000 1 0 14:57 16.11.2020
1764 Clouds 21 1024 77 10000 0.5 0 14:28 16.11.2020
1765 Clouds 20 1024 82 8000 1 0 13:31 16.11.2020
1766 Clouds 18 1025 100 7000 1 0 12:33 16.11.2020
1767 Mist 17 1025 100 3000 2.1 10 11:44 16.11.2020
1768 Mist 17 1025 100 3000 2.1 10 11:25 16.11.2020
1769 Mist 17 1024 100 1200 1.5 360 10:48 16.11.2020
1770 Mist 16 1024 100 1200 1.5 360 10:26 16.11.2020
1771 Fog 16 1024 100 600 1 0 09:59 16.11.2020
1772 Fog 15 1023 100 500 1 0 09:40 16.11.2020
1773 Fog 15 1023 100 500 1 0 08:49 16.11.2020
1774 Fog 15 1023 100 500 1 0 08:27 16.11.2020
1775 Fog 15 1023 100 500 1 0 07:43 16.11.2020
1776 Fog 15 1023 100 500 1 0 07:43 16.11.2020
1777 Fog 16 1022 100 200 0.26 263 06:47 16.11.2020
1778 Mist 16 1022 100 5000 0.5 0 05:53 16.11.2020
1779 Mist 16 1023 100 3500 0.59 326 04:36 16.11.2020
1780 Clouds 17 1022 93 9000 0.5 0 01:48 16.11.2020
1781 Clouds 17 1022 93 9000 0.5 0 01:21 16.11.2020
1782 Clear 18 1022 88 10000 1 290 23:49 15.11.2020
1783 Clear 18 1022 93 10000 2.1 160 23:21 15.11.2020
1784 Clear 19 1022 88 10000 1.5 160 22:40 15.11.2020
1785 Clear 19 1022 88 10000 1.5 160 22:18 15.11.2020
1786 Clear 19 1022 93 10000 0.89 254 21:43 15.11.2020
1787 Clear 19 1022 93 10000 0.97 299 21:22 15.11.2020
1788 Clear 20 1022 82 10000 2.1 70 20:41 15.11.2020
1789 Clear 20 1022 82 10000 2.1 70 20:18 15.11.2020
1790 Clear 21 1021 73 10000 1 0 19:48 15.11.2020
1791 Clear 21 1021 73 10000 0.5 40 19:22 15.11.2020
1792 Clear 22 1021 68 10000 2.1 280 18:56 15.11.2020
1793 Clear 23 1021 64 10000 2.1 260 18:38 15.11.2020
1794 Clear 23 1021 64 10000 2.1 260 18:19 15.11.2020
1795 Clear 24 1020 53 10000 2.1 230 17:44 15.11.2020
1796 Clear 24 1020 53 10000 2.1 230 17:23 15.11.2020
1797 Clear 25 1020 53 10000 1.5 210 16:45 15.11.2020
1798 Clear 25 1021 53 10000 2.1 220 16:20 15.11.2020
1799 Clear 25 1021 53 10000 2.1 220 15:50 15.11.2020
1800 Clear 24 1021 64 10000 1.5 20 15:26 15.11.2020
1801 Clear 24 1021 64 10000 1.5 20 14:56 15.11.2020
1802 Clear 24 1021 60 10000 0.5 0 14:29 15.11.2020
1803 Clear 23 1022 68 10000 1.5 50 13:56 15.11.2020
1804 Clear 22 1022 68 10000 1.5 50 13:36 15.11.2020
1805 Clear 21 1022 73 10000 1.5 60 12:50 15.11.2020
1806 Clear 20 1022 68 10000 2.6 70 12:23 15.11.2020
1807 Clear 19 1023 77 10000 2.1 40 11:46 15.11.2020
1808 Clear 17 1022 88 10000 2.1 50 11:20 15.11.2020
1809 Clear 17 1022 88 10000 2.1 50 10:54 15.11.2020
1810 Clouds 17 1022 93 10000 2.1 50 10:32 15.11.2020
1811 Clouds 16 1022 93 7000 3.1 50 09:58 15.11.2020
1812 Mist 16 1022 93 3000 2.6 50 09:40 15.11.2020
1813 Mist 16 1022 93 3000 2.1 40 09:18 15.11.2020
1814 Clear 16 1022 93 10000 1.5 60 08:46 15.11.2020
1815 Clear 16 1021 93 10000 1.5 70 07:48 15.11.2020
1816 Clouds 16 1021 100 8000 1.5 40 06:55 15.11.2020
1817 Clouds 17 1022 93 10000 1 50 04:58 15.11.2020
1818 Clouds 17 1022 93 10000 1.11 57 02:43 15.11.2020
1819 Clouds 17 1022 100 10000 2.6 170 00:45 15.11.2020
1820 Clouds 18 1022 93 10000 1.5 160 00:26 15.11.2020
1821 Clouds 18 1023 93 10000 2.1 190 23:36 14.11.2020
1822 Clouds 18 1022 93 10000 2.6 190 22:50 14.11.2020
1823 Clouds 18 1022 93 10000 2.6 190 22:29 14.11.2020
1824 Clouds 18 1022 93 10000 1.5 190 21:42 14.11.2020
1825 Clouds 18 1022 93 10000 1.5 190 21:22 14.11.2020
1826 Clear 18 1022 93 10000 2.1 210 20:50 14.11.2020
1827 Clear 19 1022 88 10000 2.1 210 20:27 14.11.2020
1828 Clear 18 1021 88 10000 2.1 210 19:51 14.11.2020
1829 Clear 19 1021 88 10000 2.1 210 19:31 14.11.2020
1830 Clouds 19 1021 82 10000 4.6 220 18:43 14.11.2020
1831 Clouds 20 1021 82 10000 4.6 220 18:24 14.11.2020
1832 Clouds 20 1021 82 10000 3.6 210 17:57 14.11.2020
1833 Clouds 20 1020 82 10000 4.1 220 17:39 14.11.2020
1834 Clouds 20 1020 82 10000 4.1 220 17:19 14.11.2020
1835 Clouds 20 1020 82 10000 4.1 210 16:41 14.11.2020
1836 Clouds 20 1020 82 10000 4.1 210 16:20 14.11.2020
1837 Clouds 20 1020 77 10000 4.6 210 15:51 14.11.2020
1838 Clouds 20 1020 77 10000 6.7 220 15:26 14.11.2020
1839 Clouds 19 1020 77 10000 5.7 220 14:42 14.11.2020
1840 Clouds 19 1020 77 10000 5.7 220 14:23 14.11.2020
1841 Clouds 19 1021 82 10000 5.1 220 13:42 14.11.2020
1842 Clouds 19 1021 82 10000 5.1 220 13:23 14.11.2020
1843 Clouds 19 1021 93 10000 4.6 220 12:46 14.11.2020
1844 Clouds 18 1021 88 10000 3.1 210 12:28 14.11.2020
1845 Clouds 17 1021 88 10000 3.6 200 11:46 14.11.2020
1846 Clouds 17 1021 93 10000 4.1 190 11:25 14.11.2020
1847 Rain 17 1021 93 9000 2.6 180 10:45 14.11.2020
1848 Clouds 17 1021 93 8000 1.5 180 10:25 14.11.2020
1849 Rain 17 1021 93 9000 1.5 170 09:49 14.11.2020
1850 Rain 17 1020 93 8000 1.5 210 09:28 14.11.2020
1851 Rain 16 1020 88 7000 2.6 210 08:55 14.11.2020
1852 Rain 16 1020 88 10000 1.5 170 08:37 14.11.2020
1853 Clouds 17 1019 88 10000 1.5 170 07:50 14.11.2020
1854 Rain 17 1019 88 10000 2.1 140 07:28 14.11.2020
1855 Rain 17 1019 82 10000 2.1 150 06:32 14.11.2020
1856 Clouds 17 1019 88 10000 1 0 05:33 14.11.2020
1857 Clouds 17 1019 88 10000 0.92 137 04:20 14.11.2020
1858 Clouds 17 1020 88 10000 1 0 01:20 14.11.2020
1859 Clear 18 1020 82 10000 1.01 68 23:47 13.11.2020
1860 Clear 18 1020 82 10000 0.5 0 23:26 13.11.2020
1861 Clear 18 1020 82 10000 0.5 0 22:55 13.11.2020
1862 Clear 19 1020 77 10000 1.5 130 22:29 13.11.2020
1863 Clear 19 1020 68 10000 1 330 21:59 13.11.2020
1864 Clear 19 1019 72 10000 1.5 270 21:39 13.11.2020
1865 Clear 19 1019 72 10000 1.5 270 21:20 13.11.2020
1866 Clouds 19 1019 64 10000 3.1 260 20:42 13.11.2020
1867 Clouds 19 1019 64 10000 3.1 260 20:22 13.11.2020
1868 Clouds 19 1019 64 10000 2.6 70 19:46 13.11.2020
1869 Clouds 19 1019 64 10000 1 0 19:46 13.11.2020
1870 Clouds 20 1019 64 10000 2.6 70 19:23 13.11.2020
1871 Clouds 20 1018 64 10000 2.1 50 18:58 13.11.2020
1872 Clouds 21 1018 64 10000 1 100 18:26 13.11.2020
1873 Clouds 22 1018 56 10000 1 0 17:43 13.11.2020
1874 Clouds 22 1018 56 10000 1 0 17:19 13.11.2020
1875 Clouds 22 1018 56 10000 2.1 170 16:50 13.11.2020
1876 Clouds 22 1018 56 10000 2.1 170 16:24 13.11.2020
1877 Clouds 22 1018 56 10000 2.1 170 15:52 13.11.2020
1878 Clouds 22 1018 56 10000 2.1 170 15:32 13.11.2020
1879 Clear 22 1019 60 10000 0.5 0 14:50 13.11.2020
1880 Clear 21 1019 68 10000 2.1 30 14:27 13.11.2020
1881 Clear 20 1019 64 10000 2.1 30 13:53 13.11.2020
1882 Clouds 19 1020 68 10000 2.6 30 13:27 13.11.2020
1883 Clear 18 1020 77 10000 3.1 30 12:51 13.11.2020
1884 Clear 17 1020 77 10000 3.1 30 12:25 13.11.2020
1885 Clear 16 1021 77 10000 2.1 30 11:52 13.11.2020
1886 Clear 16 1021 77 10000 2.6 20 11:33 13.11.2020
1887 Clear 15 1020 77 10000 3.1 40 10:59 13.11.2020
1888 Clear 14 1020 82 10000 3.1 20 10:40 13.11.2020
1889 Clear 14 1020 82 10000 3.1 20 10:22 13.11.2020
1890 Clear 14 1020 82 10000 3.1 30 09:44 13.11.2020
1891 Clear 13 1020 87 10000 3.1 20 09:24 13.11.2020
1892 Clear 13 1019 87 10000 3.1 30 08:52 13.11.2020
1893 Clear 12 1019 87 10000 3.6 30 08:22 13.11.2020
1894 Clear 12 1019 87 10000 3.6 30 07:48 13.11.2020
1895 Clear 12 1019 87 10000 3.6 30 07:27 13.11.2020
1896 Clear 12 1019 93 10000 3.1 20 06:50 13.11.2020
1897 Clear 13 1019 93 10000 1.5 30 06:20 13.11.2020
1898 Clear 13 1018 93 10000 1.5 40 05:39 13.11.2020
1899 Clear 13 1019 93 10000 1.5 50 02:57 13.11.2020
1900 Clear 14 1019 87 10000 2.1 30 01:39 13.11.2020
1901 Clear 15 1019 87 10000 0.5 0 00:35 13.11.2020
1902 Clear 15 1019 87 10000 1 330 23:47 12.11.2020
1903 Clear 15 1019 87 10000 2.05 49 23:21 12.11.2020
1904 Clear 15 1019 87 10000 2.05 49 22:54 12.11.2020
1905 Clear 16 1018 87 10000 2.05 49 22:36 12.11.2020
1906 Clear 16 1018 77 10000 0.5 0 21:57 12.11.2020
1907 Clear 16 1018 77 10000 0.5 0 21:39 12.11.2020
1908 Clear 16 1018 77 10000 0.5 0 21:19 12.11.2020
1909 Clear 18 1018 63 10000 1.5 10 20:41 12.11.2020
1910 Clear 18 1018 63 10000 1.5 10 20:23 12.11.2020
1911 Clear 18 1018 59 10000 1.5 10 19:53 12.11.2020
1912 Clear 19 1017 56 10000 2.1 40 19:34 12.11.2020
1913 Clear 20 1017 60 10000 2.1 350 18:58 12.11.2020
1914 Clear 20 1017 56 10000 1.5 350 18:39 12.11.2020
1915 Clear 21 1017 56 10000 1.5 350 18:19 12.11.2020
1916 Clouds 21 1017 49 10000 2.6 50 17:40 12.11.2020
1917 Clouds 22 1017 49 10000 2.6 50 17:22 12.11.2020
1918 Clouds 22 1017 46 10000 2.1 120 16:45 12.11.2020
1919 Clear 22 1018 56 10000 3.1 30 16:23 12.11.2020
1920 Clear 22 1018 56 10000 3.1 30 15:52 12.11.2020
1921 Clear 22 1018 56 10000 3.1 30 15:28 12.11.2020
1922 Clear 21 1018 56 10000 3.6 60 14:56 12.11.2020
1923 Clear 21 1018 56 10000 3.1 40 14:37 12.11.2020
1924 Clear 20 1019 64 10000 4.1 50 14:18 12.11.2020
1925 Clear 20 1019 68 10000 5.1 40 13:43 12.11.2020
1926 Clear 19 1019 68 10000 5.1 40 13:19 12.11.2020
1927 Clear 18 1020 72 10000 3.6 30 12:47 12.11.2020
1928 Clear 17 1020 72 10000 3.6 30 12:25 12.11.2020
1929 Clear 17 1020 72 10000 3.6 30 12:25 12.11.2020
1930 Clear 17 1020 72 10000 4.1 40 11:54 12.11.2020
1931 Clear 17 1020 72 10000 3.6 30 11:35 12.11.2020
1932 Clear 16 1020 77 10000 3.6 40 10:53 12.11.2020
1933 Clear 15 1020 82 10000 3.1 30 10:34 12.11.2020
1934 Clear 14 1020 82 10000 3.6 20 09:56 12.11.2020
1935 Clear 13 1020 87 10000 2.6 360 09:28 12.11.2020
1936 Clear 13 1020 87 10000 2.6 360 08:59 12.11.2020
1937 Clear 13 1020 87 10000 1.5 20 08:40 12.11.2020
1938 Clear 13 1020 87 10000 1.5 20 08:20 12.11.2020
1939 Clear 13 1020 87 10000 1.5 20 07:55 12.11.2020
1940 Clear 13 1020 87 10000 1.5 350 07:36 12.11.2020
1941 Clear 14 1020 82 10000 4.1 60 06:52 12.11.2020
1942 Clear 14 1020 82 10000 3.6 50 06:26 12.11.2020
1943 Clear 14 1021 87 10000 4.1 70 03:50 12.11.2020
1944 Clear 14 1021 87 10000 3.6 50 03:20 12.11.2020
1945 Clear 14 1022 82 10000 1.87 48 00:45 12.11.2020
1946 Clear 15 1022 82 10000 0.5 0 23:45 11.11.2020
1947 Clear 15 1022 77 10000 1.5 100 23:25 11.11.2020
1948 Clear 15 1022 77 10000 1.95 64 22:56 11.11.2020
1949 Clear 15 1022 77 10000 1.5 70 22:38 11.11.2020
1950 Clear 15 1022 77 10000 1.5 70 22:18 11.11.2020
1951 Clear 17 1021 68 10000 2.1 50 21:41 11.11.2020
1952 Clear 17 1021 68 10000 2.1 50 21:20 11.11.2020
1953 Clear 17 1021 68 10000 2.1 50 20:55 11.11.2020
1954 Clear 18 1021 68 10000 3.1 40 20:36 11.11.2020
1955 Clear 18 1021 68 10000 3.1 40 20:36 11.11.2020
1956 Clear 18 1021 68 10000 3.1 40 20:18 11.11.2020
1957 Clear 19 1020 60 10000 3.1 30 19:43 11.11.2020
1958 Clear 19 1020 60 10000 3.1 30 19:24 11.11.2020
1959 Clear 21 1020 56 10000 3.6 50 18:47 11.11.2020
1960 Clear 21 1020 56 10000 3.6 50 18:27 11.11.2020
1961 Clear 22 1020 53 10000 3.1 60 17:41 11.11.2020
1962 Clear 22 1020 49 10000 3.6 40 17:22 11.11.2020
1963 Clear 22 1020 49 10000 3.6 40 16:47 11.11.2020
1964 Clear 22 1020 46 10000 1.5 30 16:28 11.11.2020
1965 Clear 22 1020 46 10000 1.5 30 15:47 11.11.2020
1966 Clear 22 1020 46 10000 1.5 30 15:26 11.11.2020
1967 Clear 23 1020 46 10000 0.5 0 14:52 11.11.2020
1968 Clear 22 1021 53 10000 2.1 60 14:33 11.11.2020
1969 Clear 22 1021 56 10000 2.1 60 13:55 11.11.2020
1970 Clear 21 1022 52 10000 1.5 40 13:33 11.11.2020
1971 Clear 20 1023 60 10000 2.1 40 12:42 11.11.2020
1972 Clear 20 1023 60 10000 2.1 40 12:20 11.11.2020
1973 Clear 19 1023 72 10000 2.1 30 11:49 11.11.2020
1974 Clear 18 1023 72 10000 2.6 20 11:29 11.11.2020
1975 Clear 16 1023 82 10000 2.6 20 10:41 11.11.2020
1976 Clear 15 1023 82 10000 3.1 20 10:22 11.11.2020
1977 Clear 14 1023 82 10000 3.1 20 09:46 11.11.2020
1978 Clear 13 1023 87 10000 2.1 10 09:28 11.11.2020
1979 Clear 13 1023 87 10000 2.6 20 08:46 11.11.2020
1980 Clear 12 1023 87 10000 2.6 360 08:27 11.11.2020
1981 Clear 12 1022 87 10000 3.1 350 07:51 11.11.2020
1982 Clear 12 1022 87 10000 2.6 350 07:30 11.11.2020
1983 Clear 12 1023 93 10000 2.6 20 06:27 11.11.2020
1984 Clear 13 1023 93 10000 2.1 40 04:30 11.11.2020
1985 Clear 14 1024 87 10000 2.6 10 01:32 11.11.2020
1986 Clear 15 1024 93 10000 1.5 20 00:34 11.11.2020
1987 Clear 15 1023 78 10000 0.89 341 23:55 10.11.2020
1988 Clear 16 1022 78 10000 0.89 359 23:24 10.11.2020
1989 Clear 16 1024 87 10000 1.5 30 22:57 10.11.2020
1990 Clear 17 1022 75 10000 1.34 15 22:28 10.11.2020
1991 Clear 17 1023 68 10000 2.1 20 21:56 10.11.2020
1992 Clear 17 1023 68 10000 2.1 20 21:38 10.11.2020
1993 Clear 18 1023 68 10000 2.1 20 21:18 10.11.2020
1994 Clear 17 1023 72 10000 1.5 360 20:42 10.11.2020
1995 Clear 18 1023 72 10000 1.5 360 20:23 10.11.2020
1996 Clear 18 1023 63 10000 1 0 19:56 10.11.2020
1997 Clear 18 1023 72 10000 2.1 30 19:37 10.11.2020
1998 Clear 19 1023 63 10000 1 60 19:18 10.11.2020
1999 Clear 20 1023 60 10000 2.1 50 18:41 10.11.2020
2000 Clear 21 1023 60 10000 2.1 50 18:20 10.11.2020
2001 Clear 21 1023 52 10000 4.6 70 17:44 10.11.2020
2002 Clear 21 1023 52 10000 4.6 70 17:26 10.11.2020
2003 Clear 21 1023 52 10000 4.6 70 16:58 10.11.2020
2004 Clear 21 1023 60 10000 5.1 40 16:38 10.11.2020
2005 Clear 21 1023 60 10000 5.1 40 16:20 10.11.2020
2006 Clear 21 1023 60 10000 5.1 40 15:46 10.11.2020
2007 Clear 21 1023 60 10000 5.1 40 15:25 10.11.2020
2008 Clear 20 1024 68 10000 5.7 50 14:42 10.11.2020
2009 Clear 20 1024 68 10000 5.7 50 14:23 10.11.2020
2010 Clear 20 1024 68 10000 4.6 50 13:58 10.11.2020
2011 Clear 19 1025 68 10000 4.1 50 13:37 10.11.2020
2012 Clear 19 1025 68 10000 4.1 50 13:18 10.11.2020
2013 Clear 19 1025 68 10000 5.1 50 12:44 10.11.2020
2014 Clear 18 1025 72 10000 5.1 40 12:24 10.11.2020
2015 Clear 17 1025 77 10000 4.1 50 11:41 10.11.2020
2016 Clear 16 1025 77 10000 4.1 50 11:21 10.11.2020
2017 Clear 16 1025 77 10000 4.1 50 10:56 10.11.2020
2018 Clear 15 1026 82 10000 3.6 50 10:36 10.11.2020
2019 Clear 14 1026 87 10000 3.1 30 10:18 10.11.2020
2020 Clear 14 1025 82 10000 3.1 20 09:41 10.11.2020
2021 Clear 13 1025 82 10000 3.1 20 09:23 10.11.2020
2022 Rain 12 1025 93 10000 2.1 30 08:52 10.11.2020
2023 Rain 12 1025 93 10000 2.6 30 08:26 10.11.2020
2024 Clear 12 1024 93 10000 2.6 30 07:44 10.11.2020
2025 Clear 12 1024 100 10000 0.5 0 07:21 10.11.2020
2026 Clear 13 1024 93 10000 1 0 06:40 10.11.2020
2027 Clear 13 1024 87 10000 2.1 40 05:41 10.11.2020
2028 Clear 13 1024 87 10000 2.6 40 04:49 10.11.2020
2029 Clear 14 1024 87 10000 2.1 50 02:28 10.11.2020
2030 Clear 15 1024 87 10000 2.6 50 01:29 10.11.2020
2031 Clear 15 1024 93 10000 0.5 0 23:54 09.11.2020
2032 Clear 15 1024 93 10000 1 0 23:30 09.11.2020
2033 Clear 16 1024 87 10000 2.1 20 22:47 09.11.2020
2034 Clear 16 1024 87 10000 2.1 120 22:24 09.11.2020
2035 Clear 16 1024 87 10000 1 0 21:46 09.11.2020
2036 Clear 16 1024 87 10000 1 0 21:27 09.11.2020
2037 Clear 16 1024 87 10000 1 0 21:27 09.11.2020
2038 Clear 17 1024 87 10000 1 0 20:58 09.11.2020
2039 Clear 16 1024 93 10000 1.28 354 20:36 09.11.2020
2040 Clear 17 1023 82 10000 1 290 20:18 09.11.2020
2041 Clear 18 1023 77 10000 0.5 60 19:40 09.11.2020
2042 Clear 18 1023 77 10000 0.5 60 19:21 09.11.2020
2043 Clear 20 1023 52 10000 0.96 7 18:41 09.11.2020
2044 Clear 20 1023 52 10000 1.24 353 18:20 09.11.2020
2045 Clear 21 1022 52 10000 0.5 0 17:50 09.11.2020
2046 Clear 21 1022 52 10000 0.5 0 17:30 09.11.2020
2047 Clear 21 1022 52 10000 0.5 270 16:46 09.11.2020
2048 Clouds 21 1022 68 10000 1.5 10 16:27 09.11.2020
2049 Clouds 21 1022 68 10000 1.5 10 16:27 09.11.2020
2050 Clouds 21 1022 68 10000 1.5 10 15:51 09.11.2020
2051 Clouds 21 1022 68 10000 1.5 10 15:31 09.11.2020
2052 Clouds 21 1022 64 10000 1 0 14:59 09.11.2020
2053 Clouds 20 1023 64 10000 1.5 50 14:40 09.11.2020
2054 Clouds 20 1023 64 10000 1.5 50 14:22 09.11.2020
2055 Clouds 19 1023 77 10000 1 0 13:43 09.11.2020
2056 Clouds 19 1024 82 10000 1 0 13:20 09.11.2020
2057 Clouds 18 1024 82 10000 1 0 12:47 09.11.2020
2058 Clouds 18 1024 82 10000 1 0 12:21 09.11.2020
2059 Clouds 17 1024 87 10000 0.5 0 11:55 09.11.2020
2060 Clouds 17 1024 93 9000 1 0 11:36 09.11.2020
2061 Clouds 17 1024 93 9000 1 0 11:18 09.11.2020
2062 Drizzle 15 1023 100 4000 1.5 40 10:41 09.11.2020
2063 Drizzle 15 1023 100 4000 1.5 40 10:22 09.11.2020
2064 Clouds 15 1023 93 10000 1 90 09:41 09.11.2020
2065 Clouds 15 1023 93 10000 1 90 09:23 09.11.2020
2066 Clouds 15 1022 93 10000 1.5 40 08:37 09.11.2020
2067 Clouds 15 1022 93 10000 1.5 40 08:18 09.11.2020
2068 Clouds 15 1021 93 10000 0.5 0 07:38 09.11.2020
2069 Clouds 15 1021 93 10000 0.5 0 07:18 09.11.2020
2070 Clouds 15 1021 87 10000 1 0 06:22 09.11.2020
2071 Clear 15 1021 87 10000 1 0 03:19 09.11.2020
2072 Clear 15 1021 93 10000 2.1 140 01:43 09.11.2020
2073 Clear 15 1021 87 10000 2.1 160 00:58 09.11.2020
2074 Clear 16 1022 93 10000 1.5 160 23:51 08.11.2020
2075 Clear 16 1022 93 10000 2.1 170 23:29 08.11.2020
2076 Clear 16 1022 93 10000 2.1 170 22:46 08.11.2020
2077 Clear 16 1022 93 10000 2.1 150 22:22 08.11.2020
2078 Clear 17 1021 93 10000 1.5 180 21:54 08.11.2020
2079 Clear 17 1021 82 10000 1.5 230 21:36 08.11.2020
2080 Clear 17 1021 82 10000 1.5 230 21:18 08.11.2020
2081 Clear 17 1021 77 10000 2.6 230 20:39 08.11.2020
2082 Clear 18 1021 77 10000 2.6 230 20:20 08.11.2020
2083 Clear 18 1021 72 10000 2.1 230 19:56 08.11.2020
2084 Clear 18 1021 68 10000 2.6 220 19:37 08.11.2020
2085 Clear 19 1021 64 10000 2.6 230 19:18 08.11.2020
2086 Clear 19 1020 64 10000 4.1 240 18:45 08.11.2020
2087 Clear 20 1020 64 10000 4.1 240 18:21 08.11.2020
2088 Clouds 20 1020 60 10000 4.1 220 17:57 08.11.2020
2089 Clouds 21 1020 56 10000 4.1 220 17:37 08.11.2020
2090 Clouds 21 1020 56 10000 4.1 220 17:18 08.11.2020
2091 Clouds 22 1020 60 10000 3.6 220 16:46 08.11.2020
2092 Clouds 21 1020 60 10000 3.6 220 16:21 08.11.2020
2093 Clouds 21 1021 56 10000 3.6 230 15:50 08.11.2020
2094 Clouds 21 1021 60 10000 2.6 240 15:28 08.11.2020
2095 Clear 21 1021 56 10000 2.1 220 14:59 08.11.2020
2096 Clear 21 1021 60 10000 1 250 14:38 08.11.2020
2097 Clouds 21 1022 60 10000 1 250 14:20 08.11.2020
2098 Clouds 21 1022 68 10000 2.1 250 13:41 08.11.2020
2099 Clouds 20 1022 68 10000 2.1 250 13:20 08.11.2020
2100 Clouds 20 1021 70 10000 0.45 324 12:42 08.11.2020
2101 Clear 19 1023 72 10000 1 0 12:24 08.11.2020
2102 Clear 18 1023 72 10000 2.09 184 11:57 08.11.2020
2103 Clear 18 1023 77 10000 2.09 184 11:38 08.11.2020
2104 Clear 16 1023 82 10000 1 0 11:20 08.11.2020
2105 Clear 16 1023 82 10000 1 0 10:49 08.11.2020
2106 Clear 14 1023 87 10000 1.5 40 10:18 08.11.2020
2107 Clear 13 1023 93 10000 1 0 09:42 08.11.2020
2108 Clear 13 1023 93 10000 1 0 09:24 08.11.2020
2109 Clear 13 1023 100 10000 1.5 60 08:49 08.11.2020
2110 Clear 12 1022 93 10000 2.1 80 08:30 08.11.2020
2111 Clear 12 1022 100 10000 2.1 50 07:57 08.11.2020
2112 Clear 13 1022 100 10000 2.1 60 07:39 08.11.2020
2113 Clear 13 1022 100 10000 2.1 60 07:18 08.11.2020
2114 Clear 13 1022 100 10000 1.5 50 05:55 08.11.2020
2115 Clear 13 1022 100 10000 1.5 50 05:26 08.11.2020
2116 Clear 13 1022 100 10000 0.5 50 03:46 08.11.2020
2117 Clear 14 1023 93 10000 1 0 01:49 08.11.2020
2118 Clear 14 1023 93 10000 1.5 130 01:18 08.11.2020
2119 Clear 15 1023 93 10000 2.1 130 00:24 08.11.2020
2120 Clear 15 1023 93 10000 2.1 170 23:45 07.11.2020
2121 Clear 15 1023 93 10000 2.1 170 23:27 07.11.2020
2122 Clear 16 1023 93 10000 1.5 180 22:41 07.11.2020
2123 Clear 16 1023 93 10000 1.5 180 22:23 07.11.2020
2124 Clear 16 1023 87 10000 1.5 160 21:45 07.11.2020
2125 Clear 16 1023 87 10000 1.5 160 21:45 07.11.2020
2126 Clear 17 1023 82 10000 1.5 200 21:22 07.11.2020
2127 Clear 17 1023 77 10000 1.5 210 20:50 07.11.2020
2128 Clear 17 1022 82 10000 1 0 20:32 07.11.2020
2129 Clear 18 1022 77 10000 1.5 190 19:59 07.11.2020
2130 Clear 18 1022 68 10000 1.5 190 19:39 07.11.2020
2131 Clear 18 1022 68 10000 1.5 190 19:20 07.11.2020
2132 Clear 19 1021 60 10000 4.1 220 18:39 07.11.2020
2133 Clear 20 1021 60 10000 4.1 220 18:21 07.11.2020
2134 Clear 20 1021 60 10000 4.6 230 17:46 07.11.2020
2135 Clear 21 1021 60 10000 4.6 230 17:26 07.11.2020
2136 Clouds 21 1021 56 10000 4.6 220 16:44 07.11.2020
2137 Clouds 21 1021 56 10000 4.6 220 16:24 07.11.2020
2138 Clouds 21 1021 64 10000 5.1 230 15:48 07.11.2020
2139 Clouds 21 1021 60 10000 3.6 240 15:24 07.11.2020
2140 Clouds 21 1021 64 10000 3.1 240 14:58 07.11.2020
2141 Clouds 20 1021 63 10000 2.6 250 14:40 07.11.2020
2142 Clouds 20 1021 63 10000 2.6 250 14:19 07.11.2020
2143 Clouds 20 1021 63 10000 5.1 220 13:39 07.11.2020
2144 Clouds 20 1021 63 10000 5.1 220 13:39 07.11.2020
2145 Clouds 20 1021 63 10000 5.1 220 13:21 07.11.2020
2146 Clouds 19 1021 72 10000 3.1 300 12:35 07.11.2020
2147 Clouds 19 1021 77 10000 3.1 250 11:46 07.11.2020
2148 Clouds 18 1021 82 10000 4.1 260 11:25 07.11.2020
2149 Clear 17 1020 82 10000 3.1 240 10:57 07.11.2020
2150 Clear 17 1020 87 10000 3.1 230 10:39 07.11.2020
2151 Clear 16 1020 87 10000 3.1 230 10:20 07.11.2020
2152 Clear 16 1019 93 10000 4.1 230 09:47 07.11.2020
2153 Clear 15 1019 93 10000 2.6 200 09:21 07.11.2020
2154 Clouds 14 1018 100 10000 2.6 180 08:47 07.11.2020
2155 Clouds 14 1017 93 10000 2.1 180 08:29 07.11.2020
2156 Drizzle 14 1016 93 5000 1 260 07:48 07.11.2020
2157 Clouds 14 1015 93 10000 3.8 208 06:50 07.11.2020
2158 Clouds 14 1014 93 10000 1 150 05:54 07.11.2020
2159 Rain 14 1013 93 10000 2.6 130 04:22 07.11.2020
2160 Thunderstorm 14 1014 93 10000 3.6 140 02:46 07.11.2020
2161 Rain 15 1014 87 10000 1 0 01:27 07.11.2020
2162 Rain 15 1013 87 5083 2.68 226 00:37 07.11.2020
2163 Clouds 18 1012 68 10000 4.1 150 23:40 06.11.2020
2164 Clouds 18 1012 68 10000 4.1 150 23:18 06.11.2020
2165 Clear 18 1012 77 10000 4.1 120 22:40 06.11.2020
2166 Clear 18 1012 77 10000 4.1 120 22:18 06.11.2020
2167 Clouds 18 1012 82 10000 2.1 100 21:43 06.11.2020
2168 Clouds 18 1012 82 10000 2.1 100 21:43 06.11.2020
2169 Clouds 18 1012 82 10000 1.5 160 21:21 06.11.2020
2170 Clouds 18 1012 82 10000 1.5 160 20:48 06.11.2020
2171 Clouds 19 1012 72 10000 1 0 20:20 06.11.2020
2172 Clouds 19 1012 72 10000 1 0 19:47 06.11.2020
2173 Rain 19 1012 77 10000 2.1 240 19:29 06.11.2020
2174 Rain 19 1012 68 10000 5.1 240 18:58 06.11.2020
2175 Rain 19 1012 68 9000 4.6 220 18:40 06.11.2020
2176 Rain 20 1012 68 9000 4.6 220 18:19 06.11.2020
2177 Clouds 21 1012 73 9000 7.2 230 17:47 06.11.2020
2178 Clouds 21 1011 68 10000 6.2 230 17:25 06.11.2020
2179 Clouds 23 1010 53 10000 3.6 220 16:47 06.11.2020
2180 Clouds 23 1010 64 10000 3.6 210 16:24 06.11.2020
2181 Rain 23 1010 64 10000 3.6 210 15:47 06.11.2020
2182 Clouds 23 1010 64 10000 3.6 210 15:27 06.11.2020
2183 Clouds 23 1010 64 10000 3.1 210 14:51 06.11.2020
2184 Clouds 23 1010 64 10000 2.1 280 14:24 06.11.2020
2185 Clouds 22 1010 64 10000 2.6 230 13:44 06.11.2020
2186 Clouds 22 1011 60 10000 0.5 0 13:23 06.11.2020
2187 Clouds 21 1011 60 10000 2.1 310 12:45 06.11.2020
2188 Clouds 21 1011 60 10000 2.1 320 12:23 06.11.2020
2189 Clouds 20 1011 60 10000 1.5 330 11:46 06.11.2020
2190 Clouds 19 1011 68 10000 2.1 360 11:27 06.11.2020
2191 Clouds 19 1010 63 10000 1.5 320 10:41 06.11.2020
2192 Clouds 18 1010 63 10000 1.5 320 10:23 06.11.2020
2193 Clouds 18 1010 68 10000 1 0 09:48 06.11.2020
2194 Clouds 17 1009 67 10000 2.6 30 09:22 06.11.2020
2195 Clouds 17 1009 67 10000 2.6 30 08:51 06.11.2020
2196 Clouds 16 1009 72 10000 1.5 10 08:29 06.11.2020
2197 Clouds 16 1009 67 10000 4.1 30 07:53 06.11.2020
2198 Clouds 16 1010 77 10000 3.6 40 07:34 06.11.2020
2199 Clear 16 1010 77 10000 6.2 70 06:58 06.11.2020
2200 Clear 17 1011 72 10000 6.2 70 06:24 06.11.2020
2201 Clear 16 1011 72 10000 7.2 70 05:36 06.11.2020
2202 Clear 17 1013 77 10000 1.5 260 01:23 06.11.2020
2203 Clear 16 1013 82 10000 1.5 270 00:22 06.11.2020
2204 Clear 16 1012 77 10000 1 0 23:35 05.11.2020
2205 Clear 17 1012 77 10000 2.6 80 22:58 05.11.2020
2206 Clear 16 1012 87 10000 1.5 30 22:40 05.11.2020
2207 Clear 17 1012 77 10000 2.6 50 22:21 05.11.2020
2208 Clear 17 1012 77 10000 2.6 50 21:44 05.11.2020
2209 Clear 18 1012 77 10000 2.6 50 21:23 05.11.2020
2210 Clear 18 1012 77 10000 3.1 50 20:58 05.11.2020
2211 Clear 18 1012 77 10000 2.6 40 20:39 05.11.2020
2212 Clear 18 1012 77 10000 2.6 40 20:21 05.11.2020
2213 Clear 18 1011 77 10000 5.1 80 19:43 05.11.2020
2214 Clear 18 1011 77 10000 4.1 90 19:25 05.11.2020
2215 Clear 19 1010 77 10000 4.6 90 18:50 05.11.2020
2216 Clear 19 1010 72 10000 5.7 80 18:32 05.11.2020
2217 Clear 20 1011 72 10000 6.2 90 17:56 05.11.2020
2218 Clear 20 1011 72 10000 4.6 80 17:38 05.11.2020
2219 Clear 20 1011 72 10000 4.6 80 17:20 05.11.2020
2220 Clouds 21 1011 60 10000 5.7 90 16:43 05.11.2020
2221 Clouds 21 1011 60 10000 5.7 90 16:22 05.11.2020
2222 Clouds 21 1011 60 10000 5.7 90 15:50 05.11.2020
2223 Clouds 20 1011 60 10000 5.7 90 15:26 05.11.2020
2224 Clouds 20 1011 64 10000 4.1 80 14:49 05.11.2020
2225 Clouds 20 1012 72 10000 4.1 60 14:31 05.11.2020
2226 Clouds 19 1012 72 10000 6.2 90 13:49 05.11.2020
2227 Clouds 18 1013 77 10000 6.2 80 13:31 05.11.2020
2228 Clouds 18 1013 77 10000 6.2 80 13:31 05.11.2020
2229 Clouds 18 1013 77 10000 3.6 70 12:54 05.11.2020
2230 Clouds 17 1013 88 10000 4.1 80 12:30 05.11.2020
2231 Clouds 17 1013 82 10000 3.6 80 11:58 05.11.2020
2232 Rain 17 1013 88 10000 2.1 70 11:38 05.11.2020
2233 Clouds 17 1013 88 10000 2.1 70 11:19 05.11.2020
2234 Clouds 16 1013 88 10000 2.1 60 10:45 05.11.2020
2235 Clouds 16 1013 87 10000 1.5 100 10:26 05.11.2020
2236 Clouds 15 1013 87 10000 2.1 80 09:48 05.11.2020
2237 Clouds 15 1012 93 10000 1.5 40 09:23 05.11.2020
2238 Clouds 15 1012 93 10000 1 140 08:45 05.11.2020
2239 Clouds 15 1012 93 10000 1.5 170 08:26 05.11.2020
2240 Clouds 15 1011 93 10000 2.6 170 07:42 05.11.2020
2241 Clouds 15 1011 93 10000 2.6 170 07:22 05.11.2020
2242 Clouds 15 1011 93 9000 3.6 110 06:42 05.11.2020
2243 Clouds 15 1011 93 6000 2.1 110 05:53 05.11.2020
2244 Rain 15 1011 93 7000 3.6 80 01:39 05.11.2020
2245 Rain 16 1011 77 10000 4.6 70 00:34 05.11.2020
2246 Rain 17 1011 72 10000 4.1 70 23:46 04.11.2020
2247 Clouds 17 1011 72 10000 4.1 90 23:26 04.11.2020
2248 Clouds 17 1011 72 10000 3.6 90 22:54 04.11.2020
2249 Rain 17 1011 68 10000 2.1 100 22:36 04.11.2020
2250 Rain 18 1011 68 10000 2.1 100 22:18 04.11.2020
2251 Clouds 18 1011 68 10000 2.1 100 21:42 04.11.2020
2252 Rain 18 1011 68 10000 2.1 100 21:24 04.11.2020
2253 Clouds 18 1011 68 10000 1.5 110 20:45 04.11.2020
2254 Clouds 18 1011 72 10000 1 100 20:27 04.11.2020
2255 Clouds 18 1011 68 10000 0.5 0 19:50 04.11.2020
2256 Clouds 19 1011 63 10000 1.5 180 19:30 04.11.2020
2257 Clouds 19 1011 63 10000 3.1 190 18:58 04.11.2020
2258 Clouds 19 1011 72 10000 1 0 18:39 04.11.2020
2259 Clouds 19 1011 72 10000 1 0 18:20 04.11.2020
2260 Thunderstorm 20 1012 68 10000 2.6 60 17:45 04.11.2020
2261 Rain 20 1012 72 10000 3.1 10 17:24 04.11.2020
2262 Clouds 20 1013 64 10000 1 0 16:44 04.11.2020
2263 Clouds 21 1013 56 10000 2.1 220 16:24 04.11.2020
2264 Clouds 21 1013 56 10000 2.1 220 15:55 04.11.2020
2265 Clouds 20 1013 56 10000 2.1 220 15:37 04.11.2020
2266 Clouds 20 1013 56 10000 2.1 220 15:18 04.11.2020
2267 Clouds 20 1014 68 10000 1.5 240 14:42 04.11.2020
2268 Clouds 20 1014 68 10000 1.5 240 14:24 04.11.2020
2269 Clouds 20 1015 68 10000 1.5 210 13:50 04.11.2020
2270 Clouds 20 1015 68 10000 1.5 210 13:50 04.11.2020
2271 Clouds 20 1015 72 10000 2.1 260 13:21 04.11.2020
2272 Clouds 20 1016 64 10000 2.1 200 12:57 04.11.2020
2273 Clouds 19 1016 68 10000 2.1 210 12:39 04.11.2020
2274 Clouds 19 1016 68 10000 2.1 210 12:21 04.11.2020
2275 Clouds 19 1017 72 10000 2.6 220 11:44 04.11.2020
2276 Clouds 18 1017 72 10000 2.6 220 11:21 04.11.2020
2277 Clouds 18 1017 77 10000 2.6 210 10:48 04.11.2020
2278 Clear 17 1018 82 10000 1.5 230 10:23 04.11.2020
2279 Clouds 17 1018 93 10000 0.5 0 09:55 04.11.2020
2280 Clouds 16 1018 93 9000 1 270 09:28 04.11.2020
2281 Clouds 15 1018 100 9000 1.5 270 08:48 04.11.2020
2282 Clouds 16 1018 93 9000 1.5 300 08:23 04.11.2020
2283 Clouds 15 1018 93 10000 1 350 07:57 04.11.2020
2284 Clear 16 1018 93 10000 1.27 79 07:31 04.11.2020
2285 Clear 16 1018 100 10000 1 240 06:59 04.11.2020
2286 Clear 16 1018 93 10000 1.18 32 06:39 04.11.2020
2287 Clear 17 1019 93 10000 1 70 04:59 04.11.2020
2288 Clear 18 1020 82 10000 2.6 50 02:31 04.11.2020
2289 Clear 18 1021 88 10000 1.5 40 01:38 04.11.2020
2290 Rain 19 1021 82 10000 1.5 360 23:56 03.11.2020
2291 Clear 19 1022 77 10000 2.1 30 23:25 03.11.2020
2292 Clear 19 1022 77 10000 2.1 30 22:55 03.11.2020
2293 Clear 20 1022 68 10000 2.6 50 22:37 03.11.2020
2294 Clear 20 1022 68 10000 2.6 50 22:18 03.11.2020
2295 Rain 20 1022 68 10000 2.6 50 21:41 03.11.2020
2296 Rain 19 1022 68 10000 2.6 50 21:23 03.11.2020
2297 Clear 20 1022 72 10000 2.1 20 20:48 03.11.2020
2298 Clear 20 1021 68 10000 3.1 60 20:27 03.11.2020
2299 Clear 20 1021 72 10000 3.1 50 19:55 03.11.2020
2300 Clear 20 1021 72 10000 2.1 340 19:37 03.11.2020
2301 Clear 20 1021 72 10000 2.1 340 19:18 03.11.2020
2302 Clear 21 1021 73 10000 1.5 350 18:40 03.11.2020
2303 Clear 21 1021 73 10000 1.5 350 18:19 03.11.2020
2304 Clouds 21 1021 68 10000 3.1 10 17:46 03.11.2020
2305 Clouds 22 1021 68 10000 3.1 10 17:27 03.11.2020
2306 Clouds 22 1021 78 10000 4.1 290 16:51 03.11.2020
2307 Rain 22 1021 56 10000 2.1 330 16:30 03.11.2020
2308 Rain 23 1021 56 10000 2.1 330 15:55 03.11.2020
2309 Rain 23 1021 56 10000 2.1 330 15:37 03.11.2020
2310 Rain 23 1021 60 10000 1.5 330 15:18 03.11.2020
2311 Clear 23 1022 56 10000 1.5 330 14:41 03.11.2020
2312 Rain 23 1022 56 10000 1.5 330 14:23 03.11.2020
2313 Rain 23 1022 64 10000 2.6 20 13:41 03.11.2020
2314 Rain 23 1022 64 10000 2.6 20 13:21 03.11.2020
2315 Clear 22 1023 64 10000 2.6 20 12:45 03.11.2020
2316 Clear 21 1023 73 10000 2.1 10 12:24 03.11.2020
2317 Clear 21 1023 68 10000 2.1 30 11:47 03.11.2020
2318 Clear 20 1023 68 10000 2.1 30 11:26 03.11.2020
2319 Clear 19 1023 72 10000 1.5 360 10:59 03.11.2020
2320 Clear 19 1023 72 10000 1 0 10:38 03.11.2020
2321 Clear 19 1023 72 10000 1 0 10:18 03.11.2020
2322 Clear 19 1023 77 10000 0.5 0 09:45 03.11.2020
2323 Clear 18 1022 87 10000 1 120 09:24 03.11.2020
2324 Clouds 17 1022 87 9000 0.5 280 08:49 03.11.2020
2325 Clear 16 1022 93 10000 1.52 61 08:30 03.11.2020
2326 Clear 16 1021 93 10000 1.5 30 07:41 03.11.2020
2327 Clear 16 1021 93 10000 1.5 30 07:19 03.11.2020
2328 Clouds 17 1021 85 10000 0.89 49 06:34 03.11.2020
2329 Clear 17 1022 87 10000 1.5 60 04:37 03.11.2020
2330 Clear 19 1021 73 10000 0.45 3 00:46 03.11.2020
2331 Clear 19 1020 68 10000 0.45 128 00:25 03.11.2020
2332 Clear 20 1021 68 10000 0.89 24 23:47 02.11.2020
2333 Clear 20 1022 68 10000 1.5 20 23:28 02.11.2020
2334 Clear 20 1021 64 10000 1.34 353 22:45 02.11.2020
2335 Clear 21 1020 62 10000 0.45 16 22:27 02.11.2020
2336 Clear 21 1021 63 10000 1.5 80 21:58 02.11.2020
2337 Clear 21 1021 63 10000 1 0 21:36 02.11.2020
2338 Clear 21 1021 63 10000 1 0 21:18 02.11.2020
2339 Clear 22 1021 63 10000 1.8 334 20:38 02.11.2020
2340 Clear 22 1021 63 10000 1.3 296 20:19 02.11.2020
2341 Clear 23 1020 53 10000 1 240 19:44 02.11.2020
2342 Clear 24 1020 53 10000 1 240 19:26 02.11.2020
2343 Clear 24 1020 53 10000 1 240 19:26 02.11.2020
2344 Clear 24 1020 53 10000 1 240 19:26 02.11.2020
2345 Clear 25 1020 44 10000 1 190 18:55 02.11.2020
2346 Clear 26 1020 30 10000 0.5 200 18:36 02.11.2020
2347 Clear 26 1020 30 10000 0.5 200 18:18 02.11.2020
2348 Clear 28 1020 28 10000 0.5 0 17:40 02.11.2020
2349 Clear 28 1020 28 10000 0.5 0 17:21 02.11.2020
2350 Clear 28 1020 28 10000 1 0 16:49 02.11.2020
2351 Clear 28 1020 28 10000 1.5 350 16:28 02.11.2020
2352 Clear 28 1020 32 10000 1.5 0 15:55 02.11.2020
2353 Clear 28 1020 32 10000 1.5 30 15:37 02.11.2020
2354 Clear 27 1020 32 10000 1.5 30 15:19 02.11.2020
2355 Clear 27 1021 39 10000 2.1 40 14:42 02.11.2020
2356 Clear 26 1021 39 10000 2.1 40 14:19 02.11.2020
2357 Clear 26 1022 44 10000 2.6 40 13:47 02.11.2020
2358 Clear 24 1022 44 10000 2.6 40 13:22 02.11.2020
2359 Clear 24 1022 49 10000 3.1 40 12:50 02.11.2020
2360 Clear 23 1023 53 10000 3.1 40 12:26 02.11.2020
2361 Clear 22 1023 56 10000 3.6 40 11:46 02.11.2020
2362 Clear 20 1023 63 10000 4.1 40 11:20 02.11.2020
2363 Clear 19 1023 72 10000 3.6 40 10:48 02.11.2020
2364 Clear 18 1023 72 10000 3.6 40 10:25 02.11.2020
2365 Clear 18 1023 72 10000 2.6 40 09:56 02.11.2020
2366 Clear 16 1022 82 10000 3.1 40 09:30 02.11.2020
2367 Clear 15 1022 82 10000 2.6 40 08:59 02.11.2020
2368 Clear 15 1022 82 10000 3.1 50 08:38 02.11.2020
2369 Clear 15 1022 82 10000 3.1 50 08:19 02.11.2020
2370 Clear 15 1022 82 10000 1 50 07:39 02.11.2020
2371 Clear 15 1022 82 10000 2.1 40 06:45 02.11.2020
2372 Clear 16 1021 82 10000 2.1 60 05:39 02.11.2020
2373 Clouds 18 1021 73 10000 0.89 25 01:35 02.11.2020
2374 Clear 18 1022 77 10000 0.5 0 00:41 02.11.2020
2375 Clear 19 1022 77 10000 0.5 0 00:23 02.11.2020
2376 Clouds 19 1020 71 10000 0.89 360 23:40 01.11.2020
2377 Clear 19 1022 77 10000 1 80 23:21 01.11.2020
2378 Clear 19 1022 77 10000 0.5 40 22:44 01.11.2020
2379 Clear 20 1022 77 10000 0.5 40 22:23 01.11.2020
2380 Clear 20 1022 77 10000 0.5 30 21:46 01.11.2020
2381 Clear 20 1022 77 10000 0.5 70 21:26 01.11.2020
2382 Clear 21 1022 72 10000 1.5 120 20:51 01.11.2020
2383 Clear 21 1022 72 10000 0.25 266 20:29 01.11.2020
2384 Clear 22 1022 64 10000 0.25 266 19:59 01.11.2020
2385 Clear 23 1022 53 10000 0.5 340 19:41 01.11.2020
2386 Clear 23 1022 53 10000 0.5 340 19:21 01.11.2020
2387 Clear 25 1022 41 10000 0.34 149 18:41 01.11.2020
2388 Clear 25 1022 41 10000 0.77 131 18:19 01.11.2020
2389 Clear 25 1022 41 10000 0.77 131 18:19 01.11.2020
2390 Clear 26 1022 41 10000 1 0 17:57 01.11.2020
2391 Clear 26 1022 39 10000 1.5 30 17:37 01.11.2020
2392 Clear 27 1022 39 10000 1.5 30 17:19 01.11.2020
2393 Clear 27 1022 34 10000 2.1 360 16:40 01.11.2020
2394 Clear 27 1022 34 10000 2.1 360 16:19 01.11.2020
2395 Clear 27 1023 34 10000 2.1 20 15:41 01.11.2020
2396 Clear 27 1023 34 10000 2.1 20 15:21 01.11.2020
2397 Clear 26 1023 36 10000 1.5 70 14:57 01.11.2020
2398 Clear 26 1023 41 10000 2.6 90 14:39 01.11.2020
2399 Clear 26 1023 41 10000 2.6 90 14:18 01.11.2020
2400 Clear 25 1024 47 10000 2.6 40 13:46 01.11.2020
2401 Clear 24 1024 44 10000 3.1 30 13:28 01.11.2020
2402 Clear 23 1025 53 10000 3.1 40 12:43 01.11.2020
2403 Clear 23 1025 53 10000 3.1 40 12:23 01.11.2020
2404 Clear 22 1025 56 10000 3.1 30 11:51 01.11.2020
2405 Clear 21 1025 60 10000 3.1 30 11:19 01.11.2020
2406 Clear 18 1025 63 10000 3.1 40 10:43 01.11.2020
2407 Clear 18 1025 63 10000 3.1 40 10:24 01.11.2020
2408 Clear 17 1025 72 10000 2.6 40 09:57 01.11.2020
2409 Clear 16 1024 77 10000 1 0 09:39 01.11.2020
2410 Clear 16 1024 82 10000 1 0 08:47 01.11.2020
2411 Clear 14 1024 93 10000 0.5 0 08:23 01.11.2020
2412 Clear 14 1024 93 10000 2.73 30 07:43 01.11.2020
2413 Clouds 15 1024 87 9000 0.5 90 04:31 01.11.2020
2414 Clear 16 1025 87 10000 2.31 11 01:52 01.11.2020
2415 Clear 17 1024 82 10000 2.1 150 00:43 01.11.2020
2416 Clear 18 1024 77 10000 2.1 130 23:28 31.10.2020
2417 Clear 18 1024 77 10000 2.1 150 22:59 31.10.2020
2418 Clear 19 1024 72 10000 1.71 348 22:41 31.10.2020
2419 Clear 19 1024 72 10000 1.62 330 22:22 31.10.2020
2420 Clear 20 1024 63 10000 1.62 330 21:44 31.10.2020
2421 Clear 20 1023 62 10000 1.87 298 21:20 31.10.2020
2422 Clear 21 1024 63 10000 1.87 298 20:39 31.10.2020
2423 Clear 21 1024 63 10000 1.7 268 20:19 31.10.2020
2424 Clear 22 1023 56 10000 0.5 240 19:41 31.10.2020
2425 Clear 22 1023 56 10000 0.5 240 19:23 31.10.2020
2426 Clear 23 1023 46 10000 1 250 18:52 31.10.2020
2427 Clear 24 1023 38 10000 1 0 18:34 31.10.2020
2428 Clear 26 1023 34 10000 0.5 110 17:43 31.10.2020
2429 Clear 27 1023 34 10000 0.5 110 17:24 31.10.2020
2430 Clear 27 1023 34 10000 0.5 110 16:53 31.10.2020
2431 Clear 26 1023 34 10000 1 270 16:33 31.10.2020
2432 Clear 26 1023 34 10000 1 230 15:55 31.10.2020
2433 Clear 26 1024 38 10000 1.5 300 15:26 31.10.2020
2434 Clear 25 1024 38 10000 1 320 14:53 31.10.2020
2435 Clear 25 1024 38 10000 0.5 180 14:32 31.10.2020
2436 Clear 24 1024 41 10000 1 60 13:53 31.10.2020
2437 Clear 23 1025 43 10000 1 0 13:29 31.10.2020
2438 Clear 23 1025 53 10000 1.67 55 12:56 31.10.2020
2439 Clear 21 1026 56 10000 0.5 280 12:25 31.10.2020
2440 Clear 18 1026 63 10000 1 0 11:42 31.10.2020
2441 Clear 18 1026 63 10000 1 0 11:23 31.10.2020
2442 Clear 16 1025 72 10000 1 0 10:49 31.10.2020
2443 Clear 16 1025 72 10000 1 0 10:30 31.10.2020
2444 Clear 13 1025 82 10000 1.5 30 09:40 31.10.2020
2445 Clear 15 1025 82 10000 1.5 30 09:20 31.10.2020
2446 Clear 14 1024 87 10000 0.5 60 08:27 31.10.2020
2447 Clear 14 1024 81 10000 1.64 38 07:47 31.10.2020
2448 Clear 14 1024 87 10000 0.5 0 07:26 31.10.2020
2449 Clear 14 1024 87 10000 0.5 50 06:37 31.10.2020
2450 Clear 15 1023 82 10000 0.5 0 03:50 31.10.2020
2451 Clear 16 1023 82 10000 0.5 0 02:48 31.10.2020
2452 Clear 17 1023 72 10000 1 60 00:57 31.10.2020
2453 Clear 18 1023 77 10000 1 0 00:21 31.10.2020
2454 Clear 18 1023 77 10000 1 0 23:46 30.10.2020
2455 Clouds 19 1022 65 10000 1.34 21 23:23 30.10.2020
2456 Clear 19 1023 72 10000 1.91 359 22:43 30.10.2020
2457 Clear 19 1023 72 10000 1.6 14 22:22 30.10.2020
2458 Clear 20 1023 68 10000 1 0 21:52 30.10.2020
2459 Clear 20 1023 68 10000 1 30 21:29 30.10.2020
2460 Clouds 21 1021 56 10000 0.89 20 20:59 30.10.2020
2461 Clear 21 1022 64 10000 2.1 50 20:37 30.10.2020
2462 Clear 22 1022 64 10000 2.1 50 20:19 30.10.2020
2463 Clear 22 1022 60 10000 2.6 30 19:44 30.10.2020
2464 Clear 23 1022 56 10000 2.1 30 19:18 30.10.2020
2465 Clear 23 1022 53 10000 2.1 30 18:49 30.10.2020
2466 Clear 24 1022 47 10000 2.6 30 18:27 30.10.2020
2467 Clear 25 1022 41 10000 2.6 20 17:49 30.10.2020
2468 Clear 25 1022 41 10000 3.6 20 17:23 30.10.2020
2469 Clear 25 1022 41 10000 4.1 30 16:57 30.10.2020
2470 Clear 25 1022 41 10000 3.1 10 16:37 30.10.2020
2471 Clear 26 1022 41 10000 3.1 10 16:18 30.10.2020
2472 Clear 26 1022 41 10000 3.1 10 15:40 30.10.2020
2473 Clear 26 1022 41 10000 3.1 10 15:19 30.10.2020
2474 Clear 25 1022 44 10000 2.6 10 14:44 30.10.2020
2475 Clear 25 1022 44 10000 1.5 10 14:25 30.10.2020
2476 Clear 25 1023 44 10000 2.6 10 13:46 30.10.2020
2477 Clear 24 1023 47 10000 2.1 20 13:21 30.10.2020
2478 Clear 24 1024 49 10000 2.6 20 12:54 30.10.2020
2479 Clear 22 1024 53 10000 2.1 10 12:22 30.10.2020
2480 Clear 21 1024 60 10000 3.1 20 11:56 30.10.2020
2481 Clear 20 1024 60 10000 4.1 30 11:23 30.10.2020
2482 Clear 19 1024 68 10000 3.6 30 10:56 30.10.2020
2483 Clear 18 1024 63 10000 3.6 40 10:37 30.10.2020
2484 Clear 17 1024 67 10000 3.1 40 10:19 30.10.2020
2485 Clear 16 1024 72 10000 3.6 30 09:42 30.10.2020
2486 Clear 16 1024 72 10000 3.6 30 09:20 30.10.2020
2487 Clear 15 1023 76 10000 2.6 20 08:36 30.10.2020
2488 Clear 15 1023 76 10000 2.6 20 08:18 30.10.2020
2489 Clear 15 1023 76 10000 2.6 20 08:18 30.10.2020
2490 Clear 15 1023 76 10000 2.6 10 07:45 30.10.2020
2491 Clear 14 1023 76 10000 2.1 20 07:26 30.10.2020
2492 Clear 15 1023 76 10000 2.6 40 06:21 30.10.2020
2493 Clear 15 1023 76 10000 1 0 04:26 30.10.2020
2494 Clear 17 1023 77 10000 1.5 10 01:39 30.10.2020
2495 Clear 17 1024 67 10000 2.1 20 00:38 30.10.2020
2496 Clear 18 1024 55 10000 0.5 0 23:48 29.10.2020
2497 Clear 18 1024 63 10000 1.5 100 23:30 29.10.2020
2498 Clear 19 1023 55 10000 3.1 110 22:49 29.10.2020
2499 Clear 19 1023 63 10000 2.6 200 22:27 29.10.2020
2500 Clear 19 1023 63 10000 2.6 200 21:51 29.10.2020
2501 Clear 20 1023 49 10000 3.6 100 21:28 29.10.2020
2502 Clear 21 1022 52 10000 1.5 40 20:59 29.10.2020
2503 Clear 21 1022 55 10000 1 0 20:40 29.10.2020
2504 Clear 21 1022 55 10000 1 0 20:40 29.10.2020
2505 Clear 21 1022 55 10000 1 0 20:18 29.10.2020
2506 Clear 24 1022 38 10000 2.6 40 19:40 29.10.2020
2507 Clear 24 1022 38 10000 2.6 40 19:21 29.10.2020
2508 Clear 25 1021 36 10000 2.6 60 18:47 29.10.2020
2509 Clear 26 1021 31 10000 2.6 60 18:27 29.10.2020
2510 Clear 27 1022 28 10000 4.6 90 17:55 29.10.2020
2511 Clear 28 1022 26 10000 4.6 100 17:37 29.10.2020
2512 Clear 28 1022 26 10000 4.6 100 17:18 29.10.2020
2513 Clear 28 1022 26 10000 4.6 100 17:18 29.10.2020
2514 Clear 28 1022 32 10000 1 0 16:43 29.10.2020
2515 Clear 28 1022 32 10000 1 0 16:18 29.10.2020
2516 Clear 27 1022 32 10000 1 0 15:55 29.10.2020
2517 Clear 27 1022 32 10000 1 0 15:37 29.10.2020
2518 Clear 27 1022 32 10000 1 0 15:37 29.10.2020
2519 Clear 27 1022 32 10000 1 0 15:18 29.10.2020
2520 Clear 26 1023 36 10000 3.1 70 14:42 29.10.2020
2521 Clear 26 1023 36 10000 3.1 70 14:21 29.10.2020
2522 Clear 25 1024 44 10000 4.6 60 13:46 29.10.2020
2523 Clear 24 1024 44 10000 4.6 60 13:27 29.10.2020
2524 Clear 23 1024 49 10000 3.6 50 12:44 29.10.2020
2525 Clear 22 1024 56 10000 4.6 40 12:20 29.10.2020
2526 Clear 21 1024 56 10000 5.1 40 11:56 29.10.2020
2527 Clear 20 1025 64 10000 5.7 50 11:38 29.10.2020
2528 Clear 20 1025 64 10000 5.7 50 11:19 29.10.2020
2529 Clear 18 1025 72 10000 4.6 40 10:37 29.10.2020
2530 Clear 18 1025 72 10000 4.6 40 10:18 29.10.2020
2531 Clear 16 1024 82 10000 5.1 50 09:48 29.10.2020
2532 Clear 15 1024 82 10000 5.1 40 09:24 29.10.2020
2533 Clear 15 1024 82 10000 4.1 40 08:44 29.10.2020
2534 Clear 14 1023 82 10000 4.1 30 08:24 29.10.2020
2535 Clear 14 1023 87 10000 3.6 20 07:49 29.10.2020
2536 Clear 15 1023 82 10000 3.6 30 07:21 29.10.2020
2537 Clear 14 1023 87 10000 3.1 60 06:47 29.10.2020
2538 Clear 15 1023 87 10000 1 0 04:50 29.10.2020
2539 Clear 16 1022 83 10000 0.89 359 02:29 29.10.2020
2540 Clouds 16 1022 80 10000 1.34 337 00:45 29.10.2020
2541 Clouds 17 1022 79 10000 1.34 6 00:23 29.10.2020
2542 Clouds 17 1022 78 10000 0.89 1 23:43 28.10.2020
2543 Clouds 17 1022 77 10000 0.45 2 23:20 28.10.2020
2544 Clear 18 1023 77 10000 1 80 22:44 28.10.2020
2545 Clear 18 1023 82 10000 2.5 31 22:25 28.10.2020
2546 Clear 18 1023 82 10000 2.5 31 21:46 28.10.2020
2547 Clear 18 1023 82 10000 2.07 31 21:26 28.10.2020
2548 Clear 18 1023 77 10000 0.5 0 20:59 28.10.2020
2549 Clear 19 1023 68 10000 2.07 31 20:40 28.10.2020
2550 Clear 19 1022 72 10000 1 320 20:19 28.10.2020
2551 Clear 20 1022 72 10000 1 320 19:47 28.10.2020
2552 Clear 20 1022 68 10000 1.57 116 19:27 28.10.2020
2553 Clear 22 1021 53 10000 1 80 18:46 28.10.2020
2554 Clear 22 1021 53 10000 1 80 18:20 28.10.2020
2555 Clear 23 1021 53 10000 1 0 17:44 28.10.2020
2556 Clear 23 1021 53 10000 1 0 17:25 28.10.2020
2557 Clear 23 1022 49 10000 1 0 16:49 28.10.2020
2558 Clear 23 1022 52 10000 3.1 40 16:31 28.10.2020
2559 Clear 22 1022 52 10000 3.1 40 15:55 28.10.2020
2560 Clear 22 1022 52 10000 3.1 40 15:36 28.10.2020
2561 Clear 22 1022 52 10000 3.1 40 15:18 28.10.2020
2562 Clear 21 1023 52 10000 3.6 50 14:41 28.10.2020
2563 Clear 21 1023 52 10000 3.6 50 14:20 28.10.2020
2564 Clouds 17 1024 61 10000 2.68 343 12:40 28.10.2020
2565 Clouds 17 1023 66 10000 0.89 21 12:21 28.10.2020
2566 Clouds 16 1024 66 10000 2.24 51 11:45 28.10.2020
2567 Clouds 16 1023 68 10000 1.34 2 11:24 28.10.2020
2568 Clear 13 1023 82 10000 2.6 60 11:00 28.10.2020
2569 Clear 12 1023 81 10000 1.5 350 10:41 28.10.2020
2570 Clear 14 1023 81 10000 1.5 350 10:22 28.10.2020
2571 Clear 12 1023 81 10000 1.5 350 09:42 28.10.2020
2572 Clear 13 1023 81 10000 1.5 350 09:22 28.10.2020
2573 Clear 12 1022 87 10000 1.5 10 08:49 28.10.2020
2574 Clear 11 1022 87 10000 1 360 08:28 28.10.2020
2575 Clear 11 1022 87 10000 1.5 360 07:50 28.10.2020
2576 Clear 12 1022 87 10000 1 20 07:31 28.10.2020
2577 Clear 12 1021 87 10000 1 0 06:42 28.10.2020
2578 Clear 12 1021 87 10000 1 0 06:23 28.10.2020
2579 Clear 12 1021 81 10000 2.6 40 05:22 28.10.2020
2580 Clear 13 1021 87 10000 1 50 04:30 28.10.2020
2581 Clear 13 1022 81 10000 0.5 0 02:26 28.10.2020
2582 Clear 13 1022 81 10000 0.5 0 02:26 28.10.2020
2583 Clear 14 1020 71 10000 0.89 14 01:53 28.10.2020
2584 Clouds 14 1021 67 10000 1.34 9 00:31 28.10.2020
2585 Clear 15 1022 76 10000 1.5 30 23:47 27.10.2020
2586 Clear 15 1022 76 10000 1.5 30 23:21 27.10.2020
2587 Clear 15 1022 76 10000 0.88 16 22:44 27.10.2020
2588 Clear 15 1021 71 10000 1 180 22:19 27.10.2020
2589 Clear 15 1021 71 10000 1 180 21:57 27.10.2020
2590 Clear 15 1021 71 10000 1 180 21:57 27.10.2020
2591 Clear 15 1021 71 10000 1 180 21:37 27.10.2020
2592 Clear 15 1021 71 10000 1 180 21:19 27.10.2020
2593 Clear 15 1021 67 10000 1.5 220 20:50 27.10.2020
2594 Clear 16 1021 67 10000 1.5 230 20:24 27.10.2020
2595 Clear 17 1021 58 10000 1.5 220 19:57 27.10.2020
2596 Clear 17 1020 55 10000 1.5 220 19:38 27.10.2020
2597 Clear 17 1020 55 10000 1.5 220 19:19 27.10.2020
2598 Clear 19 1020 37 10000 1.5 210 18:45 27.10.2020
2599 Clear 19 1020 37 10000 1.5 210 18:27 27.10.2020
2600 Clear 20 1020 34 10000 0.5 0 17:59 27.10.2020
2601 Clear 20 1020 34 10000 0.5 0 17:40 27.10.2020
2602 Clear 20 1020 34 10000 0.5 0 17:19 27.10.2020
2603 Clear 20 1021 32 10000 1 360 16:44 27.10.2020
2604 Clear 20 1021 39 10000 1 0 16:23 27.10.2020
2605 Clear 19 1021 39 10000 1 0 15:42 27.10.2020
2606 Clear 19 1021 39 10000 1 0 15:24 27.10.2020
2607 Clear 19 1021 39 10000 1.5 10 14:51 27.10.2020
2608 Clear 19 1022 39 10000 2.1 320 14:32 27.10.2020
2609 Clear 18 1022 42 10000 1.5 350 13:59 27.10.2020
2610 Clear 18 1023 48 10000 1.5 40 13:31 27.10.2020
2611 Clear 18 1023 52 10000 1.5 20 12:54 27.10.2020
2612 Clear 17 1023 55 10000 1 0 12:36 27.10.2020
2613 Clear 17 1023 55 10000 1 0 12:18 27.10.2020
2614 Clear 15 1023 67 10000 2.6 30 11:42 27.10.2020
2615 Clear 14 1023 67 10000 2.6 30 11:21 27.10.2020
2616 Clear 14 1023 67 10000 2.1 30 10:46 27.10.2020
2617 Clear 13 1023 71 10000 3.1 30 10:24 27.10.2020
2618 Clear 11 1023 76 10000 2.6 350 09:44 27.10.2020
2619 Clear 11 1023 81 10000 1.5 350 09:23 27.10.2020
2620 Clear 10 1022 87 10000 1.5 350 08:38 27.10.2020
2621 Clear 10 1022 87 10000 1.5 350 08:18 27.10.2020
2622 Clear 10 1022 87 10000 1 0 07:44 27.10.2020
2623 Clear 10 1022 87 10000 1 350 07:25 27.10.2020
2624 Clear 10 1022 93 10000 0.5 40 06:22 27.10.2020
2625 Clear 10 1022 93 10000 0.5 330 05:51 27.10.2020
2626 Clear 10 1022 93 10000 1.49 20 05:33 27.10.2020
2627 Clear 10 1022 93 10000 0.5 0 04:44 27.10.2020
2628 Clear 12 1023 81 10000 1.5 30 02:30 27.10.2020
2629 Clear 13 1023 87 10000 1 0 00:53 27.10.2020
2630 Clear 14 1023 81 10000 1 0 23:44 26.10.2020
2631 Clear 14 1023 81 10000 0.5 60 23:22 26.10.2020
2632 Clear 14 1023 81 10000 2.3 331 22:47 26.10.2020
2633 Clear 15 1022 62 10000 1 0 22:26 26.10.2020
2634 Clear 14 1022 62 10000 1 0 21:49 26.10.2020
2635 Clear 15 1022 62 10000 1 0 21:21 26.10.2020
2636 Clear 15 1022 55 10000 1 0 20:58 26.10.2020
2637 Clear 15 1022 67 10000 1 0 20:39 26.10.2020
2638 Clear 15 1022 67 10000 1 0 20:18 26.10.2020
2639 Clear 16 1021 58 10000 1 330 19:47 26.10.2020
2640 Clear 17 1021 55 10000 1 300 19:23 26.10.2020
2641 Clear 18 1021 45 10000 2.6 50 18:44 26.10.2020
2642 Clear 19 1021 37 10000 3.6 10 18:24 26.10.2020
2643 Clear 19 1021 34 10000 3.1 360 17:59 26.10.2020
2644 Clear 20 1020 30 10000 3.6 360 17:39 26.10.2020
2645 Clear 20 1020 30 10000 3.6 360 17:21 26.10.2020
2646 Clear 20 1021 34 10000 4.6 350 16:40 26.10.2020
2647 Clear 20 1021 42 10000 2.6 360 16:21 26.10.2020
2648 Clear 19 1021 42 10000 2.6 360 15:43 26.10.2020
2649 Clear 20 1021 42 10000 2.6 360 15:24 26.10.2020
2650 Clear 19 1021 42 10000 3.6 300 14:53 26.10.2020
2651 Clouds 19 1021 42 10000 2.1 320 14:34 26.10.2020
2652 Clouds 18 1022 48 10000 3.1 330 13:46 26.10.2020
2653 Clouds 18 1022 48 10000 3.1 330 13:27 26.10.2020
2654 Clear 18 1022 48 10000 3.6 310 12:57 26.10.2020
2655 Clear 18 1022 48 10000 2.6 320 12:33 26.10.2020
2656 Clear 17 1022 52 10000 2.1 0 11:57 26.10.2020
2657 Clear 17 1022 59 10000 3.6 330 11:39 26.10.2020
2658 Clear 17 1022 59 10000 3.6 330 11:21 26.10.2020
2659 Clear 16 1022 59 10000 3.1 330 10:57 26.10.2020
2660 Clear 15 1022 63 10000 2.6 330 10:38 26.10.2020
2661 Clear 15 1022 63 10000 2.6 330 10:18 26.10.2020
2662 Clear 14 1021 87 10000 1.5 280 09:31 26.10.2020
2663 Clear 13 1021 93 10000 2.1 270 08:55 26.10.2020
2664 Clear 12 1021 93 10000 1.5 270 08:26 26.10.2020
2665 Clear 12 1020 93 10000 1 0 07:48 26.10.2020
2666 Clear 13 1020 87 10000 1.5 260 07:29 26.10.2020
2667 Clear 14 1020 87 10000 2.6 310 05:46 26.10.2020
2668 Clear 15 1019 82 10000 3.1 300 04:20 26.10.2020
2669 Clear 15 1019 77 10000 4.1 290 03:21 26.10.2020
2670 Clear 15 1019 77 10000 4.1 290 03:21 26.10.2020
2671 Clear 15 1019 77 10000 4.1 290 03:21 26.10.2020
2672 Clear 15 1019 77 10000 4.1 290 03:21 26.10.2020
2673 Clouds 16 1018 82 10000 6.2 260 01:34 26.10.2020
2674 Clouds 16 1018 77 10000 4.6 250 00:39 26.10.2020
2675 Clouds 16 1018 77 10000 4.6 250 00:21 26.10.2020
2676 Drizzle 16 1018 93 10000 6.2 280 23:37 25.10.2020
2677 Drizzle 17 1018 93 10000 6.2 280 23:18 25.10.2020
2678 Clouds 17 1017 88 9000 6.7 230 22:39 25.10.2020
2679 Clouds 17 1017 88 9000 6.7 230 22:20 25.10.2020
2680 Clouds 18 1018 88 10000 6.2 220 21:40 25.10.2020
2681 Clouds 18 1018 88 10000 6.2 220 21:20 25.10.2020
2682 Clouds 17 1018 93 10000 6.7 230 20:45 25.10.2020
2683 Clouds 18 1018 77 10000 7.7 220 20:25 25.10.2020
2684 Clouds 19 1018 77 10000 7.7 220 19:58 25.10.2020
2685 Clouds 19 1018 72 10000 8.2 220 19:39 25.10.2020
2686 Clouds 19 1018 72 10000 8.2 220 19:20 25.10.2020
2687 Clouds 19 1018 64 10000 7.7 220 18:41 25.10.2020
2688 Clouds 19 1018 64 10000 7.7 220 18:23 25.10.2020
2689 Clouds 19 1018 68 10000 7.7 220 17:58 25.10.2020
2690 Clouds 20 1018 68 10000 7.2 220 17:38 25.10.2020
2691 Clouds 20 1018 68 10000 7.2 220 17:20 25.10.2020
2692 Clouds 20 1019 64 10000 7.7 230 16:51 25.10.2020
2693 Clouds 20 1019 56 10000 8.2 220 16:31 25.10.2020
2694 Clouds 20 1019 60 10000 6.7 220 15:52 25.10.2020
2695 Clouds 20 1019 56 10000 6.7 220 15:31 25.10.2020
2696 Clouds 21 1020 52 10000 7.2 220 14:58 25.10.2020
2697 Clouds 21 1020 56 10000 5.7 240 14:38 25.10.2020
2698 Clouds 20 1021 64 10000 5.7 220 14:19 25.10.2020
2699 Clouds 20 1022 68 10000 5.7 230 13:42 25.10.2020
2700 Clouds 20 1022 68 10000 5.7 230 13:20 25.10.2020
2701 Clouds 18 1022 68 10000 4.1 220 12:46 25.10.2020
2702 Clouds 17 1023 77 10000 2.1 210 12:26 25.10.2020
2703 Clouds 16 1023 82 10000 1 0 11:54 25.10.2020
2704 Clouds 15 1023 93 10000 0.5 270 11:36 25.10.2020
2705 Clouds 13 1023 100 9000 1 220 11:18 25.10.2020
2706 Clouds 13 1023 93 7000 0.5 250 10:43 25.10.2020
2707 Clouds 13 1023 93 7000 0.5 250 10:21 25.10.2020
2708 Fog 13 1023 93 900 2.1 250 09:43 25.10.2020
2709 Fog 12 1023 93 900 2.1 250 09:19 25.10.2020
2710 Fog 13 1022 93 700 1 120 08:44 25.10.2020
2711 Fog 12 1022 93 700 1 120 08:26 25.10.2020
2712 Rain 12 1022 93 500 1.43 217 07:48 25.10.2020
2713 Fog 12 1022 93 800 1 0 07:25 25.10.2020
2714 Mist 12 1022 100 4000 1 360 06:48 25.10.2020
2715 Clear 13 1022 93 6000 1.5 210 05:43 25.10.2020
2716 Clear 13 1023 93 10000 2.1 200 04:52 25.10.2020
2717 Clear 14 1024 87 10000 3.1 180 02:59 25.10.2020
2718 Clear 16 1025 77 10000 2.6 270 01:20 25.10.2020
2719 Clear 16 1025 77 10000 2.6 270 00:47 25.10.2020
2720 Clear 16 1025 87 10000 0.5 270 00:18 25.10.2020
2721 Rain 16 1025 77 10000 1.5 280 23:43 24.10.2020
2722 Clear 17 1025 77 10000 1.5 280 23:24 24.10.2020
2723 Clear 17 1025 77 10000 3.1 230 22:42 24.10.2020
2724 Clear 17 1025 77 10000 3.1 230 22:24 24.10.2020
2725 Clear 18 1024 72 10000 3.1 210 21:57 24.10.2020
2726 Clear 18 1024 63 10000 1.5 220 21:38 24.10.2020
2727 Clear 18 1024 63 10000 1.5 220 21:20 24.10.2020
2728 Clouds 19 1024 64 10000 1 200 20:46 24.10.2020
2729 Clouds 20 1024 64 10000 1 200 20:22 24.10.2020
2730 Clear 20 1024 60 10000 2.1 220 19:47 24.10.2020
2731 Clouds 20 1024 56 10000 1 210 19:27 24.10.2020
2732 Clouds 21 1024 56 10000 2.1 260 18:56 24.10.2020
2733 Clouds 21 1025 56 10000 1 0 18:38 24.10.2020
2734 Clouds 21 1025 56 10000 1 0 18:19 24.10.2020
2735 Clouds 22 1025 60 10000 1 300 17:37 24.10.2020
2736 Clouds 21 1025 60 10000 1 300 17:19 24.10.2020
2737 Clouds 21 1026 64 10000 1 0 16:42 24.10.2020
2738 Clouds 21 1026 64 10000 1 0 16:21 24.10.2020
2739 Clouds 20 1026 72 10000 1.5 320 15:39 24.10.2020
2740 Clouds 20 1026 72 10000 1.5 320 15:19 24.10.2020
2741 Clouds 19 1027 77 10000 1.5 290 14:46 24.10.2020
2742 Clouds 17 1027 82 10000 1 330 14:27 24.10.2020
2743 Clouds 17 1027 82 10000 0.5 300 13:46 24.10.2020
2744 Clouds 16 1028 87 9000 1.5 350 13:24 24.10.2020
2745 Mist 15 1028 93 4000 1 0 12:44 24.10.2020
2746 Mist 15 1028 93 4000 1 0 12:21 24.10.2020
2747 Mist 15 1028 93 1500 1.5 60 11:53 24.10.2020
2748 Fog 14 1028 100 900 1.5 90 11:35 24.10.2020
2749 Fog 14 1027 100 600 0.5 0 10:54 24.10.2020
2750 Fog 13 1027 93 800 1 0 10:33 24.10.2020
2751 Fog 13 1027 100 500 2.1 50 09:50 24.10.2020
2752 Fog 13 1026 93 500 2.1 60 09:32 24.10.2020
2753 Fog 12 1026 100 700 2.1 50 08:59 24.10.2020
2754 Fog 13 1026 100 800 2.1 50 08:20 24.10.2020
2755 Mist 13 1026 100 4200 2.1 50 07:54 24.10.2020
2756 Clouds 14 1026 93 10000 2.1 20 07:25 24.10.2020
2757 Clouds 13 1026 93 10000 0.5 20 06:53 24.10.2020
2758 Clouds 14 1026 93 10000 0.5 40 06:23 24.10.2020
2759 Clear 15 1026 93 10000 1 0 03:36 24.10.2020
2760 Clear 15 1026 93 10000 0.5 0 02:18 24.10.2020
2761 Clear 16 1026 82 10000 1 0 00:42 24.10.2020
2762 Clear 16 1026 82 10000 1 0 00:22 24.10.2020
2763 Clear 17 1026 88 10000 1.5 260 23:50 23.10.2020
2764 Clear 17 1026 77 10000 2.6 250 23:27 23.10.2020
2765 Clear 17 1026 77 10000 3.1 240 22:59 23.10.2020
2766 Clear 18 1025 68 10000 3.1 250 22:40 23.10.2020
2767 Clear 18 1025 68 10000 3.1 250 22:20 23.10.2020
2768 Clouds 18 1025 82 10000 2.6 260 21:51 23.10.2020
2769 Clouds 18 1025 68 10000 2.6 260 21:28 23.10.2020
2770 Clouds 19 1024 64 10000 0.5 90 20:43 23.10.2020
2771 Rain 19 1024 64 10000 0.5 0 20:25 23.10.2020
2772 Clouds 20 1024 56 10000 2.1 230 19:59 23.10.2020
2773 Clouds 20 1024 56 10000 3.1 230 19:37 23.10.2020
2774 Clouds 21 1024 56 10000 3.1 230 19:18 23.10.2020
2775 Clouds 21 1024 56 10000 3.6 220 18:39 23.10.2020
2776 Clouds 22 1024 56 10000 3.6 220 18:20 23.10.2020
2777 Clouds 22 1023 49 10000 2.6 230 17:44 23.10.2020
2778 Clouds 22 1023 49 10000 2.6 230 17:21 23.10.2020
2779 Clouds 22 1023 49 10000 2.6 230 17:21 23.10.2020
2780 Clouds 22 1023 56 10000 2.1 270 16:47 23.10.2020
2781 Clouds 21 1024 56 10000 1 0 16:26 23.10.2020
2782 Clouds 21 1024 56 10000 1 0 15:55 23.10.2020
2783 Clouds 21 1024 56 10000 1 0 15:36 23.10.2020
2784 Clouds 21 1024 56 10000 1 0 15:18 23.10.2020
2785 Clouds 20 1024 60 10000 1 0 14:40 23.10.2020
2786 Clouds 20 1024 60 10000 1 0 14:22 23.10.2020
2787 Clouds 20 1024 60 10000 1 0 14:22 23.10.2020
2788 Clouds 19 1024 68 10000 1 0 13:39 23.10.2020
2789 Clouds 19 1024 68 10000 1 0 13:21 23.10.2020
2790 Clouds 18 1024 82 10000 0.5 0 12:48 23.10.2020
2791 Clouds 17 1025 93 10000 1.5 20 12:28 23.10.2020
2792 Clouds 15 1024 100 5000 0.5 0 11:48 23.10.2020
2793 Mist 15 1024 100 1500 1 0 11:23 23.10.2020
2794 Fog 14 1024 100 300 1 0 10:48 23.10.2020
2795 Fog 14 1023 93 100 1 0 10:26 23.10.2020
2796 Fog 13 1023 100 150 0.5 0 09:50 23.10.2020
2797 Fog 13 1022 93 50 0.58 79 09:27 23.10.2020
2798 Fog 13 1022 93 100 0.58 79 08:57 23.10.2020
2799 Fog 12 1022 100 400 0.5 320 08:38 23.10.2020
2800 Fog 13 1022 100 1000 0.5 340 07:48 23.10.2020
2801 Fog 13 1021 93 800 0.5 0 07:26 23.10.2020
2802 Clear 13 1021 100 10000 0.5 10 06:46 23.10.2020
2803 Clear 13 1021 100 10000 0.5 10 06:19 23.10.2020
2804 Clear 15 1020 93 10000 1 0 03:29 23.10.2020
2805 Clear 15 1020 93 10000 1.5 230 02:26 23.10.2020
2806 Clear 16 1019 87 10000 2.1 200 00:49 23.10.2020
2807 Clear 16 1019 93 10000 1.5 200 00:21 23.10.2020
2808 Clear 16 1018 88 10000 2.6 200 23:37 22.10.2020
2809 Clear 17 1018 88 10000 2.6 200 23:18 22.10.2020
2810 Clear 17 1017 77 10000 3.6 230 22:42 22.10.2020
2811 Clear 17 1017 77 10000 3.6 230 22:21 22.10.2020
2812 Clear 18 1017 82 10000 3.6 230 21:47 22.10.2020
2813 Clear 18 1016 82 10000 4.1 230 21:28 22.10.2020
2814 Clear 18 1016 77 10000 4.1 220 20:59 22.10.2020
2815 Clouds 18 1015 77 10000 5.1 220 20:41 22.10.2020
2816 Clouds 19 1015 77 10000 5.1 220 20:21 22.10.2020
2817 Clouds 20 1014 68 10000 6.7 220 19:42 22.10.2020
2818 Clouds 20 1014 68 10000 6.7 220 19:20 22.10.2020
2819 Clouds 21 1013 68 10000 6.2 230 18:44 22.10.2020
2820 Clouds 21 1013 68 10000 6.2 230 18:22 22.10.2020
2821 Clouds 21 1013 77 10000 0.5 0 17:48 22.10.2020
2822 Clouds 20 1013 77 10000 1 0 17:26 22.10.2020
2823 Clouds 20 1013 72 10000 7.14 219 16:59 22.10.2020
2824 Clouds 20 1013 82 10000 1 0 16:41 22.10.2020
2825 Clouds 19 1013 93 10000 2.6 320 16:23 22.10.2020
2826 Clouds 18 1013 93 10000 2.6 320 15:48 22.10.2020
2827 Rain 18 1013 93 10000 2.6 320 15:26 22.10.2020
2828 Rain 18 1013 93 3000 3.1 230 14:50 22.10.2020
2829 Rain 18 1013 93 4000 2.6 260 14:27 22.10.2020
2830 Rain 20 1013 82 10000 4.1 190 13:50 22.10.2020
2831 Rain 21 1013 77 10000 3.6 170 13:24 22.10.2020
2832 Rain 20 1013 88 10000 3.1 190 12:57 22.10.2020
2833 Clouds 19 1014 88 10000 2.1 210 12:27 22.10.2020
2834 Clouds 18 1014 93 10000 1 0 11:50 22.10.2020
2835 Clouds 17 1013 93 10000 0.5 0 11:21 22.10.2020
2836 Clouds 17 1013 93 10000 0.5 20 10:56 22.10.2020
2837 Rain 16 1013 100 10000 1 0 10:38 22.10.2020
2838 Clouds 17 1013 100 10000 1 0 10:18 22.10.2020
2839 Rain 16 1012 93 10000 1 270 09:42 22.10.2020
2840 Clouds 16 1011 93 10000 1 0 08:58 22.10.2020
2841 Clouds 16 1011 93 10000 1 0 08:39 22.10.2020
2842 Clouds 16 1011 93 10000 1 0 08:19 22.10.2020
2843 Clouds 17 1011 93 10000 2.6 190 07:43 22.10.2020
2844 Clouds 17 1011 88 10000 2.1 200 06:59 22.10.2020
2845 Clouds 17 1011 88 10000 3.1 200 06:37 22.10.2020
2846 Clouds 17 1011 93 6000 1.5 160 05:43 22.10.2020
2847 Clouds 17 1011 93 6000 1.5 160 05:22 22.10.2020
2848 Rain 17 1012 93 7000 2.6 200 02:40 22.10.2020
2849 Rain 18 1012 88 10000 2.6 170 00:50 22.10.2020
2850 Rain 18 1012 88 10000 2.6 170 00:18 22.10.2020
2851 Clouds 18 1012 88 10000 2.1 180 23:38 21.10.2020
2852 Clouds 19 1012 88 10000 1.5 180 22:58 21.10.2020
2853 Clouds 18 1012 88 10000 1.5 210 22:37 21.10.2020
2854 Clouds 18 1012 88 10000 2.6 180 22:19 21.10.2020
2855 Clouds 18 1012 88 10000 2.6 180 21:45 21.10.2020
2856 Rain 18 1012 88 10000 3.1 220 21:19 21.10.2020
2857 Clouds 18 1012 77 10000 4.6 220 20:57 21.10.2020
2858 Clouds 18 1012 77 10000 4.6 220 20:57 21.10.2020
2859 Rain 19 1011 68 10000 3.6 210 20:39 21.10.2020
2860 Rain 19 1011 68 10000 3.6 210 20:18 21.10.2020
2861 Clouds 20 1011 68 10000 4.1 220 19:40 21.10.2020
2862 Rain 21 1011 68 10000 4.1 220 19:22 21.10.2020
2863 Clouds 21 1011 60 10000 6.7 220 18:52 21.10.2020
2864 Clouds 22 1010 64 10000 5.7 210 18:30 21.10.2020
2865 Clouds 22 1010 60 10000 5.1 220 17:50 21.10.2020
2866 Clouds 23 1010 53 10000 7.2 220 17:22 21.10.2020
2867 Clouds 22 1010 64 10000 5.7 220 16:59 21.10.2020
2868 Clouds 22 1011 64 10000 5.1 200 16:39 21.10.2020
2869 Clouds 22 1011 64 10000 5.1 200 16:20 21.10.2020
2870 Clouds 22 1011 64 10000 5.1 200 15:45 21.10.2020
2871 Clouds 22 1011 68 10000 6.2 220 15:22 21.10.2020
2872 Clouds 21 1012 68 10000 4.1 220 14:49 21.10.2020
2873 Clouds 21 1012 68 10000 4.1 220 14:29 21.10.2020
2874 Rain 21 1012 73 10000 4.6 220 13:58 21.10.2020
2875 Clouds 21 1011 77 10000 4.1 200 13:40 21.10.2020
2876 Clouds 20 1012 77 10000 4.1 200 13:20 21.10.2020
2877 Clouds 20 1012 82 10000 2.6 220 12:40 21.10.2020
2878 Clouds 19 1012 88 10000 2.1 230 12:20 21.10.2020
2879 Clouds 18 1011 93 10000 2.1 210 11:46 21.10.2020
2880 Clouds 18 1011 100 10000 2.1 210 11:21 21.10.2020
2881 Clouds 18 1011 100 10000 2.1 210 10:57 21.10.2020
2882 Clouds 17 1010 100 10000 1.5 210 10:38 21.10.2020
2883 Clouds 17 1010 93 10000 2.1 210 10:20 21.10.2020
2884 Clouds 17 1010 93 5000 2.6 270 09:39 21.10.2020
2885 Clouds 17 1009 93 10000 3.1 190 09:18 21.10.2020
2886 Clouds 17 1009 93 10000 2.6 210 08:40 21.10.2020
2887 Clouds 17 1009 93 10000 2.6 230 08:22 21.10.2020
2888 Clouds 17 1008 93 10000 4.1 200 07:49 21.10.2020
2889 Clouds 17 1008 88 10000 3.6 190 06:59 21.10.2020
2890 Clouds 17 1008 88 10000 3.6 210 06:34 21.10.2020
2891 Clouds 17 1008 88 10000 4.6 180 05:59 21.10.2020
2892 Clouds 18 1008 93 10000 6.2 180 03:35 21.10.2020
2893 Clouds 18 1007 93 10000 6.2 210 00:26 21.10.2020
2894 Rain 17 1007 93 10000 5.1 210 23:31 20.10.2020
2895 Clouds 17 1006 93 10000 7.2 220 22:47 20.10.2020
2896 Rain 18 1005 93 4000 12.3 180 22:25 20.10.2020
2897 Rain 18 1004 88 10000 11.3 180 21:47 20.10.2020
2898 Rain 19 1005 77 10000 8.7 180 21:19 20.10.2020
2899 Rain 19 1005 77 10000 7.7 180 20:43 20.10.2020
2900 Rain 19 1005 77 10000 7.7 180 20:24 20.10.2020
2901 Rain 20 1005 73 10000 8.2 180 19:57 20.10.2020
2902 Rain 20 1005 73 10000 7.7 190 19:38 20.10.2020
2903 Rain 23 1005 60 9000 9.8 190 19:19 20.10.2020
2904 Rain 22 1005 53 8000 9.8 190 18:44 20.10.2020
2905 Rain 24 1005 36 10000 7.7 200 18:25 20.10.2020
2906 Clouds 25 1005 36 10000 6.7 200 17:41 20.10.2020
2907 Clouds 25 1005 34 10000 7.7 190 17:23 20.10.2020
2908 Rain 25 1006 39 10000 6.2 190 16:43 20.10.2020
2909 Clouds 26 1006 41 10000 5.7 190 16:24 20.10.2020
2910 Clouds 26 1006 41 10000 5.7 190 15:49 20.10.2020
2911 Clouds 26 1006 41 10000 5.7 190 15:30 20.10.2020
2912 Clouds 26 1007 41 10000 7.7 190 14:55 20.10.2020
2913 Clouds 25 1008 47 10000 7.7 190 14:36 20.10.2020
2914 Clouds 25 1009 47 10000 6.7 190 14:18 20.10.2020
2915 Clouds 25 1009 47 10000 6.2 210 13:41 20.10.2020
2916 Clouds 24 1009 50 10000 5.1 190 13:21 20.10.2020
2917 Clouds 24 1010 50 10000 6.2 190 12:54 20.10.2020
2918 Clouds 24 1010 50 10000 6.2 190 12:31 20.10.2020
2919 Clouds 23 1011 53 10000 5.1 190 11:48 20.10.2020
2920 Clouds 23 1011 53 10000 5.1 190 11:30 20.10.2020
2921 Clouds 22 1011 56 10000 4.6 190 10:53 20.10.2020
2922 Clouds 21 1011 56 10000 3.6 200 10:28 20.10.2020
2923 Clouds 21 1010 60 10000 3.6 200 09:47 20.10.2020
2924 Clouds 21 1010 60 10000 3.1 200 09:20 20.10.2020
2925 Clouds 21 1010 60 10000 3.1 200 08:53 20.10.2020
2926 Clouds 21 1010 60 10000 3.1 190 08:27 20.10.2020
2927 Clouds 20 1010 56 10000 3.6 170 07:49 20.10.2020
2928 Clouds 21 1010 56 10000 3.6 170 07:24 20.10.2020
2929 Clouds 20 1011 56 10000 5.1 170 06:24 20.10.2020
2930 Clouds 20 1012 60 10000 3.6 170 05:21 20.10.2020
2931 Clouds 19 1014 59 10000 1 0 02:33 20.10.2020
2932 Clouds 19 1014 56 10000 1 0 01:59 20.10.2020
2933 Clouds 20 1014 52 10000 1.5 230 00:57 20.10.2020
2934 Clouds 20 1014 52 10000 3.1 160 00:39 20.10.2020
2935 Clouds 19 1014 52 10000 3.1 180 00:18 20.10.2020
2936 Clouds 19 1014 52 10000 3.1 180 00:18 20.10.2020
2937 Clouds 20 1014 52 10000 4.1 210 23:40 19.10.2020
2938 Clouds 20 1014 52 10000 3.1 200 23:19 19.10.2020
2939 Clouds 21 1014 49 10000 5.1 220 22:42 19.10.2020
2940 Clouds 21 1014 49 10000 3.6 230 22:20 19.10.2020
2941 Clouds 21 1014 49 10000 3.6 240 21:42 19.10.2020
2942 Clouds 22 1014 46 10000 4.1 250 21:20 19.10.2020
2943 Clouds 22 1014 44 10000 6.2 250 20:45 19.10.2020
2944 Clouds 23 1014 44 10000 6.2 250 20:27 19.10.2020
2945 Clouds 23 1014 29 10000 6.7 240 19:47 19.10.2020
2946 Clouds 24 1013 29 10000 6.7 230 19:22 19.10.2020
2947 Clouds 26 1013 24 10000 8.2 240 18:53 19.10.2020
2948 Clouds 26 1013 24 10000 8.2 240 18:33 19.10.2020
2949 Clouds 27 1013 21 10000 4.6 210 17:58 19.10.2020
2950 Clouds 28 1013 21 10000 4.6 210 17:40 19.10.2020
2951 Clouds 28 1013 21 10000 5.1 190 17:21 19.10.2020
2952 Clouds 28 1014 23 10000 2.1 250 16:43 19.10.2020
2953 Clouds 28 1014 24 10000 2.6 210 16:22 19.10.2020
2954 Clouds 28 1012 32 10000 1.34 229 15:41 19.10.2020
2955 Clear 28 1012 30 10000 0.89 148 15:23 19.10.2020
2956 Clear 28 1012 30 10000 0.89 240 14:51 19.10.2020
2957 Clear 26 1014 30 10000 4.69 196 14:24 19.10.2020
2958 Clear 26 1014 27 10000 4.91 197 13:52 19.10.2020
2959 Clear 25 1015 29 10000 0.89 300 13:32 19.10.2020
2960 Clear 24 1015 34 10000 2.5 192 12:51 19.10.2020
2961 Clear 21 1015 34 10000 0.89 41 12:33 19.10.2020
2962 Clear 20 1014 35 10000 0.89 302 11:51 19.10.2020
2963 Clear 18 1016 47 10000 2.6 360 11:26 19.10.2020
2964 Clear 16 1016 47 10000 2.6 360 10:56 19.10.2020
2965 Clear 16 1016 47 10000 2.6 360 10:38 19.10.2020
2966 Clear 16 1016 47 10000 2.6 360 10:19 19.10.2020
2967 Clear 15 1015 47 10000 2.6 360 09:42 19.10.2020
2968 Clear 14 1015 47 10000 2.6 360 09:19 19.10.2020
2969 Clear 14 1015 47 10000 2.6 20 08:48 19.10.2020
2970 Clouds 14 1015 47 10000 2.6 10 08:23 19.10.2020
2971 Clouds 15 1015 47 10000 2.6 360 07:43 19.10.2020
2972 Clouds 15 1016 43 10000 1.5 30 07:19 19.10.2020
2973 Clouds 15 1015 43 10000 1 70 06:19 19.10.2020
2974 Clouds 15 1015 43 10000 1 70 06:19 19.10.2020
2975 Clouds 15 1015 38 10000 2.6 50 03:49 19.10.2020
2976 Clear 16 1016 40 10000 3.1 80 02:28 19.10.2020
2977 Clear 17 1017 51 10000 1 90 00:57 19.10.2020
2978 Clear 17 1017 48 10000 1.5 130 00:24 19.10.2020
2979 Rain 18 1017 42 10000 2.6 170 23:47 18.10.2020
2980 Clear 19 1017 39 10000 2.1 170 23:25 18.10.2020
2981 Clear 21 1016 32 10000 3.6 220 22:52 18.10.2020
2982 Clear 21 1016 33 10000 2.6 210 22:22 18.10.2020
2983 Clear 19 1016 39 10000 2.6 150 21:56 18.10.2020
2984 Clear 19 1016 42 10000 1 120 21:37 18.10.2020
2985 Clear 22 1015 31 10000 0.5 0 21:18 18.10.2020
2986 Clear 24 1015 29 10000 0.5 0 20:40 18.10.2020
2987 Clouds 24 1015 29 10000 0.5 0 20:21 18.10.2020
2988 Clouds 26 1015 26 10000 3.1 30 19:44 18.10.2020
2989 Clouds 26 1015 26 10000 3.1 30 19:44 18.10.2020
2990 Clouds 26 1015 26 10000 3.1 30 19:44 18.10.2020
2991 Clouds 26 1015 26 10000 3.1 30 19:26 18.10.2020
2992 Clouds 27 1015 24 10000 2.6 40 18:49 18.10.2020
2993 Clouds 27 1016 24 10000 1 0 18:28 18.10.2020
2994 Clouds 27 1016 26 10000 1.5 40 17:44 18.10.2020
2995 Clouds 27 1016 26 10000 1.5 40 17:25 18.10.2020
2996 Clouds 27 1016 26 10000 1.5 40 17:25 18.10.2020
2997 Clouds 27 1016 26 10000 2.6 60 16:57 18.10.2020
2998 Clouds 26 1016 26 10000 2.1 50 16:38 18.10.2020
2999 Clouds 26 1016 26 10000 2.1 50 16:20 18.10.2020
3000 Clouds 25 1017 27 10000 2.1 40 15:41 18.10.2020
3001 Clouds 25 1017 27 10000 2.1 40 15:19 18.10.2020
3002 Clouds 24 1018 29 10000 1.5 50 14:56 18.10.2020
3003 Clouds 23 1018 29 10000 2.1 30 14:29 18.10.2020
3004 Clouds 22 1019 31 10000 2.6 40 13:57 18.10.2020
3005 Clouds 21 1018 33 10000 3.6 50 13:38 18.10.2020
3006 Clouds 21 1018 33 10000 3.6 50 13:20 18.10.2020
3007 Clouds 19 1019 39 10000 3.1 40 12:42 18.10.2020
3008 Clouds 19 1019 39 10000 3.1 40 12:21 18.10.2020
3009 Clouds 17 1019 45 10000 3.1 40 11:42 18.10.2020
3010 Clouds 17 1019 45 10000 3.1 40 11:23 18.10.2020
3011 Clouds 14 1018 54 10000 5.7 80 10:43 18.10.2020
3012 Clouds 13 1018 54 10000 5.7 80 10:21 18.10.2020
3013 Clouds 12 1018 58 10000 4.1 50 09:56 18.10.2020
3014 Clouds 11 1018 66 10000 3.6 60 09:38 18.10.2020
3015 Clouds 11 1018 66 10000 3.6 60 09:19 18.10.2020
3016 Clouds 11 1018 76 10000 2.1 30 08:43 18.10.2020
3017 Clouds 11 1018 76 10000 2.1 30 08:22 18.10.2020
3018 Clear 11 1018 71 10000 1.5 50 07:36 18.10.2020
3019 Clear 12 1018 71 10000 1.5 50 05:35 18.10.2020
3020 Clear 13 1018 71 10000 2.1 130 03:33 18.10.2020
3021 Clear 14 1018 66 10000 1 120 02:39 18.10.2020
3022 Clear 14 1018 66 10000 0.66 335 01:25 18.10.2020
3023 Clear 16 1018 55 10000 1.5 280 00:35 18.10.2020
3024 Clear 17 1018 51 10000 1 280 23:57 17.10.2020
3025 Clear 16 1018 55 10000 1 0 23:39 17.10.2020
3026 Clouds 16 1018 55 10000 1 0 23:20 17.10.2020
3027 Clouds 17 1018 51 10000 2.1 260 22:54 17.10.2020
3028 Clouds 17 1017 52 10000 2.1 240 22:21 17.10.2020
3029 Clouds 18 1017 45 10000 3.1 240 21:59 17.10.2020
3030 Clouds 17 1017 45 10000 0.5 150 21:40 17.10.2020
3031 Clouds 18 1017 45 10000 0.5 150 21:20 17.10.2020
3032 Clouds 19 1017 39 10000 2.69 258 20:44 17.10.2020
3033 Clouds 21 1017 32 10000 1.91 246 20:19 17.10.2020
3034 Clouds 23 1016 27 10000 0.5 280 19:43 17.10.2020
3035 Clouds 23 1016 27 10000 0.5 280 19:21 17.10.2020
3036 Clouds 23 1016 28 10000 1 0 18:45 17.10.2020
3037 Clouds 23 1017 28 10000 1 200 18:26 17.10.2020
3038 Clouds 23 1016 28 10000 1.5 0 17:50 17.10.2020
3039 Clouds 24 1017 28 10000 1.5 220 17:24 17.10.2020
3040 Clouds 23 1017 28 10000 1 190 16:58 17.10.2020
3041 Clouds 23 1017 33 10000 1 190 16:38 17.10.2020
3042 Clouds 23 1017 33 10000 1 190 16:18 17.10.2020
3043 Clouds 23 1017 37 10000 1.5 360 15:41 17.10.2020
3044 Clouds 22 1017 37 10000 1.5 360 15:21 17.10.2020
3045 Clouds 22 1018 40 10000 1 290 14:56 17.10.2020
3046 Clouds 22 1018 42 10000 2.1 280 14:37 17.10.2020
3047 Clouds 21 1018 42 10000 2.1 280 14:19 17.10.2020
3048 Clouds 20 1019 48 10000 2.1 280 13:43 17.10.2020
3049 Clouds 19 1019 48 10000 2.1 280 13:24 17.10.2020
3050 Clouds 19 1019 55 10000 1 240 12:57 17.10.2020
3051 Clouds 17 1019 59 10000 1 230 12:37 17.10.2020
3052 Clouds 17 1019 59 10000 1 230 12:18 17.10.2020
3053 Clouds 15 1019 63 10000 1.15 95 11:31 17.10.2020
3054 Clouds 15 1019 63 10000 1.15 95 11:31 17.10.2020
3055 Clouds 15 1019 63 10000 1.15 95 11:31 17.10.2020
3056 Clouds 15 1019 63 10000 1.15 95 11:31 17.10.2020
3057 Clouds 13 1019 76 10000 0.5 0 10:50 17.10.2020
3058 Clouds 12 1018 76 10000 1.5 20 10:30 17.10.2020
3059 Clouds 11 1018 81 10000 0.5 0 09:50 17.10.2020
3060 Clouds 10 1017 87 10000 0.5 70 09:32 17.10.2020
3061 Clear 10 1017 87 10000 1.51 33 08:55 17.10.2020
3062 Clear 10 1017 87 10000 2.1 30 08:24 17.10.2020
3063 Clear 10 1017 87 10000 2.1 30 08:24 17.10.2020
3064 Clear 11 1017 87 10000 1.23 55 07:44 17.10.2020
3065 Clear 11 1017 87 10000 1.5 90 06:58 17.10.2020
3066 Clear 12 1017 87 10000 0.75 35 05:32 17.10.2020
3067 Clear 13 1017 82 10000 4.1 180 02:30 17.10.2020
3068 Clouds 13 1017 82 10000 4.1 170 01:59 17.10.2020
3069 Clouds 15 1017 67 10000 2.6 180 00:47 17.10.2020
3070 Clouds 15 1017 62 10000 1.5 190 23:57 16.10.2020
3071 Clouds 17 1017 51 10000 2.1 250 23:24 16.10.2020
3072 Clouds 18 1017 48 10000 2.6 230 22:45 16.10.2020
3073 Clouds 18 1017 45 10000 2.6 220 22:24 16.10.2020
3074 Clouds 19 1017 40 10000 3.1 230 21:56 16.10.2020
3075 Clouds 19 1016 32 10000 2.6 210 21:37 16.10.2020
3076 Clouds 19 1016 32 10000 2.6 210 21:19 16.10.2020
3077 Clouds 21 1016 26 10000 1 0 20:41 16.10.2020
3078 Clouds 22 1016 26 10000 1 0 20:23 16.10.2020
3079 Clouds 23 1016 31 10000 2.7 209 19:44 16.10.2020
3080 Clouds 23 1016 23 10000 1.5 210 19:26 16.10.2020
3081 Clouds 24 1016 22 10000 1 260 18:54 16.10.2020
3082 Clouds 24 1016 23 10000 2.1 240 18:33 16.10.2020
3083 Clear 24 1016 25 10000 1.5 250 17:47 16.10.2020
3084 Clear 23 1016 25 10000 1.5 290 17:29 16.10.2020
3085 Clear 23 1016 27 10000 2.1 330 16:54 16.10.2020
3086 Clear 23 1017 33 10000 2.1 290 16:36 16.10.2020
3087 Clear 23 1017 33 10000 2.1 290 16:18 16.10.2020
3088 Clear 22 1017 33 10000 2.1 290 15:24 16.10.2020
3089 Clear 22 1018 37 10000 1 0 14:44 16.10.2020
3090 Clouds 21 1018 37 10000 1 0 14:20 16.10.2020
3091 Clouds 21 1018 42 10000 1 0 13:58 16.10.2020
3092 Clouds 20 1019 45 10000 2.1 130 13:39 16.10.2020
3093 Clouds 20 1019 45 10000 2.1 130 13:21 16.10.2020
3094 Clouds 19 1019 48 10000 2.1 30 12:51 16.10.2020
3095 Clouds 17 1019 51 10000 1.5 40 12:24 16.10.2020
3096 Clouds 17 1019 55 10000 2.1 50 11:50 16.10.2020
3097 Clouds 15 1019 62 10000 1.5 40 11:30 16.10.2020
3098 Clouds 13 1019 66 10000 1.5 30 10:59 16.10.2020
3099 Clouds 12 1018 66 10000 2.1 360 10:39 16.10.2020
3100 Clouds 12 1018 66 10000 2.1 360 10:21 16.10.2020
3101 Clouds 10 1017 76 10000 2.1 350 09:38 16.10.2020
3102 Clouds 10 1017 76 10000 2.1 350 09:20 16.10.2020
3103 Clouds 10 1017 76 10000 2.1 350 08:41 16.10.2020
3104 Clear 10 1017 76 10000 2.1 350 08:23 16.10.2020
3105 Clear 10 1017 87 10000 1 40 07:43 16.10.2020
3106 Clear 11 1017 66 10000 1 0 06:56 16.10.2020
3107 Clear 12 1017 81 10000 1.5 30 05:24 16.10.2020
3108 Clear 13 1017 71 10000 1 30 03:51 16.10.2020
3109 Clear 14 1017 66 10000 1.5 120 01:39 16.10.2020
3110 Clear 15 1017 62 10000 2.1 180 00:34 16.10.2020
3111 Clear 15 1017 58 10000 1.5 190 23:56 15.10.2020
3112 Clear 15 1017 51 10000 2.6 210 23:37 15.10.2020
3113 Clear 16 1017 48 10000 3.1 250 23:18 15.10.2020
3114 Clear 16 1017 42 10000 2.6 240 22:43 15.10.2020
3115 Clear 16 1017 42 10000 2.6 240 22:21 15.10.2020
3116 Clear 17 1016 37 10000 3.6 240 21:42 15.10.2020
3117 Clear 18 1016 34 10000 5.1 230 21:21 15.10.2020
3118 Clear 19 1016 34 10000 5.1 230 20:49 15.10.2020
3119 Clear 21 1015 30 10000 5.1 230 20:23 15.10.2020
3120 Clear 21 1015 30 10000 5.1 230 19:55 15.10.2020
3121 Clear 22 1015 23 10000 3.1 220 19:37 15.10.2020
3122 Clear 22 1015 23 10000 3.1 220 19:19 15.10.2020
3123 Clear 23 1015 23 10000 2.1 230 18:42 15.10.2020
3124 Clear 23 1015 23 10000 2.1 230 18:21 15.10.2020
3125 Clear 24 1015 21 10000 1.5 240 17:45 15.10.2020
3126 Clear 24 1015 23 10000 2.1 0 17:23 15.10.2020
3127 Clear 23 1016 23 10000 1.5 270 16:47 15.10.2020
3128 Clear 23 1016 25 10000 1.5 260 16:26 15.10.2020
3129 Clear 23 1016 25 10000 1.5 260 15:57 15.10.2020
3130 Clear 23 1016 25 10000 1.5 260 15:39 15.10.2020
3131 Clear 22 1016 25 10000 1.5 260 15:20 15.10.2020
3132 Clear 22 1017 26 10000 3.1 310 14:45 15.10.2020
3133 Clear 21 1017 32 10000 0.5 0 14:23 15.10.2020
3134 Clouds 21 1018 35 10000 1.5 0 13:44 15.10.2020
3135 Clouds 20 1018 37 10000 1.5 20 13:24 15.10.2020
3136 Clouds 20 1018 37 10000 0.5 0 12:52 15.10.2020
3137 Clouds 19 1018 42 10000 1 0 12:29 15.10.2020
3138 Clouds 18 1019 45 10000 1 0 11:57 15.10.2020
3139 Clouds 17 1018 51 10000 0.5 0 11:38 15.10.2020
3140 Clear 17 1018 51 10000 0.5 0 11:19 15.10.2020
3141 Clear 14 1018 71 10000 0.5 240 10:43 15.10.2020
3142 Clear 14 1018 71 10000 0.5 240 10:24 15.10.2020
3143 Clear 10 1017 87 10000 0.5 220 09:40 15.10.2020
3144 Clear 10 1017 87 10000 0.5 220 09:20 15.10.2020
3145 Clear 10 1017 87 10000 0.5 270 08:49 15.10.2020
3146 Clear 10 1017 93 10000 1 0 08:26 15.10.2020
3147 Clear 11 1017 57 10000 1.5 150 06:59 15.10.2020
3148 Clouds 12 1016 57 10000 1.2 347 05:53 15.10.2020
3149 Clouds 13 1016 50 10000 0.5 250 03:56 15.10.2020
3150 Clear 15 1016 41 10000 1 0 01:43 15.10.2020
3151 Clear 15 1016 39 10000 1 0 00:51 15.10.2020
3152 Clear 17 1016 37 10000 2.6 360 00:19 15.10.2020
3153 Clear 17 1016 37 10000 2.6 360 00:19 15.10.2020
3154 Clear 17 1016 37 10000 2.6 360 00:19 15.10.2020
3155 Clear 18 1015 37 10000 3.6 350 23:43 14.10.2020
3156 Clear 19 1015 34 10000 3.6 350 23:21 14.10.2020
3157 Clear 19 1015 34 10000 5.1 360 22:58 14.10.2020
3158 Clear 19 1015 34 10000 3.6 350 22:39 14.10.2020
3159 Clear 20 1015 31 10000 3.6 350 22:19 14.10.2020
3160 Clear 20 1014 31 10000 3.6 10 21:41 14.10.2020
3161 Clear 20 1014 29 10000 3.6 10 21:22 14.10.2020
3162 Clear 21 1014 29 10000 3.1 20 20:41 14.10.2020
3163 Clear 22 1014 26 10000 3.1 20 20:19 14.10.2020
3164 Clear 22 1013 23 10000 4.1 30 19:49 14.10.2020
3165 Clear 24 1013 21 10000 5.7 30 19:25 14.10.2020
3166 Clear 25 1013 25 10000 3.1 260 18:44 14.10.2020
3167 Clear 24 1013 29 10000 2.6 220 18:25 14.10.2020
3168 Clear 24 1013 27 10000 3.6 250 17:59 14.10.2020
3169 Clear 24 1013 27 10000 3.6 270 17:40 14.10.2020
3170 Clear 24 1013 27 10000 3.6 270 17:19 14.10.2020
3171 Clear 24 1013 27 10000 3.6 0 16:42 14.10.2020
3172 Clear 24 1014 33 10000 2.6 300 16:22 14.10.2020
3173 Clear 23 1014 33 10000 2.6 300 15:46 14.10.2020
3174 Clear 23 1014 33 10000 2.6 300 15:27 14.10.2020
3175 Clear 22 1014 35 10000 2.1 290 14:46 14.10.2020
3176 Clear 21 1014 37 10000 3.6 290 14:21 14.10.2020
3177 Clear 21 1015 42 10000 2.1 310 13:50 14.10.2020
3178 Clear 20 1015 40 10000 2.6 360 13:27 14.10.2020
3179 Clear 19 1015 48 10000 1.5 0 12:56 14.10.2020
3180 Clear 18 1015 52 10000 1.5 290 12:37 14.10.2020
3181 Clear 18 1015 52 10000 1.5 290 12:18 14.10.2020
3182 Clear 18 1015 55 10000 2.6 40 11:45 14.10.2020
3183 Clear 16 1015 59 10000 2.6 320 11:26 14.10.2020
3184 Clear 16 1014 59 10000 1.5 360 10:55 14.10.2020
3185 Clear 15 1014 71 10000 1.67 331 10:29 14.10.2020
3186 Clear 14 1014 81 10000 1 270 09:54 14.10.2020
3187 Clear 13 1014 87 10000 0.5 0 09:36 14.10.2020
3188 Clear 13 1013 81 10000 1.5 280 08:47 14.10.2020
3189 Clear 13 1013 81 10000 2.1 280 08:28 14.10.2020
3190 Clear 13 1013 87 10000 1.5 220 07:43 14.10.2020
3191 Clear 13 1013 87 10000 1.5 220 07:21 14.10.2020
3192 Clear 14 1013 71 10000 2.1 290 06:53 14.10.2020
3193 Clear 14 1013 71 10000 2.1 290 06:53 14.10.2020
3194 Clear 14 1013 67 10000 1 0 06:35 14.10.2020
3195 Clear 15 1013 67 10000 2.1 220 04:20 14.10.2020
3196 Clear 16 1014 59 10000 4.1 180 02:27 14.10.2020
3197 Clear 16 1014 48 10000 3.1 180 01:33 14.10.2020
3198 Clear 18 1014 42 10000 3.6 200 00:26 14.10.2020
3199 Clear 19 1014 32 10000 3.1 200 23:46 13.10.2020
3200 Clear 19 1014 32 10000 3.1 200 23:23 13.10.2020
3201 Clear 19 1014 34 10000 3.6 210 22:44 13.10.2020
3202 Clear 20 1014 32 10000 3.6 210 22:25 13.10.2020
3203 Clear 21 1014 30 10000 3.6 210 21:55 13.10.2020
3204 Clear 22 1014 28 10000 3.6 210 21:37 13.10.2020
3205 Clear 22 1014 28 10000 3.6 210 21:18 13.10.2020
3206 Clear 25 1013 21 10000 2.6 210 20:42 13.10.2020
3207 Clear 24 1013 21 10000 2.6 210 20:23 13.10.2020
3208 Clear 27 1013 19 10000 2.1 200 19:47 13.10.2020
3209 Clear 27 1014 19 10000 2.6 210 19:26 13.10.2020
3210 Clear 28 1014 19 10000 2.6 220 18:59 13.10.2020
3211 Clear 28 1014 20 10000 1.5 290 18:41 13.10.2020
3212 Clear 28 1014 20 10000 1.5 290 18:23 13.10.2020
3213 Clear 28 1014 19 10000 1.5 300 17:58 13.10.2020
3214 Clear 28 1015 18 10000 1.5 220 17:38 13.10.2020
3215 Clear 27 1015 18 10000 1 230 16:48 13.10.2020
3216 Clear 27 1017 20 10000 2.1 360 16:21 13.10.2020
3217 Clear 26 1016 19 10000 1.5 340 15:57 13.10.2020
3218 Clear 26 1017 20 10000 2.1 360 15:38 13.10.2020
3219 Clear 25 1017 20 10000 2.1 360 15:19 13.10.2020
3220 Clear 25 1018 22 10000 2.6 350 14:42 13.10.2020
3221 Clear 24 1018 22 10000 2.6 350 14:23 13.10.2020
3222 Clear 24 1018 23 10000 2.6 40 13:48 13.10.2020
3223 Clear 22 1019 26 10000 3.6 70 13:21 13.10.2020
3224 Clear 22 1019 26 10000 3.6 70 12:46 13.10.2020
3225 Clear 20 1019 30 10000 3.1 20 12:22 13.10.2020
3226 Clear 19 1019 32 10000 4.1 50 11:57 13.10.2020
3227 Clear 18 1019 31 10000 4.1 0 11:37 13.10.2020
3228 Clear 18 1019 31 10000 4.1 0 11:19 13.10.2020
3229 Clear 15 1019 38 10000 2.1 0 10:42 13.10.2020
3230 Clear 15 1019 38 10000 2.1 0 10:22 13.10.2020
3231 Clear 15 1019 47 10000 3.1 40 09:56 13.10.2020
3232 Clear 13 1019 53 10000 2.1 70 09:38 13.10.2020
3233 Clear 13 1019 53 10000 2.1 70 09:19 13.10.2020
3234 Clear 13 1019 50 10000 2.1 40 08:44 13.10.2020
3235 Clear 13 1018 50 10000 1.5 60 08:26 13.10.2020
3236 Clear 13 1018 47 10000 2.6 40 07:43 13.10.2020
3237 Clear 14 1018 47 10000 2.6 40 07:24 13.10.2020
3238 Clear 15 1018 37 10000 1.5 20 06:32 13.10.2020
3239 Clear 16 1019 38 10000 2.1 60 04:29 13.10.2020
3240 Clear 17 1020 34 10000 3.1 60 03:44 13.10.2020
3241 Clear 17 1020 31 10000 2.6 50 01:57 13.10.2020
3242 Clear 18 1020 36 10000 3.1 70 00:46 13.10.2020
3243 Clear 18 1020 36 10000 3.1 70 00:19 13.10.2020
3244 Clear 19 1020 31 10000 2.6 60 23:43 12.10.2020
3245 Clear 19 1020 31 10000 2.6 60 23:21 12.10.2020
3246 Clear 20 1020 29 10000 3.1 50 22:42 12.10.2020
3247 Clear 21 1020 27 10000 3.1 50 22:23 12.10.2020
3248 Clear 20 1020 32 10000 2.6 70 21:46 12.10.2020
3249 Clear 21 1020 26 10000 2.1 40 21:22 12.10.2020
3250 Clear 24 1019 25 10000 1.5 60 20:46 12.10.2020
3251 Clear 24 1019 23 10000 1.5 60 20:27 12.10.2020
3252 Clear 24 1019 17 10000 1.5 80 19:59 12.10.2020
3253 Clear 26 1019 16 10000 2.1 80 19:40 12.10.2020
3254 Clear 26 1019 16 10000 2.1 80 19:19 12.10.2020
3255 Clear 26 1019 16 10000 2.1 80 18:46 12.10.2020
3256 Clear 26 1019 15 10000 2.1 90 18:21 12.10.2020
3257 Clear 25 1019 15 10000 3.1 60 17:44 12.10.2020
3258 Clear 25 1019 15 10000 3.1 60 17:20 12.10.2020
3259 Clear 25 1020 19 10000 4.6 80 16:43 12.10.2020
3260 Clear 25 1020 19 10000 4.6 80 16:24 12.10.2020
3261 Clear 24 1021 17 10000 5.1 50 15:55 12.10.2020
3262 Clear 24 1021 17 10000 5.1 50 15:37 12.10.2020
3263 Clear 23 1021 18 10000 5.1 50 15:18 12.10.2020
3264 Clear 23 1022 18 10000 7.7 50 14:42 12.10.2020
3265 Clear 22 1022 20 10000 7.7 50 14:19 12.10.2020
3266 Clear 22 1022 24 10000 8.2 60 14:19 12.10.2020
3267 Clear 21 1023 28 10000 8.7 50 13:24 12.10.2020
3268 Clear 20 1023 28 10000 8.7 70 12:58 12.10.2020
3269 Clear 20 1023 32 10000 6.7 60 12:39 12.10.2020
3270 Clear 19 1023 32 10000 6.7 60 12:18 12.10.2020
3271 Clear 19 1023 31 10000 7.7 60 11:39 12.10.2020
3272 Clear 18 1023 31 10000 7.7 60 11:18 12.10.2020
3273 Clear 18 1023 33 10000 6.2 60 10:44 12.10.2020
3274 Clear 18 1023 33 10000 6.2 60 10:44 12.10.2020
3275 Clear 17 1023 38 10000 6.7 60 10:21 12.10.2020
3276 Clear 16 1023 36 10000 5.1 50 09:48 12.10.2020
3277 Clear 16 1023 36 10000 5.7 50 09:28 12.10.2020
3278 Clear 16 1022 36 10000 4.1 60 08:36 12.10.2020
3279 Clear 16 1022 36 10000 5.1 50 07:56 12.10.2020
3280 Clear 16 1022 36 10000 3.6 50 07:32 12.10.2020
3281 Clear 17 1021 32 10000 4.6 50 06:26 12.10.2020
3282 Clear 18 1021 29 10000 2.6 30 03:56 12.10.2020
3283 Clear 22 1020 33 10000 3.6 60 00:39 12.10.2020
3284 Clear 22 1020 33 10000 4.1 70 23:48 11.10.2020
3285 Clear 23 1020 33 10000 3.1 50 23:26 11.10.2020
3286 Clear 23 1019 33 10000 3.6 60 22:52 11.10.2020
3287 Clear 24 1019 36 10000 3.6 50 22:31 11.10.2020
3288 Clear 25 1019 36 10000 1.5 50 21:40 11.10.2020
3289 Clear 25 1019 36 10000 1.5 50 21:20 11.10.2020
3290 Clear 26 1019 36 10000 1 0 20:50 11.10.2020
3291 Clear 27 1018 34 10000 1.5 70 20:23 11.10.2020
3292 Clear 28 1018 30 10000 1.5 80 19:59 11.10.2020
3293 Clear 29 1018 28 10000 1.5 90 19:41 11.10.2020
3294 Clear 29 1018 28 10000 1.5 90 19:21 11.10.2020
3295 Clear 29 1018 28 10000 3.1 80 18:40 11.10.2020
3296 Clear 29 1018 28 10000 3.1 80 18:20 11.10.2020
3297 Clear 29 1019 30 10000 2.1 80 17:44 11.10.2020
3298 Clear 29 1019 30 10000 2.1 80 17:21 11.10.2020
3299 Clear 28 1019 37 10000 2.1 70 16:47 11.10.2020
3300 Clear 28 1019 39 10000 2.6 100 16:29 11.10.2020
3301 Clear 27 1019 44 10000 3.1 80 15:55 11.10.2020
3302 Clear 26 1020 47 10000 3.1 100 15:34 11.10.2020
3303 Clear 25 1020 53 10000 3.1 70 14:55 11.10.2020
3304 Clear 24 1021 57 10000 2.6 90 14:37 11.10.2020
3305 Clear 24 1021 57 10000 2.6 90 14:18 11.10.2020
3306 Clear 22 1021 64 10000 2.6 70 13:43 11.10.2020
3307 Clear 22 1021 64 10000 2.6 70 13:22 11.10.2020
3308 Clouds 21 1021 68 10000 2.6 70 12:46 11.10.2020
3309 Clouds 20 1021 72 10000 2.6 30 12:22 11.10.2020
3310 Clouds 20 1021 77 9000 2.6 40 11:47 11.10.2020
3311 Clouds 19 1021 82 8000 3.1 10 11:25 11.10.2020
3312 Clouds 18 1021 88 8000 2.1 10 10:52 11.10.2020
3313 Clouds 18 1021 88 6000 3.6 30 10:29 11.10.2020
3314 Clouds 18 1020 88 7000 2.6 20 09:59 11.10.2020
3315 Clouds 17 1020 93 6000 2.6 20 09:39 11.10.2020
3316 Clouds 17 1020 93 6000 2.6 20 09:21 11.10.2020
3317 Clouds 17 1020 88 6000 2.1 360 08:49 11.10.2020
3318 Mist 18 1019 93 5000 2.1 270 07:59 11.10.2020
3319 Mist 18 1019 93 5000 2.6 280 07:36 11.10.2020
3320 Mist 17 1019 93 4100 3.1 220 04:56 11.10.2020
3321 Clear 18 1019 77 10000 2.6 200 02:43 11.10.2020
3322 Clouds 18 1019 77 10000 2.6 200 02:21 11.10.2020
3323 Clouds 19 1019 68 10000 3.1 190 00:51 11.10.2020
3324 Clouds 20 1019 64 10000 3.1 200 00:25 11.10.2020
3325 Clouds 21 1019 56 10000 2.6 220 23:35 10.10.2020
3326 Clouds 22 1019 53 10000 2.6 210 22:57 10.10.2020
3327 Clouds 23 1019 50 10000 2.6 210 22:38 10.10.2020
3328 Clouds 23 1019 50 10000 2.6 210 22:19 10.10.2020
3329 Clouds 23 1018 47 10000 2.6 220 21:41 10.10.2020
3330 Clouds 24 1018 47 10000 2.6 220 21:22 10.10.2020
3331 Clouds 25 1018 47 10000 3.1 230 20:51 10.10.2020
3332 Clouds 26 1018 44 10000 5.7 220 20:29 10.10.2020
3333 Clouds 26 1017 42 10000 4.6 210 19:55 10.10.2020
3334 Clouds 28 1018 39 10000 5.1 210 19:37 10.10.2020
3335 Clouds 28 1018 39 10000 5.1 210 19:18 10.10.2020
3336 Clouds 30 1018 27 10000 2.6 260 18:36 10.10.2020
3337 Clouds 31 1018 28 10000 2.1 240 17:59 10.10.2020
3338 Clouds 30 1018 30 10000 1.5 220 17:39 10.10.2020
3339 Clouds 30 1018 30 10000 2.1 260 17:20 10.10.2020
3340 Clouds 30 1018 30 10000 2.1 260 16:47 10.10.2020
3341 Clouds 29 1019 32 10000 2.1 250 16:24 10.10.2020
3342 Clouds 28 1020 37 10000 2.1 210 15:41 10.10.2020
3343 Clouds 28 1020 37 10000 2.1 210 15:21 10.10.2020
3344 Clouds 27 1020 39 10000 1 260 14:54 10.10.2020
3345 Clouds 27 1020 39 10000 1.5 260 14:33 10.10.2020
3346 Clouds 27 1021 44 10000 1 360 13:57 10.10.2020
3347 Clouds 26 1021 50 10000 1 250 13:39 10.10.2020
3348 Clouds 25 1021 53 10000 1 200 13:19 10.10.2020
3349 Clouds 24 1021 53 10000 1 200 12:50 10.10.2020
3350 Clouds 23 1021 56 10000 1.5 90 12:32 10.10.2020
3351 Clouds 22 1021 60 10000 0.5 60 11:49 10.10.2020
3352 Clouds 20 1021 68 10000 1 0 11:24 10.10.2020
3353 Clouds 19 1021 72 10000 0.5 0 10:50 10.10.2020
3354 Clouds 17 1021 72 10000 2.05 70 10:30 10.10.2020
3355 Clouds 16 1021 77 10000 0.5 0 09:59 10.10.2020
3356 Clouds 15 1021 77 10000 1.44 56 09:39 10.10.2020
3357 Clouds 15 1020 82 10000 1 110 08:59 10.10.2020
3358 Clouds 15 1020 82 10000 0.5 0 08:39 10.10.2020
3359 Clouds 15 1020 82 10000 0.5 0 08:20 10.10.2020
3360 Clouds 16 1020 82 10000 1.5 140 07:39 10.10.2020
3361 Clouds 17 1020 77 10000 1.5 120 05:38 10.10.2020
3362 Clouds 19 1020 59 10000 1 0 02:27 10.10.2020
3363 Clouds 21 1020 52 10000 1 183 00:38 10.10.2020
3364 Clouds 23 1020 40 10000 1.5 300 00:18 10.10.2020
3365 Clouds 24 1019 46 10000 1 0 23:42 09.10.2020
3366 Clouds 24 1019 46 10000 1 0 23:42 09.10.2020
3367 Clouds 24 1019 46 10000 1 0 23:20 09.10.2020
3368 Clouds 24 1019 46 10000 0.5 260 22:44 09.10.2020
3369 Clouds 24 1019 41 10000 2.1 230 22:23 09.10.2020
3370 Clouds 25 1019 39 10000 2.6 230 21:44 09.10.2020
3371 Clouds 25 1019 39 10000 3.1 220 21:21 09.10.2020
3372 Clouds 26 1019 36 10000 3.1 220 20:50 09.10.2020
3373 Clouds 27 1019 28 10000 1 230 20:29 09.10.2020
3374 Clouds 28 1019 28 10000 1.5 270 19:56 09.10.2020
3375 Clouds 29 1019 25 10000 1.5 260 19:37 09.10.2020
3376 Clouds 30 1019 25 10000 1.5 260 19:18 09.10.2020
3377 Clouds 30 1019 25 10000 1.5 260 19:18 09.10.2020
3378 Clouds 30 1019 25 10000 2.1 290 18:47 09.10.2020
3379 Clouds 31 1019 27 10000 1.5 280 18:21 09.10.2020
3380 Clouds 31 1019 27 10000 2.1 260 17:53 09.10.2020
3381 Clouds 30 1019 28 10000 2.1 290 17:19 09.10.2020
3382 Clouds 29 1019 28 10000 1.5 290 16:42 09.10.2020
3383 Clouds 29 1019 28 10000 1.5 290 16:24 09.10.2020
3384 Clouds 29 1020 28 10000 0.5 290 15:46 09.10.2020
3385 Clouds 28 1021 32 10000 1.5 30 15:25 09.10.2020
3386 Clouds 28 1021 32 10000 1.5 30 14:49 09.10.2020
3387 Clouds 28 1021 34 10000 1 0 14:30 09.10.2020
3388 Clouds 27 1021 38 10000 1 0 13:43 09.10.2020
3389 Clouds 26 1021 38 10000 1 0 13:24 09.10.2020
3390 Clouds 25 1022 46 10000 1.5 10 12:42 09.10.2020
3391 Clouds 23 1022 46 10000 1.5 10 12:20 09.10.2020
3392 Clouds 22 1022 52 10000 1.5 20 11:57 09.10.2020
3393 Clouds 22 1022 52 10000 1.5 20 11:57 09.10.2020
3394 Clouds 19 1021 59 10000 1.5 330 11:39 09.10.2020
3395 Clouds 18 1021 59 10000 1.5 330 11:20 09.10.2020
3396 Clouds 18 1021 59 10000 1.5 330 10:43 09.10.2020
3397 Clouds 18 1021 59 10000 1.5 360 10:24 09.10.2020
3398 Clouds 16 1021 67 10000 1.5 340 09:41 09.10.2020
3399 Clouds 17 1021 67 10000 1.5 340 09:20 09.10.2020
3400 Clouds 16 1020 76 10000 1 330 08:39 09.10.2020
3401 Clouds 17 1020 76 10000 1 330 08:18 09.10.2020
3402 Clouds 17 1020 67 10000 1 0 07:36 09.10.2020
3403 Clouds 18 1020 63 10000 1.17 67 07:18 09.10.2020
3404 Clouds 18 1020 63 10000 1 30 06:26 09.10.2020
3405 Clouds 20 1020 52 10000 0.5 0 04:42 09.10.2020
3406 Clouds 21 1020 43 10000 3.1 230 02:47 09.10.2020
3407 Clouds 23 1020 38 10000 2.1 230 00:55 09.10.2020
3408 Clouds 23 1020 41 10000 2.1 240 00:37 09.10.2020
3409 Clouds 24 1020 38 10000 2.6 260 23:45 08.10.2020
3410 Clouds 24 1019 52 10000 2.1 220 23:26 08.10.2020
3411 Clouds 24 1019 52 10000 2.1 220 22:56 08.10.2020
3412 Clouds 24 1019 52 10000 2.1 220 22:37 08.10.2020
3413 Clouds 25 1019 52 10000 2.1 220 22:18 08.10.2020
3414 Clouds 26 1019 39 10000 2.1 250 21:44 08.10.2020
3415 Clouds 26 1019 39 10000 2.1 250 21:23 08.10.2020
3416 Clouds 28 1018 36 10000 2.1 230 20:43 08.10.2020
3417 Clouds 28 1018 36 10000 2.1 230 20:23 08.10.2020
3418 Clouds 30 1018 30 10000 1.5 260 19:58 08.10.2020
3419 Clouds 31 1018 27 10000 1 0 19:39 08.10.2020
3420 Clouds 32 1018 21 10000 4.1 300 19:20 08.10.2020
3421 Clouds 32 1018 21 10000 4.1 300 18:39 08.10.2020
3422 Clouds 33 1018 21 10000 4.1 320 18:19 08.10.2020
3423 Clouds 33 1018 18 10000 1.5 10 17:38 08.10.2020
3424 Clouds 33 1018 18 10000 1.5 10 17:18 08.10.2020
3425 Clouds 32 1019 19 10000 1.5 360 16:41 08.10.2020
3426 Clouds 32 1019 21 10000 1.5 40 16:22 08.10.2020
3427 Clouds 32 1019 21 10000 1.5 40 15:58 08.10.2020
3428 Clouds 32 1019 21 10000 1.5 40 15:38 08.10.2020
3429 Clouds 32 1019 21 10000 1.5 40 15:18 08.10.2020
3430 Clouds 31 1020 27 10000 1 0 14:38 08.10.2020
3431 Clouds 30 1020 27 10000 1 0 14:18 08.10.2020
3432 Clouds 29 1020 28 10000 1.5 10 13:45 08.10.2020
3433 Clouds 28 1021 30 10000 2.1 40 13:20 08.10.2020
3434 Clouds 26 1021 34 10000 3.1 40 12:42 08.10.2020
3435 Clouds 26 1021 34 10000 3.1 40 12:22 08.10.2020
3436 Clouds 24 1021 40 10000 3.1 30 11:54 08.10.2020
3437 Clouds 23 1021 40 10000 3.1 20 11:35 08.10.2020
3438 Clouds 21 1021 43 10000 3.6 20 10:57 08.10.2020
3439 Clouds 20 1020 45 10000 3.6 30 10:38 08.10.2020
3440 Clouds 20 1020 52 10000 2.6 20 10:19 08.10.2020
3441 Clouds 18 1020 55 10000 2.1 10 09:43 08.10.2020
3442 Clouds 19 1020 55 10000 2.1 10 09:25 08.10.2020
3443 Clouds 18 1020 55 10000 2.1 360 08:44 08.10.2020
3444 Clouds 18 1020 55 10000 2.1 360 08:22 08.10.2020
3445 Clouds 18 1020 55 10000 2.6 360 07:52 08.10.2020
3446 Clouds 18 1020 55 10000 2.1 360 07:29 08.10.2020
3447 Clouds 18 1020 51 10000 1.5 20 06:51 08.10.2020
3448 Clouds 18 1020 55 10000 0.5 0 05:20 08.10.2020
3449 Clouds 20 1020 42 10000 0.5 0 02:57 08.10.2020
3450 Clouds 20 1020 45 10000 1.5 120 02:25 08.10.2020
3451 Clear 22 1020 45 10000 1.5 140 00:26 08.10.2020
3452 Clear 23 1019 43 10000 0.5 340 23:37 07.10.2020
3453 Clear 23 1019 43 10000 0.5 340 23:19 07.10.2020
3454 Clear 24 1019 43 10000 0.5 340 22:43 07.10.2020
3455 Clear 25 1019 43 10000 0.5 340 22:25 07.10.2020
3456 Clear 25 1019 43 10000 0.5 340 22:25 07.10.2020
3457 Clear 25 1018 43 10000 1 80 21:48 07.10.2020
3458 Clear 26 1018 44 10000 0.75 82 21:24 07.10.2020
3459 Clear 28 1018 30 10000 1.5 340 20:47 07.10.2020
3460 Clear 30 1018 27 10000 1.5 340 20:27 07.10.2020
3461 Clear 31 1018 25 10000 1.5 350 19:57 07.10.2020
3462 Clear 32 1018 24 10000 2.1 10 19:38 07.10.2020
3463 Clear 32 1018 24 10000 2.1 10 19:18 07.10.2020
3464 Clear 33 1018 21 10000 3.1 70 18:41 07.10.2020
3465 Clear 33 1018 21 10000 3.1 70 18:20 07.10.2020
3466 Clear 33 1018 21 10000 3.1 40 17:51 07.10.2020
3467 Clear 33 1018 24 10000 1.5 70 17:32 07.10.2020
3468 Clear 32 1019 24 10000 3.1 40 16:59 07.10.2020
3469 Clear 32 1020 29 10000 4.6 50 16:39 07.10.2020
3470 Clear 32 1020 29 10000 4.6 50 16:18 07.10.2020
3471 Clear 31 1020 29 10000 4.6 50 15:40 07.10.2020
3472 Clear 31 1020 29 10000 4.6 50 15:20 07.10.2020
3473 Clear 30 1020 29 10000 4.1 60 14:44 07.10.2020
3474 Clouds 29 1021 30 10000 4.6 50 14:25 07.10.2020
3475 Clouds 29 1021 32 10000 4.1 30 13:51 07.10.2020
3476 Clouds 28 1021 37 10000 4.6 40 13:26 07.10.2020
3477 Clouds 27 1021 42 10000 3.6 40 12:52 07.10.2020
3478 Clouds 25 1022 44 10000 3.1 20 12:25 07.10.2020
3479 Clouds 25 1022 47 10000 3.1 40 11:56 07.10.2020
3480 Clouds 23 1022 53 10000 4.1 40 11:37 07.10.2020
3481 Clouds 22 1022 53 10000 4.1 40 11:19 07.10.2020
3482 Clouds 19 1021 56 10000 3.6 30 10:37 07.10.2020
3483 Clouds 19 1021 59 10000 4.1 30 09:56 07.10.2020
3484 Clouds 18 1021 77 10000 2.1 20 09:28 07.10.2020
3485 Clouds 17 1021 77 10000 1 0 08:51 07.10.2020
3486 Clouds 18 1021 82 10000 1 20 08:26 07.10.2020
3487 Clouds 18 1021 72 10000 1.5 10 07:37 07.10.2020
3488 Clouds 18 1021 67 10000 1.5 140 06:29 07.10.2020
3489 Clouds 19 1021 63 10000 1.5 10 05:39 07.10.2020
3490 Clouds 20 1020 65 10000 0.89 358 04:19 07.10.2020
3491 Clouds 21 1021 63 10000 1.91 15 01:51 07.10.2020
3492 Clouds 22 1021 60 10000 1 0 00:34 07.10.2020
3493 Clouds 22 1021 53 10000 1.1 8 23:52 06.10.2020
3494 Clouds 23 1021 49 10000 0.5 0 23:23 06.10.2020
3495 Clouds 23 1021 64 10000 0.5 270 22:44 06.10.2020
3496 Clouds 23 1021 64 10000 0.5 270 22:26 06.10.2020
3497 Clouds 24 1021 56 10000 1.5 220 21:46 06.10.2020
3498 Clouds 25 1021 47 10000 0.3 155 21:27 06.10.2020
3499 Clouds 26 1020 44 10000 1 260 20:48 06.10.2020
3500 Clear 27 1020 42 10000 0.5 140 20:27 06.10.2020
3501 Clear 28 1020 39 10000 1 50 19:58 06.10.2020
3502 Clear 29 1020 37 10000 1.5 20 19:38 06.10.2020
3503 Clear 29 1020 37 10000 1.5 20 19:19 06.10.2020
3504 Clear 29 1020 35 10000 1 0 18:44 06.10.2020
3505 Clear 29 1020 35 10000 1 0 18:22 06.10.2020
3506 Clear 28 1020 39 10000 2.1 80 17:48 06.10.2020
3507 Clear 29 1020 37 10000 2.6 20 17:22 06.10.2020
3508 Clear 28 1021 37 10000 2.6 40 16:45 06.10.2020
3509 Clear 27 1022 39 10000 2.1 80 16:23 06.10.2020
3510 Clear 27 1022 39 10000 2.1 80 15:55 06.10.2020
3511 Clear 27 1022 39 10000 2.1 80 15:36 06.10.2020
3512 Clear 27 1022 39 10000 2.1 80 15:18 06.10.2020
3513 Clear 26 1023 39 10000 2.6 10 14:39 06.10.2020
3514 Clouds 26 1023 39 10000 2.6 10 14:19 06.10.2020
3515 Clouds 25 1023 41 10000 4.1 50 13:46 06.10.2020
3516 Clouds 24 1024 41 10000 4.1 50 13:27 06.10.2020
3517 Clouds 23 1024 43 10000 2.6 20 12:49 06.10.2020
3518 Clouds 22 1024 46 10000 3.6 40 12:29 06.10.2020
3519 Clouds 21 1024 49 10000 3.6 50 11:46 06.10.2020
3520 Clouds 19 1024 52 10000 4.6 40 11:27 06.10.2020
3521 Clouds 19 1023 55 10000 3.6 50 10:48 06.10.2020
3522 Clouds 18 1023 59 10000 3.1 50 10:30 06.10.2020
3523 Clouds 17 1023 63 10000 3.1 30 09:49 06.10.2020
3524 Clouds 16 1022 72 10000 2.1 30 09:22 06.10.2020
3525 Clouds 15 1022 72 10000 2.6 50 08:54 06.10.2020
3526 Clouds 15 1022 67 10000 2.1 60 08:35 06.10.2020
3527 Clouds 16 1022 67 10000 2.1 30 07:40 06.10.2020
3528 Clouds 15 1022 67 10000 2.1 30 07:22 06.10.2020
3529 Clouds 16 1022 71 10000 0.5 0 06:39 06.10.2020
3530 Clear 17 1022 55 10000 2.1 350 03:27 06.10.2020
3531 Clear 18 1022 51 10000 3.1 40 01:35 06.10.2020
3532 Clear 19 1022 45 10000 2.6 30 00:39 06.10.2020
3533 Clear 19 1022 45 10000 2.6 30 00:21 06.10.2020
3534 Clear 20 1021 42 10000 2.6 20 23:41 05.10.2020
3535 Clear 20 1020 35 10000 1.5 360 23:22 05.10.2020
3536 Clear 21 1020 35 10000 1.5 360 22:36 05.10.2020
3537 Clear 21 1020 35 10000 1.5 360 22:18 05.10.2020
3538 Clear 22 1020 31 10000 3.1 30 21:41 05.10.2020
3539 Clear 23 1020 31 10000 3.1 30 21:19 05.10.2020
3540 Clear 24 1019 27 10000 3.6 30 20:43 05.10.2020
3541 Clouds 24 1019 27 10000 2.6 30 20:22 05.10.2020
3542 Clouds 25 1019 25 10000 2.1 10 19:45 05.10.2020
3543 Clouds 25 1019 24 10000 3.1 10 19:26 05.10.2020
3544 Clouds 26 1018 24 10000 4.6 10 18:45 05.10.2020
3545 Clouds 26 1018 24 10000 3.1 10 18:25 05.10.2020
3546 Clouds 26 1018 25 10000 4.6 30 17:43 05.10.2020
3547 Clouds 26 1018 25 10000 4.6 30 17:24 05.10.2020
3548 Clouds 26 1016 32 10000 1.34 358 16:58 05.10.2020
3549 Clouds 25 1019 31 10000 4.1 330 16:39 05.10.2020
3550 Clouds 25 1019 31 10000 4.1 330 16:39 05.10.2020
3551 Clouds 24 1019 38 10000 1 0 16:19 05.10.2020
3552 Clouds 24 1019 38 10000 1 0 15:39 05.10.2020
3553 Clouds 23 1019 38 10000 1 0 15:19 05.10.2020
3554 Clouds 22 1020 40 10000 2.6 360 14:40 05.10.2020
3555 Clouds 22 1020 40 10000 2.6 360 14:22 05.10.2020
3556 Clouds 21 1020 43 10000 1.5 40 13:47 05.10.2020
3557 Clouds 21 1020 43 10000 2.1 0 13:23 05.10.2020
3558 Clouds 20 1020 45 10000 3.1 360 12:51 05.10.2020
3559 Clouds 19 1020 48 10000 2.6 20 12:25 05.10.2020
3560 Clouds 19 1020 52 10000 4.1 20 11:57 05.10.2020
3561 Clouds 18 1020 55 10000 2.6 30 11:37 05.10.2020
3562 Clouds 18 1020 55 10000 2.6 30 11:19 05.10.2020
3563 Clouds 17 1019 59 10000 2.1 350 10:41 05.10.2020
3564 Clouds 16 1019 59 10000 2.1 350 10:22 05.10.2020
3565 Clouds 15 1019 71 10000 0.5 0 09:53 05.10.2020
3566 Clouds 14 1019 67 10000 1.5 320 09:23 05.10.2020
3567 Clouds 14 1018 67 10000 1 0 08:40 05.10.2020
3568 Clouds 14 1018 67 10000 1 0 08:40 05.10.2020
3569 Clear 14 1018 67 10000 1 0 08:21 05.10.2020
3570 Clear 12 1017 81 10000 2.12 343 07:33 05.10.2020
3571 Clear 15 1017 62 10000 3.6 310 05:51 05.10.2020
3572 Clouds 17 1016 67 10000 1.5 330 02:27 05.10.2020
3573 Clouds 17 1016 67 10000 1.5 330 02:27 05.10.2020
3574 Clouds 18 1015 59 10000 3.1 290 00:50 05.10.2020
3575 Clouds 19 1015 59 10000 2.6 270 23:49 04.10.2020
3576 Clouds 19 1015 63 10000 2.1 280 23:29 04.10.2020
3577 Clouds 20 1015 56 10000 2.6 290 22:46 04.10.2020
3578 Clouds 20 1015 56 10000 2.6 290 22:46 04.10.2020
3579 Clouds 20 1015 56 10000 3.1 290 22:24 04.10.2020
3580 Clouds 20 1014 56 10000 3.1 300 21:52 04.10.2020
3581 Clouds 20 1014 56 10000 3.6 290 21:27 04.10.2020
3582 Clouds 21 1014 60 10000 4.1 250 20:59 04.10.2020
3583 Clouds 20 1013 60 10000 5.7 240 20:40 04.10.2020
3584 Clouds 21 1013 60 10000 5.7 240 20:21 04.10.2020
3585 Clouds 21 1013 53 10000 5.7 250 19:50 04.10.2020
3586 Clouds 22 1013 47 10000 5.7 270 19:31 04.10.2020
3587 Clouds 23 1013 44 10000 5.1 250 18:53 04.10.2020
3588 Clouds 24 1012 44 10000 4.1 270 18:27 04.10.2020
3589 Clouds 24 1013 38 10000 5.7 280 17:59 04.10.2020
3590 Clouds 24 1012 38 10000 6.2 250 17:38 04.10.2020
3591 Clouds 24 1012 38 10000 6.2 250 17:18 04.10.2020
3592 Clouds 24 1013 38 10000 5.7 240 16:42 04.10.2020
3593 Clouds 24 1013 38 10000 5.7 240 16:22 04.10.2020
3594 Clouds 24 1013 38 10000 4.6 250 15:56 04.10.2020
3595 Clouds 23 1013 43 10000 4.6 240 15:38 04.10.2020
3596 Clear 23 1013 43 10000 4.6 240 15:18 04.10.2020
3597 Clear 22 1014 43 10000 3.6 270 14:42 04.10.2020
3598 Clear 22 1014 43 10000 3.6 270 14:23 04.10.2020
3599 Clear 21 1014 45 10000 3.6 240 13:45 04.10.2020
3600 Clear 20 1015 45 10000 3.6 210 13:21 04.10.2020
3601 Clear 19 1015 45 10000 3.1 210 12:44 04.10.2020
3602 Clear 19 1015 45 10000 3.1 210 12:44 04.10.2020
3603 Clouds 19 1015 48 10000 2.1 200 12:25 04.10.2020
3604 Clouds 18 1015 51 10000 1 290 11:56 04.10.2020
3605 Clouds 18 1015 51 10000 1 290 11:56 04.10.2020
3606 Clouds 18 1015 55 10000 1 0 11:38 04.10.2020
3607 Clear 17 1015 55 10000 1 0 11:19 04.10.2020
3608 Clear 16 1015 58 10000 1.5 340 10:46 04.10.2020
3609 Clear 15 1015 62 10000 1 0 10:27 04.10.2020
3610 Clear 14 1014 71 10000 0.5 0 09:43 04.10.2020
3611 Clear 14 1014 71 10000 0.5 0 09:43 04.10.2020
3612 Clear 13 1014 76 10000 0.5 150 09:20 04.10.2020
3613 Clear 12 1014 81 10000 1.5 160 08:46 04.10.2020
3614 Clear 12 1014 81 10000 1 140 08:25 04.10.2020
3615 Clear 12 1014 76 10000 1.37 325 07:50 04.10.2020
3616 Clear 13 1014 76 10000 0.5 0 07:24 04.10.2020
3617 Clear 13 1014 76 10000 1 120 06:44 04.10.2020
3618 Clear 13 1014 71 10000 0.5 0 06:25 04.10.2020
3619 Clear 14 1013 76 10000 1.24 341 05:37 04.10.2020
3620 Clear 16 1014 71 10000 0.5 190 01:47 04.10.2020
3621 Clear 16 1014 71 10000 0.5 190 01:47 04.10.2020
3622 Clear 16 1014 63 10000 2.26 335 00:53 04.10.2020
3623 Clear 17 1014 59 10000 2.6 240 23:53 03.10.2020
3624 Clear 17 1014 59 10000 1.5 240 23:25 03.10.2020
3625 Clear 17 1013 55 10000 2.1 240 22:50 03.10.2020
3626 Clear 17 1013 52 10000 4.1 250 22:31 03.10.2020
3627 Clear 18 1013 45 10000 4.6 270 21:59 03.10.2020
3628 Clear 19 1012 32 10000 3.6 290 21:41 03.10.2020
3629 Clear 19 1012 32 10000 3.6 290 21:21 03.10.2020
3630 Clear 20 1012 30 10000 3.6 300 20:43 03.10.2020
3631 Clear 21 1012 30 10000 3.6 300 20:22 03.10.2020
3632 Clear 22 1011 28 10000 5.1 280 19:56 03.10.2020
3633 Clear 23 1011 25 10000 4.6 290 19:37 03.10.2020
3634 Clear 23 1011 25 10000 4.6 290 19:19 03.10.2020
3635 Clear 23 1011 22 10000 4.1 290 18:44 03.10.2020
3636 Clear 23 1011 22 10000 4.1 290 18:23 03.10.2020
3637 Clouds 23 1012 23 10000 4.6 300 17:43 03.10.2020
3638 Clouds 24 1012 23 10000 4.6 300 17:25 03.10.2020
3639 Clouds 23 1012 21 10000 3.6 300 16:47 03.10.2020
3640 Clouds 23 1012 25 10000 3.6 340 16:25 03.10.2020
3641 Clouds 22 1012 26 10000 0.5 320 15:47 03.10.2020
3642 Clouds 22 1012 26 10000 0.5 320 15:22 03.10.2020
3643 Clouds 22 1013 30 10000 1.5 210 14:59 03.10.2020
3644 Clouds 21 1013 32 10000 1.5 290 14:39 03.10.2020
3645 Clouds 21 1013 32 10000 1.5 290 14:21 03.10.2020
3646 Clouds 20 1013 39 10000 1 100 13:56 03.10.2020
3647 Clouds 20 1013 39 10000 1 100 13:38 03.10.2020
3648 Clouds 20 1013 39 10000 1 100 13:18 03.10.2020
3649 Clear 19 1011 52 10000 0.89 39 12:39 03.10.2020
3650 Clear 18 1014 48 10000 2.6 280 12:19 03.10.2020
3651 Clear 17 1014 55 10000 2.1 280 11:47 03.10.2020
3652 Clear 16 1011 61 10000 1.34 332 11:23 03.10.2020
3653 Clear 15 1013 58 10000 2.1 270 10:46 03.10.2020
3654 Clear 14 1013 62 10000 2.6 270 10:25 03.10.2020
3655 Clear 14 1012 66 10000 2.1 160 09:52 03.10.2020
3656 Clear 12 1012 76 10000 0.5 190 09:28 03.10.2020
3657 Clear 12 1011 71 10000 2.6 280 08:48 03.10.2020
3658 Clear 12 1011 66 10000 3.1 270 08:30 03.10.2020
3659 Clear 11 1011 71 10000 2.6 270 07:48 03.10.2020
3660 Clear 12 1011 66 10000 2.1 270 07:25 03.10.2020
3661 Clear 12 1011 62 10000 1.5 290 06:59 03.10.2020
3662 Clear 13 1010 62 10000 3.6 290 05:58 03.10.2020
3663 Clear 13 1010 58 10000 4.6 280 05:19 03.10.2020
3664 Clear 13 1010 54 10000 4.6 270 03:47 03.10.2020
3665 Clear 16 1010 55 10000 4.6 280 00:56 03.10.2020
3666 Clear 15 1010 55 10000 3.6 290 00:28 03.10.2020
3667 Clear 16 1009 51 10000 5.7 310 23:45 02.10.2020
3668 Clear 17 1009 51 10000 3.6 310 23:27 02.10.2020
3669 Clear 17 1008 51 10000 4.6 310 22:58 02.10.2020
3670 Clear 17 1008 52 10000 5.1 290 22:38 02.10.2020
3671 Clouds 18 1008 52 10000 5.1 290 22:19 02.10.2020
3672 Clouds 18 1007 55 10000 6.2 310 21:42 02.10.2020
3673 Clouds 18 1007 55 10000 6.2 310 21:22 02.10.2020
3674 Clouds 19 1007 52 10000 5.7 290 20:52 02.10.2020
3675 Clouds 19 1006 55 10000 7.7 310 20:29 02.10.2020
3676 Clouds 20 1006 49 10000 8.2 310 19:49 02.10.2020
3677 Clouds 20 1006 49 10000 8.2 310 19:49 02.10.2020
3678 Clouds 21 1005 49 10000 11.8 310 19:22 02.10.2020
3679 Clouds 21 1005 53 10000 11.8 290 18:58 02.10.2020
3680 Clouds 22 1004 56 10000 11.3 300 18:40 02.10.2020
3681 Clouds 22 1004 56 10000 11.3 300 18:19 02.10.2020
3682 Clouds 23 1003 53 10000 11.8 280 17:47 02.10.2020
3683 Clouds 23 1003 53 10000 14.4 280 17:27 02.10.2020
3684 Clouds 23 1003 64 10000 11.3 280 16:51 02.10.2020
3685 Clouds 22 1004 69 10000 7.7 250 16:22 02.10.2020
3686 Clouds 22 1004 69 10000 7.7 250 15:52 02.10.2020
3687 Clouds 22 1004 69 10000 7.7 250 15:26 02.10.2020
3688 Clouds 23 1005 69 10000 11.8 260 14:43 02.10.2020
3689 Clouds 23 1005 83 10000 6.7 250 14:24 02.10.2020
3690 Clouds 22 1005 69 10000 7.7 240 13:52 02.10.2020
3691 Clouds 22 1006 64 10000 9.3 230 13:20 02.10.2020
3692 Clouds 22 1006 64 10000 9.3 230 12:48 02.10.2020
3693 Clouds 22 1006 68 10000 6.7 240 12:25 02.10.2020
3694 Clouds 21 1007 73 10000 6.7 240 11:58 02.10.2020
3695 Clouds 21 1007 73 10000 6.7 240 11:58 02.10.2020
3696 Clouds 20 1008 72 10000 6.2 220 11:39 02.10.2020
3697 Clouds 20 1008 72 10000 6.2 220 11:21 02.10.2020
3698 Clouds 19 1008 77 10000 6.2 210 10:44 02.10.2020
3699 Clouds 18 1008 82 10000 4.1 220 10:26 02.10.2020
3700 Clouds 17 1009 82 10000 3.1 210 09:41 02.10.2020
3701 Clouds 17 1009 82 10000 3.1 210 09:19 02.10.2020
3702 Clouds 16 1009 82 10000 3.6 220 08:46 02.10.2020
3703 Clouds 15 1009 87 10000 4.1 210 08:25 02.10.2020
3704 Clouds 15 1009 87 10000 2.6 210 07:44 02.10.2020
3705 Clouds 16 1009 67 10000 3.1 240 06:40 02.10.2020
3706 Clouds 17 1010 63 10000 4.1 270 05:38 02.10.2020
3707 Clouds 19 1011 56 10000 2.1 280 02:23 02.10.2020
3708 Clouds 20 1012 52 10000 4.1 270 00:48 02.10.2020
3709 Clouds 20 1012 64 10000 3.1 230 00:18 02.10.2020
3710 Clouds 20 1013 68 10000 3.1 230 23:55 01.10.2020
3711 Clouds 21 1013 68 10000 3.1 220 23:37 01.10.2020
3712 Clouds 21 1013 68 10000 3.1 220 23:18 01.10.2020
3713 Clouds 21 1012 60 10000 4.1 240 22:40 01.10.2020
3714 Clouds 22 1012 60 10000 4.6 260 22:19 01.10.2020
3715 Clouds 23 1012 57 10000 6.2 260 21:40 01.10.2020
3716 Clouds 23 1012 57 10000 6.2 260 21:21 01.10.2020
3717 Clouds 24 1011 41 10000 7.7 270 20:42 01.10.2020
3718 Clouds 24 1011 41 10000 7.7 270 20:42 01.10.2020
3719 Clear 24 1011 41 10000 7.7 270 20:21 01.10.2020
3720 Clear 26 1011 42 10000 8.2 270 19:50 01.10.2020
3721 Clear 26 1011 39 10000 8.2 280 19:28 01.10.2020
3722 Clear 27 1011 42 10000 5.1 210 18:59 01.10.2020
3723 Clear 28 1011 37 10000 5.1 220 18:31 01.10.2020
3724 Clear 28 1011 35 10000 3.6 190 17:55 01.10.2020
3725 Clear 28 1012 34 10000 3.6 220 17:36 01.10.2020
3726 Clear 28 1012 34 10000 3.6 220 17:18 01.10.2020
3727 Clear 28 1013 34 10000 2.6 330 16:40 01.10.2020
3728 Clear 28 1013 34 10000 2.6 330 16:19 01.10.2020
3729 Clear 27 1013 34 10000 2.6 330 15:47 01.10.2020
3730 Clear 27 1013 34 10000 2.6 330 15:20 01.10.2020
3731 Clear 26 1014 34 10000 2.1 0 14:44 01.10.2020
3732 Clear 25 1014 38 10000 1.5 0 14:26 01.10.2020
3733 Clear 23 1015 49 10000 3.1 30 13:41 01.10.2020
3734 Clear 22 1015 53 10000 1.5 360 12:50 01.10.2020
3735 Clear 22 1015 52 10000 2.1 40 12:25 01.10.2020
3736 Clear 20 1015 64 10000 1.5 0 11:59 01.10.2020
3737 Clouds 19 1015 93 9000 1 0 11:37 01.10.2020
3738 Mist 18 1015 93 4000 1.5 250 11:18 01.10.2020
3739 Clouds 17 1015 100 6000 1 0 10:41 01.10.2020
3740 Clouds 16 1015 100 6000 1 0 10:22 01.10.2020
3741 Clouds 16 1015 100 5000 1.5 310 09:44 01.10.2020
3742 Mist 16 1014 100 1500 1.5 240 09:25 01.10.2020
3743 Mist 16 1014 93 2000 0.5 0 08:50 01.10.2020
3744 Clouds 16 1014 100 7000 1 0 08:31 01.10.2020
3745 Clouds 16 1014 100 7000 1.2 327 07:55 01.10.2020
3746 Mist 17 1014 100 2500 1.5 160 07:26 01.10.2020
3747 Mist 17 1014 93 4000 1.5 250 06:27 01.10.2020
3748 Mist 17 1014 93 4000 1.5 250 06:27 01.10.2020
3749 Clear 19 1015 82 10000 3.6 220 02:41 01.10.2020
3750 Clouds 21 1015 64 10000 2.1 230 00:25 01.10.2020
3751 Clouds 22 1015 64 10000 2.6 260 23:39 30.09.2020
3752 Clouds 22 1015 64 10000 3.1 270 22:45 30.09.2020
3753 Clouds 23 1015 64 10000 3.6 220 22:24 30.09.2020
3754 Clouds 23 1014 64 10000 3.6 220 21:47 30.09.2020
3755 Clouds 24 1014 60 10000 5.1 220 21:25 30.09.2020
3756 Rain 24 1014 53 10000 6.2 220 20:56 30.09.2020
3757 Clouds 25 1014 47 10000 4.6 220 20:38 30.09.2020
3758 Clouds 25 1014 47 10000 4.6 220 20:20 30.09.2020
3759 Rain 26 1014 47 10000 6.2 230 19:41 30.09.2020
3760 Clouds 26 1014 47 10000 6.2 230 19:20 30.09.2020
3761 Clouds 28 1014 45 10000 4.6 220 18:49 30.09.2020
3762 Clouds 29 1014 45 10000 3.6 200 18:23 30.09.2020
3763 Clouds 29 1014 45 10000 3.6 230 17:49 30.09.2020
3764 Clouds 29 1014 45 10000 3.1 240 17:26 30.09.2020
3765 Clouds 29 1014 39 10000 2.1 270 16:54 30.09.2020
3766 Clouds 28 1015 42 10000 2.1 280 16:29 30.09.2020
3767 Clouds 28 1015 54 10000 3.1 200 15:59 30.09.2020
3768 Clouds 27 1015 54 10000 3.1 200 15:40 30.09.2020
3769 Clouds 27 1015 54 10000 3.1 200 15:40 30.09.2020
3770 Clouds 27 1015 54 10000 3.1 200 15:18 30.09.2020
3771 Clouds 25 1016 57 10000 2.1 220 14:40 30.09.2020
3772 Clouds 25 1017 60 10000 3.1 230 14:20 30.09.2020
3773 Clouds 25 1016 57 10000 2.1 220 14:20 30.09.2020
3774 Clouds 25 1017 60 10000 3.1 230 13:48 30.09.2020
3775 Clouds 23 1017 60 10000 2.6 220 13:29 30.09.2020
3776 Clouds 22 1017 56 10000 2.1 250 12:42 30.09.2020
3777 Clouds 22 1017 56 10000 2.1 250 12:24 30.09.2020
3778 Clouds 21 1017 56 10000 1 0 11:45 30.09.2020
3779 Clouds 20 1017 68 10000 1 0 11:25 30.09.2020
3780 Clouds 19 1017 68 10000 1.5 350 10:51 30.09.2020
3781 Clouds 18 1016 72 10000 1 0 10:33 30.09.2020
3782 Clouds 18 1016 72 10000 1 0 09:54 30.09.2020
3783 Clouds 18 1016 77 10000 1 0 09:36 30.09.2020
3784 Clouds 18 1016 77 10000 1 0 09:18 30.09.2020
3785 Clouds 18 1016 72 10000 1.5 350 08:41 30.09.2020
3786 Clouds 18 1015 77 10000 1.5 340 07:44 30.09.2020
3787 Clouds 18 1015 82 10000 1.5 340 07:22 30.09.2020
3788 Clouds 18 1015 72 10000 1 0 06:33 30.09.2020
3789 Clouds 19 1015 72 10000 2.1 230 05:45 30.09.2020
3790 Clouds 19 1015 77 10000 3.6 220 04:24 30.09.2020
3791 Clouds 20 1015 72 10000 4.1 210 03:26 30.09.2020
3792 Clouds 22 1015 36 10000 4.1 210 00:30 30.09.2020
3793 Clouds 23 1015 38 10000 4.6 220 23:52 29.09.2020
3794 Clouds 23 1015 38 10000 4.1 210 23:33 29.09.2020
3795 Clouds 24 1014 38 10000 4.1 200 22:57 29.09.2020
3796 Clouds 25 1014 38 10000 1.5 190 22:38 29.09.2020
3797 Clouds 26 1014 38 10000 1.5 190 22:19 29.09.2020
3798 Clouds 27 1014 38 10000 1 110 21:40 29.09.2020
3799 Clouds 28 1014 38 10000 1 110 21:22 29.09.2020
3800 Clouds 29 1013 34 10000 0.5 270 20:55 29.09.2020
3801 Clouds 29 1013 25 10000 1 220 20:37 29.09.2020
3802 Clouds 30 1013 25 10000 1 220 20:19 29.09.2020
3803 Clouds 32 1013 19 10000 1 290 19:38 29.09.2020
3804 Clouds 32 1013 20 10000 2.1 320 18:58 29.09.2020
3805 Clouds 32 1011 25 10000 0.45 229 18:39 29.09.2020
3806 Clouds 32 1011 25 10000 0.45 292 18:18 29.09.2020
3807 Clouds 32 1013 20 10000 2.1 330 17:44 29.09.2020
3808 Clouds 32 1013 19 10000 1.5 300 17:22 29.09.2020
3809 Clouds 31 1014 19 10000 2.1 300 16:41 29.09.2020
3810 Clouds 31 1014 22 10000 3.1 20 16:22 29.09.2020
3811 Clouds 31 1014 22 10000 3.1 20 15:48 29.09.2020
3812 Clouds 30 1014 22 10000 3.1 20 15:28 29.09.2020
3813 Clouds 30 1015 25 10000 3.1 60 14:43 29.09.2020
3814 Clouds 29 1015 25 10000 3.1 60 14:22 29.09.2020
3815 Clouds 28 1015 28 10000 2.1 20 13:58 29.09.2020
3816 Clouds 27 1016 30 10000 3.1 20 13:27 29.09.2020
3817 Clouds 26 1016 33 10000 2.6 10 12:54 29.09.2020
3818 Clear 24 1016 36 10000 2.1 30 12:33 29.09.2020
3819 Clear 23 1016 35 10000 3.1 10 11:59 29.09.2020
3820 Clear 22 1016 37 10000 3.6 10 11:34 29.09.2020
3821 Clear 21 1016 40 10000 4.1 20 10:55 29.09.2020
3822 Clear 21 1016 40 10000 4.1 20 10:55 29.09.2020
3823 Clear 20 1016 42 10000 3.6 30 10:37 29.09.2020
3824 Clear 18 1016 45 10000 3.6 30 09:47 29.09.2020
3825 Clear 18 1015 55 10000 2.6 10 09:28 29.09.2020
3826 Clear 17 1015 55 10000 2.6 10 08:57 29.09.2020
3827 Clear 17 1015 59 10000 3.1 10 08:38 29.09.2020
3828 Clouds 17 1015 55 10000 3.1 350 07:58 29.09.2020
3829 Clouds 17 1014 67 10000 2.6 360 07:40 29.09.2020
3830 Clouds 18 1015 67 10000 0.94 32 05:56 29.09.2020
3831 Clouds 18 1014 63 10000 0.5 0 05:30 29.09.2020
3832 Clouds 20 1014 48 10000 1.5 110 02:49 29.09.2020
3833 Clouds 21 1014 48 10000 2.1 80 02:19 29.09.2020
3834 Clouds 21 1014 48 10000 2.1 80 02:19 29.09.2020
3835 Clouds 24 1014 43 10000 1.5 100 23:46 28.09.2020
3836 Clouds 24 1014 40 10000 0.5 100 23:27 28.09.2020
3837 Clouds 26 1012 33 10000 0.45 12 22:45 28.09.2020
3838 Clouds 26 1012 31 10000 0.45 27 22:23 28.09.2020
3839 Clouds 27 1012 30 10000 0.89 10 21:59 28.09.2020
3840 Clouds 27 1013 27 10000 1.5 30 21:40 28.09.2020
3841 Clouds 27 1013 27 10000 1.5 30 21:22 28.09.2020
3842 Clouds 28 1013 26 10000 2.1 20 20:56 28.09.2020
3843 Clouds 28 1013 23 10000 3.1 20 20:37 28.09.2020
3844 Clouds 28 1013 23 10000 3.1 20 20:18 28.09.2020
3845 Clouds 29 1012 20 10000 4.6 30 19:38 28.09.2020
3846 Clouds 29 1012 20 10000 4.6 30 19:19 28.09.2020
3847 Clouds 30 1012 20 10000 4.1 20 18:46 28.09.2020
3848 Clouds 30 1013 20 10000 2.6 30 18:28 28.09.2020
3849 Clouds 30 1013 20 10000 1.5 0 17:47 28.09.2020
3850 Clouds 30 1013 20 10000 3.6 40 17:28 28.09.2020
3851 Clouds 30 1013 22 10000 2.6 100 16:56 28.09.2020
3852 Clouds 30 1014 27 10000 3.1 100 16:38 28.09.2020
3853 Clouds 30 1014 27 10000 3.1 100 16:19 28.09.2020
3854 Clouds 29 1014 27 10000 3.1 100 15:37 28.09.2020
3855 Clouds 29 1014 27 10000 3.1 100 15:18 28.09.2020
3856 Clouds 28 1015 34 10000 3.6 20 14:42 28.09.2020
3857 Clear 28 1015 34 10000 3.6 20 14:24 28.09.2020
3858 Clear 27 1015 36 10000 3.1 30 13:54 28.09.2020
3859 Clear 26 1016 41 10000 3.6 40 13:26 28.09.2020
3860 Clear 25 1016 44 10000 3.6 50 12:45 28.09.2020
3861 Clear 24 1016 44 10000 3.1 20 12:26 28.09.2020
3862 Clear 23 1016 49 10000 4.1 50 11:46 28.09.2020
3863 Clear 21 1016 56 10000 4.6 40 11:28 28.09.2020
3864 Clear 20 1015 68 10000 4.6 50 10:59 28.09.2020
3865 Clear 19 1015 72 10000 4.1 30 10:41 28.09.2020
3866 Clear 18 1015 72 10000 4.1 30 10:21 28.09.2020
3867 Clear 18 1015 82 10000 3.1 40 09:44 28.09.2020
3868 Clear 17 1015 93 10000 2.6 30 08:51 28.09.2020
3869 Clear 16 1014 93 10000 1 50 08:32 28.09.2020
3870 Clear 16 1014 100 10000 0.5 0 07:57 28.09.2020
3871 Clear 16 1014 100 10000 0.5 10 07:37 28.09.2020
3872 Clear 17 1014 87 10000 2.1 40 06:28 28.09.2020
3873 Clear 18 1015 82 10000 1.5 190 03:32 28.09.2020
3874 Clear 20 1015 72 10000 1.5 140 01:29 28.09.2020
3875 Clear 21 1014 68 10000 1.5 140 00:36 28.09.2020
3876 Clear 22 1014 56 10000 1 0 23:44 27.09.2020
3877 Clear 21 1014 56 10000 1 0 23:26 27.09.2020
3878 Clear 22 1014 53 10000 3.1 270 22:50 27.09.2020
3879 Clear 22 1013 50 10000 2.6 240 22:32 27.09.2020
3880 Clear 23 1013 50 10000 4.1 220 21:45 27.09.2020
3881 Clear 25 1013 38 10000 1 200 21:27 27.09.2020
3882 Clear 26 1012 36 10000 1.5 190 20:56 27.09.2020
3883 Clouds 27 1012 34 10000 1 0 20:29 27.09.2020
3884 Clouds 28 1012 30 10000 1 0 19:56 27.09.2020
3885 Clouds 28 1012 32 10000 1 0 19:38 27.09.2020
3886 Clouds 28 1012 32 10000 1 0 19:18 27.09.2020
3887 Clouds 28 1012 30 10000 1 90 18:41 27.09.2020
3888 Clouds 28 1012 30 10000 1 90 18:21 27.09.2020
3889 Clouds 28 1013 32 10000 1 50 17:42 27.09.2020
3890 Clouds 28 1013 32 10000 1 50 17:24 27.09.2020
3891 Clouds 28 1013 32 10000 1 50 17:24 27.09.2020
3892 Clouds 27 1013 32 10000 2.1 60 16:55 27.09.2020
3893 Clouds 27 1013 32 10000 2.6 50 16:34 27.09.2020
3894 Clouds 27 1013 36 10000 3.6 60 15:58 27.09.2020
3895 Clouds 27 1014 39 10000 3.6 10 15:31 27.09.2020
3896 Clouds 26 1014 38 10000 3.1 50 14:58 27.09.2020
3897 Clouds 26 1014 41 10000 2.6 30 14:38 27.09.2020
3898 Clouds 25 1014 41 10000 2.6 30 14:20 27.09.2020
3899 Clouds 24 1015 47 10000 3.1 330 13:45 27.09.2020
3900 Clouds 24 1015 49 10000 4.1 340 13:20 27.09.2020
3901 Clouds 23 1016 53 10000 3.1 0 12:44 27.09.2020
3902 Clouds 23 1016 53 10000 3.1 0 12:24 27.09.2020
3903 Clouds 22 1016 56 10000 3.1 320 11:48 27.09.2020
3904 Clear 21 1016 56 10000 2.1 330 11:24 27.09.2020
3905 Clear 21 1016 56 10000 2.1 340 10:48 27.09.2020
3906 Clear 20 1015 59 10000 2.6 330 10:29 27.09.2020
3907 Clear 19 1015 63 10000 1 0 09:52 27.09.2020
3908 Clear 17 1015 67 10000 1.94 334 09:30 27.09.2020
3909 Clear 17 1015 67 10000 0.5 310 08:56 27.09.2020
3910 Clear 18 1015 67 10000 0.5 30 08:38 27.09.2020
3911 Clear 18 1015 67 10000 0.5 30 08:19 27.09.2020
3912 Clear 18 1015 63 10000 0.5 240 07:18 27.09.2020
3913 Clear 18 1015 63 10000 0.5 0 06:45 27.09.2020
3914 Clear 20 1016 52 10000 4.6 330 04:35 27.09.2020
3915 Clouds 21 1017 37 10000 3.1 340 01:57 27.09.2020
3916 Clouds 22 1017 40 10000 2.6 350 01:25 27.09.2020
3917 Clouds 22 1017 52 10000 2.1 350 00:55 27.09.2020
3918 Clouds 22 1017 60 10000 1 0 00:19 27.09.2020
3919 Clouds 21 1017 56 10000 1 0 23:40 26.09.2020
3920 Clouds 21 1017 53 10000 2.1 200 23:18 26.09.2020
3921 Clouds 22 1017 49 10000 3.1 210 22:40 26.09.2020
3922 Clouds 22 1017 49 10000 3.1 210 22:20 26.09.2020
3923 Clouds 23 1017 38 10000 3.6 210 21:48 26.09.2020
3924 Clouds 24 1017 33 10000 2.1 230 21:24 26.09.2020
3925 Clouds 25 1016 29 10000 3.1 240 20:56 26.09.2020
3926 Clouds 25 1016 26 10000 2.1 270 20:37 26.09.2020
3927 Clouds 26 1016 26 10000 2.1 270 20:19 26.09.2020
3928 Clouds 27 1016 23 10000 2.6 290 19:44 26.09.2020
3929 Clouds 27 1016 23 10000 2.6 270 19:21 26.09.2020
3930 Clouds 28 1016 23 10000 2.1 260 18:52 26.09.2020
3931 Clouds 28 1016 23 10000 2.6 250 18:32 26.09.2020
3932 Clear 28 1017 23 10000 1.5 170 17:54 26.09.2020
3933 Clear 28 1017 22 10000 1 160 17:34 26.09.2020
3934 Clear 27 1018 24 10000 1 340 16:44 26.09.2020
3935 Clear 27 1018 24 10000 1 340 16:24 26.09.2020
3936 Clear 26 1019 24 10000 1 350 15:55 26.09.2020
3937 Clear 26 1019 25 10000 2.1 350 15:27 26.09.2020
3938 Clear 25 1020 25 10000 3.6 10 14:55 26.09.2020
3939 Clear 24 1020 27 10000 0.5 50 14:21 26.09.2020
3940 Clear 24 1020 28 10000 3.1 50 13:55 26.09.2020
3941 Clear 23 1021 28 10000 2.6 60 13:34 26.09.2020
3942 Clear 23 1021 30 10000 3.1 90 12:59 26.09.2020
3943 Clear 22 1021 35 10000 3.6 70 12:38 26.09.2020
3944 Clear 21 1021 35 10000 3.6 70 12:19 26.09.2020
3945 Clear 21 1021 40 10000 3.6 40 11:52 26.09.2020
3946 Clear 20 1021 42 10000 4.1 30 11:23 26.09.2020
3947 Clear 19 1021 42 10000 4.6 20 10:49 26.09.2020
3948 Clear 18 1021 45 10000 4.1 20 10:25 26.09.2020
3949 Clear 17 1021 51 10000 2.6 10 09:51 26.09.2020
3950 Clear 16 1021 55 10000 1 0 09:23 26.09.2020
3951 Clear 16 1021 54 10000 1.5 10 08:57 26.09.2020
3952 Clouds 16 1020 54 10000 2.6 10 08:28 26.09.2020
3953 Clouds 17 1020 51 10000 2.1 340 07:24 26.09.2020
3954 Clouds 19 1022 51 10000 0.5 40 03:31 26.09.2020
3955 Clear 19 1022 45 10000 2.1 30 02:18 26.09.2020
3956 Clear 20 1022 39 10000 3.1 20 00:50 26.09.2020
3957 Clear 22 1022 33 10000 2.6 10 23:42 25.09.2020
3958 Clear 22 1022 33 10000 2.6 10 23:20 25.09.2020
3959 Clear 23 1022 31 10000 2.6 350 22:59 25.09.2020
3960 Clear 23 1022 31 10000 3.1 350 22:40 25.09.2020
3961 Clear 23 1022 31 10000 3.1 350 22:18 25.09.2020
3962 Clear 24 1021 31 10000 3.1 20 21:41 25.09.2020
3963 Clear 24 1021 31 10000 3.1 20 21:21 25.09.2020
3964 Clear 25 1021 27 10000 5.7 30 20:38 25.09.2020
3965 Clear 27 1020 27 10000 5.1 40 19:56 25.09.2020
3966 Clear 27 1020 26 10000 4.1 20 19:27 25.09.2020
3967 Clear 28 1020 26 10000 3.1 50 18:52 25.09.2020
3968 Clear 28 1020 28 10000 2.6 50 18:24 25.09.2020
3969 Clear 28 1021 30 10000 2.6 330 17:43 25.09.2020
3970 Clear 28 1021 30 10000 2.6 330 17:21 25.09.2020
3971 Clear 28 1021 30 10000 2.6 350 16:49 25.09.2020
3972 Clear 27 1022 31 10000 3.1 50 16:22 25.09.2020
3973 Clear 26 1022 31 10000 3.1 50 15:34 25.09.2020
3974 Clear 25 1022 31 10000 2.1 20 14:52 25.09.2020
3975 Clouds 24 1023 36 10000 3.1 40 14:23 25.09.2020
3976 Clouds 24 1023 36 10000 1.5 360 13:47 25.09.2020
3977 Clouds 23 1023 40 10000 2.1 40 13:22 25.09.2020
3978 Clouds 22 1023 43 10000 4.1 30 12:43 25.09.2020
3979 Clouds 22 1023 43 10000 4.1 30 12:23 25.09.2020
3980 Clouds 21 1023 49 10000 2.1 20 11:47 25.09.2020
3981 Clouds 20 1023 52 10000 2.1 340 10:56 25.09.2020
3982 Clouds 20 1022 56 10000 1.5 320 10:36 25.09.2020
3983 Clouds 20 1022 56 10000 1.5 320 10:36 25.09.2020
3984 Clouds 20 1022 56 10000 1.5 320 10:18 25.09.2020
3985 Clouds 18 1022 63 10000 1.5 360 09:40 25.09.2020
3986 Clouds 18 1021 63 10000 1 350 08:57 25.09.2020
3987 Clear 18 1021 63 10000 2.6 350 08:29 25.09.2020
3988 Clouds 18 1021 63 10000 2.1 350 07:54 25.09.2020
3989 Clouds 19 1020 63 10000 2.6 350 07:24 25.09.2020
3990 Clouds 22 1020 73 10000 3.1 320 04:30 25.09.2020
3991 Clouds 23 1020 73 10000 2.1 330 02:54 25.09.2020
3992 Clouds 24 1018 66 10000 1.34 336 23:58 24.09.2020
3993 Clouds 25 1019 64 10000 3.1 340 23:29 24.09.2020
3994 Clouds 25 1019 57 10000 2.6 350 22:56 24.09.2020
3995 Clouds 26 1019 57 10000 2.6 360 22:21 24.09.2020
3996 Clouds 26 1018 54 10000 1.5 40 21:49 24.09.2020
3997 Clouds 26 1018 54 10000 2.6 20 21:27 24.09.2020
3998 Clouds 26 1018 54 10000 2.6 20 21:27 24.09.2020
3999 Clouds 27 1018 54 10000 2.6 350 20:57 24.09.2020
4000 Clouds 27 1018 47 10000 2.1 350 20:39 24.09.2020
4001 Clouds 27 1018 47 10000 2.1 350 20:21 24.09.2020
4002 Clouds 28 1017 48 10000 4.6 10 19:31 24.09.2020
4003 Clouds 29 1017 45 10000 5.1 330 18:55 24.09.2020
4004 Clouds 29 1017 37 10000 6.7 320 18:24 24.09.2020
4005 Clouds 30 1017 33 10000 6.7 320 17:55 24.09.2020
4006 Clouds 31 1016 37 10000 3.1 280 17:33 24.09.2020
4007 Clouds 30 1017 45 10000 0.5 0 16:37 24.09.2020
4008 Clouds 30 1017 45 10000 0.5 0 15:57 24.09.2020
4009 Clouds 29 1017 45 10000 0.5 0 15:21 24.09.2020
4010 Clouds 28 1017 45 10000 1.5 290 14:52 24.09.2020
4011 Clouds 28 1017 45 10000 1 0 14:34 24.09.2020
4012 Clouds 28 1017 48 10000 1.5 20 13:44 24.09.2020
4013 Clouds 27 1018 57 10000 1.5 60 13:20 24.09.2020
4014 Clouds 27 1018 57 10000 1.5 60 12:47 24.09.2020
4015 Clouds 26 1018 61 10000 2.6 40 12:27 24.09.2020
4016 Clouds 24 1017 64 10000 2.1 10 11:38 24.09.2020
4017 Clouds 23 1017 73 10000 2.6 30 11:18 24.09.2020
4018 Clouds 22 1016 83 10000 1.5 360 10:39 24.09.2020
4019 Clouds 22 1016 83 10000 1.5 360 10:18 24.09.2020
4020 Clouds 20 1016 88 10000 1.5 330 09:23 24.09.2020
4021 Clouds 20 1016 88 10000 1.5 340 08:51 24.09.2020
4022 Clouds 20 1015 94 10000 1 0 08:32 24.09.2020
4023 Clouds 21 1015 88 10000 0.5 270 07:19 24.09.2020
4024 Rain 20 1015 82 10000 1.5 100 06:35 24.09.2020
4025 Clouds 21 1016 73 10000 2.6 230 02:32 24.09.2020
4026 Clouds 23 1016 69 10000 3.1 300 00:22 24.09.2020
4027 Clouds 23 1016 64 10000 2.6 270 23:46 23.09.2020
4028 Clouds 24 1016 64 10000 4.1 260 23:22 23.09.2020
4029 Clouds 23 1016 69 10000 3.1 220 22:50 23.09.2020
4030 Clouds 24 1015 64 10000 4.1 210 22:24 23.09.2020
4031 Clouds 24 1015 64 10000 5.1 220 21:54 23.09.2020
4032 Clouds 24 1015 64 10000 5.1 210 21:30 23.09.2020
4033 Clouds 25 1014 61 10000 5.7 210 20:54 23.09.2020
4034 Clouds 26 1014 57 10000 6.2 220 20:28 23.09.2020
4035 Clouds 27 1014 45 10000 4.1 240 19:45 23.09.2020
4036 Clouds 27 1014 45 10000 4.6 270 19:22 23.09.2020
4037 Clouds 28 1014 45 10000 3.6 280 18:34 23.09.2020
4038 Clouds 28 1014 42 10000 4.6 250 17:53 23.09.2020
4039 Clouds 28 1014 45 10000 5.1 250 17:33 23.09.2020
4040 Clouds 28 1014 45 10000 5.7 250 16:45 23.09.2020
4041 Clouds 28 1014 44 10000 5.1 260 16:26 23.09.2020
4042 Clouds 27 1015 44 10000 4.6 250 15:45 23.09.2020
4043 Clouds 27 1015 50 10000 4.1 250 15:22 23.09.2020
4044 Clouds 26 1016 50 10000 5.1 250 14:40 23.09.2020
4045 Clouds 25 1016 50 10000 5.7 260 13:46 23.09.2020
4046 Clouds 25 1016 57 10000 5.7 260 13:27 23.09.2020
4047 Clouds 24 1016 53 10000 4.6 250 12:57 23.09.2020
4048 Clouds 24 1016 60 10000 4.1 250 12:25 23.09.2020
4049 Clouds 24 1014 64 10000 0.89 302 11:49 23.09.2020
4050 Clouds 23 1016 68 10000 1.5 290 11:25 23.09.2020
4051 Clouds 22 1015 73 10000 1 300 10:44 23.09.2020
4052 Clouds 21 1015 77 10000 1.5 220 10:22 23.09.2020
4053 Clouds 19 1015 82 10000 1.5 280 09:43 23.09.2020
4054 Clouds 19 1015 82 10000 1.5 280 09:19 23.09.2020
4055 Clouds 18 1014 82 10000 1.36 247 08:20 23.09.2020
4056 Clouds 18 1014 82 10000 1 0 07:44 23.09.2020
4057 Clouds 19 1015 88 10000 3.6 220 05:51 23.09.2020
4058 Clouds 19 1014 88 10000 2.1 170 04:34 23.09.2020
4059 Clouds 20 1015 73 10000 3.1 180 01:30 23.09.2020
4060 Clouds 21 1015 68 10000 3.1 170 00:18 23.09.2020
4061 Clouds 22 1016 56 10000 2.6 240 23:33 22.09.2020
4062 Clouds 22 1015 56 10000 3.1 240 22:44 22.09.2020
4063 Clouds 23 1015 53 10000 3.6 220 22:26 22.09.2020
4064 Clouds 24 1014 50 10000 4.1 240 21:42 22.09.2020
4065 Clouds 25 1014 50 10000 4.1 240 21:23 22.09.2020
4066 Clouds 25 1014 47 10000 7.7 220 20:48 22.09.2020
4067 Clouds 25 1014 47 10000 7.7 220 20:26 22.09.2020
4068 Clouds 26 1013 44 10000 7.2 220 19:53 22.09.2020
4069 Clouds 27 1013 42 10000 5.7 220 19:34 22.09.2020
4070 Clouds 28 1013 42 10000 4.6 220 18:58 22.09.2020
4071 Clouds 28 1014 37 10000 4.1 230 18:34 22.09.2020
4072 Clouds 29 1014 37 10000 2.6 240 17:36 22.09.2020
4073 Clouds 29 1014 35 10000 2.1 200 16:53 22.09.2020
4074 Clouds 29 1016 42 10000 3.6 190 16:28 22.09.2020
4075 Clouds 29 1016 42 10000 3.6 190 15:47 22.09.2020
4076 Clouds 28 1016 42 10000 3.6 190 15:29 22.09.2020
4077 Clouds 28 1016 39 10000 2.1 230 14:39 22.09.2020
4078 Clouds 27 1016 42 10000 1.5 0 13:57 22.09.2020
4079 Clouds 27 1016 44 10000 1.5 0 13:26 22.09.2020
4080 Clouds 26 1016 47 10000 1.5 0 12:54 22.09.2020
4081 Clouds 25 1017 50 10000 1.5 0 12:33 22.09.2020
4082 Clouds 24 1017 53 10000 2.6 20 11:53 22.09.2020
4083 Clouds 23 1016 56 10000 3.1 40 11:22 22.09.2020
4084 Clouds 22 1016 60 10000 3.1 20 10:48 22.09.2020
4085 Clouds 21 1016 68 10000 2.6 30 10:26 22.09.2020
4086 Clouds 20 1016 72 10000 1.5 30 09:42 22.09.2020
4087 Clouds 19 1016 72 10000 1.5 360 08:56 22.09.2020
4088 Clouds 19 1016 87 10000 1 360 08:27 22.09.2020
4089 Clouds 19 1016 87 10000 0.5 0 07:53 22.09.2020
4090 Clouds 19 1015 93 10000 1 10 07:35 22.09.2020
4091 Clouds 20 1015 72 10000 1.83 1 06:56 22.09.2020
4092 Clouds 21 1016 56 10000 3.1 30 05:18 22.09.2020
4093 Clouds 21 1016 56 10000 2.6 40 04:35 22.09.2020
4094 Clouds 23 1016 73 10000 0.5 0 01:37 22.09.2020
4095 Clouds 23 1016 68 10000 0.5 260 00:56 22.09.2020
4096 Clouds 23 1016 64 10000 3.1 200 23:30 21.09.2020
4097 Clouds 23 1016 57 10000 4.1 220 22:47 21.09.2020
4098 Clouds 24 1016 53 10000 4.6 220 22:25 21.09.2020
4099 Clouds 25 1016 50 10000 6.2 220 21:44 21.09.2020
4100 Clouds 27 1015 47 10000 4.6 220 21:23 21.09.2020
4101 Clouds 27 1015 44 10000 4.6 220 20:51 21.09.2020
4102 Clouds 28 1015 39 10000 3.1 220 20:32 21.09.2020
4103 Clouds 28 1015 37 10000 2.6 220 19:58 21.09.2020
4104 Clouds 29 1015 35 10000 1.5 260 19:39 21.09.2020
4105 Clear 29 1015 35 10000 1.5 260 19:19 21.09.2020
4106 Clear 30 1016 33 10000 0.5 190 18:41 21.09.2020
4107 Clear 30 1016 33 10000 0.5 190 18:19 21.09.2020
4108 Clear 30 1016 35 10000 1 320 17:31 21.09.2020
4109 Clear 30 1016 35 10000 1 320 17:30 21.09.2020
4110 Clouds 29 1017 42 10000 1.5 320 16:32 21.09.2020
4111 Clear 28 1017 42 10000 1.5 320 15:48 21.09.2020
4112 Clouds 28 1017 42 10000 1.5 320 15:22 21.09.2020
4113 Clouds 28 1017 44 10000 2.1 60 14:45 21.09.2020
4114 Clouds 27 1018 44 10000 1 0 14:22 21.09.2020
4115 Clouds 26 1018 53 10000 2.6 50 13:23 21.09.2020
4116 Clouds 25 1019 57 10000 2.1 60 12:49 21.09.2020
4117 Clouds 23 1018 60 10000 2.6 50 12:23 21.09.2020
4118 Clouds 23 1018 64 10000 3.1 60 11:50 21.09.2020
4119 Clouds 22 1018 68 10000 2.6 50 11:20 21.09.2020
4120 Clouds 21 1018 73 10000 2.1 30 10:29 21.09.2020
4121 Clouds 20 1018 88 10000 1 310 09:59 21.09.2020
4122 Clouds 20 1018 77 10000 0.5 0 09:38 21.09.2020
4123 Clouds 20 1018 93 10000 1 0 08:51 21.09.2020
4124 Clouds 20 1017 93 10000 1 350 07:51 21.09.2020
4125 Clouds 20 1017 77 10000 1.63 357 07:32 21.09.2020
4126 Clouds 20 1017 93 10000 1.63 357 06:42 21.09.2020
4127 Clouds 21 1018 82 10000 0.5 0 03:29 21.09.2020
4128 Clouds 22 1018 68 10000 2.6 270 00:49 21.09.2020
4129 Clouds 22 1018 73 10000 2.6 230 23:41 20.09.2020
4130 Clouds 22 1018 69 10000 3.1 230 22:38 20.09.2020
4131 Clouds 22 1018 69 10000 3.1 230 22:19 20.09.2020
4132 Clouds 24 1017 64 10000 3.6 220 21:41 20.09.2020
4133 Clouds 24 1017 64 10000 3.6 220 21:19 20.09.2020
4134 Clouds 25 1017 44 10000 2.6 220 20:23 20.09.2020
4135 Clouds 26 1017 44 10000 2.1 240 19:49 20.09.2020
4136 Clouds 27 1017 44 10000 2.6 240 19:26 20.09.2020
4137 Clouds 27 1017 44 10000 2.6 250 18:48 20.09.2020
4138 Clouds 27 1017 44 10000 2.6 260 18:25 20.09.2020
4139 Clouds 27 1017 47 10000 3.6 280 17:57 20.09.2020
4140 Clouds 27 1017 47 10000 2.6 300 17:34 20.09.2020
4141 Clouds 27 1018 50 10000 3.1 280 16:52 20.09.2020
4142 Clouds 26 1018 50 10000 3.1 300 16:24 20.09.2020
4143 Clouds 26 1019 53 10000 2.6 280 15:23 20.09.2020
4144 Clouds 25 1020 60 10000 2.1 250 14:42 20.09.2020
4145 Clouds 24 1020 60 10000 2.1 250 14:18 20.09.2020
4146 Clouds 23 1020 64 10000 0.9 358 13:21 20.09.2020
4147 Clouds 23 1020 73 10000 0.5 10 12:45 20.09.2020
4148 Clouds 22 1020 77 10000 1.5 40 12:24 20.09.2020
4149 Clouds 20 1020 82 10000 1 0 11:40 20.09.2020
4150 Clouds 20 1020 82 10000 1 0 11:18 20.09.2020
4151 Clouds 19 1020 88 8000 2.6 40 10:51 20.09.2020
4152 Clouds 18 1020 93 8000 2.1 50 10:25 20.09.2020
4153 Clouds 18 1020 93 8000 1.5 90 09:49 20.09.2020
4154 Mist 17 1019 100 4500 1 0 08:31 20.09.2020
4155 Fog 17 1019 93 7000 1.5 100 07:29 20.09.2020
4156 Clear 18 1019 93 10000 1 0 03:25 20.09.2020
4157 Clear 19 1019 82 10000 2.6 200 00:35 20.09.2020
4158 Clear 20 1019 73 10000 3.1 210 23:39 19.09.2020
4159 Clear 20 1019 73 10000 3.1 230 22:58 19.09.2020
4160 Clear 21 1018 73 10000 3.6 220 22:30 19.09.2020
4161 Clear 21 1018 68 10000 3.6 230 21:52 19.09.2020
4162 Clear 22 1018 68 10000 3.6 220 21:34 19.09.2020
4163 Clear 23 1017 64 10000 5.1 220 20:48 19.09.2020
4164 Clouds 25 1017 57 10000 5.7 220 19:50 19.09.2020
4165 Clouds 25 1017 57 10000 5.1 220 19:21 19.09.2020
4166 Clouds 26 1017 54 10000 4.6 210 18:30 19.09.2020
4167 Clouds 26 1017 61 10000 5.1 220 17:46 19.09.2020
4168 Clouds 26 1017 61 10000 4.1 210 17:26 19.09.2020
4169 Clouds 25 1017 61 10000 4.1 210 16:45 19.09.2020
4170 Clouds 25 1017 61 10000 3.6 210 16:23 19.09.2020
4171 Clouds 25 1017 64 10000 3.1 230 15:43 19.09.2020
4172 Clouds 23 1019 77 10000 0.5 0 13:36 19.09.2020
4173 Clouds 20 1019 77 10000 2.44 210 12:27 19.09.2020
4174 Drizzle 19 1019 88 7000 0.5 220 11:37 19.09.2020
4175 Clouds 19 1018 88 10000 1 240 10:37 19.09.2020
4176 Clouds 19 1018 93 10000 1.5 210 09:56 19.09.2020
4177 Rain 18 1018 93 10000 3.1 170 09:30 19.09.2020
4178 Rain 19 1017 100 10000 2.6 160 08:55 19.09.2020
4179 Rain 18 1017 88 9000 3.6 190 07:54 19.09.2020
4180 Clouds 18 1016 93 10000 2.1 180 06:53 19.09.2020
4181 Clouds 19 1016 93 10000 1.5 190 05:52 19.09.2020
4182 Clouds 19 1016 93 10000 1.5 190 04:21 19.09.2020
4183 Clouds 20 1016 88 10000 5.1 220 01:30 19.09.2020
4184 Rain 20 1016 82 10000 4.1 220 00:42 19.09.2020
4185 Clouds 20 1016 88 10000 5.7 220 23:19 18.09.2020
4186 Clouds 21 1015 73 9000 7.7 220 22:39 18.09.2020
4187 Clouds 22 1014 73 10000 5.7 210 21:47 18.09.2020
4188 Clouds 22 1014 73 10000 7.2 220 21:28 18.09.2020
4189 Clouds 22 1014 73 10000 8.7 220 20:49 18.09.2020
4190 Clouds 23 1013 69 10000 9.8 220 19:54 18.09.2020
4191 Clouds 24 1013 69 10000 10.3 220 19:25 18.09.2020
4192 Clouds 24 1013 60 10000 9.3 220 18:48 18.09.2020
4193 Clouds 24 1012 61 10000 11.3 220 17:33 18.09.2020
4194 Rain 24 1012 69 10000 13.4 220 16:54 18.09.2020
4195 Clouds 23 1012 88 10000 6.2 200 16:31 18.09.2020
4196 Rain 24 1012 69 10000 10.3 220 15:53 18.09.2020
4197 Clouds 23 1012 88 10000 6.2 200 15:31 18.09.2020
4198 Rain 23 1012 88 4000 7.2 250 14:26 18.09.2020
4199 Rain 25 1011 65 10000 8.2 200 13:53 18.09.2020
4200 Rain 24 1011 83 10000 3.6 180 12:43 18.09.2020
4201 Rain 22 1012 94 10000 2.1 170 11:56 18.09.2020
4202 Clouds 23 1011 78 10000 2.1 200 10:46 18.09.2020
4203 Clouds 22 1011 83 10000 1 0 10:27 18.09.2020
4204 Clouds 21 1011 94 10000 3.86 187 09:43 18.09.2020
4205 Clouds 21 1011 94 10000 2.28 190 09:22 18.09.2020
4206 Clouds 20 1011 94 10000 2.1 200 08:24 18.09.2020
4207 Rain 20 1011 94 8000 1.5 170 07:31 18.09.2020
4208 Clouds 23 1012 60 10000 5.1 200 02:30 18.09.2020
4209 Clouds 23 1011 60 10000 4.1 190 01:44 18.09.2020
4210 Clouds 23 1012 64 10000 6.2 180 00:31 18.09.2020
4211 Rain 23 1012 73 10000 4.1 190 23:46 17.09.2020
4212 Clouds 23 1012 78 10000 5.1 210 22:46 17.09.2020
4213 Clouds 23 1012 78 10000 5.1 220 22:20 17.09.2020
4214 Clouds 24 1011 73 10000 6.2 220 21:36 17.09.2020
4215 Clouds 24 1011 69 10000 6.2 240 20:55 17.09.2020
4216 Clouds 24 1011 69 10000 6.2 220 20:28 17.09.2020
4217 Clouds 25 1011 61 10000 6.7 220 19:30 17.09.2020
4218 Clouds 25 1009 69 10000 3.13 252 18:53 17.09.2020
4219 Clouds 27 1010 54 10000 7.7 220 18:24 17.09.2020
4220 Clouds 27 1008 61 10000 4.47 257 17:40 17.09.2020
4221 Clouds 28 1011 48 10000 5.1 240 17:20 17.09.2020
4222 Clouds 28 1012 57 10000 1.5 200 15:59 17.09.2020
4223 Clouds 28 1012 57 10000 1.5 200 15:25 17.09.2020
4224 Clouds 27 1012 61 10000 2.1 230 14:40 17.09.2020
4225 Clouds 27 1012 61 10000 2.1 230 14:22 17.09.2020
4226 Clouds 26 1013 65 10000 3.1 210 13:30 17.09.2020
4227 Clouds 26 1013 69 10000 2.1 220 12:35 17.09.2020
4228 Clouds 24 1013 73 10000 3.1 210 11:58 17.09.2020
4229 Clouds 24 1013 83 10000 2.6 240 11:22 17.09.2020
4230 Clouds 23 1013 78 10000 2.1 170 10:41 17.09.2020
4231 Clouds 23 1013 78 10000 2.1 170 10:19 17.09.2020
4232 Clouds 22 1013 94 10000 1 230 09:43 17.09.2020
4233 Clouds 21 1013 94 10000 1 230 09:22 17.09.2020
4234 Clouds 21 1013 88 10000 1 80 08:39 17.09.2020
4235 Clouds 21 1013 88 10000 1 80 08:20 17.09.2020
4236 Clouds 21 1013 83 10000 2.1 90 07:18 17.09.2020
4237 Clouds 21 1013 88 10000 1.5 100 05:33 17.09.2020
4238 Clouds 21 1014 83 10000 1 0 04:22 17.09.2020
4239 Clouds 23 1015 73 10000 1.5 170 01:30 17.09.2020
4240 Clouds 23 1015 73 10000 1.5 170 01:30 17.09.2020
4241 Clouds 23 1015 73 10000 1.5 170 01:30 17.09.2020
4242 Clouds 23 1015 73 10000 1.5 160 00:58 17.09.2020
4243 Clouds 23 1015 73 10000 1 0 23:46 16.09.2020
4244 Clouds 24 1015 73 10000 1.5 180 22:48 16.09.2020
4245 Clouds 24 1015 73 10000 2.1 180 22:28 16.09.2020
4246 Clouds 24 1015 73 10000 3.1 210 21:55 16.09.2020
4247 Clouds 24 1015 69 10000 4.1 230 21:25 16.09.2020
4248 Clouds 25 1014 65 10000 5.1 220 20:38 16.09.2020
4249 Rain 26 1014 61 10000 5.1 210 19:58 16.09.2020
4250 Clouds 28 1014 48 10000 4.6 240 18:33 16.09.2020
4251 Clouds 29 1015 45 10000 1.5 230 16:55 16.09.2020
4252 Clouds 29 1016 51 10000 2.1 0 16:30 16.09.2020
4253 Clouds 29 1016 51 10000 2.1 0 15:51 16.09.2020
4254 Clouds 29 1016 48 10000 3.1 210 14:52 16.09.2020
4255 Clouds 28 1016 51 10000 2.1 200 14:28 16.09.2020
4256 Clouds 27 1017 51 10000 1 0 13:39 16.09.2020
4257 Clouds 26 1018 61 10000 1.5 210 12:41 16.09.2020
4258 Clouds 24 1018 69 10000 1.5 240 11:37 16.09.2020
4259 Clouds 22 1018 73 10000 1.5 340 10:26 16.09.2020
4260 Clouds 21 1018 73 10000 1.5 350 09:48 16.09.2020
4261 Clouds 20 1018 82 10000 1 0 09:21 16.09.2020
4262 Clouds 19 1018 88 10000 0.17 11 08:44 16.09.2020
4263 Clouds 19 1018 88 10000 0.26 334 07:32 16.09.2020
4264 Clouds 22 1019 64 10000 3.1 190 01:52 16.09.2020
4265 Clouds 25 1019 50 10000 3.6 260 23:57 15.09.2020
4266 Clouds 26 1019 47 10000 4.1 290 23:35 15.09.2020
4267 Clouds 27 1018 44 10000 3.6 290 22:51 15.09.2020
4268 Clouds 27 1018 51 10000 4.1 280 22:21 15.09.2020
4269 Clouds 28 1017 51 10000 2.6 220 21:41 15.09.2020
4270 Clouds 29 1017 39 10000 1 0 20:55 15.09.2020
4271 Clear 30 1017 37 10000 2.1 220 20:23 15.09.2020
4272 Clear 31 1017 40 10000 2.6 230 19:50 15.09.2020
4273 Clear 31 1018 40 10000 2.6 230 18:46 15.09.2020
4274 Clouds 31 1018 40 10000 2.6 240 17:42 15.09.2020
4275 Clouds 30 1019 42 10000 2.6 230 16:53 15.09.2020
4276 Clouds 30 1020 45 10000 3.1 240 16:33 15.09.2020
4277 Clouds 29 1020 45 10000 3.1 240 15:25 15.09.2020
4278 Clouds 29 1020 51 10000 4.1 240 14:46 15.09.2020
4279 Clouds 27 1021 57 10000 1 0 13:37 15.09.2020
4280 Clouds 25 1021 65 10000 1.5 0 11:32 15.09.2020
4281 Clouds 22 1021 78 10000 1.06 71 09:23 15.09.2020
4282 Clouds 21 1020 83 10000 0.5 0 08:47 15.09.2020
4283 Clouds 21 1020 77 10000 1 280 07:53 15.09.2020
4284 Clouds 21 1020 77 10000 1 280 07:21 15.09.2020
4285 Clouds 22 1021 64 10000 1.5 30 03:31 15.09.2020
4286 Clear 24 1020 65 10000 4.6 250 23:30 14.09.2020
4287 Clear 24 1019 65 10000 3.1 240 22:28 14.09.2020
4288 Clear 27 1018 58 10000 5.7 250 20:45 14.09.2020
4289 Clouds 29 1017 51 10000 5.1 250 19:24 14.09.2020
4290 Clouds 30 1017 51 10000 5.1 250 18:29 14.09.2020
4291 Rain 32 1019 38 10000 2.6 230 16:23 14.09.2020
4292 Clouds 32 1019 38 10000 2.6 230 15:53 14.09.2020
4293 Rain 31 1019 40 10000 2.1 200 14:25 14.09.2020
4294 Clouds 30 1019 42 10000 3.1 200 13:49 14.09.2020
4295 Clear 27 1019 54 10000 1 0 11:45 14.09.2020
4296 Rain 26 1019 57 10000 1 320 11:26 14.09.2020
4297 Clear 24 1018 60 10000 1 340 08:45 14.09.2020
4298 Clouds 25 1019 61 10000 2.6 300 00:27 14.09.2020
4299 Clouds 28 1017 48 10000 5.1 280 21:56 13.09.2020
4300 Clouds 30 1016 43 10000 8.2 280 20:25 13.09.2020
4301 Clouds 35 1017 21 10000 1.5 230 16:34 13.09.2020
4302 Clouds 31 1018 22 10000 4.1 130 12:51 13.09.2020
4303 Clouds 26 1015 54 10000 1.34 3 10:45 13.09.2020
4304 Clouds 26 1017 34 10000 3.1 80 10:19 13.09.2020
4305 Clouds 24 1016 44 10000 0.5 0 07:00 13.09.2020
4306 Clouds 25 1016 41 10000 1.5 30 03:56 13.09.2020
4307 Clouds 30 1014 37 10000 3.6 210 21:21 12.09.2020
4308 Clouds 34 1012 20 10000 1 0 19:44 12.09.2020
4309 Clouds 36 1012 19 10000 3.1 230 18:53 12.09.2020
4310 Clouds 36 1012 19 10000 3.1 180 17:49 12.09.2020
4311 Clouds 36 1012 18 10000 6.2 170 17:19 12.09.2020
4312 Clouds 37 1012 17 10000 5.1 60 16:52 12.09.2020
4313 Clouds 35 1014 20 10000 2.6 90 14:34 12.09.2020
4314 Clouds 32 1014 21 10000 5.1 80 12:35 12.09.2020
4315 Clouds 25 1014 38 10000 4.1 50 10:41 12.09.2020
4316 Clouds 21 1013 60 10000 0.5 0 05:27 12.09.2020
4317 Clouds 21 1013 56 10000 1.5 140 04:59 12.09.2020
4318 Clouds 26 1012 39 10000 4.1 210 00:24 12.09.2020
4319 Clouds 30 1011 27 10000 3.6 230 21:57 11.09.2020
4320 Clouds 33 1010 23 10000 3.1 300 20:47 11.09.2020
4321 Clouds 35 1010 23 10000 3.6 320 19:23 11.09.2020
4322 Clouds 34 1009 29 10000 0.89 290 17:46 11.09.2020
4323 Clouds 34 1012 29 10000 1 0 16:32 11.09.2020
4324 Clouds 30 1013 33 10000 2.6 20 13:59 11.09.2020
4325 Clouds 26 1014 47 10000 2.6 50 11:45 11.09.2020
4326 Clouds 23 1014 60 10000 1 0 10:29 11.09.2020
4327 Clouds 20 1013 82 10000 1.5 360 07:32 11.09.2020
4328 Clouds 31 1013 24 10000 2.1 230 21:37 10.09.2020
4329 Clouds 35 1013 20 10000 0.5 310 19:33 10.09.2020
4330 Clouds 34 1014 23 10000 1.5 140 17:54 10.09.2020
4331 Clouds 33 1016 31 10000 1.5 60 15:54 10.09.2020
4332 Clear 31 1015 43 10000 0.89 115 14:21 10.09.2020
4333 Clear 25 1019 60 10000 1.5 10 11:35 10.09.2020
4334 Clear 21 1019 82 10000 1 50 09:30 10.09.2020
4335 Clouds 20 1017 82 10000 0.5 170 07:47 10.09.2020
4336 Clouds 20 1018 77 10000 1.5 210 07:20 10.09.2020
4337 Clear 30 1015 42 10000 1.79 271 21:50 09.09.2020
4338 Clouds 34 1014 32 10000 0.89 319 18:39 09.09.2020
4339 Clouds 33 1017 29 10000 1.5 130 17:22 09.09.2020
4340 Clouds 30 1019 45 10000 4.1 30 14:42 09.09.2020
4341 Clouds 24 1019 53 10000 4.1 60 10:42 09.09.2020
4342 Clouds 23 1019 56 10000 4.1 40 09:55 09.09.2020
4343 Clouds 20 1019 68 10000 2.6 350 08:59 09.09.2020
4344 Clouds 21 1018 77 10000 0.5 0 07:38 09.09.2020
4345 Clouds 23 1018 56 10000 1.5 150 04:41 09.09.2020
4346 Clouds 23 1018 56 10000 1.5 150 04:41 09.09.2020
4347 Clouds 23 1018 56 10000 1.5 150 04:41 09.09.2020
4348 Clouds 23 1018 56 10000 1.5 150 04:41 09.09.2020
4349 Clouds 25 1018 53 10000 3.1 230 00:50 09.09.2020
4350 Clouds 26 1018 51 10000 4.1 220 23:36 08.09.2020
4351 Clouds 26 1018 51 10000 4.1 220 23:36 08.09.2020
4352 Clouds 26 1018 51 10000 4.1 220 23:36 08.09.2020
4353 Clouds 28 1016 48 10000 6.7 240 21:43 08.09.2020
4354 Clouds 29 1016 48 10000 6.7 240 21:21 08.09.2020
4355 Clear 34 1015 28 10000 2.6 50 18:40 08.09.2020
4356 Clear 33 1016 33 10000 3.6 10 16:36 08.09.2020
4357 Clear 27 1018 51 10000 3.1 20 11:55 08.09.2020
4358 Clear 26 1017 57 10000 2.6 10 11:19 08.09.2020
4359 Clear 24 1017 57 10000 4.1 20 10:28 08.09.2020
4360 Clear 22 1017 73 10000 1.5 340 09:40 08.09.2020
4361 Clear 20 1016 77 10000 2.6 10 07:39 08.09.2020
4362 Clear 24 1015 57 10000 3.1 180 00:20 08.09.2020
4363 Clear 26 1014 45 10000 3.6 210 22:45 07.09.2020
4364 Clear 32 1012 31 10000 5.7 220 20:39 07.09.2020
4365 Clouds 36 1012 30 10000 5.1 240 18:19 07.09.2020
4366 Clear 31 1015 38 10000 2.6 320 13:50 07.09.2020
4367 Clear 30 1015 37 10000 2.1 0 13:30 07.09.2020
4368 Clear 28 1015 42 10000 2.6 290 12:18 07.09.2020
4369 Clear 26 1015 57 10000 1.5 260 11:36 07.09.2020
4370 Clear 25 1015 61 10000 1.5 280 10:48 07.09.2020
4371 Clear 20 1014 82 10000 1 190 07:25 07.09.2020
4372 Clear 27 1014 45 10000 3.6 270 23:37 06.09.2020
4373 Clear 29 1012 35 10000 5.7 260 21:36 06.09.2020
4374 Clear 31 1011 31 10000 6.7 230 20:38 06.09.2020
4375 Clear 36 1011 22 10000 2.6 210 19:27 06.09.2020
4376 Clear 36 1012 22 10000 1 160 17:45 06.09.2020
4377 Clear 34 1013 21 10000 1 80 15:28 06.09.2020
4378 Clouds 32 1014 26 10000 2.6 110 13:56 06.09.2020
4379 Clouds 30 1014 33 10000 2.1 110 12:51 06.09.2020
4380 Clouds 23 1014 60 10000 2.6 30 09:49 06.09.2020
4381 Clouds 21 1014 64 10000 3.1 60 08:56 06.09.2020
4382 Clear 29 1013 31 10000 2.6 210 22:43 05.09.2020
4383 Clear 32 1012 29 10000 3.1 230 21:27 05.09.2020
4384 Clear 34 1015 21 10000 3.1 20 16:38 05.09.2020
4385 Clear 32 1017 35 10000 3.1 30 14:36 05.09.2020
4386 Clear 29 1018 39 10000 1.5 50 12:48 05.09.2020
4387 Clear 28 1018 39 10000 2.1 10 12:24 05.09.2020
4388 Clear 27 1018 50 10000 3.1 80 11:40 05.09.2020
4389 Clear 24 1018 60 10000 3.1 60 10:28 05.09.2020
4390 Clear 20 1018 68 10000 2.6 40 08:58 05.09.2020
4391 Clear 21 1018 64 10000 0.5 0 06:26 05.09.2020
4392 Clear 32 1017 24 10000 3.6 210 21:32 04.09.2020
4393 Clear 34 1017 18 10000 3.6 240 19:53 04.09.2020
4394 Clear 35 1017 19 10000 3.6 220 18:41 04.09.2020
4395 Clear 35 1017 19 10000 3.1 90 16:52 04.09.2020
4396 Clear 33 1019 22 10000 2.6 230 15:28 04.09.2020
4397 Clear 29 1020 28 10000 4.1 80 11:32 04.09.2020
4398 Clear 22 1019 56 10000 3.1 340 09:30 04.09.2020
4399 Clear 22 1018 53 10000 5.7 80 06:31 04.09.2020
4400 Clear 26 1019 34 10000 2.6 30 00:59 04.09.2020
4401 Clear 29 1018 23 10000 5.1 130 22:41 03.09.2020
4402 Clear 31 1017 23 10000 4.1 140 21:39 03.09.2020
4403 Clear 33 1016 21 10000 4.6 130 20:31 03.09.2020
4404 Clear 33 1016 21 10000 4.6 130 20:31 03.09.2020
4405 Clear 34 1016 18 10000 5.1 130 19:24 03.09.2020
4406 Clear 35 1016 15 10000 6.2 110 18:18 03.09.2020
4407 Clear 35 1017 23 10000 6.2 40 16:26 03.09.2020
4408 Clear 32 1018 29 10000 4.6 50 13:25 03.09.2020
4409 Clear 30 1018 33 10000 4.1 70 12:26 03.09.2020
4410 Clear 25 1018 53 10000 3.1 20 10:46 03.09.2020
4411 Clear 19 1017 68 10000 2.6 350 08:31 03.09.2020
4412 Clear 24 1016 50 10000 3.6 210 00:18 03.09.2020
4413 Clear 30 1013 18 10000 1 0 20:44 02.09.2020
4414 Clear 33 1013 15 10000 1 0 19:58 02.09.2020
4415 Clear 33 1013 18 10000 2.6 220 17:58 02.09.2020
4416 Clear 30 1014 39 10000 2.1 240 14:58 02.09.2020
4417 Clear 24 1014 69 10000 1 0 11:51 02.09.2020
4418 Clear 18 1013 72 10000 1 0 08:46 02.09.2020
4419 Clear 18 1012 77 10000 1.5 360 07:19 02.09.2020
4420 Clear 20 1012 60 10000 3.6 180 00:20 02.09.2020
4421 Clear 27 1010 34 10000 5.1 220 21:27 01.09.2020
4422 Clouds 30 1010 23 10000 7.7 220 19:50 01.09.2020
4423 Clouds 31 1010 23 10000 3.6 220 18:36 01.09.2020
4424 Clouds 31 1010 23 10000 3.6 220 18:18 01.09.2020
4425 Clouds 30 1012 30 10000 2.1 0 16:36 01.09.2020
4426 Clouds 30 1012 30 10000 2.1 0 15:36 01.09.2020
4427 Clouds 28 1013 39 10000 2.1 230 13:57 01.09.2020
4428 Rain 23 1014 56 10000 1 0 11:18 01.09.2020
4429 Clouds 21 1014 64 10000 1 0 09:46 01.09.2020
4430 Clouds 18 1013 72 10000 0.5 0 07:49 01.09.2020
4431 Clear 26 1013 36 10000 3.6 220 23:29 31.08.2020
4432 Clear 31 1012 23 10000 3.1 100 21:32 31.08.2020
4433 Clouds 33 1013 19 10000 4.6 70 17:42 31.08.2020
4434 Clouds 33 1014 31 10000 2.1 250 16:32 31.08.2020
4435 Clouds 32 1015 29 10000 3.1 90 14:34 31.08.2020
4436 Clear 27 1016 42 10000 3.6 50 12:29 31.08.2020
4437 Clear 20 1015 52 10000 1.5 360 09:33 31.08.2020
4438 Clear 19 1015 42 10000 2.6 50 06:58 31.08.2020
4439 Clear 22 1014 46 10000 2.1 160 02:22 31.08.2020
4440 Clear 24 1013 27 10000 1 0 23:21 30.08.2020
4441 Clear 31 1010 17 10000 0.5 110 21:29 30.08.2020
4442 Clear 32 1010 11 10000 1.5 0 19:23 30.08.2020
4443 Clear 32 1010 11 10000 1.5 180 18:42 30.08.2020
4444 Clear 32 1010 11 10000 1.5 260 17:33 30.08.2020
4445 Clear 30 1011 16 10000 2.6 50 15:25 30.08.2020
4446 Clear 30 1011 15 10000 4.1 40 14:53 30.08.2020
4447 Clouds 28 1012 23 10000 5.1 70 12:56 30.08.2020
4448 Clouds 26 1012 25 10000 7.2 60 11:40 30.08.2020
4449 Clouds 22 1011 33 10000 2.6 50 10:21 30.08.2020
4450 Clouds 20 1011 34 10000 3.1 40 08:48 30.08.2020
4451 Clouds 25 1009 22 10000 4.1 340 23:34 29.08.2020
4452 Clear 28 1007 18 10000 3.6 360 21:40 29.08.2020
4453 Clear 29 1007 15 10000 6.2 10 20:27 29.08.2020
4454 Clear 30 1006 17 10000 4.1 350 18:39 29.08.2020
4455 Clear 31 1006 19 10000 2.1 330 17:51 29.08.2020
4456 Clear 30 1004 25 10000 2.24 17 16:50 29.08.2020
4457 Clear 29 1007 20 10000 3.1 350 15:55 29.08.2020
4458 Clear 23 1009 33 10000 3.1 320 11:58 29.08.2020
4459 Clear 17 1009 59 10000 2.1 330 08:59 29.08.2020
4460 Clear 18 1008 55 10000 3.1 320 08:18 29.08.2020
4461 Clouds 30 1007 19 10000 6.7 310 22:42 28.08.2020
4462 Clouds 31 1006 25 10000 6.2 300 21:31 28.08.2020
4463 Clouds 34 1004 33 10000 3.13 317 19:22 28.08.2020
4464 Clouds 35 1006 34 10000 3.1 190 18:33 28.08.2020
4465 Clouds 36 1007 32 10000 6.2 220 17:31 28.08.2020
4466 Clear 33 1009 41 10000 4.6 200 16:24 28.08.2020
4467 Clear 32 1009 40 10000 4.6 210 14:46 28.08.2020
4468 Clear 31 1010 43 10000 4.1 0 14:25 28.08.2020
4469 Clear 31 1010 45 10000 4.6 190 13:51 28.08.2020
4470 Clear 26 1011 61 10000 2.6 210 11:32 28.08.2020
4471 Clear 21 1011 82 10000 1.5 190 09:29 28.08.2020
4472 Clear 20 1011 88 10000 1.5 200 08:38 28.08.2020
4473 Clear 22 1011 60 10000 1.5 190 05:40 28.08.2020
4474 Clear 26 1012 51 10000 3.1 180 00:49 28.08.2020
4475 Clear 28 1012 51 10000 5.7 210 23:40 27.08.2020
4476 Clouds 32 1012 38 10000 6.2 220 21:42 27.08.2020
4477 Clouds 35 1011 34 10000 5.1 210 20:54 27.08.2020
4478 Clear 38 1011 23 10000 4.6 240 19:46 27.08.2020
4479 Clear 38 1012 17 10000 5.1 220 18:29 27.08.2020
4480 Clear 39 1013 17 10000 5.1 230 17:23 27.08.2020
4481 Clear 38 1014 18 10000 4.1 230 16:43 27.08.2020
4482 Clear 35 1016 34 10000 2.6 220 13:55 27.08.2020
4483 Clear 29 1016 51 10000 1.5 320 11:41 27.08.2020
4484 Clear 27 1016 57 10000 1 0 10:45 27.08.2020
4485 Clear 24 1016 56 10000 0.5 0 09:27 27.08.2020
4486 Clear 22 1016 60 10000 1 0 08:23 27.08.2020
4487 Clear 26 1017 50 10000 2.1 170 02:42 27.08.2020
4488 Clouds 31 1016 31 10000 2.1 260 22:49 26.08.2020
4489 Clouds 33 1016 32 10000 3.1 250 22:28 26.08.2020
4490 Clouds 38 1014 24 10000 5.7 230 20:31 26.08.2020
4491 Clouds 38 1015 25 10000 4.6 210 19:56 26.08.2020
4492 Clouds 39 1015 22 10000 1.5 180 17:23 26.08.2020
4493 Clouds 36 1016 32 10000 2.6 230 14:59 26.08.2020
4494 Clear 35 1017 32 10000 1 0 13:57 26.08.2020
4495 Clear 26 1017 69 10000 2.1 10 10:38 26.08.2020
4496 Clear 22 1016 88 10000 0.5 330 07:33 26.08.2020
4497 Clear 30 1013 43 10000 4.1 220 22:42 25.08.2020
4498 Clear 33 1012 26 10000 3.6 220 21:38 25.08.2020
4499 Clear 35 1012 26 10000 3.6 220 21:19 25.08.2020
4500 Clear 36 1012 20 10000 3.1 220 20:24 25.08.2020
4501 Clear 37 1012 20 10000 3.6 220 19:54 25.08.2020
4502 Clear 37 1012 19 10000 2.6 200 19:21 25.08.2020
4503 Clear 38 1012 22 10000 1.5 240 17:41 25.08.2020
4504 Clear 37 1013 26 10000 1 120 16:56 25.08.2020
4505 Clear 35 1014 36 10000 2.1 340 15:33 25.08.2020
4506 Clear 33 1014 41 10000 1.5 10 14:40 25.08.2020
4507 Clear 29 1015 54 10000 2.1 20 12:23 25.08.2020
4508 Clear 27 1015 61 10000 1.5 10 11:19 25.08.2020
4509 Clear 21 1014 83 10000 0.5 0 08:41 25.08.2020
4510 Clear 22 1014 83 10000 0.5 10 07:28 25.08.2020
4511 Clear 22 1014 78 10000 0.5 0 06:58 25.08.2020
4512 Clouds 22 1014 78 10000 1.5 100 06:28 25.08.2020
4513 Clouds 23 1014 73 10000 1 0 05:49 25.08.2020
4514 Clouds 23 1014 73 10000 1.5 180 05:27 25.08.2020
4515 Clouds 23 1014 69 10000 3.1 220 03:48 25.08.2020
4516 Clouds 24 1014 69 10000 4.1 200 03:30 25.08.2020
4517 Clouds 24 1014 69 10000 4.1 200 02:45 25.08.2020
4518 Clear 29 1013 40 10000 4.6 250 22:54 24.08.2020
4519 Clear 31 1012 40 10000 4.1 260 21:50 24.08.2020
4520 Clear 32 1011 38 10000 4.1 250 21:18 24.08.2020
4521 Clear 34 1011 28 10000 3.1 230 20:20 24.08.2020
4522 Clear 36 1012 20 10000 3.6 270 18:32 24.08.2020
4523 Clear 35 1012 26 10000 2.6 0 17:34 24.08.2020
4524 Clear 35 1014 33 10000 2.1 230 16:35 24.08.2020
4525 Clouds 34 1014 33 10000 2.1 230 15:24 24.08.2020
4526 Clouds 32 1014 48 10000 2.6 280 14:31 24.08.2020
4527 Clouds 31 1015 51 10000 1.5 0 13:36 24.08.2020
4528 Clear 29 1016 45 10000 0.5 150 12:20 24.08.2020
4529 Clear 29 1016 45 10000 0.5 150 12:20 24.08.2020
4530 Clear 29 1016 45 10000 0.5 150 12:20 24.08.2020
4531 Clear 29 1016 45 10000 0.5 150 12:20 24.08.2020
4532 Clear 28 1015 61 10000 1.5 0 11:53 24.08.2020
4533 Clear 27 1015 61 10000 2.1 270 11:33 24.08.2020
4534 Clear 25 1015 53 10000 1 0 10:38 24.08.2020
4535 Clear 23 1015 56 10000 0.5 0 09:55 24.08.2020
4536 Clear 19 1015 77 10000 0.5 0 08:23 24.08.2020
4537 Clear 21 1014 56 10000 2.1 10 05:26 24.08.2020
4538 Clear 25 1014 44 10000 3.1 170 00:30 24.08.2020
4539 Clear 25 1014 44 10000 2.6 170 23:52 23.08.2020
4540 Clear 25 1012 53 10000 1.34 183 23:34 23.08.2020
4541 Clear 33 1013 16 10000 7.2 230 20:42 23.08.2020
4542 Clear 36 1013 13 10000 6.2 220 19:18 23.08.2020
4543 Clear 38 1014 7 10000 3.1 230 18:19 23.08.2020
4544 Clear 38 1014 7 10000 3.1 270 17:23 23.08.2020
4545 Clear 38 1014 7 10000 3.1 270 17:23 23.08.2020
4546 Clear 38 1015 9 10000 2.1 260 16:32 23.08.2020
4547 Clear 37 1016 10 10000 1.5 310 14:56 23.08.2020
4548 Clear 35 1017 16 10000 1 40 13:34 23.08.2020
4549 Clear 33 1017 19 10000 1 0 12:49 23.08.2020
4550 Clear 27 1018 36 10000 1 0 10:39 23.08.2020
4551 Clear 23 1018 56 10000 0.5 0 09:45 23.08.2020
4552 Clear 22 1017 64 10000 0.5 0 06:43 23.08.2020
4553 Clear 24 1018 50 10000 2.6 160 00:51 23.08.2020
4554 Clear 25 1018 47 10000 2.1 160 00:32 23.08.2020
4555 Clear 25 1017 44 10000 2.1 180 23:57 22.08.2020
4556 Clear 26 1017 44 10000 2.1 170 23:20 22.08.2020
4557 Clear 26 1017 44 10000 2.1 170 23:20 22.08.2020
4558 Clear 31 1016 33 10000 4.6 210 21:53 22.08.2020
4559 Clear 36 1016 27 10000 4.1 240 19:44 22.08.2020
4560 Clear 37 1016 23 10000 3.6 260 18:28 22.08.2020
4561 Clear 37 1017 25 10000 2.1 350 17:42 22.08.2020
4562 Clear 37 1017 26 10000 1.5 270 16:47 22.08.2020
4563 Clear 33 1019 38 10000 2.1 340 13:41 22.08.2020
4564 Clear 30 1020 40 10000 1 60 11:59 22.08.2020
4565 Clear 29 1020 45 10000 1 50 11:38 22.08.2020
4566 Clear 26 1020 61 10000 0.5 0 10:27 22.08.2020
4567 Clear 22 1019 78 10000 0.5 0 08:22 22.08.2020
4568 Clear 23 1017 73 10000 2.1 200 01:35 22.08.2020
4569 Clear 27 1015 58 10000 5.7 210 22:40 21.08.2020
4570 Clear 31 1014 54 10000 6.7 220 21:26 21.08.2020
4571 Clear 33 1014 34 10000 5.1 220 18:58 21.08.2020
4572 Clear 35 1014 26 10000 3.1 290 16:45 21.08.2020
4573 Clear 32 1015 45 10000 0.5 0 14:38 21.08.2020
4574 Clear 28 1015 65 10000 1.5 160 12:35 21.08.2020
4575 Clear 24 1015 73 10000 1.5 210 11:23 21.08.2020
4576 Clouds 19 1013 93 10000 0.5 0 08:29 21.08.2020
4577 Clear 20 1013 88 10000 1 0 06:48 21.08.2020
4578 Clear 22 1011 69 10000 3.6 170 00:18 21.08.2020
4579 Clear 28 1009 55 10000 4.6 240 21:57 20.08.2020
4580 Clear 35 1008 8 10000 6.7 220 19:31 20.08.2020
4581 Clear 36 1008 11 10000 6.7 230 18:21 20.08.2020
4582 Clear 36 1008 11 10000 4.6 220 16:47 20.08.2020
4583 Clear 35 1009 13 10000 3.1 220 14:56 20.08.2020
4584 Clear 32 1009 27 10000 1 0 13:31 20.08.2020
4585 Clear 28 1009 37 10000 0.5 0 11:44 20.08.2020
4586 Clear 25 1009 47 10000 0.5 0 10:53 20.08.2020
4587 Clear 22 1009 64 10000 1 70 09:39 20.08.2020
4588 Clear 20 1009 60 10000 0.5 0 08:47 20.08.2020
4589 Clear 19 1008 82 10000 0.5 0 07:32 20.08.2020
4590 Clear 21 1008 63 10000 2.1 140 04:50 20.08.2020
4591 Clear 22 1008 49 10000 1 190 02:45 20.08.2020
4592 Clear 25 1008 29 10000 2.6 190 00:41 20.08.2020
4593 Clear 31 1007 25 10000 5.7 220 21:51 19.08.2020
4594 Clear 34 1006 26 10000 7.7 220 20:26 19.08.2020
4595 Clear 36 1007 26 10000 5.7 230 17:57 19.08.2020
4596 Clear 36 1007 25 10000 4.1 210 17:37 19.08.2020
4597 Clear 36 1009 32 10000 3.6 210 15:55 19.08.2020
4598 Clear 35 1009 28 10000 3.1 200 14:46 19.08.2020
4599 Clear 34 1010 30 10000 1.5 0 13:35 19.08.2020
4600 Clear 31 1010 37 10000 3.6 50 11:43 19.08.2020
4601 Clear 28 1010 42 10000 2.1 20 10:34 19.08.2020
4602 Clear 26 1010 44 10000 2.6 30 09:47 19.08.2020
4603 Clear 24 1010 64 10000 2.1 30 07:25 19.08.2020
4604 Clouds 30 1011 45 10000 1.5 60 22:45 18.08.2020
4605 Clouds 31 1010 38 10000 4.6 220 22:18 18.08.2020
4606 Clouds 31 1010 38 10000 4.6 220 21:44 18.08.2020
4607 Clouds 34 1010 26 10000 4.1 220 20:54 18.08.2020
4608 Clouds 34 1008 37 10000 2.24 221 20:24 18.08.2020
4609 Clouds 37 1010 25 10000 1.5 340 18:45 18.08.2020
4610 Clouds 36 1011 25 10000 1 320 17:46 18.08.2020
4611 Clouds 35 1013 28 10000 3.1 50 16:28 18.08.2020
4612 Clouds 33 1013 31 10000 1.5 30 14:39 18.08.2020
4613 Clouds 33 1013 31 10000 1.5 30 14:39 18.08.2020
4614 Clouds 32 1014 33 10000 2.6 340 13:50 18.08.2020
4615 Clouds 32 1014 35 10000 2.6 0 13:18 18.08.2020
4616 Clouds 27 1014 51 10000 3.6 10 10:57 18.08.2020
4617 Clear 21 1014 77 10000 1.5 30 08:50 18.08.2020
4618 Clear 22 1014 73 10000 1 10 07:56 18.08.2020
4619 Clear 21 1014 82 10000 1.5 360 07:26 18.08.2020
4620 Clear 25 1015 61 10000 5.1 210 23:48 17.08.2020
4621 Clear 25 1014 57 10000 3.6 210 23:24 17.08.2020
4622 Clear 27 1014 51 10000 4.6 210 21:49 17.08.2020
4623 Clear 30 1013 45 10000 4.6 210 20:50 17.08.2020
4624 Clear 30 1013 43 10000 6.2 220 20:25 17.08.2020
4625 Clear 33 1013 29 10000 3.1 220 18:22 17.08.2020
4626 Clear 32 1015 37 10000 3.1 90 16:23 17.08.2020
4627 Clear 30 1015 37 10000 3.1 90 15:33 17.08.2020
4628 Clear 30 1016 37 10000 1.5 30 14:55 17.08.2020
4629 Clear 27 1017 42 10000 3.1 20 12:58 17.08.2020
4630 Clear 25 1017 53 10000 2.6 70 11:42 17.08.2020
4631 Clear 25 1017 53 10000 2.6 70 11:24 17.08.2020
4632 Clear 24 1017 57 10000 1.5 350 10:21 17.08.2020
4633 Clear 22 1017 72 10000 0.5 0 09:41 17.08.2020
4634 Clear 20 1016 68 10000 2.39 341 06:48 17.08.2020
4635 Clear 22 1016 56 10000 3.6 200 00:34 17.08.2020
4636 Clear 24 1015 53 10000 4.1 190 22:36 16.08.2020
4637 Clear 24 1015 53 10000 4.1 190 22:18 16.08.2020
4638 Clear 30 1012 40 10000 3.58 169 18:44 16.08.2020
4639 Clear 31 1015 26 10000 5.96 271 18:25 16.08.2020
4640 Clear 31 1013 31 10000 1.34 260 16:37 16.08.2020
4641 Clear 30 1013 31 10000 1.79 262 15:59 16.08.2020
4642 Clear 29 1014 33 10000 0.89 260 15:20 16.08.2020
4643 Clear 27 1014 36 10000 1.34 235 13:44 16.08.2020
4644 Clear 25 1015 41 10000 1.79 353 12:30 16.08.2020
4645 Clear 24 1015 44 10000 0.89 325 11:46 16.08.2020
4646 Clear 23 1015 47 10000 0.89 357 11:19 16.08.2020
4647 Clear 22 1015 51 10000 1.34 344 10:40 16.08.2020
4648 Clear 21 1017 57 10000 2.31 331 09:26 16.08.2020
4649 Clear 20 1016 55 10000 2.1 360 07:59 16.08.2020
4650 Clear 20 1015 60 10000 0.5 0 07:20 16.08.2020
4651 Clear 24 1014 53 10000 4.6 220 22:50 15.08.2020
4652 Clear 24 1014 53 10000 4.6 220 22:31 15.08.2020
4653 Clear 27 1013 42 10000 6.7 210 20:33 15.08.2020
4654 Clouds 29 1013 37 10000 6.2 210 19:20 15.08.2020
4655 Clear 31 1013 29 10000 5.7 190 18:18 15.08.2020
4656 Clear 30 1014 25 10000 4.6 230 16:46 15.08.2020
4657 Clear 30 1015 30 10000 4.6 220 15:19 15.08.2020
4658 Clear 29 1015 35 10000 3.6 250 14:30 15.08.2020
4659 Clear 27 1016 41 10000 1.5 280 12:36 15.08.2020
4660 Clear 26 1016 50 10000 2.1 360 11:50 15.08.2020
4661 Clear 24 1016 50 10000 2.1 360 11:31 15.08.2020
4662 Clear 23 1016 68 10000 1 340 10:42 15.08.2020
4663 Clear 21 1015 77 10000 0.5 280 09:53 15.08.2020
4664 Clear 21 1015 77 10000 0.5 280 09:31 15.08.2020
4665 Clear 18 1015 82 10000 1 230 08:25 15.08.2020
4666 Clear 20 1014 64 10000 2.1 190 03:44 15.08.2020
4667 Clear 22 1014 56 10000 2.6 190 00:58 15.08.2020
4668 Clear 25 1014 50 10000 4.1 210 23:32 14.08.2020
4669 Clear 32 1011 25 10000 5.1 220 20:46 14.08.2020
4670 Clear 32 1011 25 10000 5.1 220 20:27 14.08.2020
4671 Clear 33 1012 27 10000 4.1 230 17:38 14.08.2020
4672 Clear 32 1014 35 10000 2.1 0 15:25 14.08.2020
4673 Clear 31 1014 48 10000 2.1 270 14:43 14.08.2020
4674 Clear 29 1015 51 10000 2.6 230 13:56 14.08.2020
4675 Clear 25 1015 73 10000 2.1 230 11:37 14.08.2020
4676 Clear 22 1015 83 10000 1.5 170 10:18 14.08.2020
4677 Clear 19 1015 93 10000 0.5 100 08:49 14.08.2020
4678 Clear 22 1015 73 10000 3.6 200 01:25 14.08.2020
4679 Clear 22 1015 73 10000 3.1 210 00:45 14.08.2020
4680 Clear 23 1015 69 10000 4.6 210 23:31 13.08.2020
4681 Clear 24 1014 69 10000 5.7 220 22:24 13.08.2020
4682 Clear 29 1013 54 10000 6.2 220 21:20 13.08.2020
4683 Clear 28 1013 54 10000 6.2 220 20:53 13.08.2020
4684 Clear 30 1013 43 10000 4.1 220 19:47 13.08.2020
4685 Clear 32 1014 29 10000 2.1 230 17:41 13.08.2020
4686 Clear 31 1015 45 10000 2.1 210 16:21 13.08.2020
4687 Clear 28 1016 51 10000 3.1 240 13:58 13.08.2020
4688 Clear 27 1016 57 10000 2.1 0 12:49 13.08.2020
4689 Clear 26 1016 61 10000 2.1 170 12:26 13.08.2020
4690 Clouds 21 1015 83 10000 1 100 09:20 13.08.2020
4691 Clouds 20 1015 93 10000 2.1 60 07:44 13.08.2020
4692 Clear 21 1015 73 10000 3.1 200 01:52 13.08.2020
4693 Clear 24 1014 60 10000 6.2 220 22:48 12.08.2020
4694 Clear 24 1014 57 10000 6.7 220 22:21 12.08.2020
4695 Clear 25 1014 57 10000 6.7 220 21:57 12.08.2020
4696 Clear 26 1013 57 10000 6.7 220 20:57 12.08.2020
4697 Clear 27 1013 54 10000 6.7 210 20:39 12.08.2020
4698 Clear 27 1013 48 10000 6.7 220 20:20 12.08.2020
4699 Clear 28 1013 48 10000 5.1 210 19:34 12.08.2020
4700 Clear 29 1014 42 10000 4.6 230 17:49 12.08.2020
4701 Clouds 28 1015 48 10000 5.1 210 15:55 12.08.2020
4702 Clouds 27 1015 45 10000 4.6 200 14:54 12.08.2020
4703 Clouds 26 1016 54 10000 3.6 210 13:44 12.08.2020
4704 Clouds 25 1016 61 10000 4.1 220 12:34 12.08.2020
4705 Clouds 24 1015 69 10000 3.6 200 11:53 12.08.2020
4706 Clouds 22 1015 77 10000 2.1 200 10:41 12.08.2020
4707 Clear 21 1013 78 10000 2.6 190 02:56 12.08.2020
4708 Clear 22 1013 69 10000 3.6 210 00:51 12.08.2020
4709 Clear 25 1011 57 10000 6.7 220 22:23 11.08.2020
4710 Clear 26 1010 45 10000 7.2 220 21:51 11.08.2020
4711 Clear 28 1010 42 10000 5.7 220 21:21 11.08.2020
4712 Clouds 30 1009 37 10000 7.2 220 20:22 11.08.2020
4713 Clouds 31 1009 43 10000 7.7 220 19:30 11.08.2020
4714 Clouds 31 1009 43 10000 8.2 220 18:30 11.08.2020
4715 Clouds 32 1010 46 10000 7.7 230 16:48 11.08.2020
4716 Clouds 31 1010 55 10000 5.7 230 15:41 11.08.2020
4717 Clouds 31 1011 55 10000 4.1 210 14:51 11.08.2020
4718 Clouds 30 1011 58 10000 4.6 210 14:20 11.08.2020
4719 Clouds 29 1011 58 10000 2.6 210 12:45 11.08.2020
4720 Clouds 29 1011 58 10000 2.6 210 12:26 11.08.2020
4721 Clouds 28 1011 61 10000 1.5 260 11:24 11.08.2020
4722 Clouds 27 1010 61 10000 1 0 10:27 11.08.2020
4723 Clear 23 1009 83 10000 0.5 300 07:43 11.08.2020
4724 Clear 24 1010 64 10000 1.5 160 05:53 11.08.2020
4725 Clear 24 1010 69 10000 1 100 05:35 11.08.2020
4726 Clear 24 1010 69 10000 1 0 03:18 11.08.2020
4727 Clear 24 1011 69 10000 1 0 02:25 11.08.2020
4728 Clear 24 1011 65 10000 3.1 230 01:46 11.08.2020
4729 Clear 25 1011 61 10000 3.6 210 00:33 11.08.2020
4730 Clear 29 1009 45 10000 4.1 210 22:28 10.08.2020
4731 Clear 32 1008 46 10000 5.7 220 20:57 10.08.2020
4732 Clear 33 1008 43 10000 5.1 220 20:38 10.08.2020
4733 Clear 33 1008 46 10000 3.6 230 19:38 10.08.2020
4734 Clear 34 1008 46 10000 4.1 250 19:18 10.08.2020
4735 Clear 34 1009 41 10000 3.1 220 17:35 10.08.2020
4736 Clear 32 1010 49 10000 3.6 200 15:53 10.08.2020
4737 Clear 30 1011 62 10000 2.6 190 13:39 10.08.2020
4738 Clear 29 1011 65 10000 2.6 210 12:26 10.08.2020
4739 Clouds 26 1011 83 10000 1.5 210 10:54 10.08.2020
4740 Clouds 24 1011 88 10000 0.5 330 09:51 10.08.2020
4741 Clouds 24 1010 78 10000 1.5 180 08:52 10.08.2020
4742 Clear 27 1010 76 10000 1.79 212 23:41 09.08.2020
4743 Clear 31 1010 49 10000 6.2 230 21:49 09.08.2020
4744 Clear 36 1010 37 10000 4.6 220 19:52 09.08.2020
4745 Clear 36 1010 37 10000 4.1 230 19:32 09.08.2020
4746 Clear 37 1011 27 10000 3.1 0 18:28 09.08.2020
4747 Clear 36 1012 25 10000 4.6 240 17:45 09.08.2020
4748 Clear 36 1012 25 10000 3.6 230 17:21 09.08.2020
4749 Clear 35 1013 26 10000 3.6 220 15:43 09.08.2020
4750 Clear 33 1014 31 10000 2.1 220 14:48 09.08.2020
4751 Clear 32 1014 31 10000 1 360 13:47 09.08.2020
4752 Clear 32 1015 40 10000 2.1 220 12:57 09.08.2020
4753 Clear 31 1015 40 10000 2.1 220 12:29 09.08.2020
4754 Clear 29 1015 45 10000 1.5 330 10:54 09.08.2020
4755 Clear 26 1015 64 10000 1 0 09:51 09.08.2020
4756 Clear 23 1015 64 10000 1 150 08:46 09.08.2020
4757 Clear 24 1015 60 10000 1 0 07:20 09.08.2020
4758 Clear 26 1015 57 10000 3.1 190 01:54 09.08.2020
4759 Clear 35 1013 32 10000 6.2 220 21:19 08.08.2020
4760 Clear 38 1014 23 10000 2.6 240 18:28 08.08.2020
4761 Clear 38 1014 25 10000 3.6 240 17:55 08.08.2020
4762 Clear 37 1015 22 10000 3.6 220 16:57 08.08.2020
4763 Clear 36 1016 26 10000 2.1 200 15:51 08.08.2020
4764 Clear 35 1016 32 10000 2.1 260 14:49 08.08.2020
4765 Clouds 35 1016 32 10000 2.1 260 14:26 08.08.2020
4766 Clouds 33 1017 36 10000 1.5 90 13:23 08.08.2020
4767 Clouds 31 1016 48 10000 0.45 294 11:51 08.08.2020
4768 Clouds 25 1017 69 10000 2.1 190 09:18 08.08.2020
4769 Clouds 25 1017 65 10000 0.5 150 07:35 08.08.2020
4770 Clouds 26 1017 65 10000 1 0 02:42 08.08.2020
4771 Clear 28 1015 51 10000 3.6 210 22:46 07.08.2020
4772 Clear 31 1015 40 10000 4.6 220 21:50 07.08.2020
4773 Clear 32 1014 41 10000 4.6 220 20:56 07.08.2020
4774 Clear 34 1014 38 10000 3.6 220 19:26 07.08.2020
4775 Clear 34 1015 36 10000 2.6 260 17:41 07.08.2020
4776 Clear 33 1016 33 10000 2.1 280 15:51 07.08.2020
4777 Clear 31 1016 43 10000 3.1 210 13:55 07.08.2020
4778 Clear 30 1017 45 10000 3.1 270 12:49 07.08.2020
4779 Clear 28 1016 54 10000 2.1 220 10:55 07.08.2020
4780 Clear 26 1016 61 10000 3.1 290 09:56 07.08.2020
4781 Clear 24 1015 60 10000 1.5 270 08:18 07.08.2020
4782 Clear 28 1014 51 10000 2.6 270 02:45 07.08.2020
4783 Clear 29 1014 48 10000 3.1 270 01:39 07.08.2020
4784 Clouds 28 1013 51 10000 4.6 290 00:26 07.08.2020
4785 Clouds 32 1010 43 10000 6.2 220 21:58 06.08.2020
4786 Clear 36 1009 22 10000 5.7 220 20:46 06.08.2020
4787 Clear 37 1009 21 10000 4.1 240 20:18 06.08.2020
4788 Clear 39 1009 21 10000 3.1 220 19:22 06.08.2020
4789 Clear 39 1009 21 10000 4.1 270 18:42 06.08.2020
4790 Clear 39 1009 18 10000 2.6 170 17:43 06.08.2020
4791 Clear 39 1010 19 10000 3.1 280 16:59 06.08.2020
4792 Clear 38 1010 22 10000 2.6 180 15:42 06.08.2020
4793 Clear 37 1011 23 10000 1.5 0 14:44 06.08.2020
4794 Clear 36 1011 25 10000 1 0 13:36 06.08.2020
4795 Clear 34 1011 33 10000 2.1 30 12:50 06.08.2020
4796 Clear 31 1011 42 10000 2.6 10 11:33 06.08.2020
4797 Clear 28 1011 58 10000 3.1 20 10:28 06.08.2020
4798 Clear 24 1011 78 10000 1 320 08:55 06.08.2020
4799 Clear 23 1011 88 10000 1 310 08:36 06.08.2020
4800 Clear 23 1011 83 10000 1 0 07:39 06.08.2020
4801 Clear 28 1010 48 10000 3.1 220 01:55 06.08.2020
4802 Clear 32 1009 40 10000 2.6 230 23:42 05.08.2020
4803 Clear 33 1008 38 10000 2.6 230 22:56 05.08.2020
4804 Clear 34 1008 38 10000 3.6 210 22:23 05.08.2020
4805 Clear 35 1007 32 10000 4.6 220 21:34 05.08.2020
4806 Clear 37 1007 19 10000 3.1 300 20:45 05.08.2020
4807 Clear 38 1007 21 10000 2.6 340 19:36 05.08.2020
4808 Clear 38 1008 21 10000 3.6 250 18:37 05.08.2020
4809 Clear 38 1008 21 10000 2.1 40 17:34 05.08.2020
4810 Clear 37 1009 29 10000 2.1 250 15:51 05.08.2020
4811 Clear 37 1009 29 10000 2.1 250 15:33 05.08.2020
4812 Clear 36 1010 32 10000 2.6 360 14:48 05.08.2020
4813 Clear 35 1010 32 10000 2.6 360 14:26 05.08.2020
4814 Clear 33 1010 41 10000 1.5 80 13:19 05.08.2020
4815 Clear 31 1011 45 10000 2.6 10 12:21 05.08.2020
4816 Clear 29 1011 48 10000 2.1 30 10:57 05.08.2020
4817 Clear 28 1011 61 10000 1.5 20 10:38 05.08.2020
4818 Clear 28 1011 65 10000 0.5 0 10:19 05.08.2020
4819 Clear 23 1010 78 10000 0.5 360 08:20 05.08.2020
4820 Clear 23 1010 78 10000 0.5 90 07:38 05.08.2020
4821 Clear 27 1011 51 10000 3.1 210 01:28 05.08.2020
4822 Clear 29 1010 45 10000 4.6 280 23:58 04.08.2020
4823 Clear 29 1010 40 10000 4.1 280 23:40 04.08.2020
4824 Clear 30 1010 38 10000 4.6 280 23:20 04.08.2020
4825 Clear 32 1009 43 10000 3.1 230 22:30 04.08.2020
4826 Clear 33 1009 43 10000 4.1 220 21:59 04.08.2020
4827 Clear 35 1009 34 10000 3.6 210 20:44 04.08.2020
4828 Clear 35 1009 36 10000 2.1 250 19:32 04.08.2020
4829 Clear 35 1010 30 10000 1.5 280 18:33 04.08.2020
4830 Clear 35 1010 34 10000 2.1 220 17:31 04.08.2020
4831 Clear 33 1012 52 10000 3.6 230 16:28 04.08.2020
4832 Clear 31 1012 52 10000 3.6 230 15:40 04.08.2020
4833 Clear 30 1012 55 10000 2.6 200 14:51 04.08.2020
4834 Clouds 29 1013 62 10000 4.1 250 13:47 04.08.2020
4835 Clouds 27 1013 69 10000 4.1 210 11:35 04.08.2020
4836 Clouds 26 1012 74 10000 3.1 200 10:57 04.08.2020
4837 Clouds 25 1013 78 10000 3.1 210 10:35 04.08.2020
4838 Clouds 23 1012 83 10000 1 0 09:38 04.08.2020
4839 Clouds 21 1012 88 10000 1 240 07:32 04.08.2020
4840 Clouds 22 1011 69 10000 2.1 200 06:47 04.08.2020
4841 Clouds 26 1011 47 10000 4.1 200 23:22 03.08.2020
4842 Clouds 27 1011 45 10000 5.7 210 22:23 03.08.2020
4843 Clouds 29 1010 39 10000 5.7 210 21:28 03.08.2020
4844 Clouds 29 1010 37 10000 5.7 210 20:57 03.08.2020
4845 Clouds 32 1010 29 10000 5.1 210 19:47 03.08.2020
4846 Clouds 32 1010 29 10000 5.1 210 19:25 03.08.2020
4847 Clouds 33 1011 24 10000 5.1 210 18:34 03.08.2020
4848 Clouds 34 1011 26 10000 4.1 200 17:54 03.08.2020
4849 Clouds 33 1013 31 10000 3.1 190 16:39 03.08.2020
4850 Clouds 33 1013 31 10000 3.1 190 15:47 03.08.2020
4851 Clouds 31 1013 35 10000 2.6 210 14:29 03.08.2020
4852 Clouds 30 1014 39 10000 3.1 210 13:36 03.08.2020
4853 Clouds 29 1014 42 10000 1 0 12:39 03.08.2020
4854 Clouds 26 1014 50 10000 1 0 11:34 03.08.2020
4855 Clouds 24 1014 73 10000 1.5 210 10:21 03.08.2020
4856 Clouds 21 1014 77 10000 1 0 09:26 03.08.2020
4857 Clear 23 1014 64 10000 1 0 03:42 03.08.2020
4858 Clear 23 1014 57 10000 2.1 180 02:23 03.08.2020
4859 Clear 24 1014 57 10000 3.6 200 01:20 03.08.2020
4860 Clear 24 1014 53 10000 4.1 210 00:42 03.08.2020
4861 Clear 29 1012 35 10000 6.7 220 21:46 02.08.2020
4862 Clear 32 1012 35 10000 6.7 220 21:22 02.08.2020
4863 Clear 32 1012 38 10000 6.7 210 20:37 02.08.2020
4864 Clear 34 1012 30 10000 7.2 220 19:59 02.08.2020
4865 Clear 35 1012 28 10000 6.2 210 19:39 02.08.2020
4866 Clear 37 1012 22 10000 7.2 210 18:50 02.08.2020
4867 Clear 36 1012 22 10000 7.2 210 18:28 02.08.2020
4868 Clouds 37 1013 19 10000 4.1 230 16:39 02.08.2020
4869 Clear 37 1014 16 10000 1.5 150 15:18 02.08.2020
4870 Clear 36 1015 14 10000 1 270 14:46 02.08.2020
4871 Clear 35 1015 19 10000 0.5 40 13:53 02.08.2020
4872 Clear 34 1015 20 10000 0.5 140 13:26 02.08.2020
4873 Clear 34 1016 22 10000 2.1 50 12:48 02.08.2020
4874 Clear 31 1016 35 10000 2.1 60 11:31 02.08.2020
4875 Clear 29 1016 39 10000 3.6 20 10:50 02.08.2020
4876 Clear 27 1016 47 10000 2.6 30 10:20 02.08.2020
4877 Clear 24 1015 60 10000 1 40 08:57 02.08.2020
4878 Clear 24 1015 68 10000 1.5 40 08:24 02.08.2020
4879 Clear 24 1015 64 10000 1.5 160 06:52 02.08.2020
4880 Clear 25 1014 65 10000 2.1 160 04:45 02.08.2020
4881 Clear 26 1015 54 10000 3.6 170 01:32 02.08.2020
4882 Clear 27 1015 48 10000 2.6 210 00:20 02.08.2020
4883 Clear 29 1014 40 10000 5.1 210 22:46 01.08.2020
4884 Clear 37 1013 17 10000 8.7 230 20:46 01.08.2020
4885 Clear 37 1013 17 10000 8.7 230 20:25 01.08.2020
4886 Clear 37 1013 17 10000 8.7 230 20:25 01.08.2020
4887 Clear 39 1013 21 10000 6.2 240 19:26 01.08.2020
4888 Clear 40 1013 14 10000 2.6 250 18:39 01.08.2020
4889 Clear 41 1014 12 10000 1.5 290 17:43 01.08.2020
4890 Clear 40 1014 16 10000 1.5 220 16:31 01.08.2020
4891 Clear 39 1015 21 10000 2.1 0 15:44 01.08.2020
4892 Clear 39 1015 21 10000 2.1 0 15:21 01.08.2020
4893 Clear 37 1016 23 10000 1.5 80 14:29 01.08.2020
4894 Clear 35 1017 32 10000 1.5 80 13:19 01.08.2020
4895 Clear 30 1017 62 10000 2.1 90 11:45 01.08.2020
4896 Clear 29 1017 65 10000 2.6 60 10:55 01.08.2020
4897 Clear 24 1016 94 10000 2.1 200 07:27 01.08.2020
4898 Clear 26 1015 69 10000 4.6 210 03:19 01.08.2020
4899 Clear 27 1016 61 10000 3.6 210 01:53 01.08.2020
4900 Clear 28 1015 58 10000 2.6 200 01:31 01.08.2020
4901 Clear 31 1014 43 10000 3.1 270 23:36 31.07.2020
4902 Clear 34 1013 46 10000 3.6 220 21:59 31.07.2020
4903 Clear 35 1013 37 10000 4.1 240 20:44 31.07.2020
4904 Clouds 36 1013 37 10000 4.1 240 20:24 31.07.2020
4905 Clouds 36 1013 30 10000 4.1 230 19:53 31.07.2020
4906 Clouds 37 1013 23 10000 4.1 210 17:55 31.07.2020
4907 Clear 37 1014 30 10000 2.6 230 16:43 31.07.2020
4908 Clear 36 1014 41 10000 3.1 250 16:24 31.07.2020
4909 Clear 35 1014 39 10000 1.5 0 14:53 31.07.2020
4910 Clear 33 1015 49 10000 1 0 13:41 31.07.2020
4911 Clear 32 1015 58 10000 1 0 12:44 31.07.2020
4912 Clear 30 1015 65 10000 0.5 0 11:59 31.07.2020
4913 Clear 29 1015 65 10000 0.5 0 11:30 31.07.2020
4914 Clear 28 1015 78 10000 0.5 0 10:41 31.07.2020
4915 Clear 25 1014 94 8000 1 0 09:40 31.07.2020
4916 Clear 23 1014 94 9000 1 0 08:55 31.07.2020
4917 Clear 23 1014 94 10000 1.5 150 08:18 31.07.2020
4918 Clear 25 1013 78 10000 2.1 220 05:36 31.07.2020
4919 Clear 26 1014 74 10000 3.6 210 02:37 31.07.2020
4920 Clear 26 1014 74 10000 3.6 210 01:49 31.07.2020
4921 Clear 27 1013 69 10000 4.1 210 00:27 31.07.2020
4922 Clear 29 1013 62 10000 4.1 210 23:29 30.07.2020
4923 Clear 30 1011 55 10000 3.6 210 22:42 30.07.2020
4924 Clear 32 1011 49 10000 4.6 220 21:47 30.07.2020
4925 Clear 34 1010 39 10000 5.7 250 21:18 30.07.2020
4926 Clear 34 1010 37 10000 5.7 240 20:47 30.07.2020
4927 Clear 36 1010 39 10000 4.1 230 19:33 30.07.2020
4928 Clear 36 1010 32 10000 4.6 240 18:42 30.07.2020
4929 Clear 37 1011 27 10000 5.7 240 17:38 30.07.2020
4930 Clear 36 1011 37 10000 4.1 220 16:51 30.07.2020
4931 Clear 36 1012 41 10000 3.1 220 16:32 30.07.2020
4932 Clear 35 1012 41 10000 3.1 220 15:43 30.07.2020
4933 Clear 34 1012 44 10000 3.6 240 15:19 30.07.2020
4934 Clear 33 1012 46 10000 3.6 210 14:42 30.07.2020
4935 Clear 33 1012 46 10000 3.6 210 14:24 30.07.2020
4936 Clear 33 1012 46 10000 3.6 220 13:58 30.07.2020
4937 Clear 32 1013 48 10000 1 0 13:20 30.07.2020
4938 Clear 32 1013 48 10000 1 0 12:58 30.07.2020
4939 Clear 31 1013 58 10000 2.1 220 12:18 30.07.2020
4940 Clear 28 1013 65 10000 1.5 290 10:44 30.07.2020
4941 Clear 28 1013 65 10000 1.5 290 10:23 30.07.2020
4942 Clear 25 1012 69 10000 1 0 09:21 30.07.2020
4943 Clear 25 1011 78 10000 1 300 08:53 30.07.2020
4944 Clear 24 1011 73 10000 0.5 320 07:55 30.07.2020
4945 Clear 27 1012 45 10000 3.1 260 02:52 30.07.2020
4946 Clear 27 1011 54 10000 4.1 210 01:38 30.07.2020
4947 Clear 29 1011 48 10000 3.1 220 23:54 29.07.2020
4948 Clear 31 1010 43 10000 4.6 220 22:42 29.07.2020
4949 Clear 33 1009 41 10000 4.6 220 22:20 29.07.2020
4950 Clear 34 1009 41 10000 5.1 220 21:38 29.07.2020
4951 Clear 35 1009 36 10000 5.1 220 20:48 29.07.2020
4952 Clear 35 1009 36 10000 5.1 220 20:25 29.07.2020
4953 Clear 36 1009 32 10000 4.6 220 19:48 29.07.2020
4954 Clear 36 1009 32 10000 4.6 220 19:25 29.07.2020
4955 Clear 37 1010 30 10000 3.6 230 18:51 29.07.2020
4956 Clear 36 1010 30 10000 3.6 230 18:26 29.07.2020
4957 Clear 36 1010 30 10000 4.6 220 17:53 29.07.2020
4958 Clear 36 1011 26 10000 3.6 210 16:50 29.07.2020
4959 Clear 34 1012 41 10000 3.1 210 15:59 29.07.2020
4960 Clear 34 1012 41 10000 3.1 210 15:41 29.07.2020
4961 Clear 33 1012 52 10000 2.6 200 15:18 29.07.2020
4962 Clear 32 1012 52 10000 2.1 230 14:21 29.07.2020
4963 Clear 30 1013 62 10000 2.6 0 13:45 29.07.2020
4964 Clear 30 1013 69 10000 3.1 220 13:18 29.07.2020
4965 Clear 28 1013 69 10000 2.1 200 12:23 29.07.2020
4966 Clear 27 1013 74 10000 3.1 210 11:48 29.07.2020
4967 Clear 27 1013 65 10000 1.5 210 11:27 29.07.2020
4968 Clouds 26 1013 83 10000 1.5 230 10:39 29.07.2020
4969 Clear 24 1012 88 10000 0.5 0 09:41 29.07.2020
4970 Clear 22 1012 88 10000 0.5 0 08:25 29.07.2020
4971 Clear 22 1012 88 10000 1.5 210 07:49 29.07.2020
4972 Clear 23 1011 78 10000 1.5 200 06:28 29.07.2020
4973 Clear 24 1012 65 10000 1.5 190 02:47 29.07.2020
4974 Clear 26 1012 54 10000 3.6 210 00:38 29.07.2020
4975 Clear 29 1011 48 10000 4.1 220 22:55 28.07.2020
4976 Clear 31 1011 41 10000 5.1 210 22:20 28.07.2020
4977 Clear 31 1011 41 10000 5.1 210 22:20 28.07.2020
4978 Clear 34 1010 34 10000 5.1 220 21:48 28.07.2020
4979 Clear 35 1010 34 10000 5.1 220 21:23 28.07.2020
4980 Clear 36 1010 30 10000 4.6 210 20:44 28.07.2020
4981 Clear 37 1010 26 10000 6.2 220 20:20 28.07.2020
4982 Clear 37 1011 26 10000 6.2 220 19:47 28.07.2020
4983 Clear 37 1011 29 10000 5.1 220 19:21 28.07.2020
4984 Clear 37 1011 32 10000 5.1 220 18:51 28.07.2020
4985 Clear 37 1011 35 10000 5.1 230 18:21 28.07.2020
4986 Clear 37 1012 30 10000 3.6 220 17:22 28.07.2020
4987 Clear 37 1011 29 10000 3.6 240 17:22 28.07.2020
4988 Clear 37 1012 27 10000 3.6 240 16:45 28.07.2020
4989 Clear 35 1013 41 10000 2.6 230 15:43 28.07.2020
4990 Clear 34 1013 44 10000 2.6 160 14:58 28.07.2020
4991 Clear 33 1013 46 10000 2.1 170 14:38 28.07.2020
4992 Clear 32 1013 49 10000 1.5 240 13:53 28.07.2020
4993 Clear 31 1014 58 10000 1.5 180 12:59 28.07.2020
4994 Clear 30 1014 62 10000 1 0 12:26 28.07.2020
4995 Clear 29 1014 65 10000 1.5 210 11:58 28.07.2020
4996 Clear 28 1014 74 10000 0.5 0 11:25 28.07.2020
4997 Clear 27 1014 69 10000 0.5 50 10:44 28.07.2020
4998 Mist 25 1014 88 5000 1 0 10:23 28.07.2020
4999 Clouds 24 1014 88 8000 1 0 09:45 28.07.2020
5000 Clouds 24 1014 88 8000 1 0 09:27 28.07.2020
5001 Clear 23 1014 94 10000 0.5 230 08:48 28.07.2020
5002 Clear 22 1014 94 9000 1.04 48 08:27 28.07.2020
5003 Clear 22 1014 88 10000 1.5 140 07:49 28.07.2020
5004 Clear 24 1014 83 10000 3.6 220 03:40 28.07.2020
5005 Clear 24 1015 73 10000 4.1 210 02:20 28.07.2020
5006 Clear 25 1015 73 10000 3.6 200 01:48 28.07.2020
5007 Clear 26 1014 61 10000 3.1 190 00:26 28.07.2020
5008 Clear 28 1014 48 10000 3.6 220 23:27 27.07.2020
5009 Clear 29 1014 37 10000 5.1 220 22:56 27.07.2020
5010 Clear 30 1013 35 10000 3.1 220 22:22 27.07.2020
5011 Clear 31 1013 27 10000 4.6 240 21:50 27.07.2020
5012 Clear 32 1013 27 10000 4.6 240 21:30 27.07.2020
5013 Clear 33 1012 30 10000 6.7 240 20:43 27.07.2020
5014 Clear 34 1012 30 10000 6.2 220 20:21 27.07.2020
5015 Clear 34 1012 30 10000 6.2 220 19:45 27.07.2020
5016 Clear 34 1010 36 10000 3.58 244 19:26 27.07.2020
5017 Clear 35 1013 32 10000 6.2 230 18:34 27.07.2020
5018 Clear 34 1013 38 10000 5.1 210 17:47 27.07.2020
5019 Clear 34 1013 38 10000 5.1 210 17:26 27.07.2020
5020 Clear 34 1014 46 10000 5.1 210 16:27 27.07.2020
5021 Clear 33 1014 46 10000 5.1 210 15:55 27.07.2020
5022 Clear 33 1014 46 10000 5.1 210 15:36 27.07.2020
5023 Clear 32 1014 49 10000 5.1 220 15:18 27.07.2020
5024 Clear 32 1014 52 10000 4.6 220 14:43 27.07.2020
5025 Clear 32 1014 52 10000 4.6 220 14:43 27.07.2020
5026 Clear 31 1015 55 10000 4.6 240 14:20 27.07.2020
5027 Clear 30 1015 62 10000 4.6 240 13:31 27.07.2020
5028 Clear 30 1015 62 10000 3.1 230 12:54 27.07.2020
5029 Clouds 29 1015 62 10000 2.6 210 12:35 27.07.2020
5030 Clear 29 1015 69 10000 3.6 230 11:58 27.07.2020
5031 Clear 28 1015 74 10000 3.1 210 11:22 27.07.2020
5032 Clear 27 1015 78 10000 2.6 210 10:41 27.07.2020
5033 Clear 25 1014 78 10000 2.6 250 09:43 27.07.2020
5034 Clear 25 1014 73 10000 2.1 250 09:21 27.07.2020
5035 Clear 25 1014 73 10000 2.1 250 08:59 27.07.2020
5036 Clear 24 1014 69 10000 0.5 0 08:40 27.07.2020
5037 Clear 25 1013 60 10000 2.1 260 07:51 27.07.2020
5038 Clouds 26 1013 50 10000 2.1 320 06:46 27.07.2020
5039 Clouds 26 1013 50 10000 2.1 320 06:25 27.07.2020
5040 Clear 28 1013 51 10000 4.6 240 02:19 27.07.2020
5041 Clear 29 1013 45 10000 5.7 230 00:53 27.07.2020
5042 Clear 30 1010 40 10000 5.1 220 23:34 26.07.2020
5043 Clear 32 1010 38 10000 5.1 210 22:59 26.07.2020
5044 Clear 32 1009 38 10000 4.1 210 22:38 26.07.2020
5045 Clear 35 1008 32 10000 5.1 210 22:18 26.07.2020
5046 Clear 35 1008 25 10000 4.1 220 21:43 26.07.2020
5047 Clear 38 1008 22 10000 3.1 210 21:21 26.07.2020
5048 Clear 38 1008 21 10000 2.6 220 20:49 26.07.2020
5049 Clear 39 1008 21 10000 2.6 220 20:24 26.07.2020
5050 Clear 40 1008 19 10000 4.1 220 19:44 26.07.2020
5051 Clear 41 1009 14 10000 3.6 260 19:23 26.07.2020
5052 Clear 40 1009 16 10000 3.6 300 18:46 26.07.2020
5053 Clear 42 1009 16 10000 3.6 300 18:27 26.07.2020
5054 Clear 41 1009 18 10000 3.6 300 17:49 26.07.2020
5055 Clear 41 1009 18 10000 3.6 300 17:26 26.07.2020
5056 Clear 41 1010 16 10000 2.1 240 16:53 26.07.2020
5057 Clear 41 1010 16 10000 2.1 240 16:27 26.07.2020
5058 Clear 39 1011 20 10000 2.1 210 15:45 26.07.2020
5059 Clear 39 1011 20 10000 2.1 210 15:25 26.07.2020
5060 Clear 38 1011 22 10000 1.5 270 14:59 26.07.2020
5061 Clear 37 1011 23 10000 1.5 190 14:37 26.07.2020
5062 Clear 36 1012 26 10000 1.5 210 13:54 26.07.2020
5063 Clear 35 1012 28 10000 1 340 13:20 26.07.2020
5064 Clear 34 1012 28 10000 1 40 12:44 26.07.2020
5065 Clear 34 1012 28 10000 1 40 12:23 26.07.2020
5066 Clear 32 1012 33 10000 0.5 140 11:51 26.07.2020
5067 Clear 32 1012 33 10000 0.5 140 11:32 26.07.2020
5068 Clear 30 1012 39 10000 1 0 10:50 26.07.2020
5069 Clear 28 1012 48 10000 0.5 0 10:23 26.07.2020
5070 Clear 27 1012 51 10000 1 0 09:41 26.07.2020
5071 Clear 25 1012 57 10000 1 90 08:56 26.07.2020
5072 Clear 24 1011 64 10000 1.5 70 08:19 26.07.2020
5073 Clear 25 1011 61 10000 0.5 160 06:57 26.07.2020
5074 Clear 26 1011 51 10000 2.1 200 03:53 26.07.2020
5075 Clear 28 1011 42 10000 2.6 200 01:45 26.07.2020
5076 Clear 30 1011 33 10000 3.6 280 00:31 26.07.2020
5077 Clear 32 1010 30 10000 3.6 250 23:40 25.07.2020
5078 Clear 33 1010 28 10000 4.1 240 22:57 25.07.2020
5079 Clear 34 1010 28 10000 4.6 250 22:22 25.07.2020
5080 Clear 36 1009 23 10000 4.6 250 21:29 25.07.2020
5081 Clear 37 1009 22 10000 5.1 260 20:57 25.07.2020
5082 Clear 38 1009 21 10000 4.6 240 20:36 25.07.2020
5083 Clear 38 1009 24 10000 4.1 230 19:53 25.07.2020
5084 Clear 39 1009 24 10000 4.1 230 19:24 25.07.2020
5085 Clear 39 1010 20 10000 2.6 230 18:44 25.07.2020
5086 Clear 39 1010 20 10000 2.6 230 18:24 25.07.2020
5087 Clear 39 1010 21 10000 2.6 180 17:57 25.07.2020
5088 Clear 39 1010 18 10000 2.6 210 17:36 25.07.2020
5089 Clear 39 1010 18 10000 3.1 220 17:18 25.07.2020
5090 Clear 39 1011 19 10000 3.1 200 16:47 25.07.2020
5091 Clear 38 1011 21 10000 2.1 240 16:24 25.07.2020
5092 Clear 38 1011 23 10000 2.6 190 15:42 25.07.2020
5093 Clear 38 1011 23 10000 2.6 0 15:21 25.07.2020
5094 Clear 37 1012 25 10000 1.5 190 14:37 25.07.2020
5095 Clear 36 1012 30 10000 1.5 240 14:18 25.07.2020
5096 Clear 36 1012 30 10000 2.1 210 13:40 25.07.2020
5097 Clear 34 1012 29 10000 1.5 210 13:21 25.07.2020
5098 Clear 34 1012 29 10000 1.5 210 12:54 25.07.2020
5099 Clear 33 1012 33 10000 1.5 290 12:19 25.07.2020
5100 Clear 32 1012 37 10000 1.5 310 11:42 25.07.2020
5101 Clear 31 1012 37 10000 1.5 310 11:20 25.07.2020
5102 Clear 30 1012 37 10000 1 310 10:42 25.07.2020
5103 Clear 29 1012 42 10000 0.5 260 10:24 25.07.2020
5104 Clear 27 1012 42 10000 1.4 81 09:47 25.07.2020
5105 Clear 26 1012 47 10000 0.5 0 09:24 25.07.2020
5106 Clear 25 1012 50 10000 1.26 39 08:57 25.07.2020
5107 Clear 25 1011 53 10000 1 0 08:24 25.07.2020
5108 Clear 24 1011 56 10000 2.1 40 07:52 25.07.2020
5109 Clear 24 1011 53 10000 1.5 50 07:31 25.07.2020
5110 Clear 24 1011 50 10000 1 0 06:29 25.07.2020
5111 Clear 26 1011 50 10000 3.1 150 03:22 25.07.2020
5112 Clear 27 1011 39 10000 1 0 02:32 25.07.2020
5113 Clear 29 1011 37 10000 2.1 190 01:36 25.07.2020
5114 Clear 28 1012 39 10000 3.1 200 01:18 25.07.2020
5115 Clear 28 1012 39 10000 2.6 210 00:44 25.07.2020
5116 Clear 29 1011 37 10000 4.1 200 00:21 25.07.2020
5117 Clear 30 1011 38 10000 3.1 210 23:49 24.07.2020
5118 Clear 30 1011 38 10000 3.1 210 23:29 24.07.2020
5119 Clear 31 1011 35 10000 4.1 220 22:57 24.07.2020
5120 Clear 32 1010 31 10000 4.1 220 22:39 24.07.2020
5121 Clear 34 1010 19 10000 5.1 240 22:20 24.07.2020
5122 Clear 36 1010 17 10000 4.6 260 21:43 24.07.2020
5123 Clear 37 1010 17 10000 4.6 260 21:24 24.07.2020
5124 Clear 38 1010 16 10000 4.6 250 20:43 24.07.2020
5125 Clear 38 1010 16 10000 4.6 250 20:23 24.07.2020
5126 Clear 39 1010 18 10000 5.1 270 19:44 24.07.2020
5127 Clear 39 1010 18 10000 5.1 270 19:24 24.07.2020
5128 Clear 39 1010 20 10000 4.6 240 18:34 24.07.2020
5129 Clear 39 1011 21 10000 4.6 210 17:54 24.07.2020
5130 Clear 39 1011 20 10000 4.1 230 17:20 24.07.2020
5131 Clear 38 1011 21 10000 3.6 230 16:53 24.07.2020
5132 Clear 38 1011 21 10000 3.6 230 16:30 24.07.2020
5133 Clear 38 1012 30 10000 4.6 210 15:59 24.07.2020
5134 Clear 38 1012 30 10000 4.6 210 15:41 24.07.2020
5135 Clear 37 1012 32 10000 3.1 0 15:19 24.07.2020
5136 Clear 36 1012 32 10000 3.6 210 14:42 24.07.2020
5137 Clear 36 1013 28 10000 1.5 220 13:55 24.07.2020
5138 Clear 35 1013 38 10000 2.6 210 13:37 24.07.2020
5139 Clear 35 1013 43 10000 3.1 210 13:19 24.07.2020
5140 Clear 33 1013 43 10000 2.1 230 12:38 24.07.2020
5141 Clear 33 1013 40 10000 2.1 180 12:18 24.07.2020
5142 Clear 32 1013 43 10000 1 0 11:23 24.07.2020
5143 Clear 30 1013 51 10000 1 0 10:58 24.07.2020
5144 Clear 29 1013 51 10000 0.5 0 10:40 24.07.2020
5145 Clear 28 1013 61 10000 1 0 10:18 24.07.2020
5146 Clear 27 1013 65 10000 1.5 160 09:41 24.07.2020
5147 Clear 26 1013 65 10000 1.5 160 09:23 24.07.2020
5148 Clear 25 1013 73 10000 1 150 08:55 24.07.2020
5149 Clear 24 1012 78 10000 0.5 0 08:36 24.07.2020
5150 Clear 24 1012 83 10000 0.5 300 07:57 24.07.2020
5151 Clear 24 1012 73 10000 0.5 300 07:37 24.07.2020
5152 Clear 24 1012 60 10000 2.1 160 07:18 24.07.2020
5153 Clear 25 1012 57 10000 0.5 160 05:57 24.07.2020
5154 Clear 25 1012 57 10000 1 160 05:32 24.07.2020
5155 Clear 25 1013 54 10000 3.6 170 04:40 24.07.2020
5156 Clear 27 1013 48 10000 4.1 190 01:59 24.07.2020
5157 Clear 28 1013 40 10000 2.6 190 00:49 24.07.2020
5158 Clear 29 1013 40 10000 2.6 190 00:26 24.07.2020
5159 Clear 30 1013 31 10000 3.1 240 23:45 23.07.2020
5160 Clear 31 1013 35 10000 4.1 230 23:23 23.07.2020
5161 Clear 32 1012 33 10000 5.1 220 22:44 23.07.2020
5162 Clear 33 1012 33 10000 5.1 220 22:23 23.07.2020
5163 Clear 33 1012 26 10000 5.7 240 21:56 23.07.2020
5164 Clear 34 1012 26 10000 5.1 240 21:37 23.07.2020
5165 Clear 35 1012 28 10000 5.1 230 21:19 23.07.2020
5166 Clear 35 1012 28 10000 5.1 230 20:54 23.07.2020
5167 Clear 36 1012 30 10000 6.7 220 20:36 23.07.2020
5168 Clear 36 1012 29 10000 7.2 230 20:18 23.07.2020
5169 Clear 37 1012 30 10000 7.2 230 19:40 23.07.2020
5170 Clear 37 1012 29 10000 5.7 240 19:22 23.07.2020
5171 Clear 37 1012 29 10000 5.7 240 18:55 23.07.2020
5172 Clear 37 1012 24 10000 2.1 280 18:37 23.07.2020
5173 Clear 38 1012 22 10000 1 310 18:19 23.07.2020
5174 Clear 38 1013 24 10000 2.6 260 17:40 23.07.2020
5175 Clear 37 1013 25 10000 3.6 250 17:22 23.07.2020
5176 Clear 37 1013 27 10000 3.6 220 16:41 23.07.2020
5177 Clear 37 1014 34 10000 4.1 230 16:22 23.07.2020
5178 Clear 35 1014 34 10000 4.1 230 15:44 23.07.2020
5179 Clear 35 1015 39 10000 3.1 220 15:23 23.07.2020
5180 Clear 34 1015 46 10000 2.1 220 14:41 23.07.2020
5181 Clear 34 1015 46 10000 2.1 220 14:23 23.07.2020
5182 Clear 33 1015 49 10000 3.1 210 13:59 23.07.2020
5183 Clear 32 1015 46 10000 2.1 190 13:41 23.07.2020
5184 Clear 33 1015 46 10000 2.1 190 13:22 23.07.2020
5185 Clear 31 1016 55 10000 1.5 120 12:46 23.07.2020
5186 Clear 30 1016 62 10000 1 0 12:23 23.07.2020
5187 Clear 30 1016 65 10000 1 0 11:52 23.07.2020
5188 Clear 30 1016 65 10000 1 0 11:52 23.07.2020
5189 Clear 28 1016 65 10000 1 0 11:27 23.07.2020
5190 Clear 28 1016 65 10000 1 0 11:27 23.07.2020
5191 Clear 28 1016 69 10000 1 0 10:59 23.07.2020
5192 Clear 27 1016 74 10000 1 0 10:40 23.07.2020
5193 Clear 27 1016 78 10000 1 0 10:20 23.07.2020
5194 Clear 25 1016 83 10000 0.5 0 09:49 23.07.2020
5195 Clear 24 1016 83 10000 0.5 0 09:29 23.07.2020
5196 Clear 23 1016 83 10000 0.72 135 08:58 23.07.2020
5197 Clear 23 1016 94 10000 0.5 210 08:40 23.07.2020
5198 Clear 23 1016 88 10000 1 0 07:58 23.07.2020
5199 Clear 22 1015 94 10000 1 0 07:37 23.07.2020
5200 Clear 22 1015 94 10000 1 0 07:37 23.07.2020
5201 Clear 23 1015 83 10000 2.1 180 06:52 23.07.2020
5202 Clear 23 1015 83 10000 2.1 180 06:33 23.07.2020
5203 Clear 23 1015 78 10000 1.5 180 05:46 23.07.2020
5204 Clear 24 1015 78 10000 2.6 190 04:57 23.07.2020
5205 Clear 24 1015 78 10000 2.1 210 04:33 23.07.2020
5206 Clear 24 1016 69 10000 3.6 220 03:20 23.07.2020
5207 Clear 27 1016 51 10000 4.6 270 00:37 23.07.2020
5208 Clear 28 1016 51 10000 4.1 280 00:18 23.07.2020
5209 Clear 28 1015 51 10000 4.6 270 23:42 22.07.2020
5210 Clear 28 1015 51 10000 4.6 270 23:23 22.07.2020
5211 Clear 29 1015 54 10000 5.1 220 22:41 22.07.2020
5212 Clear 29 1015 54 10000 5.1 220 22:23 22.07.2020
5213 Clear 30 1014 51 10000 4.6 220 21:57 22.07.2020
5214 Clear 31 1014 48 10000 5.1 220 21:39 22.07.2020
5215 Clear 31 1014 46 10000 5.7 230 21:18 22.07.2020
5216 Clear 31 1014 46 10000 5.7 230 20:57 22.07.2020
5217 Clear 33 1014 43 10000 4.6 230 20:37 22.07.2020
5218 Clear 32 1014 46 10000 5.7 230 20:19 22.07.2020
5219 Clear 33 1014 43 10000 6.2 220 19:46 22.07.2020
5220 Clear 33 1014 43 10000 6.2 220 19:28 22.07.2020
5221 Clear 35 1014 34 10000 3.1 220 18:59 22.07.2020
5222 Clear 34 1014 36 10000 3.1 220 18:34 22.07.2020
5223 Clear 34 1015 34 10000 2.6 260 17:59 22.07.2020
5224 Clear 33 1015 36 10000 1 20 17:41 22.07.2020
5225 Clear 33 1015 36 10000 1 20 17:22 22.07.2020
5226 Clear 33 1015 36 10000 2.6 270 16:56 22.07.2020
5227 Clear 32 1016 43 10000 3.1 190 16:37 22.07.2020
5228 Clear 32 1016 43 10000 3.1 190 16:19 22.07.2020
5229 Clear 31 1016 43 10000 3.1 190 15:46 22.07.2020
5230 Clear 31 1016 43 10000 3.1 190 15:26 22.07.2020
5231 Clear 30 1017 48 10000 1.5 0 14:56 22.07.2020
5232 Clear 30 1017 48 10000 2.6 190 14:38 22.07.2020
5233 Clouds 30 1017 51 10000 2.6 220 14:18 22.07.2020
5234 Clouds 30 1017 51 10000 3.1 220 13:40 22.07.2020
5235 Clouds 29 1017 51 10000 1 0 13:22 22.07.2020
5236 Clouds 29 1017 51 10000 1 0 13:22 22.07.2020
5237 Clouds 29 1017 54 10000 2.1 200 12:47 22.07.2020
5238 Clouds 28 1017 54 10000 2.1 200 12:28 22.07.2020
5239 Clouds 27 1017 65 10000 2.6 200 11:57 22.07.2020
5240 Clouds 27 1017 69 10000 1.5 0 11:39 22.07.2020
5241 Clouds 26 1017 73 10000 2.1 240 11:19 22.07.2020
5242 Clouds 25 1017 73 10000 2.1 200 10:42 22.07.2020
5243 Clouds 25 1017 73 10000 2.1 200 10:24 22.07.2020
5244 Clouds 25 1017 73 10000 1.5 220 09:59 22.07.2020
5245 Clouds 24 1017 78 10000 1 0 09:40 22.07.2020
5246 Clouds 23 1016 83 10000 1.5 170 09:20 22.07.2020
5247 Clouds 23 1016 88 10000 2.1 170 08:40 22.07.2020
5248 Clouds 23 1016 83 10000 1 230 08:21 22.07.2020
5249 Clouds 23 1016 83 10000 0.5 140 07:37 22.07.2020
5250 Clouds 24 1016 73 10000 0.5 0 07:18 22.07.2020
5251 Clouds 24 1016 73 10000 0.5 0 06:18 22.07.2020
5252 Clouds 24 1016 73 10000 0.5 0 05:54 22.07.2020
5253 Clouds 24 1016 73 10000 1 0 05:26 22.07.2020
5254 Clouds 24 1016 73 10000 2.1 320 04:24 22.07.2020
5255 Clouds 24 1016 69 10000 3.1 230 02:53 22.07.2020
5256 Clouds 24 1016 69 10000 4.1 230 01:44 22.07.2020
5257 Clear 25 1015 73 10000 4.6 220 00:33 22.07.2020
5258 Clear 25 1015 65 10000 4.1 220 23:56 21.07.2020
5259 Clear 26 1015 65 10000 4.6 220 23:38 21.07.2020
5260 Clear 26 1014 65 10000 4.6 220 23:18 21.07.2020
5261 Clear 26 1014 65 10000 4.6 220 22:56 21.07.2020
5262 Clear 27 1014 65 10000 5.1 210 22:37 21.07.2020
5263 Clear 27 1013 61 10000 5.7 220 22:19 21.07.2020
5264 Clear 28 1013 61 10000 5.7 220 21:55 21.07.2020
5265 Clear 28 1013 58 10000 5.1 220 21:36 21.07.2020
5266 Clear 29 1012 51 10000 4.6 230 21:18 21.07.2020
5267 Clear 29 1012 51 10000 5.1 220 20:43 21.07.2020
5268 Clear 30 1012 51 10000 5.1 220 20:23 21.07.2020
5269 Clear 30 1012 48 10000 4.6 240 19:46 21.07.2020
5270 Clear 31 1012 48 10000 5.7 230 19:22 21.07.2020
5271 Clear 31 1012 46 10000 5.7 230 18:56 21.07.2020
5272 Clear 31 1012 46 10000 5.7 230 18:37 21.07.2020
5273 Clear 32 1013 46 10000 5.7 240 18:18 21.07.2020
5274 Clear 32 1013 46 10000 6.2 240 17:39 21.07.2020
5275 Clear 33 1013 43 10000 4.1 270 17:21 21.07.2020
5276 Clear 32 1013 46 10000 4.1 240 16:42 21.07.2020
5277 Clear 32 1013 52 10000 4.1 210 16:22 21.07.2020
5278 Clear 32 1013 52 10000 4.1 210 15:48 21.07.2020
5279 Clear 32 1013 52 10000 4.1 210 15:28 21.07.2020
5280 Clear 31 1013 52 10000 3.6 220 14:59 21.07.2020
5281 Clear 30 1013 52 10000 3.6 220 14:40 21.07.2020
5282 Clouds 31 1014 58 10000 3.6 280 14:19 21.07.2020
5283 Clouds 29 1014 62 10000 4.1 260 13:43 21.07.2020
5284 Rain 29 1014 62 10000 4.1 260 13:25 21.07.2020
5285 Thunderstorm 28 1014 69 10000 4.1 260 12:59 21.07.2020
5286 Clouds 28 1014 61 10000 4.1 270 12:41 21.07.2020
5287 Clouds 27 1014 69 10000 4.1 280 12:20 21.07.2020
5288 Rain 27 1014 69 10000 4.1 280 11:55 21.07.2020
5289 Rain 26 1014 69 10000 2.6 270 11:37 21.07.2020
5290 Rain 26 1014 65 10000 2.6 250 11:18 21.07.2020
5291 Clouds 26 1013 65 10000 3.6 280 10:42 21.07.2020
5292 Clouds 27 1012 57 10000 2.6 250 10:21 21.07.2020
5293 Clouds 26 1013 57 10000 2.6 260 09:46 21.07.2020
5294 Clouds 26 1013 57 10000 2.6 260 09:25 21.07.2020
5295 Clouds 25 1012 57 10000 1 290 08:47 21.07.2020
5296 Clouds 25 1012 57 10000 1 290 08:26 21.07.2020
5297 Clouds 25 1012 50 10000 1.5 270 07:58 21.07.2020
5298 Clouds 26 1012 50 10000 1.5 270 07:40 21.07.2020
5299 Clouds 26 1012 50 10000 3.1 270 07:21 21.07.2020
5300 Thunderstorm 26 1012 50 10000 2.6 260 06:40 21.07.2020
5301 Rain 28 1011 51 10000 2.6 320 04:31 21.07.2020
5302 Rain 29 1012 39 10000 3.6 330 03:32 21.07.2020
5303 Clouds 30 1012 38 10000 2.1 340 02:23 21.07.2020
5304 Clouds 32 1010 31 10000 3.1 230 00:59 21.07.2020
5305 Clouds 31 1010 43 10000 0.5 0 00:38 21.07.2020
5306 Clouds 33 1010 38 10000 0.5 0 00:19 21.07.2020
5307 Clouds 32 1009 43 10000 0.5 0 23:46 20.07.2020
5308 Clouds 32 1009 43 10000 0.5 0 23:27 20.07.2020
5309 Clouds 32 1009 43 10000 0.5 0 23:27 20.07.2020
5310 Clouds 33 1009 38 10000 1.5 180 22:59 20.07.2020
5311 Clouds 34 1009 36 10000 2.1 200 22:39 20.07.2020
5312 Clouds 35 1009 34 10000 3.6 220 22:18 20.07.2020
5313 Clouds 35 1008 30 10000 4.6 220 21:45 20.07.2020
5314 Clouds 36 1008 30 10000 4.6 220 21:27 20.07.2020
5315 Clouds 37 1008 24 10000 6.7 210 20:59 20.07.2020
5316 Clouds 38 1008 20 10000 6.2 220 20:41 20.07.2020
5317 Clouds 38 1007 34 10000 3.58 202 20:20 20.07.2020
5318 Clouds 39 1006 27 10000 3.58 205 19:39 20.07.2020
5319 Clouds 40 1006 27 10000 4.02 224 19:19 20.07.2020
5320 Clouds 42 1007 14 10000 3.6 340 18:58 20.07.2020
5321 Clouds 42 1008 16 10000 4.1 300 18:40 20.07.2020
5322 Clouds 41 1008 16 10000 3.1 320 18:19 20.07.2020
5323 Clouds 41 1009 16 10000 3.1 310 17:44 20.07.2020
5324 Clear 41 1009 16 10000 3.1 310 17:24 20.07.2020
5325 Clear 41 1010 20 10000 3.6 310 16:50 20.07.2020
5326 Clear 40 1010 21 10000 1.5 20 16:21 20.07.2020
5327 Clear 40 1010 21 10000 1.5 20 15:47 20.07.2020
5328 Clear 39 1011 25 10000 2.6 40 15:20 20.07.2020
5329 Clear 39 1011 25 10000 2.6 40 14:57 20.07.2020
5330 Clear 38 1011 25 10000 2.6 40 14:38 20.07.2020
5331 Clear 38 1011 25 10000 2.6 80 14:19 20.07.2020
5332 Clear 37 1011 25 10000 2.6 80 13:57 20.07.2020
5333 Clear 36 1011 36 10000 2.1 50 13:39 20.07.2020
5334 Clear 36 1012 34 10000 3.1 50 13:19 20.07.2020
5335 Clear 34 1012 34 10000 3.1 50 12:55 20.07.2020
5336 Clear 33 1012 40 6000 3.1 60 12:37 20.07.2020
5337 Clear 32 1012 43 10000 3.1 30 12:18 20.07.2020
5338 Clear 30 1012 51 10000 2.1 20 11:44 20.07.2020
5339 Clear 30 1012 51 10000 2.1 20 11:23 20.07.2020
5340 Clear 28 1012 61 10000 1.5 340 10:59 20.07.2020
5341 Clear 28 1012 61 10000 1.5 340 10:41 20.07.2020
5342 Clear 26 1012 65 10000 1 0 10:21 20.07.2020
5343 Clear 25 1012 65 10000 1 0 09:43 20.07.2020
5344 Clear 25 1012 65 10000 1 0 09:23 20.07.2020
5345 Clear 23 1012 78 10000 1 50 08:50 20.07.2020
5346 Clear 23 1012 78 10000 1 50 08:27 20.07.2020
5347 Clear 23 1012 83 10000 0.5 0 07:57 20.07.2020
5348 Clear 23 1012 83 10000 0.5 0 07:37 20.07.2020
5349 Clear 24 1012 78 10000 1.5 40 07:18 20.07.2020
5350 Clear 23 1012 78 10000 1.5 40 06:39 20.07.2020
5351 Clear 24 1012 69 10000 3.1 190 03:59 20.07.2020
5352 Clear 26 1013 57 10000 2.6 180 02:20 20.07.2020
5353 Clear 29 1012 45 10000 1.5 220 00:48 20.07.2020
5354 Clear 29 1012 40 10000 1.5 220 23:57 19.07.2020
5355 Clear 32 1012 35 10000 2.6 230 23:37 19.07.2020
5356 Clear 31 1012 31 10000 3.1 230 23:19 19.07.2020
5357 Clear 34 1012 30 10000 4.1 240 22:42 19.07.2020
5358 Clear 33 1011 28 10000 3.6 250 22:20 19.07.2020
5359 Clear 34 1011 28 10000 3.6 250 21:56 19.07.2020
5360 Clear 34 1011 26 10000 3.6 250 21:37 19.07.2020
5361 Clear 35 1011 26 10000 4.6 240 21:19 19.07.2020
5362 Clear 35 1011 26 10000 4.6 240 20:54 19.07.2020
5363 Clear 35 1011 25 10000 4.6 240 20:36 19.07.2020
5364 Clear 36 1011 23 10000 5.7 270 20:18 19.07.2020
5365 Clear 37 1011 25 10000 4.6 240 19:40 19.07.2020
5366 Clear 37 1012 23 10000 5.7 240 19:20 19.07.2020
5367 Clear 37 1010 31 10000 2.68 269 18:59 19.07.2020
5368 Clear 37 1012 29 10000 5.1 230 18:40 19.07.2020
5369 Clear 36 1012 34 10000 4.6 220 18:22 19.07.2020
5370 Clear 36 1012 30 10000 4.6 230 17:43 19.07.2020
5371 Clear 36 1012 30 10000 4.6 230 17:24 19.07.2020
5372 Clear 36 1013 30 10000 4.1 230 16:55 19.07.2020
5373 Clear 36 1013 30 10000 3.6 210 16:37 19.07.2020
5374 Clear 35 1013 32 10000 4.6 230 16:18 19.07.2020
5375 Clear 34 1014 34 10000 4.1 230 15:44 19.07.2020
5376 Clear 34 1014 34 10000 4.1 230 15:25 19.07.2020
5377 Clear 33 1014 36 10000 3.6 220 14:47 19.07.2020
5378 Clear 33 1014 36 10000 3.6 220 14:26 19.07.2020
5379 Clear 32 1014 40 10000 3.6 240 13:57 19.07.2020
5380 Clear 31 1014 43 10000 3.6 220 13:39 19.07.2020
5381 Clear 31 1015 45 10000 3.6 230 13:19 19.07.2020
5382 Clear 30 1015 48 10000 3.1 230 12:45 19.07.2020
5383 Clear 30 1015 48 10000 3.1 230 12:24 19.07.2020
5384 Clear 29 1015 54 10000 2.1 260 11:44 19.07.2020
5385 Clear 28 1015 54 10000 2.1 260 11:26 19.07.2020
5386 Clear 27 1015 69 10000 2.6 300 10:57 19.07.2020
5387 Clear 27 1015 73 10000 2.1 280 10:39 19.07.2020
5388 Clear 26 1015 78 10000 2.1 330 10:20 19.07.2020
5389 Clear 25 1014 78 10000 2.1 340 09:44 19.07.2020
5390 Clear 24 1014 83 10000 1.5 360 09:21 19.07.2020
5391 Clear 23 1014 88 10000 1 0 08:47 19.07.2020
5392 Clear 23 1014 88 10000 1 0 08:26 19.07.2020
5393 Clear 23 1014 88 10000 1.5 220 07:47 19.07.2020
5394 Clear 23 1014 88 10000 1.5 220 07:26 19.07.2020
5395 Clear 23 1014 83 10000 1 0 06:48 19.07.2020
5396 Clear 23 1014 78 10000 1.5 170 06:21 19.07.2020
5397 Clear 23 1014 78 10000 2.1 210 05:51 19.07.2020
5398 Clear 24 1014 83 10000 4.1 220 04:44 19.07.2020
5399 Clear 25 1014 65 10000 3.1 210 02:46 19.07.2020
5400 Clear 25 1014 65 10000 3.1 210 02:23 19.07.2020
5401 Clear 26 1014 57 10000 3.6 210 01:44 19.07.2020
5402 Clear 26 1014 57 10000 4.1 210 00:53 19.07.2020
5403 Clear 27 1014 58 10000 3.6 210 00:23 19.07.2020
5404 Clear 27 1014 58 10000 3.6 210 23:55 18.07.2020
5405 Clear 29 1013 54 10000 4.1 220 23:37 18.07.2020
5406 Clear 29 1013 48 10000 4.1 210 23:18 18.07.2020
5407 Clear 30 1012 33 10000 4.6 240 22:40 18.07.2020
5408 Clear 31 1012 31 10000 5.1 260 22:19 18.07.2020
5409 Clear 31 1012 33 10000 5.7 240 21:48 18.07.2020
5410 Clear 33 1012 33 10000 5.7 240 21:29 18.07.2020
5411 Clear 33 1012 36 10000 5.7 230 20:58 18.07.2020
5412 Clear 34 1011 34 10000 5.7 240 20:40 18.07.2020
5413 Clear 34 1010 43 10000 4.02 241 20:20 18.07.2020
5414 Clear 35 1011 28 10000 6.2 250 19:41 18.07.2020
5415 Clear 35 1011 30 10000 5.7 240 19:21 18.07.2020
5416 Clear 35 1012 30 10000 6.7 260 18:46 18.07.2020
5417 Clear 36 1012 28 10000 6.2 220 18:22 18.07.2020
5418 Clear 36 1012 32 10000 5.7 230 17:54 18.07.2020
5419 Clear 36 1012 32 10000 5.7 230 17:36 18.07.2020
5420 Clear 36 1012 32 10000 5.7 240 17:18 18.07.2020
5421 Clear 35 1012 32 10000 4.1 220 16:41 18.07.2020
5422 Clear 35 1013 32 10000 4.1 240 16:21 18.07.2020
5423 Clear 35 1013 32 10000 4.1 240 15:57 18.07.2020
5424 Clear 34 1013 36 10000 4.1 220 15:38 18.07.2020
5425 Clear 35 1013 36 10000 4.6 240 15:19 18.07.2020
5426 Clear 33 1013 38 10000 4.1 220 14:40 18.07.2020
5427 Clear 33 1013 35 10000 4.1 240 14:22 18.07.2020
5428 Clear 32 1014 35 10000 3.1 260 13:45 18.07.2020
5429 Clear 32 1014 35 10000 3.1 260 13:27 18.07.2020
5430 Clear 32 1014 38 10000 2.6 290 12:58 18.07.2020
5431 Clear 31 1014 40 10000 1 250 12:40 18.07.2020
5432 Clear 30 1014 45 10000 1.5 320 12:20 18.07.2020
5433 Clear 30 1014 45 10000 1.5 320 11:58 18.07.2020
5434 Clear 29 1013 48 10000 1.5 300 11:39 18.07.2020
5435 Clear 29 1014 47 10000 2.6 310 11:19 18.07.2020
5436 Clear 28 1013 47 10000 2.6 280 10:47 18.07.2020
5437 Clear 27 1013 47 10000 2.6 280 10:27 18.07.2020
5438 Clear 26 1013 54 10000 3.1 290 09:56 18.07.2020
5439 Clear 26 1013 57 10000 3.6 300 09:37 18.07.2020
5440 Clear 26 1013 57 10000 2.6 300 09:19 18.07.2020
5441 Clear 25 1013 57 10000 1 0 08:44 18.07.2020
5442 Clear 25 1013 57 10000 1 0 08:24 18.07.2020
5443 Clear 25 1012 61 10000 2.6 230 07:44 18.07.2020
5444 Clear 25 1012 65 10000 3.1 220 07:23 18.07.2020
5445 Clear 25 1012 65 10000 4.1 220 06:52 18.07.2020
5446 Clear 25 1012 65 10000 4.1 220 06:52 18.07.2020
5447 Clear 26 1012 57 10000 4.1 210 05:26 18.07.2020
5448 Clear 26 1012 57 10000 3.6 210 04:29 18.07.2020
5449 Clear 27 1012 51 10000 3.1 210 02:39 18.07.2020
5450 Clear 27 1012 51 10000 3.1 210 02:39 18.07.2020
5451 Clear 28 1012 42 10000 3.6 240 01:27 18.07.2020
5452 Clear 30 1012 38 10000 3.1 260 00:42 18.07.2020
5453 Clear 31 1012 35 10000 6.2 280 00:22 18.07.2020
5454 Clear 32 1011 35 10000 6.2 260 23:40 17.07.2020
5455 Clear 32 1011 33 10000 4.6 260 23:21 17.07.2020
5456 Clear 32 1011 33 10000 4.6 260 22:59 17.07.2020
5457 Clear 32 1011 30 10000 5.7 260 22:39 17.07.2020
5458 Clear 33 1010 30 10000 6.7 250 22:19 17.07.2020
5459 Clear 34 1010 28 10000 5.7 240 21:43 17.07.2020
5460 Clear 34 1010 28 10000 5.7 240 21:24 17.07.2020
5461 Clear 35 1010 28 10000 6.7 240 20:59 17.07.2020
5462 Clear 36 1010 25 10000 5.7 230 20:40 17.07.2020
5463 Clear 36 1008 34 10000 3.58 248 20:21 17.07.2020
5464 Clear 36 1008 32 10000 3.58 235 19:54 17.07.2020
5465 Clear 37 1010 18 10000 3.6 230 19:36 17.07.2020
5466 Clear 38 1010 17 10000 3.6 220 19:18 17.07.2020
5467 Clear 39 1010 16 10000 2.1 240 18:42 17.07.2020
5468 Clear 39 1010 16 10000 2.1 240 18:24 17.07.2020
5469 Clear 38 1011 18 10000 3.1 180 17:43 17.07.2020
5470 Clear 38 1011 18 10000 3.1 180 17:25 17.07.2020
5471 Clear 37 1012 18 10000 3.1 230 16:44 17.07.2020
5472 Clear 37 1012 19 10000 3.6 210 16:23 17.07.2020
5473 Clear 37 1012 19 10000 3.6 210 15:56 17.07.2020
5474 Clear 37 1012 19 10000 3.6 210 15:37 17.07.2020
5475 Clear 37 1012 25 10000 3.6 200 15:18 17.07.2020
5476 Clear 36 1012 25 10000 3.6 200 14:40 17.07.2020
5477 Clouds 36 1013 20 10000 1 60 14:21 17.07.2020
5478 Clouds 36 1013 30 10000 4.1 200 13:55 17.07.2020
5479 Clouds 36 1013 30 10000 4.1 200 13:36 17.07.2020
5480 Clouds 35 1013 20 10000 2.1 130 13:18 17.07.2020
5481 Clouds 34 1013 20 10000 2.1 130 12:39 17.07.2020
5482 Clouds 33 1013 27 10000 2.1 20 12:20 17.07.2020
5483 Clouds 32 1013 27 10000 2.1 20 11:54 17.07.2020
5484 Clouds 32 1013 27 10000 2.1 20 11:36 17.07.2020
5485 Clear 31 1013 35 10000 2.6 40 11:18 17.07.2020
5486 Clear 30 1013 35 10000 2.6 40 10:54 17.07.2020
5487 Clear 29 1013 35 10000 2.6 40 10:36 17.07.2020
5488 Clouds 28 1013 51 10000 2.1 360 10:18 17.07.2020
5489 Clouds 27 1013 51 10000 2.1 360 09:40 17.07.2020
5490 Clear 24 1013 60 10000 1 0 09:20 17.07.2020
5491 Clear 24 1013 60 10000 1 0 08:48 17.07.2020
5492 Clear 24 1013 60 10000 1 0 08:29 17.07.2020
5493 Clear 23 1013 64 10000 1.5 10 07:57 17.07.2020
5494 Clear 23 1013 64 10000 1.5 10 07:38 17.07.2020
5495 Clear 24 1013 60 10000 2.1 40 07:18 17.07.2020
5496 Clear 24 1013 60 10000 1 90 06:41 17.07.2020
5497 Clear 27 1013 51 10000 2.1 290 05:49 17.07.2020
5498 Clear 27 1013 51 10000 1.5 310 03:56 17.07.2020
5499 Clear 27 1013 37 10000 3.1 240 02:23 17.07.2020
5500 Clear 29 1013 37 10000 4.6 220 01:18 17.07.2020
5501 Clear 29 1013 35 10000 4.6 220 00:42 17.07.2020
5502 Clear 30 1012 35 10000 4.1 210 00:20 17.07.2020
5503 Clear 31 1012 35 10000 4.1 210 23:43 16.07.2020
5504 Clear 32 1011 33 10000 4.6 210 23:20 16.07.2020
5505 Clear 33 1011 28 10000 3.6 210 22:46 16.07.2020
5506 Clear 34 1011 28 10000 3.6 210 22:25 16.07.2020
5507 Clear 34 1011 26 10000 3.1 220 21:57 16.07.2020
5508 Clear 36 1011 18 10000 2.6 160 21:39 16.07.2020
5509 Clear 39 1011 16 10000 3.6 90 21:21 16.07.2020
5510 Clear 37 1011 16 10000 3.6 90 20:59 16.07.2020
5511 Clear 38 1011 15 10000 4.1 90 20:41 16.07.2020
5512 Clear 39 1011 14 10000 3.1 90 20:22 16.07.2020
5513 Clear 40 1011 14 10000 3.1 90 19:57 16.07.2020
5514 Clear 40 1011 15 10000 4.1 90 19:39 16.07.2020
5515 Clear 40 1011 15 10000 4.6 90 19:21 16.07.2020
5516 Clear 39 1011 16 10000 3.6 100 18:42 16.07.2020
5517 Clear 39 1011 16 10000 4.1 90 18:23 16.07.2020
5518 Clear 39 1011 17 10000 3.6 80 17:55 16.07.2020
5519 Clear 39 1011 17 10000 3.6 80 17:36 16.07.2020
5520 Clear 39 1011 17 10000 5.1 100 17:18 16.07.2020
5521 Clear 39 1012 17 10000 3.1 90 16:42 16.07.2020
5522 Clear 39 1012 22 10000 3.1 0 16:22 16.07.2020
5523 Clear 39 1012 22 10000 3.1 0 15:59 16.07.2020
5524 Clear 39 1012 22 10000 3.1 0 15:40 16.07.2020
5525 Clear 38 1013 20 10000 2.1 90 15:22 16.07.2020
5526 Clear 38 1013 20 10000 2.1 90 14:55 16.07.2020
5527 Clear 37 1013 20 10000 2.1 90 14:36 16.07.2020
5528 Clouds 37 1013 22 10000 3.6 100 14:18 16.07.2020
5529 Clouds 36 1013 22 10000 3.6 100 13:39 16.07.2020
5530 Clouds 35 1014 26 10000 4.1 60 13:20 16.07.2020
5531 Clouds 35 1014 26 10000 4.1 60 12:56 16.07.2020
5532 Clouds 35 1014 26 10000 4.1 60 12:38 16.07.2020
5533 Clouds 34 1014 26 10000 4.6 90 12:18 16.07.2020
5534 Clouds 33 1014 29 10000 3.6 90 11:38 16.07.2020
5535 Clouds 32 1013 35 10000 3.6 60 11:19 16.07.2020
5536 Clouds 31 1013 35 10000 3.6 60 10:57 16.07.2020
5537 Clouds 30 1013 35 10000 3.6 60 10:39 16.07.2020
5538 Clouds 28 1013 42 10000 3.1 30 10:19 16.07.2020
5539 Clouds 28 1013 42 10000 3.1 30 09:48 16.07.2020
5540 Clouds 27 1013 42 10000 3.1 30 09:28 16.07.2020
5541 Clouds 25 1013 41 10000 3.1 40 08:45 16.07.2020
5542 Clouds 25 1013 41 10000 3.1 40 08:27 16.07.2020
5543 Clear 25 1013 47 10000 2.6 30 07:59 16.07.2020
5544 Clear 25 1013 47 10000 2.6 30 07:59 16.07.2020
5545 Clear 25 1013 47 10000 2.6 30 07:41 16.07.2020
5546 Clear 24 1013 50 10000 3.1 50 07:21 16.07.2020
5547 Clear 25 1013 50 10000 3.1 40 06:46 16.07.2020
5548 Clear 24 1013 57 10000 2.1 30 06:20 16.07.2020
5549 Clear 25 1013 53 10000 0.5 0 05:44 16.07.2020
5550 Clear 25 1013 53 10000 1.5 60 05:18 16.07.2020
5551 Clear 26 1013 53 10000 1 70 03:54 16.07.2020
5552 Clear 27 1013 47 10000 1 0 03:35 16.07.2020
5553 Clear 27 1013 47 10000 1 0 02:35 16.07.2020
5554 Clear 28 1013 42 10000 3.6 230 01:54 16.07.2020
5555 Clear 28 1013 42 10000 3.6 230 01:28 16.07.2020
5556 Clear 29 1013 40 10000 3.1 210 00:45 16.07.2020
5557 Clear 29 1013 40 10000 3.1 210 00:25 16.07.2020
5558 Clear 30 1012 40 10000 3.1 210 23:57 15.07.2020
5559 Clear 31 1011 40 10000 5.1 230 23:37 15.07.2020
5560 Clear 31 1011 40 10000 4.6 220 23:19 15.07.2020
5561 Clear 33 1011 21 10000 2.6 140 22:40 15.07.2020
5562 Clear 34 1010 20 10000 3.6 110 22:20 15.07.2020
5563 Clear 34 1010 20 10000 3.6 110 21:59 15.07.2020
5564 Clear 35 1010 18 10000 4.1 100 21:41 15.07.2020
5565 Clear 36 1010 18 10000 4.1 100 21:23 15.07.2020
5566 Clear 36 1010 17 10000 4.1 110 20:59 15.07.2020
5567 Clear 37 1010 16 10000 4.6 110 20:39 15.07.2020
5568 Clear 37 1010 16 10000 4.6 90 20:20 15.07.2020
5569 Clear 37 1010 16 10000 4.6 90 19:58 15.07.2020
5570 Clear 37 1010 15 10000 6.2 80 19:39 15.07.2020
5571 Clear 38 1010 16 10000 6.2 90 19:20 15.07.2020
5572 Clear 38 1010 16 10000 6.2 90 18:58 15.07.2020
5573 Clear 38 1010 17 10000 7.2 80 18:39 15.07.2020
5574 Clear 38 1010 18 10000 5.7 90 18:20 15.07.2020
5575 Clear 39 1010 18 10000 5.7 90 17:55 15.07.2020
5576 Clear 38 1010 19 10000 5.7 70 17:36 15.07.2020
5577 Clear 38 1011 19 10000 6.2 50 17:18 15.07.2020
5578 Clear 38 1011 21 10000 4.6 60 16:41 15.07.2020
5579 Clear 38 1011 21 10000 4.6 60 16:23 15.07.2020
5580 Clear 37 1011 23 10000 2.6 0 15:58 15.07.2020
5581 Clear 37 1011 23 10000 2.6 0 15:39 15.07.2020
5582 Clear 36 1012 22 10000 2.6 0 15:21 15.07.2020
5583 Clear 36 1012 22 10000 2.6 0 14:54 15.07.2020
5584 Clear 36 1012 22 10000 2.6 0 14:36 15.07.2020
5585 Clear 35 1012 27 10000 2.1 0 14:18 15.07.2020
5586 Clear 34 1012 27 10000 2.1 0 13:42 15.07.2020
5587 Clear 34 1013 27 10000 1.5 110 13:21 15.07.2020
5588 Clear 33 1013 38 10000 3.1 360 12:54 15.07.2020
5589 Clear 32 1013 38 10000 3.1 360 12:36 15.07.2020
5590 Clear 32 1013 40 10000 2.6 20 12:18 15.07.2020
5591 Clear 31 1013 35 10000 2.6 80 11:42 15.07.2020
5592 Clear 30 1013 42 10000 2.1 60 11:21 15.07.2020
5593 Clear 29 1013 42 10000 2.1 60 10:56 15.07.2020
5594 Clear 28 1012 54 10000 2.6 20 10:38 15.07.2020
5595 Clear 26 1012 54 10000 4.1 30 10:20 15.07.2020
5596 Clear 26 1012 54 10000 4.1 30 09:43 15.07.2020
5597 Clear 25 1012 54 10000 4.1 30 09:25 15.07.2020
5598 Clear 23 1011 69 10000 1 0 08:49 15.07.2020
5599 Clouds 23 1011 69 10000 1 0 08:28 15.07.2020
5600 Clouds 23 1011 69 10000 1 0 07:54 15.07.2020
5601 Clouds 23 1011 69 10000 1 0 07:32 15.07.2020
5602 Clouds 23 1011 69 10000 1.5 40 06:48 15.07.2020
5603 Clouds 23 1011 69 10000 1.5 40 06:26 15.07.2020
5604 Clouds 24 1011 64 10000 1.5 30 05:51 15.07.2020
5605 Clouds 24 1012 64 10000 1.5 50 04:29 15.07.2020
5606 Clouds 25 1012 61 10000 2.1 20 03:55 15.07.2020
5607 Clouds 25 1012 61 10000 3.1 230 02:24 15.07.2020
5608 Clouds 25 1011 57 10000 6.2 240 01:47 15.07.2020
5609 Clouds 26 1011 51 10000 4.6 230 00:59 15.07.2020
5610 Clouds 26 1011 51 10000 3.6 210 00:40 15.07.2020
5611 Clouds 27 1011 48 10000 4.1 220 00:21 15.07.2020
5612 Clouds 28 1010 39 10000 5.1 220 23:39 14.07.2020
5613 Clouds 28 1010 40 10000 5.1 220 23:21 14.07.2020
5614 Clouds 30 1010 35 10000 4.6 230 22:39 14.07.2020
5615 Clouds 31 1009 33 10000 6.7 230 22:19 14.07.2020
5616 Clouds 31 1009 33 10000 6.7 230 21:55 14.07.2020
5617 Clouds 32 1009 31 10000 6.2 240 21:37 14.07.2020
5618 Clouds 33 1009 30 10000 7.7 220 21:19 14.07.2020
5619 Clouds 33 1008 30 10000 9.3 220 20:42 14.07.2020
5620 Clear 34 1008 30 10000 9.3 220 20:22 14.07.2020
5621 Clear 35 1008 28 10000 9.3 220 19:59 14.07.2020
5622 Clear 35 1008 28 10000 9.3 220 19:39 14.07.2020
5623 Clear 36 1008 28 10000 8.7 220 19:21 14.07.2020
5624 Clear 36 1009 30 10000 7.2 220 18:46 14.07.2020
5625 Clear 36 1009 28 10000 5.7 220 18:21 14.07.2020
5626 Clear 36 1009 28 10000 5.7 220 17:59 14.07.2020
5627 Clear 37 1010 27 10000 5.1 220 17:41 14.07.2020
5628 Clear 37 1010 27 10000 5.1 220 17:22 14.07.2020
5629 Clear 36 1010 26 10000 5.1 210 16:57 14.07.2020
5630 Clear 36 1012 26 10000 5.1 210 16:38 14.07.2020
5631 Clear 35 1012 26 10000 5.1 210 16:20 14.07.2020
5632 Clear 35 1012 26 10000 5.1 210 15:46 14.07.2020
5633 Clear 35 1012 26 10000 5.1 210 15:23 14.07.2020
5634 Clear 34 1012 31 10000 3.6 190 14:58 14.07.2020
5635 Clear 33 1012 31 10000 3.6 190 14:40 14.07.2020
5636 Clouds 33 1013 35 10000 3.1 260 14:20 14.07.2020
5637 Clouds 33 1013 35 10000 3.1 260 13:42 14.07.2020
5638 Clouds 33 1013 35 10000 3.1 260 13:23 14.07.2020
5639 Clouds 32 1013 43 10000 2.1 300 12:56 14.07.2020
5640 Clouds 32 1013 43 10000 2.1 300 12:37 14.07.2020
5641 Clouds 30 1014 48 10000 2.1 50 12:19 14.07.2020
5642 Clouds 30 1014 48 10000 2.1 50 11:44 14.07.2020
5643 Clear 29 1014 48 10000 2.1 50 11:23 14.07.2020
5644 Clear 29 1014 54 10000 1.5 350 10:56 14.07.2020
5645 Clear 28 1014 54 10000 1.5 350 10:38 14.07.2020
5646 Clear 26 1014 65 10000 1.5 20 10:18 14.07.2020
5647 Clear 26 1014 65 10000 1.5 20 09:40 14.07.2020
5648 Clear 25 1014 65 10000 1.5 20 09:22 14.07.2020
5649 Clear 24 1014 69 10000 1 60 08:57 14.07.2020
5650 Clear 24 1014 69 10000 1 60 08:37 14.07.2020
5651 Clear 24 1014 78 10000 1 80 08:18 14.07.2020
5652 Clear 23 1014 78 10000 1 0 07:42 14.07.2020
5653 Clear 24 1014 73 10000 1.5 340 07:19 14.07.2020
5654 Clear 24 1014 73 10000 2.1 330 06:50 14.07.2020
5655 Clear 24 1014 73 10000 2.1 340 06:25 14.07.2020
5656 Clear 24 1014 73 10000 2.1 340 05:49 14.07.2020
5657 Clear 24 1015 73 10000 2.1 330 04:39 14.07.2020
5658 Clear 24 1015 65 10000 2.6 260 03:54 14.07.2020
5659 Clear 24 1015 73 10000 2.6 230 03:19 14.07.2020
5660 Clear 25 1015 73 10000 4.1 230 02:27 14.07.2020
5661 Clear 25 1015 69 10000 4.1 220 01:41 14.07.2020
5662 Clear 25 1015 65 10000 4.6 220 01:21 14.07.2020
5663 Clear 26 1015 57 10000 4.6 220 00:41 14.07.2020
5664 Clear 27 1014 51 10000 5.1 220 00:21 14.07.2020
5665 Clear 28 1014 48 10000 5.7 220 23:38 13.07.2020
5666 Clear 29 1014 45 10000 4.6 220 23:19 13.07.2020
5667 Clear 29 1014 45 10000 4.6 220 22:57 13.07.2020
5668 Clear 30 1013 43 10000 5.1 230 22:38 13.07.2020
5669 Clear 31 1013 43 10000 5.7 220 22:19 13.07.2020
5670 Clear 31 1013 43 10000 5.7 220 21:54 13.07.2020
5671 Clear 32 1013 38 10000 6.2 220 21:36 13.07.2020
5672 Clear 32 1013 38 10000 6.2 220 21:36 13.07.2020
5673 Clear 33 1012 36 10000 7.2 220 21:18 13.07.2020
5674 Clear 34 1012 36 10000 6.7 220 20:42 13.07.2020
5675 Clear 35 1012 36 10000 6.7 220 20:23 13.07.2020
5676 Clouds 36 1012 32 10000 5.1 210 19:59 13.07.2020
5677 Clouds 36 1012 34 10000 5.1 220 19:41 13.07.2020
5678 Clear 36 1012 32 10000 5.1 230 19:22 13.07.2020
5679 Clear 36 1012 32 10000 5.1 230 18:56 13.07.2020
5680 Clear 36 1013 29 10000 2.6 200 18:38 13.07.2020
5681 Clear 37 1013 30 10000 2.6 250 18:19 13.07.2020
5682 Clear 37 1013 30 10000 2.1 210 17:43 13.07.2020
5683 Clear 36 1013 30 10000 2.1 210 17:22 13.07.2020
5684 Clear 36 1014 32 10000 2.1 200 16:59 13.07.2020
5685 Clear 35 1014 34 10000 3.6 220 16:41 13.07.2020
5686 Clear 35 1016 43 10000 2.6 170 16:20 13.07.2020
5687 Clear 33 1016 43 10000 2.6 170 15:58 13.07.2020
5688 Clear 33 1016 43 10000 2.6 170 15:39 13.07.2020
5689 Clear 33 1016 43 10000 2.1 190 15:20 13.07.2020
5690 Clear 33 1016 43 10000 2.1 190 14:57 13.07.2020
5691 Clear 32 1016 43 10000 2.1 190 14:39 13.07.2020
5692 Clear 32 1017 48 10000 2.6 180 14:20 13.07.2020
5693 Clear 32 1017 48 10000 2.6 180 13:55 13.07.2020
5694 Clear 31 1017 48 10000 2.6 180 13:37 13.07.2020
5695 Clear 31 1017 55 10000 1.5 0 13:18 13.07.2020
5696 Clear 30 1017 55 10000 1.5 0 12:42 13.07.2020
5697 Clear 30 1017 58 10000 1.5 0 12:22 13.07.2020
5698 Clear 29 1017 58 10000 1.5 0 11:54 13.07.2020
5699 Clear 29 1017 58 10000 1.5 0 11:36 13.07.2020
5700 Clear 28 1017 61 10000 1.5 290 11:18 13.07.2020
5701 Clear 27 1017 61 10000 1.5 290 10:38 13.07.2020
5702 Clear 26 1016 73 10000 2.1 300 10:19 13.07.2020
5703 Clear 25 1016 73 10000 2.1 300 09:42 13.07.2020
5704 Clear 25 1016 73 10000 2.1 300 09:23 13.07.2020
5705 Clear 24 1016 78 10000 1.5 320 08:51 13.07.2020
5706 Clear 24 1016 78 10000 1.5 320 08:33 13.07.2020
5707 Clear 23 1016 83 10000 1.5 310 07:42 13.07.2020
5708 Clear 23 1016 83 10000 2.1 330 07:19 13.07.2020
5709 Clear 23 1016 78 10000 1.5 350 06:42 13.07.2020
5710 Clear 24 1016 78 10000 2.1 270 06:22 13.07.2020
5711 Clear 24 1016 78 10000 5.7 220 04:37 13.07.2020
5712 Clear 25 1015 69 10000 3.6 190 01:57 13.07.2020
5713 Clear 26 1015 65 10000 4.1 210 01:28 13.07.2020
5714 Clear 26 1015 61 10000 3.1 200 00:59 13.07.2020
5715 Clear 27 1014 54 10000 3.1 200 00:27 13.07.2020
5716 Clear 28 1013 48 10000 3.1 210 23:58 12.07.2020
5717 Clear 29 1013 48 10000 3.1 210 23:40 12.07.2020
5718 Clear 30 1013 40 10000 3.6 240 23:21 12.07.2020
5719 Clear 30 1013 40 10000 3.6 240 22:54 12.07.2020
5720 Clear 30 1012 40 10000 5.1 250 22:36 12.07.2020
5721 Clear 31 1012 38 10000 4.6 250 22:18 12.07.2020
5722 Clear 32 1012 38 10000 5.1 230 21:42 12.07.2020
5723 Clear 34 1011 38 10000 6.2 220 21:20 12.07.2020
5724 Clear 34 1011 34 10000 6.2 220 20:59 12.07.2020
5725 Clear 34 1011 34 10000 6.2 220 20:40 12.07.2020
5726 Clear 35 1011 19 10000 3.6 210 20:20 12.07.2020
5727 Clear 36 1011 19 10000 3.6 210 19:58 12.07.2020
5728 Clear 36 1011 23 10000 3.6 210 19:39 12.07.2020
5729 Clear 36 1011 23 10000 3.6 210 19:39 12.07.2020
5730 Clear 36 1011 23 10000 4.1 220 19:18 12.07.2020
5731 Clear 37 1012 23 10000 4.6 240 18:43 12.07.2020
5732 Clear 37 1012 23 10000 4.6 240 18:43 12.07.2020
5733 Clear 37 1012 23 10000 4.6 240 18:21 12.07.2020
5734 Clear 37 1012 23 10000 4.6 240 17:58 12.07.2020
5735 Clear 37 1012 22 10000 3.1 300 17:37 12.07.2020
5736 Clear 37 1012 22 10000 3.6 300 17:19 12.07.2020
5737 Clear 37 1012 23 10000 2.6 270 16:47 12.07.2020
5738 Clear 37 1013 23 10000 2.1 340 16:22 12.07.2020
5739 Clear 36 1013 26 10000 2.6 290 15:48 12.07.2020
5740 Clear 36 1013 26 10000 2.6 290 15:29 12.07.2020
5741 Clear 36 1013 26 10000 2.6 330 14:58 12.07.2020
5742 Clear 36 1013 25 10000 1 270 14:39 12.07.2020
5743 Clear 36 1013 25 10000 1 270 14:39 12.07.2020
5744 Clear 35 1013 26 10000 1.5 60 14:19 12.07.2020
5745 Clear 34 1014 30 10000 1.5 40 13:40 12.07.2020
5746 Clear 33 1014 33 10000 1 280 13:21 12.07.2020
5747 Clear 33 1014 33 10000 1 280 12:57 12.07.2020
5748 Clear 33 1014 33 10000 1 280 12:57 12.07.2020
5749 Clear 33 1014 35 10000 1.5 20 12:38 12.07.2020
5750 Clear 31 1014 40 10000 1 60 12:18 12.07.2020
5751 Clear 30 1014 45 10000 0.5 0 11:44 12.07.2020
5752 Clear 30 1014 45 10000 0.5 280 11:21 12.07.2020
5753 Clear 29 1014 45 10000 0.5 280 10:57 12.07.2020
5754 Clear 28 1014 51 10000 2.6 280 10:39 12.07.2020
5755 Clear 27 1013 54 10000 1 210 10:19 12.07.2020
5756 Clear 26 1013 57 10000 2.1 160 09:43 12.07.2020
5757 Clear 24 1013 64 10000 1.5 110 09:21 12.07.2020
5758 Clear 24 1013 64 10000 1.5 110 08:55 12.07.2020
5759 Clear 23 1013 64 10000 2.1 110 08:37 12.07.2020
5760 Clear 23 1012 64 10000 0.5 60 08:18 12.07.2020
5761 Clear 24 1012 64 10000 2.1 30 07:45 12.07.2020
5762 Clear 24 1012 64 10000 2.1 30 07:27 12.07.2020
5763 Clear 24 1012 60 10000 0.5 0 06:53 12.07.2020
5764 Clear 25 1012 57 10000 0.5 180 06:22 12.07.2020
5765 Clear 25 1012 57 10000 0.5 180 05:57 12.07.2020
5766 Clear 27 1012 51 10000 4.1 230 04:57 12.07.2020
5767 Clear 27 1012 47 10000 2.6 250 04:28 12.07.2020
5768 Clear 28 1012 48 10000 3.1 250 03:44 12.07.2020
5769 Clear 28 1012 48 10000 3.1 250 03:23 12.07.2020
5770 Clouds 29 1012 45 10000 3.1 250 01:52 12.07.2020
5771 Clouds 29 1012 45 10000 4.1 270 00:59 12.07.2020
5772 Clouds 29 1011 45 10000 3.6 290 00:39 12.07.2020
5773 Clouds 29 1011 42 10000 3.6 260 00:20 12.07.2020
5774 Clouds 30 1011 40 10000 3.6 250 23:40 11.07.2020
5775 Clouds 30 1010 38 10000 5.1 230 23:20 11.07.2020
5776 Clouds 30 1010 38 10000 5.1 230 22:57 11.07.2020
5777 Clouds 31 1010 40 10000 4.6 210 22:37 11.07.2020
5778 Clouds 31 1009 36 10000 3.1 170 22:19 11.07.2020
5779 Clouds 33 1009 32 10000 3.6 200 21:43 11.07.2020
5780 Clouds 34 1009 32 10000 3.6 200 21:24 11.07.2020
5781 Clouds 35 1009 24 10000 4.1 200 20:59 11.07.2020
5782 Clouds 35 1009 26 10000 3.1 230 20:41 11.07.2020
5783 Clear 36 1009 23 10000 3.6 210 20:21 11.07.2020
5784 Clear 36 1009 23 10000 3.6 210 19:59 11.07.2020
5785 Clear 36 1009 25 10000 4.6 230 19:41 11.07.2020
5786 Clear 36 1009 25 10000 4.6 230 19:23 11.07.2020
5787 Clear 36 1010 26 10000 4.6 230 18:57 11.07.2020
5788 Clear 36 1010 23 10000 6.2 220 18:39 11.07.2020
5789 Clear 37 1010 25 10000 4.6 240 18:20 11.07.2020
5790 Clear 37 1010 25 10000 4.6 240 17:56 11.07.2020
5791 Clear 37 1010 18 10000 6.2 230 17:38 11.07.2020
5792 Clear 36 1010 22 10000 5.1 220 17:19 11.07.2020
5793 Clear 39 1010 18 10000 3.1 230 16:43 11.07.2020
5794 Clear 37 1010 18 10000 3.1 230 16:24 11.07.2020
5795 Clear 38 1010 15 10000 2.6 200 15:58 11.07.2020
5796 Clear 37 1010 17 10000 1.5 200 15:40 11.07.2020
5797 Clear 37 1011 18 10000 2.6 250 15:20 11.07.2020
5798 Clear 37 1011 18 10000 2.6 250 14:58 11.07.2020
5799 Clear 37 1011 19 10000 2.1 160 14:38 11.07.2020
5800 Clear 36 1011 19 10000 2.6 130 14:20 11.07.2020
5801 Clear 35 1012 23 10000 2.6 110 13:43 11.07.2020
5802 Clear 34 1012 24 10000 2.6 100 13:22 11.07.2020
5803 Clear 34 1012 24 10000 2.6 100 12:58 11.07.2020
5804 Clear 33 1012 33 10000 2.1 40 12:40 11.07.2020
5805 Clear 32 1012 35 10000 3.6 30 12:20 11.07.2020
5806 Clear 31 1012 35 10000 3.6 30 11:55 11.07.2020
5807 Clear 30 1012 40 10000 3.6 40 11:36 11.07.2020
5808 Clear 29 1012 42 10000 3.6 30 11:18 11.07.2020
5809 Clear 27 1012 45 10000 3.6 20 10:40 11.07.2020
5810 Clear 27 1012 45 10000 3.6 20 10:22 11.07.2020
5811 Clear 26 1012 57 10000 1.5 30 09:44 11.07.2020
5812 Clear 23 1012 64 10000 1 0 09:21 11.07.2020
5813 Clear 23 1012 64 10000 1 0 09:21 11.07.2020
5814 Clear 23 1012 64 10000 1 0 08:55 11.07.2020
5815 Clear 23 1012 68 10000 1.5 110 08:36 11.07.2020
5816 Clear 22 1011 68 10000 3.1 50 08:18 11.07.2020
5817 Clear 22 1012 68 10000 1.5 50 07:40 11.07.2020
5818 Clear 22 1011 68 10000 2.1 30 07:20 11.07.2020
5819 Clear 23 1011 64 10000 2.1 30 06:53 11.07.2020
5820 Clear 23 1012 68 10000 1 0 06:20 11.07.2020
5821 Clear 23 1011 64 10000 1 0 05:21 11.07.2020
5822 Clear 23 1011 64 10000 1 0 04:55 11.07.2020
5823 Clear 23 1011 60 10000 1 0 04:32 11.07.2020
5824 Clear 24 1011 61 10000 4.1 190 02:59 11.07.2020
5825 Clear 24 1011 57 10000 4.1 190 02:37 11.07.2020
5826 Clear 26 1011 47 10000 3.1 190 01:37 11.07.2020
5827 Clear 26 1011 42 10000 2.1 200 01:18 11.07.2020
5828 Clear 27 1011 37 10000 1 260 00:41 11.07.2020
5829 Clear 28 1011 37 10000 1 0 00:22 11.07.2020
5830 Clear 29 1011 37 10000 1 0 23:57 10.07.2020
5831 Clear 30 1011 31 10000 2.6 250 23:39 10.07.2020
5832 Clear 30 1010 31 10000 2.1 240 23:19 10.07.2020
5833 Clear 30 1010 27 10000 3.1 230 22:46 10.07.2020
5834 Clear 31 1010 33 10000 4.1 220 22:21 10.07.2020
5835 Clear 31 1010 33 10000 4.1 220 21:58 10.07.2020
5836 Clear 31 1010 35 10000 5.1 220 21:37 10.07.2020
5837 Clear 32 1010 33 10000 5.7 220 21:19 10.07.2020
5838 Clear 33 1010 33 10000 6.2 220 20:43 10.07.2020
5839 Clear 33 1010 33 10000 6.2 220 20:24 10.07.2020
5840 Clear 34 1010 32 10000 5.7 220 19:59 10.07.2020
5841 Clear 34 1010 30 10000 4.6 220 19:40 10.07.2020
5842 Clear 35 1010 28 10000 5.1 240 19:21 10.07.2020
5843 Clear 35 1010 28 10000 5.1 240 19:21 10.07.2020
5844 Clear 35 1010 32 10000 4.6 220 18:42 10.07.2020
5845 Clear 35 1010 30 10000 4.1 220 18:22 10.07.2020
5846 Clear 35 1010 30 10000 4.1 220 17:59 10.07.2020
5847 Clear 35 1011 30 10000 3.6 220 17:41 10.07.2020
5848 Clear 35 1011 30 10000 3.6 220 17:22 10.07.2020
5849 Clear 36 1011 25 10000 2.6 210 16:57 10.07.2020
5850 Clear 33 1012 49 10000 1.5 0 16:38 10.07.2020
5851 Clear 32 1012 49 10000 1.5 0 16:18 10.07.2020
5852 Clear 32 1012 49 10000 1.5 0 15:43 10.07.2020
5853 Clear 30 1013 54 10000 2.1 210 15:20 10.07.2020
5854 Clear 29 1013 54 10000 2.1 210 14:43 10.07.2020
5855 Clear 29 1013 54 10000 2.1 210 14:23 10.07.2020
5856 Clear 27 1014 57 10000 1.5 0 13:58 10.07.2020
5857 Clear 27 1014 57 10000 1.5 0 13:40 10.07.2020
5858 Clear 27 1014 69 10000 1.5 0 13:22 10.07.2020
5859 Clear 26 1014 69 10000 1.5 0 12:59 10.07.2020
5860 Clear 25 1014 69 10000 1.5 0 12:41 10.07.2020
5861 Clouds 26 1014 73 10000 1.5 230 12:22 10.07.2020
5862 Clouds 25 1014 73 10000 1.5 230 11:57 10.07.2020
5863 Clouds 25 1014 73 10000 1.5 230 11:38 10.07.2020
5864 Clouds 24 1014 73 10000 2.1 250 11:18 10.07.2020
5865 Clouds 23 1014 83 10000 1 0 10:41 10.07.2020
5866 Clouds 22 1014 83 10000 0.94 86 10:21 10.07.2020
5867 Clouds 22 1014 83 10000 0.94 86 09:55 10.07.2020
5868 Clouds 21 1014 83 10000 0.94 86 09:36 10.07.2020
5869 Clouds 21 1014 88 10000 0.5 0 09:18 10.07.2020
5870 Clouds 21 1014 88 10000 0.5 0 08:54 10.07.2020
5871 Clouds 20 1014 88 10000 1 170 08:36 10.07.2020
5872 Clouds 20 1013 88 10000 0.5 220 08:18 10.07.2020
5873 Clouds 20 1013 88 10000 0.5 220 07:41 10.07.2020
5874 Clear 20 1014 88 10000 0.5 0 07:20 10.07.2020
5875 Clear 20 1014 88 10000 1.5 160 06:45 10.07.2020
5876 Clear 19 1014 88 10000 2.1 180 05:55 10.07.2020
5877 Clear 20 1014 88 10000 2.6 190 04:32 10.07.2020
5878 Clear 21 1014 77 10000 2.6 180 03:31 10.07.2020
5879 Clear 21 1014 73 10000 4.1 180 02:49 10.07.2020
5880 Clear 21 1014 73 10000 3.6 210 01:48 10.07.2020
5881 Clear 22 1014 64 10000 4.1 220 00:47 10.07.2020
5882 Clear 23 1014 60 10000 4.6 210 00:19 10.07.2020
5883 Clear 24 1014 60 10000 3.6 210 23:46 09.07.2020
5884 Clear 24 1013 57 10000 4.1 210 23:21 09.07.2020
5885 Clear 25 1013 57 10000 4.1 210 22:58 09.07.2020
5886 Clear 25 1013 54 10000 3.1 200 22:40 09.07.2020
5887 Clear 26 1013 51 10000 5.1 220 22:21 09.07.2020
5888 Clear 26 1013 51 10000 5.1 220 21:56 09.07.2020
5889 Clear 26 1013 51 10000 6.7 220 21:38 09.07.2020
5890 Clear 28 1012 48 10000 6.7 220 21:19 09.07.2020
5891 Clear 28 1012 42 10000 6.7 220 20:44 09.07.2020
5892 Clear 29 1012 42 10000 6.7 220 20:25 09.07.2020
5893 Clear 30 1012 40 10000 6.2 220 19:58 09.07.2020
5894 Clear 31 1012 38 10000 5.1 220 19:40 09.07.2020
5895 Clear 30 1013 38 10000 5.1 210 19:20 09.07.2020
5896 Clear 30 1013 38 10000 4.1 230 18:42 09.07.2020
5897 Clear 32 1014 35 10000 3.1 230 18:22 09.07.2020
5898 Clear 32 1014 35 10000 3.1 230 18:22 09.07.2020
5899 Clear 32 1014 35 10000 3.1 230 17:56 09.07.2020
5900 Clear 31 1014 33 10000 3.1 250 17:38 09.07.2020
5901 Clear 30 1014 33 10000 3.1 240 17:19 09.07.2020
5902 Clear 30 1014 33 10000 3.1 240 16:55 09.07.2020
5903 Clear 28 1015 51 10000 3.1 0 16:37 09.07.2020
5904 Clear 28 1015 51 10000 3.1 0 16:19 09.07.2020
5905 Clear 28 1015 51 10000 3.1 0 15:55 09.07.2020
5906 Clear 28 1015 51 10000 3.1 0 15:36 09.07.2020
5907 Clear 26 1016 57 10000 3.1 210 15:18 09.07.2020
5908 Clear 26 1016 57 10000 3.1 210 14:57 09.07.2020
5909 Clear 26 1016 57 10000 3.1 210 14:38 09.07.2020
5910 Clouds 25 1016 61 10000 3.1 200 14:19 09.07.2020
5911 Clouds 25 1016 61 10000 3.1 200 13:41 09.07.2020
5912 Clouds 25 1016 64 10000 2.1 220 13:21 09.07.2020
5913 Clouds 24 1016 64 10000 2.1 220 12:59 09.07.2020
5914 Clouds 24 1016 64 10000 2.1 220 12:39 09.07.2020
5915 Clouds 24 1017 69 10000 2.6 210 12:20 09.07.2020
5916 Clouds 23 1017 69 10000 2.6 210 11:55 09.07.2020
5917 Clouds 23 1017 69 10000 2.6 210 11:37 09.07.2020
5918 Clouds 23 1016 73 10000 2.6 180 11:18 09.07.2020
5919 Clouds 22 1016 73 10000 2.6 180 10:42 09.07.2020
5920 Clouds 22 1016 73 10000 2.6 180 10:24 09.07.2020
5921 Clouds 21 1016 77 10000 1.5 180 09:59 09.07.2020
5922 Clouds 21 1016 77 10000 1.5 180 09:41 09.07.2020
5923 Clouds 20 1016 88 10000 1 0 09:21 09.07.2020
5924 Clouds 20 1016 88 10000 1 0 08:45 09.07.2020
5925 Clouds 20 1016 88 10000 1 0 08:25 09.07.2020
5926 Clouds 20 1015 88 10000 1.5 170 07:47 09.07.2020
5927 Clouds 20 1015 82 10000 2.6 210 07:24 09.07.2020
5928 Clouds 20 1015 82 10000 2.6 210 06:54 09.07.2020
5929 Clouds 21 1015 83 10000 2.6 220 06:20 09.07.2020
5930 Clouds 20 1015 88 10000 3.6 220 05:37 09.07.2020
5931 Clouds 21 1015 83 10000 3.6 240 04:28 09.07.2020
5932 Clear 21 1015 77 10000 2.6 210 02:33 09.07.2020
5933 Clear 21 1015 73 10000 4.1 210 01:39 09.07.2020
5934 Clear 22 1015 73 10000 5.7 210 00:55 09.07.2020
5935 Clear 23 1014 60 10000 3.6 210 00:25 09.07.2020
5936 Clear 23 1013 57 10000 6.2 220 23:47 08.07.2020
5937 Clear 23 1013 57 10000 6.2 220 23:28 08.07.2020
5938 Clear 25 1013 50 10000 6.2 220 22:59 08.07.2020
5939 Clear 25 1012 39 10000 5.7 230 22:41 08.07.2020
5940 Clear 28 1012 28 10000 7.2 230 22:23 08.07.2020
5941 Clear 28 1012 28 10000 7.2 230 21:58 08.07.2020
5942 Clear 29 1012 27 10000 6.7 230 21:39 08.07.2020
5943 Clear 30 1011 22 10000 8.2 220 21:21 08.07.2020
5944 Clear 30 1011 22 10000 8.2 220 20:58 08.07.2020
5945 Clear 31 1011 23 10000 8.2 220 20:39 08.07.2020
5946 Clouds 31 1011 25 10000 8.2 220 20:21 08.07.2020
5947 Clouds 32 1011 24 10000 8.2 230 19:43 08.07.2020
5948 Clouds 32 1011 24 10000 8.2 230 19:25 08.07.2020
5949 Clouds 34 1011 20 10000 8.7 220 18:58 08.07.2020
5950 Clouds 35 1011 17 10000 8.7 220 18:40 08.07.2020
5951 Clouds 35 1011 19 10000 8.7 220 18:20 08.07.2020
5952 Clouds 35 1011 19 10000 8.7 220 17:56 08.07.2020
5953 Clouds 35 1011 17 10000 8.2 220 17:37 08.07.2020
5954 Clouds 35 1012 20 10000 8.2 230 17:19 08.07.2020
5955 Clouds 35 1012 20 10000 8.2 230 16:54 08.07.2020
5956 Clouds 35 1012 30 10000 6.7 220 16:36 08.07.2020
5957 Clouds 35 1012 30 10000 6.7 220 16:18 08.07.2020
5958 Clouds 34 1012 30 10000 6.7 220 15:56 08.07.2020
5959 Clouds 34 1012 30 10000 6.7 220 15:37 08.07.2020
5960 Clouds 34 1012 38 10000 4.6 230 15:18 08.07.2020
5961 Clouds 34 1012 38 10000 4.6 230 14:42 08.07.2020
5962 Clouds 34 1012 29 10000 5.7 220 14:20 08.07.2020
5963 Clouds 33 1012 29 10000 5.7 220 13:46 08.07.2020
5964 Clouds 33 1012 29 10000 5.7 220 13:27 08.07.2020
5965 Clouds 31 1012 42 10000 4.6 230 12:58 08.07.2020
5966 Clouds 31 1012 42 10000 4.6 230 12:40 08.07.2020
5967 Clouds 31 1012 27 10000 5.1 210 12:19 08.07.2020
5968 Clouds 29 1012 45 10000 3.6 210 11:39 08.07.2020
5969 Clouds 29 1012 42 10000 4.1 230 11:21 08.07.2020
5970 Clouds 29 1012 42 10000 4.1 230 10:59 08.07.2020
5971 Clouds 28 1012 39 10000 2.6 200 10:41 08.07.2020
5972 Clouds 27 1011 50 10000 2.6 220 10:23 08.07.2020
5973 Clouds 26 1011 69 10000 2.1 190 09:45 08.07.2020
5974 Clouds 25 1010 78 10000 2.29 191 09:24 08.07.2020
5975 Clouds 24 1010 78 10000 2.29 191 08:44 08.07.2020
5976 Clouds 25 1010 78 10000 1.41 189 08:25 08.07.2020
5977 Clouds 24 1010 78 10000 1.5 180 07:51 08.07.2020
5978 Clouds 25 1010 53 10000 1.5 170 07:25 08.07.2020
5979 Clouds 25 1010 53 10000 1.5 170 06:59 08.07.2020
5980 Clouds 25 1010 50 10000 2.1 190 06:39 08.07.2020
5981 Clear 25 1010 50 10000 2.6 190 06:20 08.07.2020
5982 Clear 26 1010 47 10000 2.6 210 05:44 08.07.2020
5983 Clear 26 1010 47 10000 2.6 210 05:44 08.07.2020
5984 Clear 26 1010 54 10000 2.1 160 04:44 08.07.2020
5985 Clear 28 1011 45 10000 2.6 180 03:30 08.07.2020
5986 Clouds 28 1012 45 10000 3.1 190 02:19 08.07.2020
5987 Clouds 30 1012 38 10000 1 170 01:38 08.07.2020
5988 Clouds 31 1012 33 10000 1 160 00:50 08.07.2020
5989 Clouds 32 1012 27 10000 1 170 00:19 08.07.2020
5990 Clouds 33 1011 23 10000 2.6 270 23:43 07.07.2020
5991 Clouds 34 1011 23 10000 2.6 270 23:22 07.07.2020
5992 Clouds 35 1011 23 10000 2.1 240 22:55 07.07.2020
5993 Clouds 35 1011 23 10000 2.1 240 22:55 07.07.2020
5994 Clouds 37 1010 25 10000 2.1 220 22:37 07.07.2020
5995 Clouds 37 1011 20 10000 3.1 230 22:19 07.07.2020
5996 Clouds 38 1011 18 10000 4.1 230 21:42 07.07.2020
5997 Clouds 39 1011 15 10000 4.1 230 21:22 07.07.2020
5998 Clouds 39 1011 15 10000 4.1 230 20:59 07.07.2020
5999 Clouds 39 1011 16 10000 4.1 220 20:41 07.07.2020
6000 Clouds 40 1011 16 10000 4.1 220 20:23 07.07.2020
6001 Clouds 40 1011 16 10000 3.1 210 19:58 07.07.2020
6002 Clouds 40 1011 15 10000 3.1 220 19:39 07.07.2020
6003 Clear 40 1011 14 10000 3.1 240 19:19 07.07.2020
6004 Clear 40 1011 14 10000 3.1 240 18:55 07.07.2020
6005 Clear 40 1011 15 10000 3.1 200 18:37 07.07.2020
6006 Clear 40 1012 15 10000 3.1 230 18:18 07.07.2020
6007 Clear 40 1012 15 10000 3.1 230 17:55 07.07.2020
6008 Clear 40 1012 15 10000 3.1 210 17:36 07.07.2020
6009 Clear 40 1012 15 10000 3.1 240 17:18 07.07.2020
6010 Clear 39 1013 17 10000 3.1 240 16:42 07.07.2020
6011 Clear 39 1013 20 10000 2.1 220 16:22 07.07.2020
6012 Clear 40 1013 20 10000 2.1 220 15:55 07.07.2020
6013 Clear 39 1013 20 10000 2.1 220 15:37 07.07.2020
6014 Clear 39 1013 25 10000 2.1 200 15:18 07.07.2020
6015 Clear 38 1013 25 10000 2.1 200 14:42 07.07.2020
6016 Clear 38 1013 25 10000 2.1 200 14:24 07.07.2020
6017 Clear 37 1014 26 10000 1.5 260 13:44 07.07.2020
6018 Clear 36 1013 32 10000 1.5 360 13:21 07.07.2020
6019 Clear 35 1013 32 10000 1.5 360 12:57 07.07.2020
6020 Clear 34 1013 32 10000 1.5 360 12:38 07.07.2020
6021 Clear 33 1013 38 10000 0.5 0 12:20 07.07.2020
6022 Clear 32 1013 38 10000 0.5 0 11:44 07.07.2020
6023 Clear 31 1013 38 10000 0.5 0 11:22 07.07.2020
6024 Clear 30 1014 42 10000 1 0 10:58 07.07.2020
6025 Clear 29 1014 42 10000 1 0 10:40 07.07.2020
6026 Clear 28 1013 57 10000 1.5 20 10:21 07.07.2020
6027 Clear 27 1013 57 10000 1.5 20 09:54 07.07.2020
6028 Clear 27 1013 57 10000 1.5 20 09:36 07.07.2020
6029 Clear 24 1013 73 10000 2.56 28 09:18 07.07.2020
6030 Clear 23 1013 73 10000 2.56 28 08:39 07.07.2020
6031 Clear 23 1013 77 10000 0.5 40 08:19 07.07.2020
6032 Clear 23 1013 77 10000 0.5 40 07:38 07.07.2020
6033 Clear 24 1013 40 10000 0.5 0 07:20 07.07.2020
6034 Clear 24 1013 40 10000 0.5 0 06:48 07.07.2020
6035 Clear 24 1013 40 10000 1.54 70 06:27 07.07.2020
6036 Clear 25 1013 40 10000 0.5 0 05:47 07.07.2020
6037 Clear 25 1013 40 10000 1 160 04:59 07.07.2020
6038 Clear 25 1013 38 10000 2.1 160 04:25 07.07.2020
6039 Clear 26 1013 38 10000 2.6 190 03:34 07.07.2020
6040 Clear 26 1014 37 10000 3.6 190 02:18 07.07.2020
6041 Clear 27 1014 38 10000 3.6 170 01:21 07.07.2020
6042 Clear 28 1014 38 10000 2.6 160 00:42 07.07.2020
6043 Clear 29 1014 36 10000 3.1 230 00:23 07.07.2020
6044 Clear 28 1014 36 10000 3.1 230 00:23 07.07.2020
6045 Clear 29 1013 36 10000 2.1 290 23:45 06.07.2020
6046 Clear 32 1012 30 0 0.89 176 23:26 06.07.2020
6047 Clear 32 1013 33 10000 3.1 240 22:59 06.07.2020
6048 Clear 34 1012 33 10000 3.1 240 22:40 06.07.2020
6049 Clear 34 1012 26 10000 3.6 260 22:19 06.07.2020
6050 Clear 35 1010 28 0 1.79 228 21:57 06.07.2020
6051 Clear 36 1010 27 0 2.68 245 21:37 06.07.2020
6052 Clear 37 1012 20 10000 5.1 240 21:19 06.07.2020
6053 Clear 37 1012 20 10000 5.1 240 20:55 06.07.2020
6054 Clear 38 1010 25 0 3.13 247 20:36 06.07.2020
6055 Clear 39 1010 24 0 3.13 251 20:18 06.07.2020
6056 Clear 39 1010 23 0 3.13 249 19:54 06.07.2020
6057 Clear 39 1010 23 0 2.24 237 19:36 06.07.2020
6058 Clear 40 1010 19 0 2.24 200 19:18 06.07.2020
6059 Clear 40 1010 24 0 2.24 192 18:41 06.07.2020
6060 Clear 41 1010 19 0 2.24 189 18:23 06.07.2020
6061 Clear 41 1010 19 0 1.34 181 17:59 06.07.2020
6062 Clear 41 1010 20 0 1.34 159 17:40 06.07.2020
6063 Clear 40 1011 18 0 1.34 192 17:20 06.07.2020
6064 Clear 40 1013 10 10000 2.1 240 16:43 06.07.2020
6065 Clear 39 1014 25 10000 3.1 230 16:25 06.07.2020
6066 Clear 37 1014 25 10000 3.1 230 15:59 06.07.2020
6067 Clear 37 1014 25 10000 3.1 230 15:41 06.07.2020
6068 Clear 38 1014 25 10000 3.1 230 15:23 06.07.2020
6069 Clear 37 1015 26 10000 1.5 270 14:55 06.07.2020
6070 Clear 37 1015 26 10000 1.5 270 14:37 06.07.2020
6071 Clear 36 1015 30 10000 2.1 270 14:18 06.07.2020
6072 Clear 35 1015 30 10000 2.1 270 13:44 06.07.2020
6073 Clear 34 1015 33 10000 1 0 13:26 06.07.2020
6074 Clear 33 1015 33 10000 1 0 12:56 06.07.2020
6075 Clear 33 1015 33 10000 1 0 12:38 06.07.2020
6076 Clear 31 1015 40 10000 1 0 12:18 06.07.2020
6077 Clear 31 1015 40 10000 1 0 11:57 06.07.2020
6078 Clear 31 1015 40 10000 1 0 11:36 06.07.2020
6079 Clear 30 1016 51 10000 1 0 11:18 06.07.2020
6080 Clear 29 1016 51 10000 1 0 10:41 06.07.2020
6081 Clear 28 1016 65 10000 1.87 56 10:21 06.07.2020
6082 Clear 26 1016 65 10000 1.87 56 09:56 06.07.2020
6083 Clear 26 1016 65 10000 1.87 56 09:38 06.07.2020
6084 Clear 21 1015 83 10000 1 0 09:20 06.07.2020
6085 Clear 21 1015 83 10000 1 0 08:42 06.07.2020
6086 Clear 21 1015 83 10000 1 0 08:24 06.07.2020
6087 Clear 22 1015 94 10000 0.5 140 07:58 06.07.2020
6088 Clear 22 1015 94 10000 0.5 140 07:40 06.07.2020
6089 Clear 23 1015 59 10000 2.1 160 07:21 06.07.2020
6090 Clear 23 1015 59 10000 1.5 220 06:39 06.07.2020
6091 Clear 23 1015 57 10000 1.5 230 06:19 06.07.2020
6092 Clear 22 1015 55 10000 2.6 210 05:29 06.07.2020
6093 Clear 24 1015 55 10000 3.1 200 04:52 06.07.2020
6094 Clear 25 1015 51 10000 3.1 210 03:25 06.07.2020
6095 Clear 27 1016 49 10000 2.6 220 02:22 06.07.2020
6096 Clear 28 1016 45 10000 2.6 210 01:26 06.07.2020
6097 Clear 28 1016 45 10000 3.6 220 00:36 06.07.2020
6098 Clear 29 1015 42 10000 4.6 260 00:18 06.07.2020
6099 Clear 26 1016 42 0 4.04 265 23:41 05.07.2020
6100 Clear 30 1015 40 10000 3.1 270 23:23 05.07.2020
6101 Clear 27 1016 40 0 4.68 273 22:59 05.07.2020
6102 Clear 36 1014 40 10000 2.6 240 22:40 05.07.2020
6103 Clear 33 1013 38 0 0.45 252 22:20 05.07.2020
6104 Clear 34 1012 37 0 2.24 242 21:57 05.07.2020
6105 Clear 35 1012 36 0 1.79 233 21:38 05.07.2020
6106 Clear 36 1014 28 10000 5.1 240 21:18 05.07.2020
6107 Clear 36 1014 28 10000 5.1 240 21:18 05.07.2020
6108 Clear 36 1014 28 10000 5.1 240 20:57 05.07.2020
6109 Clear 36 1014 28 10000 5.7 220 20:39 05.07.2020
6110 Clear 36 1012 33 0 3.13 253 20:20 05.07.2020
6111 Clear 37 1012 32 0 2.68 241 19:43 05.07.2020
6112 Clear 38 1012 28 0 3.13 204 19:21 05.07.2020
6113 Clear 38 1012 28 0 2.24 202 18:58 05.07.2020
6114 Clear 38 1012 28 0 2.24 202 18:58 05.07.2020
6115 Clear 39 1014 14 10000 3.6 330 18:39 05.07.2020
6116 Clear 39 1014 12 10000 3.1 340 18:20 05.07.2020
6117 Clear 39 1012 25 0 2.24 240 17:55 05.07.2020
6118 Clear 39 1012 27 0 0.89 211 17:37 05.07.2020
6119 Clear 39 1012 23 0 1.34 268 17:18 05.07.2020
6120 Clear 39 1015 12 10000 3.6 10 16:42 05.07.2020
6121 Clear 38 1013 25 0 1.79 333 16:24 05.07.2020
6122 Clear 38 1013 24 0 0.89 219 15:54 05.07.2020
6123 Clear 38 1013 25 0 1.34 194 15:36 05.07.2020
6124 Clear 37 1013 25 0 0.45 160 15:18 05.07.2020
6125 Clear 37 1014 26 0 0.45 119 14:40 05.07.2020
6126 Clear 36 1014 26 0 0.89 102 14:20 05.07.2020
6127 Clear 35 1015 28 0 0.45 61 13:42 05.07.2020
6128 Clear 34 1015 31 0 0.45 51 13:23 05.07.2020
6129 Clear 33 1015 39 0 0.89 19 12:56 05.07.2020
6130 Clear 32 1015 42 0 0.89 344 12:38 05.07.2020
6131 Clear 32 1015 45 0 0.89 8 12:19 05.07.2020
6132 Clear 30 1016 48 0 1.34 18 11:40 05.07.2020
6133 Clear 29 1016 49 0 1.79 68 11:21 05.07.2020
6134 Clear 29 1016 51 0 1.34 20 10:59 05.07.2020
6135 Clear 28 1016 55 0 2.24 6 10:40 05.07.2020
6136 Clear 27 1018 40 0 3.17 53 10:19 05.07.2020
6137 Clear 26 1018 40 10000 3.6 10 09:56 05.07.2020
6138 Clear 27 1018 40 0 3.17 53 09:37 05.07.2020
6139 Clear 24 1018 49 0 2.62 48 09:19 05.07.2020
6140 Clear 24 1017 49 0 3.04 43 08:46 05.07.2020
6141 Clear 20 1017 61 0 2.52 44 08:27 05.07.2020
6142 Clear 20 1017 61 0 2.52 44 07:48 05.07.2020
6143 Clear 19 1016 65 0 2.37 45 07:29 05.07.2020
6144 Clear 19 1016 65 0 2.37 45 06:52 05.07.2020
6145 Clear 20 1017 65 0 2.2 43 05:42 05.07.2020
6146 Clear 25 1018 65 10000 1.5 210 03:32 05.07.2020
6147 Clear 25 1018 61 10000 3.1 220 02:43 05.07.2020
6148 Clear 24 1018 55 10000 3.1 220 02:25 05.07.2020
6149 Clear 26 1018 55 10000 3.6 200 01:41 05.07.2020
6150 Clear 26 1017 49 10000 4.6 220 01:18 05.07.2020
6151 Clear 27 1017 49 10000 5.7 220 00:40 05.07.2020
6152 Clear 27 1017 42 10000 4.6 210 00:21 05.07.2020
6153 Clear 28 1015 49 0 1.34 198 23:47 04.07.2020
6154 Clear 29 1015 49 0 1.34 177 23:28 04.07.2020
6155 Clear 30 1016 37 10000 4.6 210 22:57 04.07.2020
6156 Clear 31 1015 37 10000 4.1 200 22:37 04.07.2020
6157 Clear 31 1015 29 10000 2.6 200 22:19 04.07.2020
6158 Clear 34 1015 29 10000 2.1 230 21:43 04.07.2020
6159 Clear 33 1015 22 10000 2.1 310 21:23 04.07.2020
6160 Clear 33 1015 22 10000 2.1 230 21:23 04.07.2020
6161 Clear 36 1015 22 10000 2.1 310 20:58 04.07.2020
6162 Clear 36 1013 30 0 4.46 234 20:40 04.07.2020
6163 Clear 37 1013 24 0 3.97 243 20:20 04.07.2020
6164 Clear 37 1013 24 0 0.45 11 19:45 04.07.2020
6165 Clear 38 1013 23 0 0.89 335 19:22 04.07.2020
6166 Clear 38 1013 24 0 0.89 312 18:59 04.07.2020
6167 Clear 38 1013 24 0 0.89 7 18:41 04.07.2020
6168 Clear 38 1016 11 10000 2.1 320 18:21 04.07.2020
6169 Clear 37 1016 11 10000 1.5 320 17:44 04.07.2020
6170 Clear 37 1014 23 0 0.89 267 17:26 04.07.2020
6171 Clear 37 1017 12 10000 2.1 310 16:58 04.07.2020
6172 Clear 36 1017 12 10000 3.1 350 16:39 04.07.2020
6173 Clear 36 1015 26 0 1.79 288 16:21 04.07.2020
6174 Clear 36 1017 13 10000 1.5 350 15:56 04.07.2020
6175 Clear 35 1018 13 10000 1 0 15:37 04.07.2020
6176 Clear 35 1016 28 0 0.89 304 15:19 04.07.2020
6177 Clear 34 1018 15 10000 1.5 20 14:55 04.07.2020
6178 Clear 33 1019 15 10000 1 260 14:36 04.07.2020
6179 Clear 33 1016 31 0 0.89 262 14:18 04.07.2020
6180 Clear 32 1017 32 0 0.45 65 13:41 04.07.2020
6181 Clear 32 1017 37 0 1.72 61 13:19 04.07.2020
6182 Clear 31 1019 18 10000 1.5 350 12:43 04.07.2020
6183 Clear 29 1019 21 10000 1.5 20 12:23 04.07.2020
6184 Clear 29 1018 45 0 0.45 66 11:59 04.07.2020
6185 Clear 28 1018 46 0 0.89 59 11:40 04.07.2020
6186 Clear 27 1019 28 10000 1 0 11:22 04.07.2020
6187 Clear 26 1019 28 10000 1 20 10:54 04.07.2020
6188 Clear 24 1019 28 10000 2.1 30 10:36 04.07.2020
6189 Clear 23 1019 36 10000 2.6 360 10:18 04.07.2020
6190 Clear 23 1019 36 10000 2.1 20 09:40 04.07.2020
6191 Clear 22 1019 43 10000 1.5 30 09:21 04.07.2020
6192 Clear 21 1019 44 10000 1 0 08:51 04.07.2020
6193 Clear 20 1019 44 10000 1 0 08:32 04.07.2020
6194 Clear 19 1019 54 10000 1 60 07:56 04.07.2020
6195 Clear 19 1018 54 10000 2.6 60 07:38 04.07.2020
6196 Clear 19 1018 59 10000 1 0 06:59 04.07.2020
6197 Clear 20 1018 59 10000 2.1 20 06:37 04.07.2020
6198 Clear 19 1018 60 10000 1.5 100 06:18 04.07.2020
6199 Clear 19 1018 58 10000 1 150 05:24 04.07.2020
6200 Clear 20 1018 56 10000 2.1 170 03:49 04.07.2020
6201 Clear 21 1018 54 10000 2.1 150 02:40 04.07.2020
6202 Clear 22 1018 53 10000 2.6 160 01:39 04.07.2020
6203 Clear 23 1018 49 10000 2.6 200 00:48 04.07.2020
6204 Clear 23 1018 47 10000 2.6 200 00:30 04.07.2020
6205 Clear 24 1017 47 10000 3.1 200 23:59 03.07.2020
6206 Clear 24 1017 47 10000 3.1 210 23:39 03.07.2020
6207 Clear 26 1015 46 0 2.24 185 23:18 03.07.2020
6208 Clear 27 1016 44 10000 4.1 200 22:41 03.07.2020
6209 Clear 29 1016 37 10000 4.1 200 22:23 03.07.2020
6210 Clear 29 1014 38 0 1.79 214 21:58 03.07.2020
6211 Clear 30 1014 32 0 2.24 202 21:38 03.07.2020
6212 Clear 31 1016 27 10000 5.7 210 21:19 03.07.2020
6213 Clear 32 1014 29 0 2.24 211 20:43 03.07.2020
6214 Clear 32 1014 32 0 2.68 203 20:25 03.07.2020
6215 Clear 33 1014 32 0 3.58 198 19:56 03.07.2020
6216 Clear 33 1014 32 0 2.68 199 19:38 03.07.2020
6217 Clear 33 1014 34 0 3.13 184 19:18 03.07.2020
6218 Clear 33 1014 34 0 3.58 191 18:42 03.07.2020
6219 Clear 33 1016 12 10000 2.1 240 18:23 03.07.2020
6220 Clear 34 1014 22 0 3.13 207 17:56 03.07.2020
6221 Clear 35 1016 12 10000 2.1 250 17:38 03.07.2020
6222 Clear 34 1016 11 10000 2.1 230 17:19 03.07.2020
6223 Clear 34 1016 11 10000 2.1 230 17:19 03.07.2020
6224 Clear 34 1017 11 10000 1.5 230 16:40 03.07.2020
6225 Clear 33 1017 24 10000 2.6 0 16:20 03.07.2020
6226 Clear 33 1017 24 10000 2.6 0 15:44 03.07.2020
6227 Clear 33 1017 24 10000 2.6 0 15:24 03.07.2020
6228 Clear 32 1017 29 10000 3.1 190 14:57 03.07.2020
6229 Clear 32 1017 29 10000 3.1 190 14:39 03.07.2020
6230 Clear 31 1018 25 10000 2.1 320 14:19 03.07.2020
6231 Clear 31 1018 25 10000 2.1 320 13:47 03.07.2020
6232 Clear 30 1018 25 10000 2.1 320 13:28 03.07.2020
6233 Clear 29 1018 28 10000 1.5 80 12:45 03.07.2020
6234 Clear 28 1018 31 10000 1 0 12:24 03.07.2020
6235 Clear 27 1018 31 10000 1 0 11:58 03.07.2020
6236 Clear 27 1018 31 10000 1 0 11:40 03.07.2020
6237 Clear 26 1018 38 10000 1.5 20 11:21 03.07.2020
6238 Clear 25 1018 38 10000 1.5 20 10:56 03.07.2020
6239 Clear 24 1018 38 10000 1.5 20 10:37 03.07.2020
6240 Clear 23 1018 43 10000 2.6 360 10:19 03.07.2020
6241 Clear 23 1018 43 10000 2.6 360 09:54 03.07.2020
6242 Clear 22 1018 43 10000 2.6 360 09:36 03.07.2020
6243 Clear 20 1017 49 10000 1.5 340 09:18 03.07.2020
6244 Clear 20 1017 49 10000 1.5 340 08:39 03.07.2020
6245 Clear 17 1017 63 10000 0.5 0 08:18 03.07.2020
6246 Clear 19 1017 63 10000 0.5 0 07:48 03.07.2020
6247 Clear 17 1017 63 10000 0.5 0 07:26 03.07.2020
6248 Clear 17 1017 52 0 1.47 9 06:49 03.07.2020
6249 Clear 18 1018 50 0 1.65 343 06:19 03.07.2020
6250 Clear 19 1018 48 0 2.02 334 04:53 03.07.2020
6251 Clear 20 1018 44 0 1.23 318 03:32 03.07.2020
6252 Clear 20 1018 44 0 1.23 318 02:47 03.07.2020
6253 Clear 21 1019 42 0 1.73 319 02:27 03.07.2020
6254 Clear 28 1017 38 10000 3.1 280 01:28 03.07.2020
6255 Clear 28 1016 38 10000 3.1 280 00:50 03.07.2020
6256 Clear 29 1016 38 10000 3.1 280 00:32 03.07.2020
6257 Clear 28 1015 35 10000 2.6 290 23:47 02.07.2020
6258 Clear 30 1014 35 10000 3.1 300 23:20 02.07.2020
6259 Clear 28 1014 35 10000 3.1 300 22:58 02.07.2020
6260 Clear 28 1014 35 10000 3.6 290 22:40 02.07.2020
6261 Clear 32 1013 31 0 0.45 291 22:20 02.07.2020
6262 Clear 33 1012 28 0 1.79 285 21:57 02.07.2020
6263 Clear 33 1012 26 0 1.79 291 21:39 02.07.2020
6264 Clear 34 1012 25 0 1.79 296 21:19 02.07.2020
6265 Clear 34 1012 24 0 2.24 283 20:57 02.07.2020
6266 Clear 34 1012 24 0 2.24 283 20:57 02.07.2020
6267 Clear 35 1012 22 0 2.24 290 20:39 02.07.2020
6268 Clear 35 1012 21 0 2.24 288 20:18 02.07.2020
6269 Clear 36 1011 22 0 2.24 262 19:42 02.07.2020
6270 Clear 36 1011 21 0 3.13 270 19:23 02.07.2020
6271 Clear 36 1012 22 0 3.58 271 18:58 02.07.2020
6272 Clear 36 1012 23 0 2.24 261 18:40 02.07.2020
6273 Clear 36 1012 21 0 2.24 290 18:21 02.07.2020
6274 Clear 36 1012 22 0 2.68 265 17:57 02.07.2020
6275 Clear 36 1012 21 0 1.79 256 17:38 02.07.2020
6276 Clear 35 1014 12 10000 4.1 210 17:18 02.07.2020
6277 Clear 38 1015 12 0 6.91 270 16:42 02.07.2020
6278 Clear 34 1015 33 10000 3.1 170 16:21 02.07.2020
6279 Clear 34 1015 33 10000 3.1 170 15:58 02.07.2020
6280 Clear 33 1015 33 10000 3.1 170 15:38 02.07.2020
6281 Clear 33 1016 35 10000 2.6 230 15:20 02.07.2020
6282 Clear 33 1016 35 10000 2.6 230 14:45 02.07.2020
6283 Clear 32 1016 35 10000 2.6 230 14:23 02.07.2020
6284 Clear 31 1016 48 10000 2.6 220 13:57 02.07.2020
6285 Clear 31 1016 48 10000 2.6 220 13:38 02.07.2020
6286 Clear 30 1017 57 10000 2.1 200 13:19 02.07.2020
6287 Clear 29 1017 57 10000 2.1 200 12:56 02.07.2020
6288 Clear 29 1017 57 10000 2.1 200 12:38 02.07.2020
6289 Clear 28 1016 69 10000 1.5 190 12:19 02.07.2020
6290 Clear 27 1016 69 10000 1.5 190 11:41 02.07.2020
6291 Clear 26 1016 69 10000 1.5 190 11:23 02.07.2020
6292 Clear 25 1016 78 10000 1.5 210 10:45 02.07.2020
6293 Clear 24 1016 78 10000 1.5 210 10:27 02.07.2020
6294 Clear 23 1016 88 10000 0.5 0 09:56 02.07.2020
6295 Clear 23 1016 88 10000 0.5 0 09:37 02.07.2020
6296 Clear 21 1015 88 10000 1 220 09:19 02.07.2020
6297 Clear 21 1015 88 10000 1 220 08:42 02.07.2020
6298 Clear 20 1015 88 10000 1 220 08:22 02.07.2020
6299 Clear 20 1015 93 10000 1.5 160 07:55 02.07.2020
6300 Clear 19 1015 93 10000 1.5 160 07:37 02.07.2020
6301 Clear 20 1015 77 10000 1.5 170 07:18 02.07.2020
6302 Clear 20 1015 77 10000 1.5 160 06:39 02.07.2020
6303 Clear 20 1014 76 10000 2.1 160 06:19 02.07.2020
6304 Clear 20 1014 76 10000 2.6 190 05:43 02.07.2020
6305 Clear 21 1015 72 10000 3.6 210 03:36 02.07.2020
6306 Clear 22 1013 82 0 2.24 194 02:59 02.07.2020
6307 Clear 23 1014 68 10000 4.1 200 00:47 02.07.2020
6308 Clear 24 1014 66 10000 4.6 200 00:23 02.07.2020
6309 Clear 24 1013 66 10000 4.1 200 23:46 01.07.2020
6310 Clear 25 1013 64 10000 4.1 200 23:27 01.07.2020
6311 Clear 26 1013 64 10000 4.6 190 22:57 01.07.2020
6312 Clear 28 1012 64 10000 4.6 190 22:38 01.07.2020
6313 Clear 28 1013 56 10000 4.1 200 22:19 01.07.2020
6314 Clear 29 1011 65 0 3.13 189 21:58 01.07.2020
6315 Clear 29 1011 60 0 2.68 190 21:40 01.07.2020
6316 Clear 30 1013 43 10000 4.6 210 21:22 01.07.2020
6317 Clear 30 1011 49 0 2.68 200 20:57 01.07.2020
6318 Clear 31 1011 47 0 3.13 204 20:39 01.07.2020
6319 Clear 31 1011 42 0 3.13 214 20:20 01.07.2020
6320 Clear 32 1011 38 0 3.58 204 19:54 01.07.2020
6321 Clear 32 1010 36 0 3.13 202 19:36 01.07.2020
6322 Clear 33 1010 37 0 3.13 195 19:18 01.07.2020
6323 Clear 33 1011 38 0 3.58 186 18:42 01.07.2020
6324 Clear 36 1012 19 0 6.97 226 18:21 01.07.2020
6325 Clear 36 1012 19 0 6.97 226 17:57 01.07.2020
6326 Clear 36 1012 19 0 6.97 226 17:38 01.07.2020
6327 Clear 37 1012 17 0 5.69 224 17:19 01.07.2020
6328 Clear 37 1012 17 0 5.69 224 16:46 01.07.2020
6329 Clear 30 1014 48 10000 4.1 200 16:26 01.07.2020
6330 Clear 30 1014 48 10000 4.1 200 15:55 01.07.2020
6331 Clear 30 1014 48 10000 4.1 200 15:37 01.07.2020
6332 Clear 28 1014 54 10000 2.6 200 15:19 01.07.2020
6333 Clear 28 1014 54 10000 2.6 200 14:44 01.07.2020
6334 Clear 26 1015 57 10000 3.1 210 14:21 01.07.2020
6335 Clear 26 1015 57 10000 3.1 210 13:58 01.07.2020
6336 Clear 26 1015 57 10000 3.1 210 13:39 01.07.2020
6337 Clear 27 1015 65 10000 2.6 210 13:20 01.07.2020
6338 Clear 25 1015 65 10000 2.6 210 12:57 01.07.2020
6339 Clear 25 1015 65 10000 2.6 210 12:38 01.07.2020
6340 Clouds 25 1015 73 10000 2.1 170 12:20 01.07.2020
6341 Clouds 24 1015 73 10000 2.1 170 11:42 01.07.2020
6342 Clouds 23 1015 78 10000 2.6 160 11:23 01.07.2020
6343 Clouds 23 1015 78 10000 2.6 160 10:58 01.07.2020
6344 Clouds 23 1015 78 10000 2.6 160 10:40 01.07.2020
6345 Clouds 22 1015 78 10000 2.6 200 10:21 01.07.2020
6346 Clouds 22 1015 78 10000 2.6 200 09:54 01.07.2020
6347 Clouds 22 1015 78 10000 2.6 200 09:36 01.07.2020
6348 Clouds 21 1014 88 10000 1.5 190 09:18 01.07.2020
6349 Clouds 21 1014 88 10000 1.5 190 08:41 01.07.2020
6350 Clouds 21 1014 94 10000 2.1 190 08:21 01.07.2020
6351 Clouds 21 1014 94 10000 2.1 190 07:57 01.07.2020
6352 Clouds 21 1014 94 10000 2.1 190 07:36 01.07.2020
6353 Clear 18 1013 90 0 1.03 163 07:18 01.07.2020
6354 Clear 18 1013 90 0 1.03 163 06:48 01.07.2020
6355 Clear 18 1013 89 0 1.25 184 06:27 01.07.2020
6356 Clouds 22 1013 86 10000 3.6 200 04:32 01.07.2020
6357 Clouds 22 1013 86 10000 3.1 200 03:47 01.07.2020
6358 Clouds 22 1013 85 10000 3.1 200 03:27 01.07.2020
6359 Clear 22 1014 85 10000 3.6 200 02:41 01.07.2020
6360 Clear 22 1014 84 10000 4.1 230 01:47 01.07.2020
6361 Clear 22 1013 83 10000 4.6 210 00:42 01.07.2020
6362 Clear 23 1011 85 0 2.68 207 00:23 01.07.2020
6363 Clear 23 1011 83 0 3.58 212 23:41 30.06.2020
6364 Clear 23 1011 82 0 3.13 210 23:22 30.06.2020
6365 Clear 23 1011 79 0 3.58 210 22:57 30.06.2020
6366 Clear 23 1010 76 0 2.68 202 22:39 30.06.2020
6367 Clear 24 1011 62 10000 6.2 200 22:18 30.06.2020
6368 Clear 26 1011 62 10000 6.2 210 21:41 30.06.2020
6369 Clear 27 1011 47 10000 6.2 220 21:19 30.06.2020
6370 Clear 29 1009 52 0 3.58 198 20:44 30.06.2020
6371 Clear 30 1009 50 0 4.47 209 20:22 30.06.2020
6372 Clear 31 1009 51 0 4.02 222 20:00 30.06.2020
6373 Clear 31 1008 50 0 3.58 218 19:41 30.06.2020
6374 Clear 32 1008 49 0 3.58 228 19:19 30.06.2020
6375 Clear 33 1008 45 0 4.47 216 18:43 30.06.2020
6376 Clear 32 1010 28 10000 5.7 240 18:21 30.06.2020
6377 Clear 34 1008 40 0 3.13 230 17:58 30.06.2020
6378 Clear 34 1009 40 0 3.58 223 17:37 30.06.2020
6379 Clear 35 1009 38 0 3.13 256 17:18 30.06.2020
6380 Clear 35 1009 38 0 3.13 256 17:18 30.06.2020
6381 Clear 34 1011 38 10000 5.7 210 16:43 30.06.2020
6382 Clear 35 1011 38 10000 5.7 210 16:23 30.06.2020
6383 Clear 34 1011 38 10000 5.7 210 15:57 30.06.2020
6384 Clear 35 1011 38 10000 5.7 210 15:39 30.06.2020
6385 Clear 34 1012 31 10000 4.1 210 15:21 30.06.2020
6386 Clear 33 1012 31 10000 4.1 210 14:54 30.06.2020
6387 Clear 33 1012 31 10000 4.1 210 14:36 30.06.2020
6388 Clear 33 1012 35 10000 4.1 220 14:18 30.06.2020
6389 Clear 31 1012 35 10000 4.1 220 13:40 30.06.2020
6390 Clear 31 1012 33 10000 2.6 200 13:20 30.06.2020
6391 Clear 31 1012 33 10000 2.6 200 12:58 30.06.2020
6392 Clear 31 1012 33 10000 2.6 200 12:39 30.06.2020
6393 Clear 31 1012 37 10000 2.6 270 12:20 30.06.2020
6394 Clear 30 1012 37 10000 2.6 270 11:58 30.06.2020
6395 Clear 29 1012 37 10000 2.6 270 11:38 30.06.2020
6396 Clear 28 1012 47 10000 2.1 230 11:19 30.06.2020
6397 Clear 28 1012 47 10000 2.1 230 10:58 30.06.2020
6398 Clear 37 1012 29 0 1.34 230 16:39 28.06.2020
6399 Clear 36 1013 30 0 0.89 185 16:20 28.06.2020
6400 Clear 36 1013 32 0 1.15 181 15:56 28.06.2020
6401 Clear 35 1013 34 0 0.45 281 15:37 28.06.2020
6402 Clear 35 1013 33 0 0.89 240 15:18 28.06.2020
6403 Clear 34 1016 19 10000 1.5 220 14:44 28.06.2020
6404 Clear 34 1014 37 0 0.45 1 14:25 28.06.2020
6405 Clear 33 1016 22 10000 1 220 13:57 28.06.2020
6406 Clear 33 1014 41 0 0.89 354 13:37 28.06.2020
6407 Clear 33 1015 43 0 1.04 73 13:19 28.06.2020
6408 Clear 32 1015 47 0 1.04 73 12:56 28.06.2020
6409 Clear 31 1014 47 0 0.89 345 12:37 28.06.2020
6410 Clear 30 1015 50 0 0.45 329 12:18 28.06.2020
6411 Clear 30 1017 32 10000 0.5 360 11:55 28.06.2020
6412 Clear 29 1017 32 10000 1.5 350 11:37 28.06.2020
6413 Clear 28 1017 40 10000 1.5 10 11:19 28.06.2020
6414 -273 0 0 0 0 0 10:42 28.06.2020
6415 Clear 26 1017 48 10000 2.33 39 10:23 28.06.2020
6416 Clear 25 1017 48 10000 0.5 0 09:59 28.06.2020
6417 Clear 25 1017 48 10000 1 0 09:39 28.06.2020
6418 Clear 23 1016 57 10000 1 340 09:20 28.06.2020
6419 Clear 22 1016 57 10000 0.5 340 08:45 28.06.2020
6420 Clouds 22 1016 67 10000 0.5 340 08:25 28.06.2020
6421 Clouds 21 1016 67 10000 0.5 120 07:46 28.06.2020
6422 Clouds 21 1016 72 10000 0.5 120 07:28 28.06.2020
6423 Clouds 21 1016 72 10000 1 130 06:41 28.06.2020
6424 Clouds 21 1016 72 10000 0.5 0 06:22 28.06.2020
6425 Clouds 21 1016 70 10000 1.13 56 05:26 28.06.2020
6426 Clear 22 1016 67 10000 2.1 160 03:32 28.06.2020
6427 Clear 22 1014 77 0 1.34 192 02:39 28.06.2020
6428 Clear 22 1014 77 0 2.24 176 01:53 28.06.2020
6429 Clear 23 1014 76 0 1.79 181 01:26 28.06.2020
6430 Clear 23 1014 73 0 2.24 178 00:48 28.06.2020
6431 Clear 23 1014 72 0 2.24 183 00:24 28.06.2020
6432 Clear 24 1014 66 0 2.24 190 23:42 27.06.2020
6433 Clear 25 1014 64 0 2.68 183 23:23 27.06.2020
6434 Clear 25 1013 62 0 2.68 189 22:58 27.06.2020
6435 Clear 26 1013 60 0 3.58 197 22:40 27.06.2020
6436 Clear 27 1013 56 0 2.68 190 22:20 27.06.2020
6437 Clear 28 1013 53 0 2.68 202 21:55 27.06.2020
6438 Clear 28 1013 51 0 2.24 202 21:37 27.06.2020
6439 Clear 29 1014 45 10000 4.6 210 21:18 27.06.2020
6440 Clear 30 1012 48 0 3.58 209 20:42 27.06.2020
6441 Clear 30 1012 46 0 3.13 235 20:19 27.06.2020
6442 Clear 31 1012 46 0 3.58 222 19:55 27.06.2020
6443 Clear 31 1012 46 0 3.58 219 19:36 27.06.2020
6444 Clear 31 1013 45 0 4.02 213 19:18 27.06.2020
6445 Clear 32 1013 45 0 4.02 186 18:43 27.06.2020
6446 Clear 35 1014 21 0 5.7 237 18:22 27.06.2020
6447 Clear 32 1015 21 10000 2.6 220 17:57 27.06.2020
6448 Clear 32 1015 21 10000 3.1 250 17:38 27.06.2020
6449 Clear 33 1015 18 10000 2.6 270 17:19 27.06.2020
6450 Clear 32 1016 18 10000 1.5 300 16:43 27.06.2020
6451 Clear 32 1016 20 10000 1.5 300 16:25 27.06.2020
6452 Clear 32 1016 20 10000 3.1 220 15:55 27.06.2020
6453 Clear 31 1016 20 10000 1.5 240 15:37 27.06.2020
6454 Clouds 31 1014 41 0 1.34 221 15:18 27.06.2020
6455 Clouds 30 1015 41 0 0.45 212 14:41 27.06.2020
6456 Clear 30 1015 43 0 0.89 200 14:23 27.06.2020
6457 Clear 29 1015 44 0 0.89 29 13:57 27.06.2020
6458 Clear 30 1017 24 10000 1 80 13:37 27.06.2020
6459 Clear 28 1016 44 0 0.45 222 13:19 27.06.2020
6460 Clear 28 1016 48 0 0.82 217 12:56 27.06.2020
6461 Clear 27 1018 27 10000 1 90 12:37 27.06.2020
6462 Clear 27 1017 32 10000 0.5 70 12:19 27.06.2020
6463 Clear 26 1017 32 10000 1.5 30 11:42 27.06.2020
6464 Clear 25 1017 39 10000 1.5 30 11:24 27.06.2020
6465 Clear 24 1018 39 10000 1 90 10:59 27.06.2020
6466 Clear 23 1018 39 10000 1 0 10:38 27.06.2020
6467 Clear 23 1018 47 10000 1.41 55 10:18 27.06.2020
6468 Clear 21 1017 47 10000 0.5 100 09:41 27.06.2020
6469 Clear 21 1017 56 10000 0.5 100 09:22 27.06.2020
6470 Clear 19 1017 55 10000 1 0 08:57 27.06.2020
6471 Clear 19 1017 55 10000 1.68 27 08:39 27.06.2020
6472 Clear 19 1017 66 10000 1 140 08:20 27.06.2020
6473 Clear 18 1017 66 10000 1 170 07:41 27.06.2020
6474 Clear 18 1017 72 10000 1.5 160 07:23 27.06.2020
6475 Clear 18 1016 72 10000 1.5 150 06:38 27.06.2020
6476 Clear 18 1016 72 10000 1.5 150 06:20 27.06.2020
6477 Clear 19 1016 65 10000 2.1 170 04:23 27.06.2020
6478 Clear 19 1016 65 10000 3.6 200 03:52 27.06.2020
6479 Clear 19 1015 82 0 2.24 188 02:49 27.06.2020
6480 Clear 19 1015 82 0 2.68 190 02:30 27.06.2020
6481 Clouds 20 1015 80 0 2.68 191 01:43 27.06.2020
6482 Clouds 20 1016 69 10000 3.1 190 00:57 27.06.2020
6483 Clouds 21 1016 69 10000 3.6 210 00:30 27.06.2020
6484 Clouds 22 1015 68 10000 3.1 210 23:44 26.06.2020
6485 Clear 22 1015 65 10000 3.1 210 23:25 26.06.2020
6486 Clear 23 1014 57 0 2.68 188 22:56 26.06.2020
6487 Clear 23 1014 55 0 2.68 184 22:38 26.06.2020
6488 Clear 24 1014 57 10000 5.1 200 22:19 26.06.2020
6489 Clear 25 1013 53 0 3.13 200 21:57 26.06.2020
6490 Clear 26 1013 53 0 4.47 211 21:37 26.06.2020
6491 Clear 26 1013 52 0 3.58 213 21:19 26.06.2020
6492 Clear 27 1012 50 0 3.13 231 20:43 26.06.2020
6493 Clouds 28 1012 49 0 4.02 229 20:23 26.06.2020
6494 Clouds 29 1012 45 0 3.58 227 19:47 26.06.2020
6495 Clouds 29 1012 44 0 4.47 212 19:24 26.06.2020
6496 Clouds 29 1012 44 0 3.58 223 18:58 26.06.2020
6497 Clouds 30 1012 43 0 4.92 210 18:38 26.06.2020
6498 Clouds 33 1014 20 0 7.5 244 18:19 26.06.2020
6499 Clouds 30 1014 20 10000 4.1 200 17:44 26.06.2020
6500 Clouds 34 1014 17 0 6.82 242 17:25 26.06.2020
6501 Clouds 34 1014 17 0 6.82 242 16:49 26.06.2020
6502 Clouds 29 1016 48 10000 3.1 210 16:28 26.06.2020
6503 Clouds 29 1016 48 10000 3.1 210 15:58 26.06.2020
6504 Clouds 29 1016 48 10000 3.1 210 15:39 26.06.2020
6505 Clouds 27 1016 54 10000 3.6 220 15:21 26.06.2020
6506 Clouds 27 1016 54 10000 3.6 220 14:57 26.06.2020
6507 Clouds 27 1016 54 10000 3.6 220 14:57 26.06.2020
6508 Clouds 27 1016 54 10000 3.6 220 14:38 26.06.2020
6509 Clouds 26 1016 61 10000 2.1 0 14:20 26.06.2020
6510 Clouds 25 1016 61 10000 2.1 0 13:44 26.06.2020
6511 Clouds 25 1016 65 10000 2.6 220 13:23 26.06.2020
6512 Clouds 25 1016 65 10000 2.6 220 12:56 26.06.2020
6513 Clouds 25 1016 65 10000 2.6 220 12:37 26.06.2020
6514 Clouds 23 1016 78 10000 2.1 220 12:18 26.06.2020
6515 Clouds 23 1016 78 10000 2.1 220 11:56 26.06.2020
6516 Clouds 22 1016 78 10000 2.1 220 11:37 26.06.2020
6517 Clouds 22 1016 83 10000 2.6 230 11:18 26.06.2020
6518 Clouds 22 1016 83 10000 2.6 230 10:56 26.06.2020
6519 Clouds 22 1016 83 10000 2.6 230 10:37 26.06.2020
6520 Clouds 22 1016 83 10000 2.6 230 10:37 26.06.2020
6521 Clouds 22 1016 83 10000 2.1 220 10:18 26.06.2020
6522 Clouds 21 1016 83 10000 2.1 220 09:41 26.06.2020
6523 Clouds 21 1016 83 10000 2.1 220 09:22 26.06.2020
6524 Clouds 21 1016 83 10000 2.1 210 08:48 26.06.2020
6525 Clouds 20 1015 88 10000 2.1 190 08:27 26.06.2020
6526 Clouds 20 1015 88 10000 2.1 190 07:48 26.06.2020
6527 Clouds 21 1015 88 10000 2.1 190 07:24 26.06.2020
6528 Clouds 21 1015 95 10000 2.6 190 06:54 26.06.2020
6529 Clouds 21 1015 95 10000 3.6 180 06:33 26.06.2020
6530 Clear 18 1015 96 0 1.37 197 05:55 26.06.2020
6531 Clear 18 1015 96 0 1.82 195 05:29 26.06.2020
6532 Clear 20 1016 94 10000 2.1 200 02:40 26.06.2020
6533 Clear 21 1016 93 10000 2.1 200 02:21 26.06.2020
6534 Clear 21 1015 92 10000 3.1 210 00:55 26.06.2020
6535 Clear 22 1015 92 10000 4.1 200 00:32 26.06.2020
6536 Clear 23 1014 71 0 2.68 210 23:48 25.06.2020
6537 Clear 23 1014 69 0 2.68 209 23:23 25.06.2020
6538 Clear 24 1013 67 0 2.24 204 22:59 25.06.2020
6539 Clear 24 1013 67 0 3.13 207 22:39 25.06.2020
6540 Clear 25 1014 65 10000 5.7 220 22:20 25.06.2020
6541 Clear 25 1013 64 0 2.68 225 21:58 25.06.2020
6542 Clear 26 1012 63 0 3.13 233 21:40 25.06.2020
6543 Clear 26 1013 52 10000 5.1 220 21:21 25.06.2020
6544 Clear 27 1012 59 0 3.13 226 20:57 25.06.2020
6545 Clear 27 1012 59 0 3.13 240 20:39 25.06.2020
6546 Clear 28 1012 57 0 2.68 228 20:21 25.06.2020
6547 Clear 28 1012 57 0 3.13 236 19:56 25.06.2020
6548 Clear 28 1012 56 0 3.13 225 19:37 25.06.2020
6549 Clear 28 1012 57 0 3.13 213 19:18 25.06.2020
6550 Clear 29 1012 56 0 3.13 212 18:40 25.06.2020
6551 Clear 28 1014 42 10000 5.7 200 18:21 25.06.2020
6552 Clear 29 1014 42 10000 4.6 190 17:46 25.06.2020
6553 Clear 32 1013 40 0 6.66 233 17:21 25.06.2020
6554 Clear 32 1013 40 0 6.66 233 16:59 25.06.2020
6555 Clear 32 1013 40 0 6.66 233 16:40 25.06.2020
6556 Clouds 28 1015 54 10000 5.1 220 16:20 25.06.2020
6557 Clouds 28 1015 54 10000 5.1 220 15:45 25.06.2020
6558 Clouds 28 1015 54 10000 5.1 220 15:27 25.06.2020
6559 Clouds 27 1015 57 10000 3.1 220 14:57 25.06.2020
6560 Clouds 27 1015 57 10000 3.1 220 14:39 25.06.2020
6561 Clouds 28 1015 57 10000 3.1 230 14:21 25.06.2020
6562 Clouds 27 1015 57 10000 3.1 230 13:55 25.06.2020
6563 Clouds 27 1015 57 10000 3.1 230 13:37 25.06.2020
6564 Clouds 27 1016 65 10000 3.6 220 13:19 25.06.2020
6565 Clouds 26 1016 65 10000 3.6 220 12:43 25.06.2020
6566 Clouds 26 1015 69 10000 3.1 220 12:20 25.06.2020
6567 Clouds 25 1015 69 10000 3.1 220 11:44 25.06.2020
6568 Clouds 24 1015 69 10000 3.1 220 11:25 25.06.2020
6569 Clouds 24 1015 78 10000 3.1 230 10:58 25.06.2020
6570 Clouds 23 1015 78 10000 3.1 230 10:40 25.06.2020
6571 Clear 23 1015 78 10000 1 0 10:21 25.06.2020
6572 Clear 22 1015 78 10000 1 0 09:41 25.06.2020
6573 Clear 22 1015 78 10000 1 0 09:23 25.06.2020
6574 Clear 21 1014 82 10000 1 270 08:47 25.06.2020
6575 Clear 20 1014 82 10000 1.5 190 08:20 25.06.2020
6576 Clear 20 1014 82 10000 1.5 190 07:46 25.06.2020
6577 Clear 21 1014 82 10000 1.5 190 07:28 25.06.2020
6578 Clear 21 1014 72 10000 2.1 240 06:54 25.06.2020
6579 Clear 19 1014 69 0 1.28 256 06:27 25.06.2020
6580 Clear 19 1014 69 0 1.28 256 05:51 25.06.2020
6581 Clear 20 1014 68 0 0.69 292 04:29 25.06.2020
6582 Clear 23 1015 67 10000 2.6 220 03:35 25.06.2020
6583 Clear 23 1014 67 10000 3.1 230 02:44 25.06.2020
6584 Clear 23 1014 66 10000 3.1 230 02:18 25.06.2020
6585 Clear 21 1015 65 0 2.47 264 01:29 25.06.2020
6586 Clear 21 1015 65 0 2.47 264 00:47 25.06.2020
6587 Clear 26 1014 63 10000 3.1 220 00:22 25.06.2020
6588 Clear 26 1014 63 10000 3.1 220 23:45 24.06.2020
6589 Clear 27 1014 60 10000 3.1 220 23:26 24.06.2020
6590 Clear 27 1013 60 10000 4.1 230 22:59 24.06.2020
6591 Clear 28 1013 60 10000 4.1 230 22:41 24.06.2020
6592 Clear 29 1011 48 0 2.24 233 22:20 24.06.2020
6593 Clear 29 1011 48 0 3.13 237 21:56 24.06.2020
6594 Clear 29 1011 47 0 2.68 245 21:37 24.06.2020
6595 Clear 29 1011 47 0 3.58 244 21:19 24.06.2020
6596 Clear 30 1010 44 0 3.13 256 20:58 24.06.2020
6597 Clear 30 1011 45 0 3.58 251 20:39 24.06.2020
6598 Clear 31 1010 43 0 3.58 245 20:20 24.06.2020
6599 Clear 31 1010 43 0 3.13 243 19:57 24.06.2020
6600 Clear 32 1010 44 0 3.58 255 19:38 24.06.2020
6601 Clear 32 1010 42 0 2.24 236 19:19 24.06.2020
6602 Clear 32 1010 42 0 3.58 225 18:58 24.06.2020
6603 Clear 33 1010 41 0 2.68 231 18:39 24.06.2020
6604 Clear 35 1012 25 0 7.08 242 18:20 24.06.2020
6605 Clear 35 1012 25 0 7.08 242 17:55 24.06.2020
6606 Clear 35 1012 25 0 7.08 242 17:36 24.06.2020
6607 Clear 36 1013 21 0 5.45 231 17:18 24.06.2020
6608 Clear 36 1013 21 0 5.45 231 16:55 24.06.2020
6609 Clear 33 1013 29 10000 1.5 0 16:37 24.06.2020
6610 Clear 34 1013 29 10000 1.5 0 16:19 24.06.2020
6611 Clear 34 1013 29 10000 1.5 0 15:54 24.06.2020
6612 Clear 33 1013 29 10000 1.5 0 15:36 24.06.2020
6613 Clear 33 1014 33 10000 3.6 220 15:18 24.06.2020
6614 Clear 32 1014 33 10000 3.6 220 14:40 24.06.2020
6615 Clear 32 1014 37 10000 3.1 220 14:22 24.06.2020
6616 Clear 31 1014 37 10000 3.1 220 13:42 24.06.2020
6617 Clear 31 1014 42 10000 2.6 230 13:21 24.06.2020
6618 Clear 31 1014 42 10000 2.6 230 12:46 24.06.2020
6619 Clear 29 1014 48 10000 2.1 230 12:22 24.06.2020
6620 Clear 29 1014 48 10000 2.1 230 11:59 24.06.2020
6621 Clear 29 1014 48 10000 2.1 230 11:41 24.06.2020
6622 Clear 28 1014 50 10000 2.1 210 11:23 24.06.2020
6623 Clear 28 1014 50 10000 2.1 210 10:54 24.06.2020
6624 Clear 28 1014 50 10000 2.1 210 10:36 24.06.2020
6625 Clear 27 1014 57 10000 0.5 0 10:18 24.06.2020
6626 Clear 26 1014 57 10000 0.5 0 09:42 24.06.2020
6627 Clear 20 1014 72 10000 1 260 09:21 24.06.2020
6628 Clear 20 1014 72 10000 1 260 08:41 24.06.2020
6629 Clouds 21 1014 72 10000 1 150 08:20 24.06.2020
6630 Clouds 22 1014 72 10000 1 150 07:50 24.06.2020
6631 Clouds 19 1014 72 10000 1 150 07:29 24.06.2020
6632 Clouds 20 1013 65 0 1.14 220 06:49 24.06.2020
6633 Clouds 21 1013 63 0 2 226 06:25 24.06.2020
6634 Clouds 21 1013 63 0 2 226 05:48 24.06.2020
6635 Clouds 26 1013 62 10000 1.5 260 04:42 24.06.2020
6636 Clouds 26 1013 59 10000 1.5 240 03:51 24.06.2020
6637 Clouds 25 1013 56 10000 1.5 240 03:33 24.06.2020
6638 Clouds 26 1014 56 10000 4.1 290 02:43 24.06.2020
6639 Clouds 26 1013 52 0 0.89 296 01:29 24.06.2020
6640 Clouds 26 1012 50 0 0.45 261 00:47 24.06.2020
6641 Clouds 27 1012 50 0 1.34 256 00:27 24.06.2020
6642 Clouds 28 1012 48 0 2.24 280 23:44 23.06.2020
6643 Clouds 28 1011 47 0 2.68 299 23:19 23.06.2020
6644 Clouds 29 1012 49 10000 6.2 260 22:42 23.06.2020
6645 Rain 30 1011 42 10000 5.1 270 22:19 23.06.2020
6646 Rain 32 1011 42 10000 5.1 270 21:59 23.06.2020
6647 Clouds 32 1010 39 0 2.68 271 21:40 23.06.2020
6648 Clouds 33 1010 30 10000 4.6 270 21:19 23.06.2020
6649 Clouds 34 1010 30 10000 5.7 250 20:55 23.06.2020
6650 Clouds 34 1008 31 0 2.24 271 20:37 23.06.2020
6651 Clouds 35 1008 31 0 2.68 258 20:18 23.06.2020
6652 Clouds 36 1009 31 0 3.58 239 19:44 23.06.2020
6653 Clouds 36 1009 29 0 3.58 251 19:26 23.06.2020
6654 Clouds 36 1009 28 0 3.13 245 18:42 23.06.2020
6655 Clear 39 1011 14 0 3.61 201 18:19 23.06.2020
6656 Clouds 38 1010 14 10000 4.6 230 17:57 23.06.2020
6657 Clouds 38 1010 14 10000 4.6 230 17:38 23.06.2020
6658 Clouds 38 1010 12 10000 3.6 280 17:20 23.06.2020
6659 Clouds 38 1010 12 10000 3.6 280 17:20 23.06.2020
6660 Clear 38 1009 26 0 2.68 184 16:55 23.06.2020
6661 Clear 37 1011 22 10000 4.6 220 16:36 23.06.2020
6662 Clear 38 1011 22 10000 4.6 220 16:18 23.06.2020
6663 Clear 38 1011 22 10000 4.6 220 16:18 23.06.2020
6664 Clear 38 1011 22 10000 4.6 220 15:43 23.06.2020
6665 Clear 38 1011 22 10000 4.6 220 15:24 23.06.2020
6666 Clear 37 1012 18 10000 2.1 50 14:56 23.06.2020
6667 Clear 37 1012 18 10000 2.1 50 14:38 23.06.2020
6668 Clear 37 1012 20 10000 2.6 360 14:18 23.06.2020
6669 Clear 36 1012 20 10000 2.6 360 13:54 23.06.2020
6670 Clear 36 1012 20 10000 2.6 360 13:36 23.06.2020
6671 Clear 35 1012 27 10000 3.1 350 13:18 23.06.2020
6672 Clear 34 1012 27 10000 3.1 350 12:40 23.06.2020
6673 Clear 33 1013 33 10000 2.1 10 12:21 23.06.2020
6674 Clear 32 1013 33 10000 2.1 10 11:44 23.06.2020
6675 Clear 30 1013 33 10000 2.1 10 11:23 23.06.2020
6676 Clear 29 1013 36 10000 3.6 10 10:59 23.06.2020
6677 Clear 28 1013 36 10000 3.6 10 10:41 23.06.2020
6678 Clear 26 1013 41 10000 3.1 10 10:22 23.06.2020
6679 Clear 26 1013 41 10000 3.1 10 09:57 23.06.2020
6680 Clear 26 1013 41 10000 3.1 10 09:38 23.06.2020
6681 Clear 22 1013 49 10000 1.5 10 09:20 23.06.2020
6682 Clear 23 1013 49 10000 1.5 10 08:47 23.06.2020
6683 Clear 23 1013 49 10000 1.5 10 08:26 23.06.2020
6684 Clear 23 1013 46 10000 3.1 350 07:56 23.06.2020
6685 Clear 23 1013 46 10000 3.1 350 07:38 23.06.2020
6686 Clear 23 1013 40 10000 2.6 360 07:19 23.06.2020
6687 Clear 24 1013 40 10000 1 310 06:43 23.06.2020
6688 Clear 23 1013 38 10000 1 310 06:25 23.06.2020
6689 Clear 24 1013 36 10000 2.1 300 05:29 23.06.2020
6690 Clear 24 1014 32 0 0.18 307 03:23 23.06.2020
6691 Clear 24 1014 32 0 0.18 307 02:53 23.06.2020
6692 Clear 24 1014 32 0 1.16 354 02:34 23.06.2020
6693 Clear 24 1014 32 0 1.33 329 01:46 23.06.2020
6694 Clear 28 1014 31 10000 0.5 330 01:25 23.06.2020
6695 Clear 25 1014 31 0 2.26 339 00:53 23.06.2020
6696 Clear 29 1014 31 10000 1.5 240 00:22 23.06.2020
6697 Clear 29 1013 31 10000 2.6 220 23:55 22.06.2020
6698 Clear 29 1013 31 10000 2.6 220 23:55 22.06.2020
6699 Clear 30 1013 31 10000 2.6 220 23:37 22.06.2020
6700 Clear 31 1013 30 10000 3.6 230 23:18 22.06.2020
6701 Clear 31 1013 30 10000 3.6 230 22:55 22.06.2020
6702 Clear 34 1012 30